<?xml version='1.0' encoding='UTF-8'?><gpx version="1.1" creator="JPX - https://github.com/jenetics/jpx" xmlns="http://www.topografix.com/GPX/1/1"><trk><trkseg><trkpt lat="40.4520638" lon="0.4027277"><ele>48.99999999999999</ele><time>2026-05-01T12:44:06.999Z</time></trkpt><trkpt lat="40.4521428" lon="0.4027515"><ele>49.0</ele><time>2026-05-01T12:44:11Z</time></trkpt><trkpt lat="40.4521461" lon="0.4028574"><ele>49.0</ele><time>2026-05-01T12:44:12.999Z</time></trkpt><trkpt lat="40.4521037" lon="0.4029353"><ele>49.0</ele><time>2026-05-01T12:44:15Z</time></trkpt><trkpt lat="40.4520794" lon="0.4030299"><ele>48.99999999999999</ele><time>2026-05-01T12:44:17.999Z</time></trkpt><trkpt lat="40.4521541" lon="0.4030918"><ele>49.0</ele><time>2026-05-01T12:44:20.999Z</time></trkpt><trkpt lat="40.452272" lon="0.4030157"><ele>48.99999999999999</ele><time>2026-05-01T12:44:23.999Z</time></trkpt><trkpt lat="40.4523404" lon="0.4029466"><ele>49.0</ele><time>2026-05-01T12:44:25.999Z</time></trkpt><trkpt lat="40.4523596" lon="0.4028164"><ele>49.0</ele><time>2026-05-01T12:44:27.999Z</time></trkpt><trkpt lat="40.452324" lon="0.4027473"><ele>49.0</ele><time>2026-05-01T12:44:28.999Z</time></trkpt><trkpt lat="40.4522746" lon="0.4026818"><ele>48.99999999999999</ele><time>2026-05-01T12:44:29.999Z</time></trkpt><trkpt lat="40.4521986" lon="0.4026228"><ele>49.0</ele><time>2026-05-01T12:44:31Z</time></trkpt><trkpt lat="40.4521095" lon="0.402548"><ele>49.0</ele><time>2026-05-01T12:44:32Z</time></trkpt><trkpt lat="40.4520235" lon="0.4024723"><ele>49.0</ele><time>2026-05-01T12:44:33Z</time></trkpt><trkpt lat="40.4519218" lon="0.4023847"><ele>49.0</ele><time>2026-05-01T12:44:33.999Z</time></trkpt><trkpt lat="40.4518194" lon="0.4023026"><ele>49.0</ele><time>2026-05-01T12:44:34.999Z</time></trkpt><trkpt lat="40.4517085" lon="0.4022166"><ele>49.5</ele><time>2026-05-01T12:44:36Z</time></trkpt><trkpt lat="40.4515989" lon="0.4021304"><ele>50.0</ele><time>2026-05-01T12:44:36.999Z</time></trkpt><trkpt lat="40.4514915" lon="0.4020374"><ele>50.5</ele><time>2026-05-01T12:44:37.999Z</time></trkpt><trkpt lat="40.4513834" lon="0.4019478"><ele>51.0</ele><time>2026-05-01T12:44:38.999Z</time></trkpt><trkpt lat="40.4512661" lon="0.4018637"><ele>51.25</ele><time>2026-05-01T12:44:39.999Z</time></trkpt><trkpt lat="40.4511503" lon="0.4017732"><ele>51.5</ele><time>2026-05-01T12:44:41Z</time></trkpt><trkpt lat="40.4510351" lon="0.401681"><ele>51.75</ele><time>2026-05-01T12:44:41.999Z</time></trkpt><trkpt lat="40.45092" lon="0.4015888"><ele>52.0</ele><time>2026-05-01T12:44:42.999Z</time></trkpt><trkpt lat="40.450803" lon="0.4014906"><ele>52.0</ele><time>2026-05-01T12:44:43.999Z</time></trkpt><trkpt lat="40.4506855" lon="0.4013856"><ele>52.0</ele><time>2026-05-01T12:44:44.999Z</time></trkpt><trkpt lat="40.4505632" lon="0.4012743"><ele>52.0</ele><time>2026-05-01T12:44:46Z</time></trkpt><trkpt lat="40.4504474" lon="0.4011638"><ele>52.0</ele><time>2026-05-01T12:44:46.999Z</time></trkpt><trkpt lat="40.4503413" lon="0.4010599"><ele>52.25</ele><time>2026-05-01T12:44:47.999Z</time></trkpt><trkpt lat="40.4502261" lon="0.4009464"><ele>52.5</ele><time>2026-05-01T12:44:48.999Z</time></trkpt><trkpt lat="40.4501103" lon="0.4008302"><ele>52.75</ele><time>2026-05-01T12:44:49.999Z</time></trkpt><trkpt lat="40.4499884" lon="0.4007049"><ele>53.0</ele><time>2026-05-01T12:44:50.999Z</time></trkpt><trkpt lat="40.4498603" lon="0.4005894"><ele>53.0</ele><time>2026-05-01T12:44:51.999Z</time></trkpt><trkpt lat="40.449731" lon="0.4004585"><ele>53.0</ele><time>2026-05-01T12:44:52.999Z</time></trkpt><trkpt lat="40.4495972" lon="0.4003357"><ele>53.0</ele><time>2026-05-01T12:44:53.999Z</time></trkpt><trkpt lat="40.4494616" lon="0.4002113"><ele>53.0</ele><time>2026-05-01T12:44:55Z</time></trkpt><trkpt lat="40.4493175" lon="0.4000823"><ele>53.0</ele><time>2026-05-01T12:44:55.999Z</time></trkpt><trkpt lat="40.4491763" lon="0.3999453"><ele>53.0</ele><time>2026-05-01T12:44:56.999Z</time></trkpt><trkpt lat="40.4490413" lon="0.399813"><ele>53.0</ele><time>2026-05-01T12:44:57.999Z</time></trkpt><trkpt lat="40.448916" lon="0.3996823"><ele>53.0</ele><time>2026-05-01T12:44:58.999Z</time></trkpt><trkpt lat="40.4487908" lon="0.3995723"><ele>53.0</ele><time>2026-05-01T12:44:59.999Z</time></trkpt><trkpt lat="40.4486668" lon="0.3994637"><ele>53.333333333333336</ele><time>2026-05-01T12:45:00.999Z</time></trkpt><trkpt lat="40.4485344" lon="0.3993594"><ele>53.66666666666667</ele><time>2026-05-01T12:45:01.999Z</time></trkpt><trkpt lat="40.4484008" lon="0.3992568"><ele>54.0</ele><time>2026-05-01T12:45:02.999Z</time></trkpt><trkpt lat="40.4482647" lon="0.3991421"><ele>54.0</ele><time>2026-05-01T12:45:03.999Z</time></trkpt><trkpt lat="40.4481254" lon="0.3990286"><ele>54.0</ele><time>2026-05-01T12:45:05Z</time></trkpt><trkpt lat="40.447991" lon="0.3989248"><ele>54.0</ele><time>2026-05-01T12:45:06Z</time></trkpt><trkpt lat="40.4478644" lon="0.3988181"><ele>54.25</ele><time>2026-05-01T12:45:06.999Z</time></trkpt><trkpt lat="40.4477474" lon="0.3987257"><ele>54.5</ele><time>2026-05-01T12:45:08Z</time></trkpt><trkpt lat="40.4476346" lon="0.3986313"><ele>54.75</ele><time>2026-05-01T12:45:09Z</time></trkpt><trkpt lat="40.4475318" lon="0.3985434"><ele>55.0</ele><time>2026-05-01T12:45:09.999Z</time></trkpt><trkpt lat="40.4474295" lon="0.3984591"><ele>55.0</ele><time>2026-05-01T12:45:10.999Z</time></trkpt><trkpt lat="40.4473304" lon="0.3983797"><ele>55.0</ele><time>2026-05-01T12:45:11.999Z</time></trkpt><trkpt lat="40.4472286" lon="0.3982972"><ele>55.0</ele><time>2026-05-01T12:45:12.999Z</time></trkpt><trkpt lat="40.4471192" lon="0.398208"><ele>55.0</ele><time>2026-05-01T12:45:13.999Z</time></trkpt><trkpt lat="40.4470081" lon="0.3981167"><ele>54.75</ele><time>2026-05-01T12:45:14.999Z</time></trkpt><trkpt lat="40.4468853" lon="0.3980254"><ele>54.5</ele><time>2026-05-01T12:45:15.999Z</time></trkpt><trkpt lat="40.4467541" lon="0.397949"><ele>54.25</ele><time>2026-05-01T12:45:16.999Z</time></trkpt><trkpt lat="40.4466045" lon="0.3978796"><ele>54.0</ele><time>2026-05-01T12:45:17.999Z</time></trkpt><trkpt lat="40.4464405" lon="0.3978169"><ele>53.33333333333333</ele><time>2026-05-01T12:45:18.999Z</time></trkpt><trkpt lat="40.4462795" lon="0.3977457"><ele>52.666666666666664</ele><time>2026-05-01T12:45:20Z</time></trkpt><trkpt lat="40.4461187" lon="0.3976809"><ele>52.0</ele><time>2026-05-01T12:45:20.999Z</time></trkpt><trkpt lat="40.4459555" lon="0.3976201"><ele>52.0</ele><time>2026-05-01T12:45:21.999Z</time></trkpt><trkpt lat="40.445801" lon="0.3975529"><ele>52.0</ele><time>2026-05-01T12:45:23Z</time></trkpt><trkpt lat="40.4456404" lon="0.3974912"><ele>52.0</ele><time>2026-05-01T12:45:23.999Z</time></trkpt><trkpt lat="40.4454811" lon="0.3974366"><ele>52.0</ele><time>2026-05-01T12:45:25Z</time></trkpt><trkpt lat="40.445332" lon="0.3973775"><ele>52.0</ele><time>2026-05-01T12:45:25.999Z</time></trkpt><trkpt lat="40.4451826" lon="0.3973215"><ele>52.0</ele><time>2026-05-01T12:45:27Z</time></trkpt><trkpt lat="40.4450327" lon="0.3972672"><ele>52.0</ele><time>2026-05-01T12:45:27.999Z</time></trkpt><trkpt lat="40.444877" lon="0.3972076"><ele>52.0</ele><time>2026-05-01T12:45:28.999Z</time></trkpt><trkpt lat="40.4447162" lon="0.3971493"><ele>52.0</ele><time>2026-05-01T12:45:29.999Z</time></trkpt><trkpt lat="40.444548" lon="0.3970966"><ele>51.33333333333333</ele><time>2026-05-01T12:45:30.999Z</time></trkpt><trkpt lat="40.444379" lon="0.3970582"><ele>50.66666666666667</ele><time>2026-05-01T12:45:31.999Z</time></trkpt><trkpt lat="40.4442133" lon="0.3970244"><ele>50.0</ele><time>2026-05-01T12:45:33Z</time></trkpt><trkpt lat="40.4440498" lon="0.3969864"><ele>50.0</ele><time>2026-05-01T12:45:33.999Z</time></trkpt><trkpt lat="40.4438878" lon="0.3969474"><ele>50.0</ele><time>2026-05-01T12:45:35Z</time></trkpt><trkpt lat="40.4437221" lon="0.3969135"><ele>50.0</ele><time>2026-05-01T12:45:35.999Z</time></trkpt><trkpt lat="40.4435608" lon="0.3968663"><ele>50.0</ele><time>2026-05-01T12:45:37Z</time></trkpt><trkpt lat="40.4433958" lon="0.3968212"><ele>50.0</ele><time>2026-05-01T12:45:38Z</time></trkpt><trkpt lat="40.4432318" lon="0.3967724"><ele>50.0</ele><time>2026-05-01T12:45:38.999Z</time></trkpt><trkpt lat="40.4430717" lon="0.3967258"><ele>49.5</ele><time>2026-05-01T12:45:40Z</time></trkpt><trkpt lat="40.4429308" lon="0.3966793"><ele>49.0</ele><time>2026-05-01T12:45:41Z</time></trkpt><trkpt lat="40.4427875" lon="0.3966338"><ele>48.5</ele><time>2026-05-01T12:45:41.999Z</time></trkpt><trkpt lat="40.4426382" lon="0.3965949"><ele>48.0</ele><time>2026-05-01T12:45:42.999Z</time></trkpt><trkpt lat="40.4424944" lon="0.3965549"><ele>48.0</ele><time>2026-05-01T12:45:44Z</time></trkpt><trkpt lat="40.4423546" lon="0.3965106"><ele>48.0</ele><time>2026-05-01T12:45:45Z</time></trkpt><trkpt lat="40.4422175" lon="0.3964757"><ele>48.0</ele><time>2026-05-01T12:45:45.999Z</time></trkpt><trkpt lat="40.4420723" lon="0.3964402"><ele>48.0</ele><time>2026-05-01T12:45:46.999Z</time></trkpt><trkpt lat="40.4419341" lon="0.3964071"><ele>47.5</ele><time>2026-05-01T12:45:48Z</time></trkpt><trkpt lat="40.4418016" lon="0.3963768"><ele>47.0</ele><time>2026-05-01T12:45:49Z</time></trkpt><trkpt lat="40.4416765" lon="0.3963547"><ele>46.5</ele><time>2026-05-01T12:45:50Z</time></trkpt><trkpt lat="40.4415494" lon="0.3963325"><ele>46.0</ele><time>2026-05-01T12:45:51Z</time></trkpt><trkpt lat="40.4414134" lon="0.3963062"><ele>44.75</ele><time>2026-05-01T12:45:52Z</time></trkpt><trkpt lat="40.4412678" lon="0.396275"><ele>43.5</ele><time>2026-05-01T12:45:53Z</time></trkpt><trkpt lat="40.4411289" lon="0.3962402"><ele>42.25</ele><time>2026-05-01T12:45:54Z</time></trkpt><trkpt lat="40.4409867" lon="0.3962136"><ele>41.0</ele><time>2026-05-01T12:45:54.999Z</time></trkpt><trkpt lat="40.4408405" lon="0.3961671"><ele>41.0</ele><time>2026-05-01T12:45:55.999Z</time></trkpt><trkpt lat="40.440687" lon="0.3960945"><ele>41.0</ele><time>2026-05-01T12:45:57Z</time></trkpt><trkpt lat="40.4405284" lon="0.3960125"><ele>41.0</ele><time>2026-05-01T12:45:57.999Z</time></trkpt><trkpt lat="40.4403669" lon="0.395926"><ele>41.666666666666664</ele><time>2026-05-01T12:45:59Z</time></trkpt><trkpt lat="40.440205" lon="0.3958432"><ele>42.333333333333336</ele><time>2026-05-01T12:46:00Z</time></trkpt><trkpt lat="40.4400594" lon="0.3957628"><ele>43.0</ele><time>2026-05-01T12:46:00.999Z</time></trkpt><trkpt lat="40.4399081" lon="0.3956903"><ele>43.0</ele><time>2026-05-01T12:46:01.999Z</time></trkpt><trkpt lat="40.4397721" lon="0.3956227"><ele>43.0</ele><time>2026-05-01T12:46:02.999Z</time></trkpt><trkpt lat="40.439651" lon="0.395554"><ele>43.0</ele><time>2026-05-01T12:46:04Z</time></trkpt><trkpt lat="40.4395355" lon="0.3954901"><ele>43.0</ele><time>2026-05-01T12:46:04.999Z</time></trkpt><trkpt lat="40.4394171" lon="0.3954496"><ele>44.0</ele><time>2026-05-01T12:46:05.999Z</time></trkpt><trkpt lat="40.4393134" lon="0.3954325"><ele>45.0</ele><time>2026-05-01T12:46:07Z</time></trkpt><trkpt lat="40.4392256" lon="0.3953924"><ele>46.0</ele><time>2026-05-01T12:46:07.999Z</time></trkpt><trkpt lat="40.4391459" lon="0.3953279"><ele>47.0</ele><time>2026-05-01T12:46:08.999Z</time></trkpt><trkpt lat="40.4390771" lon="0.3952455"><ele>48.0</ele><time>2026-05-01T12:46:09.999Z</time></trkpt><trkpt lat="40.4390029" lon="0.3951591"><ele>48.0</ele><time>2026-05-01T12:46:11Z</time></trkpt><trkpt lat="40.4389192" lon="0.3950997"><ele>48.0</ele><time>2026-05-01T12:46:11.999Z</time></trkpt><trkpt lat="40.4388186" lon="0.3950739"><ele>48.0</ele><time>2026-05-01T12:46:12.999Z</time></trkpt><trkpt lat="40.4387115" lon="0.3950669"><ele>48.0</ele><time>2026-05-01T12:46:13.999Z</time></trkpt><trkpt lat="40.4386155" lon="0.3950596"><ele>48.0</ele><time>2026-05-01T12:46:14.999Z</time></trkpt><trkpt lat="40.4385194" lon="0.3949965"><ele>48.0</ele><time>2026-05-01T12:46:15.999Z</time></trkpt><trkpt lat="40.438422" lon="0.3949019"><ele>48.0</ele><time>2026-05-01T12:46:17Z</time></trkpt><trkpt lat="40.438325" lon="0.3947884"><ele>48.0</ele><time>2026-05-01T12:46:18Z</time></trkpt><trkpt lat="40.4382153" lon="0.3946594"><ele>48.0</ele><time>2026-05-01T12:46:18.999Z</time></trkpt><trkpt lat="40.4381005" lon="0.3945242"><ele>48.0</ele><time>2026-05-01T12:46:19.999Z</time></trkpt><trkpt lat="40.4379813" lon="0.3943854"><ele>48.0</ele><time>2026-05-01T12:46:20.999Z</time></trkpt><trkpt lat="40.4378582" lon="0.3942488"><ele>48.0</ele><time>2026-05-01T12:46:21.999Z</time></trkpt><trkpt lat="40.4377243" lon="0.3941144"><ele>47.333333333333336</ele><time>2026-05-01T12:46:22.999Z</time></trkpt><trkpt lat="40.4375712" lon="0.393982"><ele>46.66666666666667</ele><time>2026-05-01T12:46:24Z</time></trkpt><trkpt lat="40.4374188" lon="0.3938477"><ele>46.0</ele><time>2026-05-01T12:46:24.999Z</time></trkpt><trkpt lat="40.4372574" lon="0.393715"><ele>46.0</ele><time>2026-05-01T12:46:26Z</time></trkpt><trkpt lat="40.437088" lon="0.3935747"><ele>46.0</ele><time>2026-05-01T12:46:27Z</time></trkpt><trkpt lat="40.4369257" lon="0.393441"><ele>46.0</ele><time>2026-05-01T12:46:28Z</time></trkpt><trkpt lat="40.4367704" lon="0.3933172"><ele>46.0</ele><time>2026-05-01T12:46:29Z</time></trkpt><trkpt lat="40.4366112" lon="0.393193"><ele>46.0</ele><time>2026-05-01T12:46:29.999Z</time></trkpt><trkpt lat="40.4364505" lon="0.3930712"><ele>46.0</ele><time>2026-05-01T12:46:31Z</time></trkpt><trkpt lat="40.4362849" lon="0.3929321"><ele>46.0</ele><time>2026-05-01T12:46:32Z</time></trkpt><trkpt lat="40.4361284" lon="0.3927979"><ele>46.0</ele><time>2026-05-01T12:46:32.999Z</time></trkpt><trkpt lat="40.4359799" lon="0.3926769"><ele>46.0</ele><time>2026-05-01T12:46:33.999Z</time></trkpt><trkpt lat="40.4358298" lon="0.3925657"><ele>46.0</ele><time>2026-05-01T12:46:34.999Z</time></trkpt><trkpt lat="40.4356872" lon="0.3924535"><ele>46.0</ele><time>2026-05-01T12:46:35.999Z</time></trkpt><trkpt lat="40.4355473" lon="0.3923459"><ele>46.0</ele><time>2026-05-01T12:46:37Z</time></trkpt><trkpt lat="40.4354181" lon="0.3922357"><ele>44.5</ele><time>2026-05-01T12:46:37.999Z</time></trkpt><trkpt lat="40.4352968" lon="0.3921336"><ele>43.0</ele><time>2026-05-01T12:46:39Z</time></trkpt><trkpt lat="40.4351981" lon="0.3920479"><ele>41.5</ele><time>2026-05-01T12:46:39.999Z</time></trkpt><trkpt lat="40.4351144" lon="0.3919726"><ele>40.0</ele><time>2026-05-01T12:46:41Z</time></trkpt><trkpt lat="40.4350498" lon="0.391892"><ele>40.0</ele><time>2026-05-01T12:46:42Z</time></trkpt><trkpt lat="40.4350343" lon="0.3917952"><ele>40.0</ele><time>2026-05-01T12:46:42.999Z</time></trkpt><trkpt lat="40.4350039" lon="0.3917001"><ele>40.0</ele><time>2026-05-01T12:46:43.999Z</time></trkpt><trkpt lat="40.4349508" lon="0.3916316"><ele>40.0</ele><time>2026-05-01T12:46:44.999Z</time></trkpt><trkpt lat="40.4348832" lon="0.3916028"><ele>40.0</ele><time>2026-05-01T12:46:45.999Z</time></trkpt><trkpt lat="40.4348039" lon="0.3915941"><ele>40.0</ele><time>2026-05-01T12:46:47Z</time></trkpt><trkpt lat="40.4347173" lon="0.3915775"><ele>39.75</ele><time>2026-05-01T12:46:48Z</time></trkpt><trkpt lat="40.434614" lon="0.3915239"><ele>39.5</ele><time>2026-05-01T12:46:48.999Z</time></trkpt><trkpt lat="40.4345025" lon="0.3914633"><ele>39.25</ele><time>2026-05-01T12:46:49.999Z</time></trkpt><trkpt lat="40.4343678" lon="0.3913889"><ele>39.0</ele><time>2026-05-01T12:46:50.999Z</time></trkpt><trkpt lat="40.4342313" lon="0.3913065"><ele>39.0</ele><time>2026-05-01T12:46:51.999Z</time></trkpt><trkpt lat="40.4340869" lon="0.3912251"><ele>39.0</ele><time>2026-05-01T12:46:53Z</time></trkpt><trkpt lat="40.4339248" lon="0.3911332"><ele>39.0</ele><time>2026-05-01T12:46:53.999Z</time></trkpt><trkpt lat="40.4337567" lon="0.3910413"><ele>39.333333333333336</ele><time>2026-05-01T12:46:55Z</time></trkpt><trkpt lat="40.4335838" lon="0.3909444"><ele>39.66666666666667</ele><time>2026-05-01T12:46:56Z</time></trkpt><trkpt lat="40.4334088" lon="0.3908445"><ele>40.0</ele><time>2026-05-01T12:46:57Z</time></trkpt><trkpt lat="40.4332219" lon="0.3907464"><ele>40.0</ele><time>2026-05-01T12:46:58Z</time></trkpt><trkpt lat="40.433035" lon="0.3906518"><ele>40.0</ele><time>2026-05-01T12:46:59Z</time></trkpt><trkpt lat="40.4328458" lon="0.3905475"><ele>40.0</ele><time>2026-05-01T12:46:59.999Z</time></trkpt><trkpt lat="40.4326553" lon="0.3904552"><ele>39.66666666666667</ele><time>2026-05-01T12:47:00.999Z</time></trkpt><trkpt lat="40.4324646" lon="0.3903598"><ele>39.333333333333336</ele><time>2026-05-01T12:47:01.999Z</time></trkpt><trkpt lat="40.4322742" lon="0.3902578"><ele>39.0</ele><time>2026-05-01T12:47:03Z</time></trkpt><trkpt lat="40.4320828" lon="0.3901633"><ele>38.333333333333336</ele><time>2026-05-01T12:47:04Z</time></trkpt><trkpt lat="40.4318988" lon="0.3900629"><ele>37.66666666666667</ele><time>2026-05-01T12:47:05Z</time></trkpt><trkpt lat="40.4317228" lon="0.3899701"><ele>37.0</ele><time>2026-05-01T12:47:06Z</time></trkpt><trkpt lat="40.4315433" lon="0.3898816"><ele>37.0</ele><time>2026-05-01T12:47:07Z</time></trkpt><trkpt lat="40.4313537" lon="0.3897826"><ele>37.0</ele><time>2026-05-01T12:47:07.999Z</time></trkpt><trkpt lat="40.4311837" lon="0.3896881"><ele>37.0</ele><time>2026-05-01T12:47:08.999Z</time></trkpt><trkpt lat="40.4310279" lon="0.3896038"><ele>36.333333333333336</ele><time>2026-05-01T12:47:09.999Z</time></trkpt><trkpt lat="40.4308736" lon="0.3895243"><ele>35.666666666666664</ele><time>2026-05-01T12:47:10.999Z</time></trkpt><trkpt lat="40.4307195" lon="0.3894463"><ele>35.0</ele><time>2026-05-01T12:47:11.999Z</time></trkpt><trkpt lat="40.430562" lon="0.3893697"><ele>34.33333333333333</ele><time>2026-05-01T12:47:13Z</time></trkpt><trkpt lat="40.4304078" lon="0.3892942"><ele>33.666666666666664</ele><time>2026-05-01T12:47:14Z</time></trkpt><trkpt lat="40.4302446" lon="0.3892156"><ele>33.0</ele><time>2026-05-01T12:47:14.999Z</time></trkpt><trkpt lat="40.4300757" lon="0.3891216"><ele>33.0</ele><time>2026-05-01T12:47:15.999Z</time></trkpt><trkpt lat="40.4299076" lon="0.3890193"><ele>33.0</ele><time>2026-05-01T12:47:16.999Z</time></trkpt><trkpt lat="40.4297433" lon="0.3889125"><ele>33.0</ele><time>2026-05-01T12:47:18Z</time></trkpt><trkpt lat="40.4295905" lon="0.3888094"><ele>33.333333333333336</ele><time>2026-05-01T12:47:18.999Z</time></trkpt><trkpt lat="40.4294425" lon="0.3887168"><ele>33.66666666666667</ele><time>2026-05-01T12:47:19.999Z</time></trkpt><trkpt lat="40.4292912" lon="0.3886141"><ele>34.0</ele><time>2026-05-01T12:47:20.999Z</time></trkpt><trkpt lat="40.4291362" lon="0.3885065"><ele>34.0</ele><time>2026-05-01T12:47:21.999Z</time></trkpt><trkpt lat="40.4289806" lon="0.3883927"><ele>34.0</ele><time>2026-05-01T12:47:23Z</time></trkpt><trkpt lat="40.4288179" lon="0.3882674"><ele>34.0</ele><time>2026-05-01T12:47:23.999Z</time></trkpt><trkpt lat="40.4286532" lon="0.3881437"><ele>34.0</ele><time>2026-05-01T12:47:24.999Z</time></trkpt><trkpt lat="40.4284821" lon="0.3880075"><ele>34.0</ele><time>2026-05-01T12:47:26Z</time></trkpt><trkpt lat="40.4283219" lon="0.3878804"><ele>34.0</ele><time>2026-05-01T12:47:26.999Z</time></trkpt><trkpt lat="40.4281626" lon="0.3877504"><ele>34.0</ele><time>2026-05-01T12:47:27.999Z</time></trkpt><trkpt lat="40.4280029" lon="0.3876289"><ele>34.0</ele><time>2026-05-01T12:47:28.999Z</time></trkpt><trkpt lat="40.4278432" lon="0.3875094"><ele>34.0</ele><time>2026-05-01T12:47:29.999Z</time></trkpt><trkpt lat="40.4276834" lon="0.3873857"><ele>33.333333333333336</ele><time>2026-05-01T12:47:31Z</time></trkpt><trkpt lat="40.4275361" lon="0.3872675"><ele>32.666666666666664</ele><time>2026-05-01T12:47:32Z</time></trkpt><trkpt lat="40.4273965" lon="0.3871516"><ele>32.0</ele><time>2026-05-01T12:47:33Z</time></trkpt><trkpt lat="40.4272584" lon="0.3870454"><ele>31.75</ele><time>2026-05-01T12:47:33.999Z</time></trkpt><trkpt lat="40.427124" lon="0.38694"><ele>31.5</ele><time>2026-05-01T12:47:34.999Z</time></trkpt><trkpt lat="40.4269929" lon="0.3868373"><ele>31.25</ele><time>2026-05-01T12:47:36Z</time></trkpt><trkpt lat="40.4268769" lon="0.3867437"><ele>31.0</ele><time>2026-05-01T12:47:36.999Z</time></trkpt><trkpt lat="40.4267732" lon="0.3866602"><ele>31.0</ele><time>2026-05-01T12:47:38Z</time></trkpt><trkpt lat="40.4266659" lon="0.3865853"><ele>31.0</ele><time>2026-05-01T12:47:38.999Z</time></trkpt><trkpt lat="40.426568" lon="0.3865116"><ele>31.0</ele><time>2026-05-01T12:47:40Z</time></trkpt><trkpt lat="40.4264779" lon="0.3864496"><ele>31.0</ele><time>2026-05-01T12:47:40.999Z</time></trkpt><trkpt lat="40.4264177" lon="0.386403"><ele>31.0</ele><time>2026-05-01T12:47:41.999Z</time></trkpt><trkpt lat="40.4263095" lon="0.3863833"><ele>31.0</ele><time>2026-05-01T12:47:44Z</time></trkpt><trkpt lat="40.426264" lon="0.3864407"><ele>31.0</ele><time>2026-05-01T12:47:44.999Z</time></trkpt><trkpt lat="40.4262237" lon="0.386519"><ele>31.0</ele><time>2026-05-01T12:47:45.999Z</time></trkpt><trkpt lat="40.4261752" lon="0.3866246"><ele>31.0</ele><time>2026-05-01T12:47:47Z</time></trkpt><trkpt lat="40.4261146" lon="0.3867402"><ele>31.0</ele><time>2026-05-01T12:47:47.999Z</time></trkpt><trkpt lat="40.4260432" lon="0.3868575"><ele>31.0</ele><time>2026-05-01T12:47:48.999Z</time></trkpt><trkpt lat="40.4259722" lon="0.3869961"><ele>31.0</ele><time>2026-05-01T12:47:50Z</time></trkpt><trkpt lat="40.4258973" lon="0.3871523"><ele>31.0</ele><time>2026-05-01T12:47:50.999Z</time></trkpt><trkpt lat="40.4258151" lon="0.3873179"><ele>31.0</ele><time>2026-05-01T12:47:51.999Z</time></trkpt><trkpt lat="40.4257283" lon="0.3874842"><ele>30.333333333333336</ele><time>2026-05-01T12:47:52.999Z</time></trkpt><trkpt lat="40.4256434" lon="0.3876528"><ele>29.666666666666664</ele><time>2026-05-01T12:47:53.999Z</time></trkpt><trkpt lat="40.425553" lon="0.3878155"><ele>29.0</ele><time>2026-05-01T12:47:54.999Z</time></trkpt><trkpt lat="40.4254706" lon="0.3879815"><ele>28.666666666666664</ele><time>2026-05-01T12:47:55.999Z</time></trkpt><trkpt lat="40.425381" lon="0.3881437"><ele>28.333333333333336</ele><time>2026-05-01T12:47:56.999Z</time></trkpt><trkpt lat="40.4252913" lon="0.3883179"><ele>28.0</ele><time>2026-05-01T12:47:57.999Z</time></trkpt><trkpt lat="40.4252014" lon="0.3884798"><ele>28.0</ele><time>2026-05-01T12:47:59Z</time></trkpt><trkpt lat="40.4251168" lon="0.3886403"><ele>28.0</ele><time>2026-05-01T12:47:59.999Z</time></trkpt><trkpt lat="40.4250388" lon="0.3887885"><ele>28.0</ele><time>2026-05-01T12:48:00.999Z</time></trkpt><trkpt lat="40.424965" lon="0.3889249"><ele>28.0</ele><time>2026-05-01T12:48:02Z</time></trkpt><trkpt lat="40.4248979" lon="0.3890627"><ele>28.0</ele><time>2026-05-01T12:48:02.999Z</time></trkpt><trkpt lat="40.4248225" lon="0.3892002"><ele>28.0</ele><time>2026-05-01T12:48:03.999Z</time></trkpt><trkpt lat="40.4247448" lon="0.3893476"><ele>28.0</ele><time>2026-05-01T12:48:05Z</time></trkpt><trkpt lat="40.42467" lon="0.3894963"><ele>28.0</ele><time>2026-05-01T12:48:05.999Z</time></trkpt><trkpt lat="40.4245884" lon="0.3896609"><ele>28.0</ele><time>2026-05-01T12:48:07Z</time></trkpt><trkpt lat="40.4245116" lon="0.3898227"><ele>28.0</ele><time>2026-05-01T12:48:08Z</time></trkpt><trkpt lat="40.4244264" lon="0.3899779"><ele>28.0</ele><time>2026-05-01T12:48:08.999Z</time></trkpt><trkpt lat="40.4243522" lon="0.3901267"><ele>28.0</ele><time>2026-05-01T12:48:09.999Z</time></trkpt><trkpt lat="40.4242832" lon="0.3902533"><ele>28.000000000000004</ele><time>2026-05-01T12:48:11Z</time></trkpt><trkpt lat="40.4242237" lon="0.3903661"><ele>28.0</ele><time>2026-05-01T12:48:11.999Z</time></trkpt><trkpt lat="40.4241714" lon="0.3904646"><ele>28.0</ele><time>2026-05-01T12:48:12.999Z</time></trkpt><trkpt lat="40.4241228" lon="0.3905471"><ele>28.0</ele><time>2026-05-01T12:48:13.999Z</time></trkpt><trkpt lat="40.4240756" lon="0.3906135"><ele>28.000000000000004</ele><time>2026-05-01T12:48:14.999Z</time></trkpt><trkpt lat="40.4240262" lon="0.3906818"><ele>28.0</ele><time>2026-05-01T12:48:15.999Z</time></trkpt><trkpt lat="40.4239757" lon="0.3907395"><ele>28.2</ele><time>2026-05-01T12:48:16.999Z</time></trkpt><trkpt lat="40.4239173" lon="0.3908002"><ele>28.4</ele><time>2026-05-01T12:48:17.999Z</time></trkpt><trkpt lat="40.4238488" lon="0.3908716"><ele>28.599999999999998</ele><time>2026-05-01T12:48:19Z</time></trkpt><trkpt lat="40.4237742" lon="0.3909474"><ele>28.799999999999997</ele><time>2026-05-01T12:48:19.999Z</time></trkpt><trkpt lat="40.4236939" lon="0.3910224"><ele>29.0</ele><time>2026-05-01T12:48:20.999Z</time></trkpt><trkpt lat="40.4236118" lon="0.3910954"><ele>28.6</ele><time>2026-05-01T12:48:21.999Z</time></trkpt><trkpt lat="40.4235247" lon="0.3911721"><ele>28.2</ele><time>2026-05-01T12:48:22.999Z</time></trkpt><trkpt lat="40.4234331" lon="0.3912545"><ele>27.800000000000004</ele><time>2026-05-01T12:48:24Z</time></trkpt><trkpt lat="40.4233487" lon="0.3913469"><ele>27.400000000000002</ele><time>2026-05-01T12:48:24.999Z</time></trkpt><trkpt lat="40.4232682" lon="0.3914525"><ele>27.0</ele><time>2026-05-01T12:48:25.999Z</time></trkpt><trkpt lat="40.4231946" lon="0.3915411"><ele>27.0</ele><time>2026-05-01T12:48:27Z</time></trkpt><trkpt lat="40.4231296" lon="0.3916262"><ele>27.0</ele><time>2026-05-01T12:48:27.999Z</time></trkpt><trkpt lat="40.4230735" lon="0.3916973"><ele>27.0</ele><time>2026-05-01T12:48:28.999Z</time></trkpt><trkpt lat="40.4230263" lon="0.3917575"><ele>27.0</ele><time>2026-05-01T12:48:29.999Z</time></trkpt><trkpt lat="40.4229474" lon="0.3918607"><ele>27.0</ele><time>2026-05-01T12:48:31.999Z</time></trkpt><trkpt lat="40.4228813" lon="0.3919491"><ele>27.0</ele><time>2026-05-01T12:48:34Z</time></trkpt><trkpt lat="40.4228239" lon="0.3919993"><ele>27.0</ele><time>2026-05-01T12:48:36Z</time></trkpt><trkpt lat="40.4229113" lon="0.3919472"><ele>27.000000000000004</ele><time>2026-05-01T12:48:41Z</time></trkpt><trkpt lat="40.4229652" lon="0.3918697"><ele>27.000000000000004</ele><time>2026-05-01T12:48:41.999Z</time></trkpt><trkpt lat="40.4230484" lon="0.3917721"><ele>27.0</ele><time>2026-05-01T12:48:43Z</time></trkpt><trkpt lat="40.4231366" lon="0.3916688"><ele>27.0</ele><time>2026-05-01T12:48:43.999Z</time></trkpt><trkpt lat="40.4232261" lon="0.3915595"><ele>27.0</ele><time>2026-05-01T12:48:44.999Z</time></trkpt><trkpt lat="40.4233109" lon="0.3914573"><ele>27.0</ele><time>2026-05-01T12:48:45.999Z</time></trkpt><trkpt lat="40.4233966" lon="0.3913538"><ele>27.0</ele><time>2026-05-01T12:48:46.999Z</time></trkpt><trkpt lat="40.4234813" lon="0.391262"><ele>27.0</ele><time>2026-05-01T12:48:48Z</time></trkpt><trkpt lat="40.4235714" lon="0.3911751"><ele>26.833333333333332</ele><time>2026-05-01T12:48:48.999Z</time></trkpt><trkpt lat="40.4236629" lon="0.3911058"><ele>26.666666666666664</ele><time>2026-05-01T12:48:49.999Z</time></trkpt><trkpt lat="40.4237243" lon="0.3910744"><ele>26.5</ele><time>2026-05-01T12:48:51Z</time></trkpt><trkpt lat="40.4238217" lon="0.3910128"><ele>26.333333333333332</ele><time>2026-05-01T12:48:53Z</time></trkpt><trkpt lat="40.423854" lon="0.3909285"><ele>26.166666666666664</ele><time>2026-05-01T12:48:55.999Z</time></trkpt><trkpt lat="40.4237919" lon="0.3908728"><ele>26.0</ele><time>2026-05-01T12:48:59Z</time></trkpt><trkpt lat="40.4237008" lon="0.3908892"><ele>25.999999999999996</ele><time>2026-05-01T12:49:00.999Z</time></trkpt><trkpt lat="40.423629" lon="0.3909451"><ele>26.0</ele><time>2026-05-01T12:49:01.999Z</time></trkpt><trkpt lat="40.4235606" lon="0.3909967"><ele>26.0</ele><time>2026-05-01T12:49:03Z</time></trkpt><trkpt lat="40.4235027" lon="0.3910487"><ele>26.0</ele><time>2026-05-01T12:49:04Z</time></trkpt><trkpt lat="40.4234459" lon="0.3910909"><ele>25.999999999999996</ele><time>2026-05-01T12:49:04.999Z</time></trkpt><trkpt lat="40.4233293" lon="0.391109"><ele>26.0</ele><time>2026-05-01T12:49:07Z</time></trkpt><trkpt lat="40.4232125" lon="0.3910406"><ele>25.999999999999996</ele><time>2026-05-01T12:49:08.999Z</time></trkpt><trkpt lat="40.4231511" lon="0.3909826"><ele>26.0</ele><time>2026-05-01T12:49:10Z</time></trkpt><trkpt lat="40.4230803" lon="0.3909346"><ele>26.0</ele><time>2026-05-01T12:49:10.999Z</time></trkpt><trkpt lat="40.4230058" lon="0.3908738"><ele>26.0</ele><time>2026-05-01T12:49:11.999Z</time></trkpt><trkpt lat="40.4229395" lon="0.3908209"><ele>25.999999999999996</ele><time>2026-05-01T12:49:12.999Z</time></trkpt><trkpt lat="40.4228778" lon="0.3907731"><ele>26.0</ele><time>2026-05-01T12:49:13.999Z</time></trkpt><trkpt lat="40.4227783" lon="0.3906788"><ele>26.0</ele><time>2026-05-01T12:49:15.999Z</time></trkpt><trkpt lat="40.4226821" lon="0.3906115"><ele>26.0</ele><time>2026-05-01T12:49:18Z</time></trkpt><trkpt lat="40.4225898" lon="0.3905491"><ele>26.0</ele><time>2026-05-01T12:49:19.999Z</time></trkpt><trkpt lat="40.4225119" lon="0.3904782"><ele>26.0</ele><time>2026-05-01T12:49:21.999Z</time></trkpt><trkpt lat="40.4224446" lon="0.3904302"><ele>26.0</ele><time>2026-05-01T12:49:23.999Z</time></trkpt><trkpt lat="40.4223685" lon="0.3904922"><ele>26.0</ele><time>2026-05-01T12:49:27.999Z</time></trkpt><trkpt lat="40.4223418" lon="0.3905743"><ele>26.0</ele><time>2026-05-01T12:49:30Z</time></trkpt><trkpt lat="40.4223264" lon="0.3906598"><ele>26.0</ele><time>2026-05-01T12:49:33Z</time></trkpt><trkpt lat="40.4223651" lon="0.3907522"><ele>26.0</ele><time>2026-05-01T12:49:35.999Z</time></trkpt><trkpt lat="40.4224119" lon="0.3908108"><ele>26.0</ele><time>2026-05-01T12:49:38Z</time></trkpt><trkpt lat="40.4224615" lon="0.3908637"><ele>26.0</ele><time>2026-05-01T12:49:40Z</time></trkpt><trkpt lat="40.4225473" lon="0.3909258"><ele>26.0</ele><time>2026-05-01T12:49:42Z</time></trkpt><trkpt lat="40.4226151" lon="0.391028"><ele>26.0</ele><time>2026-05-01T12:49:44Z</time></trkpt><trkpt lat="40.4226891" lon="0.3911291"><ele>26.0</ele><time>2026-05-01T12:49:45.999Z</time></trkpt><trkpt lat="40.4227642" lon="0.391227"><ele>26.0</ele><time>2026-05-01T12:49:47.999Z</time></trkpt><trkpt lat="40.4228409" lon="0.3913117"><ele>26.0</ele><time>2026-05-01T12:49:50Z</time></trkpt><trkpt lat="40.4229068" lon="0.3913963"><ele>26.0</ele><time>2026-05-01T12:49:52Z</time></trkpt><trkpt lat="40.4229788" lon="0.3914281"><ele>26.0</ele><time>2026-05-01T12:49:53.999Z</time></trkpt><trkpt lat="40.4230637" lon="0.3914279"><ele>26.0</ele><time>2026-05-01T12:49:56Z</time></trkpt><trkpt lat="40.4231484" lon="0.3913597"><ele>26.0</ele><time>2026-05-01T12:49:57.999Z</time></trkpt><trkpt lat="40.4232445" lon="0.3912488"><ele>26.0</ele><time>2026-05-01T12:49:59.999Z</time></trkpt><trkpt lat="40.423346" lon="0.3911484"><ele>26.0</ele><time>2026-05-01T12:50:02Z</time></trkpt><trkpt lat="40.4234029" lon="0.3911066"><ele>26.0</ele><time>2026-05-01T12:50:02.999Z</time></trkpt><trkpt lat="40.4234612" lon="0.3910643"><ele>26.0</ele><time>2026-05-01T12:50:03.999Z</time></trkpt><trkpt lat="40.4235204" lon="0.3910205"><ele>26.0</ele><time>2026-05-01T12:50:05Z</time></trkpt><trkpt lat="40.423625" lon="0.390935"><ele>26.0</ele><time>2026-05-01T12:50:06.999Z</time></trkpt><trkpt lat="40.4237345" lon="0.3908765"><ele>26.0</ele><time>2026-05-01T12:50:08.999Z</time></trkpt><trkpt lat="40.4238073" lon="0.3909146"><ele>26.0</ele><time>2026-05-01T12:50:10.999Z</time></trkpt><trkpt lat="40.4238439" lon="0.3910202"><ele>26.0</ele><time>2026-05-01T12:50:12.999Z</time></trkpt><trkpt lat="40.4238228" lon="0.3911708"><ele>26.0</ele><time>2026-05-01T12:50:15Z</time></trkpt><trkpt lat="40.4237481" lon="0.3913357"><ele>26.0</ele><time>2026-05-01T12:50:16.999Z</time></trkpt><trkpt lat="40.4237062" lon="0.3914173"><ele>26.0</ele><time>2026-05-01T12:50:17.999Z</time></trkpt><trkpt lat="40.4236609" lon="0.3915218"><ele>26.166666666666664</ele><time>2026-05-01T12:50:18.999Z</time></trkpt><trkpt lat="40.4236293" lon="0.3916223"><ele>26.333333333333332</ele><time>2026-05-01T12:50:19.999Z</time></trkpt><trkpt lat="40.4236028" lon="0.3917197"><ele>26.5</ele><time>2026-05-01T12:50:20.999Z</time></trkpt><trkpt lat="40.4235888" lon="0.391845"><ele>26.666666666666664</ele><time>2026-05-01T12:50:21.999Z</time></trkpt><trkpt lat="40.4235892" lon="0.3919543"><ele>26.833333333333332</ele><time>2026-05-01T12:50:22.999Z</time></trkpt><trkpt lat="40.4235984" lon="0.3920629"><ele>27.0</ele><time>2026-05-01T12:50:23.999Z</time></trkpt><trkpt lat="40.4236033" lon="0.3921616"><ele>27.0</ele><time>2026-05-01T12:50:24.999Z</time></trkpt><trkpt lat="40.4236056" lon="0.3922524"><ele>27.000000000000004</ele><time>2026-05-01T12:50:25.999Z</time></trkpt><trkpt lat="40.423541" lon="0.3923359"><ele>27.000000000000004</ele><time>2026-05-01T12:50:27.999Z</time></trkpt><trkpt lat="40.4234645" lon="0.3922974"><ele>27.0</ele><time>2026-05-01T12:50:28.999Z</time></trkpt><trkpt lat="40.4233762" lon="0.3921978"><ele>27.0</ele><time>2026-05-01T12:50:29.999Z</time></trkpt><trkpt lat="40.4232921" lon="0.3920878"><ele>27.0</ele><time>2026-05-01T12:50:30.999Z</time></trkpt><trkpt lat="40.4231922" lon="0.3919439"><ele>27.0</ele><time>2026-05-01T12:50:32Z</time></trkpt><trkpt lat="40.4230757" lon="0.3917939"><ele>27.0</ele><time>2026-05-01T12:50:33Z</time></trkpt><trkpt lat="40.4229598" lon="0.3916275"><ele>27.0</ele><time>2026-05-01T12:50:33.999Z</time></trkpt><trkpt lat="40.4228231" lon="0.3914522"><ele>27.0</ele><time>2026-05-01T12:50:34.999Z</time></trkpt><trkpt lat="40.4226867" lon="0.3912749"><ele>27.0</ele><time>2026-05-01T12:50:36Z</time></trkpt><trkpt lat="40.422551" lon="0.3911045"><ele>26.666666666666664</ele><time>2026-05-01T12:50:36.999Z</time></trkpt><trkpt lat="40.4224189" lon="0.3909417"><ele>26.333333333333332</ele><time>2026-05-01T12:50:38Z</time></trkpt><trkpt lat="40.4222962" lon="0.3907888"><ele>26.0</ele><time>2026-05-01T12:50:39Z</time></trkpt><trkpt lat="40.4221759" lon="0.3906445"><ele>26.0</ele><time>2026-05-01T12:50:39.999Z</time></trkpt><trkpt lat="40.4220564" lon="0.3904986"><ele>26.0</ele><time>2026-05-01T12:50:41Z</time></trkpt><trkpt lat="40.4219371" lon="0.3903491"><ele>26.0</ele><time>2026-05-01T12:50:42Z</time></trkpt><trkpt lat="40.4218218" lon="0.3902015"><ele>26.0</ele><time>2026-05-01T12:50:42.999Z</time></trkpt><trkpt lat="40.4217064" lon="0.3900538"><ele>26.0</ele><time>2026-05-01T12:50:44Z</time></trkpt><trkpt lat="40.4215871" lon="0.3899012"><ele>26.0</ele><time>2026-05-01T12:50:45Z</time></trkpt><trkpt lat="40.421462" lon="0.3897438"><ele>26.0</ele><time>2026-05-01T12:50:46Z</time></trkpt><trkpt lat="40.4213323" lon="0.3895901"><ele>26.0</ele><time>2026-05-01T12:50:46.999Z</time></trkpt><trkpt lat="40.4212025" lon="0.3894389"><ele>26.0</ele><time>2026-05-01T12:50:47.999Z</time></trkpt><trkpt lat="40.4210748" lon="0.3892987"><ele>24.666666666666664</ele><time>2026-05-01T12:50:48.999Z</time></trkpt><trkpt lat="40.4209422" lon="0.3891525"><ele>23.333333333333332</ele><time>2026-05-01T12:50:49.999Z</time></trkpt><trkpt lat="40.4208076" lon="0.3890041"><ele>22.0</ele><time>2026-05-01T12:50:50.999Z</time></trkpt><trkpt lat="40.4206713" lon="0.3888512"><ele>22.333333333333332</ele><time>2026-05-01T12:50:51.999Z</time></trkpt><trkpt lat="40.4205341" lon="0.388701"><ele>22.666666666666668</ele><time>2026-05-01T12:50:53Z</time></trkpt><trkpt lat="40.4203888" lon="0.3885547"><ele>23.0</ele><time>2026-05-01T12:50:53.999Z</time></trkpt><trkpt lat="40.420242" lon="0.3884125"><ele>22.666666666666668</ele><time>2026-05-01T12:50:55Z</time></trkpt><trkpt lat="40.4200894" lon="0.388268"><ele>22.333333333333332</ele><time>2026-05-01T12:50:56Z</time></trkpt><trkpt lat="40.4199434" lon="0.3881225"><ele>22.0</ele><time>2026-05-01T12:50:56.999Z</time></trkpt><trkpt lat="40.419799" lon="0.3879855"><ele>22.0</ele><time>2026-05-01T12:50:57.999Z</time></trkpt><trkpt lat="40.4196552" lon="0.3878545"><ele>22.0</ele><time>2026-05-01T12:50:59Z</time></trkpt><trkpt lat="40.419518" lon="0.387724"><ele>22.0</ele><time>2026-05-01T12:50:59.999Z</time></trkpt><trkpt lat="40.4193929" lon="0.3876081"><ele>22.333333333333332</ele><time>2026-05-01T12:51:01Z</time></trkpt><trkpt lat="40.4192664" lon="0.3874933"><ele>22.666666666666668</ele><time>2026-05-01T12:51:02Z</time></trkpt><trkpt lat="40.4191358" lon="0.3873749"><ele>23.0</ele><time>2026-05-01T12:51:03Z</time></trkpt><trkpt lat="40.4190018" lon="0.3872576"><ele>23.333333333333336</ele><time>2026-05-01T12:51:03.999Z</time></trkpt><trkpt lat="40.4188707" lon="0.3871353"><ele>23.666666666666668</ele><time>2026-05-01T12:51:05Z</time></trkpt><trkpt lat="40.4187357" lon="0.3870178"><ele>24.0</ele><time>2026-05-01T12:51:05.999Z</time></trkpt><trkpt lat="40.4186041" lon="0.3868991"><ele>23.333333333333332</ele><time>2026-05-01T12:51:06.999Z</time></trkpt><trkpt lat="40.4184807" lon="0.3867916"><ele>22.666666666666664</ele><time>2026-05-01T12:51:07.999Z</time></trkpt><trkpt lat="40.4183533" lon="0.3866888"><ele>22.0</ele><time>2026-05-01T12:51:09Z</time></trkpt><trkpt lat="40.4182249" lon="0.3865804"><ele>22.0</ele><time>2026-05-01T12:51:10Z</time></trkpt><trkpt lat="40.4180897" lon="0.3864657"><ele>22.0</ele><time>2026-05-01T12:51:11Z</time></trkpt><trkpt lat="40.4179629" lon="0.3863616"><ele>22.0</ele><time>2026-05-01T12:51:11.999Z</time></trkpt><trkpt lat="40.4178582" lon="0.3862709"><ele>22.0</ele><time>2026-05-01T12:51:12.999Z</time></trkpt><trkpt lat="40.417774" lon="0.386213"><ele>21.5</ele><time>2026-05-01T12:51:13.999Z</time></trkpt><trkpt lat="40.4177071" lon="0.3861671"><ele>21.0</ele><time>2026-05-01T12:51:14.999Z</time></trkpt><trkpt lat="40.4176161" lon="0.3861284"><ele>20.5</ele><time>2026-05-01T12:51:17Z</time></trkpt><trkpt lat="40.4175637" lon="0.3861791"><ele>20.0</ele><time>2026-05-01T12:51:18.999Z</time></trkpt><trkpt lat="40.4175038" lon="0.3862611"><ele>19.5</ele><time>2026-05-01T12:51:20.999Z</time></trkpt><trkpt lat="40.417438" lon="0.3863775"><ele>19.0</ele><time>2026-05-01T12:51:22.999Z</time></trkpt><trkpt lat="40.4173629" lon="0.3863662"><ele>19.0</ele><time>2026-05-01T12:51:26Z</time></trkpt><trkpt lat="40.4173068" lon="0.3863285"><ele>19.0</ele><time>2026-05-01T12:51:26.999Z</time></trkpt><trkpt lat="40.417242" lon="0.3862778"><ele>19.0</ele><time>2026-05-01T12:51:28Z</time></trkpt><trkpt lat="40.4171493" lon="0.3862097"><ele>19.0</ele><time>2026-05-01T12:51:28.999Z</time></trkpt><trkpt lat="40.4170528" lon="0.3861366"><ele>19.0</ele><time>2026-05-01T12:51:30Z</time></trkpt><trkpt lat="40.4169458" lon="0.3860541"><ele>20.0</ele><time>2026-05-01T12:51:30.999Z</time></trkpt><trkpt lat="40.4168167" lon="0.3859578"><ele>21.0</ele><time>2026-05-01T12:51:32Z</time></trkpt><trkpt lat="40.4166801" lon="0.3858513"><ele>22.0</ele><time>2026-05-01T12:51:33Z</time></trkpt><trkpt lat="40.4165516" lon="0.3857516"><ele>22.0</ele><time>2026-05-01T12:51:33.999Z</time></trkpt><trkpt lat="40.4164188" lon="0.3856578"><ele>22.0</ele><time>2026-05-01T12:51:35Z</time></trkpt><trkpt lat="40.4162923" lon="0.3855666"><ele>22.0</ele><time>2026-05-01T12:51:35.999Z</time></trkpt><trkpt lat="40.4161681" lon="0.3854776"><ele>22.0</ele><time>2026-05-01T12:51:36.999Z</time></trkpt><trkpt lat="40.4160392" lon="0.3853901"><ele>21.0</ele><time>2026-05-01T12:51:37.999Z</time></trkpt><trkpt lat="40.4158965" lon="0.3852933"><ele>20.0</ele><time>2026-05-01T12:51:38.999Z</time></trkpt><trkpt lat="40.4157567" lon="0.3851959"><ele>19.0</ele><time>2026-05-01T12:51:40Z</time></trkpt><trkpt lat="40.4156299" lon="0.3851074"><ele>19.0</ele><time>2026-05-01T12:51:40.999Z</time></trkpt><trkpt lat="40.4154915" lon="0.385018"><ele>19.0</ele><time>2026-05-01T12:51:41.999Z</time></trkpt><trkpt lat="40.4153443" lon="0.3849241"><ele>19.0</ele><time>2026-05-01T12:51:43Z</time></trkpt><trkpt lat="40.4151897" lon="0.3848251"><ele>19.0</ele><time>2026-05-01T12:51:43.999Z</time></trkpt><trkpt lat="40.415038" lon="0.3847289"><ele>19.0</ele><time>2026-05-01T12:51:44.999Z</time></trkpt><trkpt lat="40.414888" lon="0.3846375"><ele>19.0</ele><time>2026-05-01T12:51:45.999Z</time></trkpt><trkpt lat="40.4147365" lon="0.384545"><ele>19.666666666666664</ele><time>2026-05-01T12:51:46.999Z</time></trkpt><trkpt lat="40.4145722" lon="0.3844487"><ele>20.333333333333332</ele><time>2026-05-01T12:51:47.999Z</time></trkpt><trkpt lat="40.4144265" lon="0.3843595"><ele>21.0</ele><time>2026-05-01T12:51:48.999Z</time></trkpt><trkpt lat="40.4142743" lon="0.3842669"><ele>21.0</ele><time>2026-05-01T12:51:49.999Z</time></trkpt><trkpt lat="40.4141215" lon="0.3841729"><ele>21.0</ele><time>2026-05-01T12:51:50.999Z</time></trkpt><trkpt lat="40.4139743" lon="0.3840855"><ele>21.0</ele><time>2026-05-01T12:51:52Z</time></trkpt><trkpt lat="40.4138339" lon="0.3839974"><ele>21.25</ele><time>2026-05-01T12:51:53Z</time></trkpt><trkpt lat="40.4136938" lon="0.3839135"><ele>21.5</ele><time>2026-05-01T12:51:53.999Z</time></trkpt><trkpt lat="40.4135666" lon="0.3838373"><ele>21.75</ele><time>2026-05-01T12:51:55Z</time></trkpt><trkpt lat="40.4134633" lon="0.3837674"><ele>22.0</ele><time>2026-05-01T12:51:56Z</time></trkpt><trkpt lat="40.413391" lon="0.3837182"><ele>22.0</ele><time>2026-05-01T12:51:56.999Z</time></trkpt><trkpt lat="40.4132995" lon="0.3836595"><ele>22.0</ele><time>2026-05-01T12:51:59Z</time></trkpt><trkpt lat="40.4132147" lon="0.3836872"><ele>22.0</ele><time>2026-05-01T12:52:01.999Z</time></trkpt><trkpt lat="40.4131411" lon="0.383827"><ele>22.0</ele><time>2026-05-01T12:52:03.999Z</time></trkpt><trkpt lat="40.4131052" lon="0.3839396"><ele>22.0</ele><time>2026-05-01T12:52:05Z</time></trkpt><trkpt lat="40.4130565" lon="0.3840701"><ele>22.25</ele><time>2026-05-01T12:52:05.999Z</time></trkpt><trkpt lat="40.4129998" lon="0.3842181"><ele>22.5</ele><time>2026-05-01T12:52:06.999Z</time></trkpt><trkpt lat="40.4129352" lon="0.3843794"><ele>22.75</ele><time>2026-05-01T12:52:08Z</time></trkpt><trkpt lat="40.4128699" lon="0.3845517"><ele>23.0</ele><time>2026-05-01T12:52:08.999Z</time></trkpt><trkpt lat="40.4127998" lon="0.3847317"><ele>23.333333333333336</ele><time>2026-05-01T12:52:09.999Z</time></trkpt><trkpt lat="40.4127262" lon="0.3849221"><ele>23.666666666666668</ele><time>2026-05-01T12:52:10.999Z</time></trkpt><trkpt lat="40.4126525" lon="0.3851231"><ele>24.0</ele><time>2026-05-01T12:52:11.999Z</time></trkpt><trkpt lat="40.4125766" lon="0.3853286"><ele>23.333333333333332</ele><time>2026-05-01T12:52:13Z</time></trkpt><trkpt lat="40.4125056" lon="0.3855246"><ele>22.666666666666664</ele><time>2026-05-01T12:52:13.999Z</time></trkpt><trkpt lat="40.412428" lon="0.3857178"><ele>22.0</ele><time>2026-05-01T12:52:14.999Z</time></trkpt><trkpt lat="40.4123545" lon="0.3859079"><ele>22.0</ele><time>2026-05-01T12:52:15.999Z</time></trkpt><trkpt lat="40.4122769" lon="0.3861054"><ele>22.0</ele><time>2026-05-01T12:52:16.999Z</time></trkpt><trkpt lat="40.4122009" lon="0.3863065"><ele>22.0</ele><time>2026-05-01T12:52:17.999Z</time></trkpt><trkpt lat="40.4121225" lon="0.3865036"><ele>22.333333333333332</ele><time>2026-05-01T12:52:18.999Z</time></trkpt><trkpt lat="40.4120462" lon="0.3866949"><ele>22.666666666666668</ele><time>2026-05-01T12:52:20Z</time></trkpt><trkpt lat="40.4119665" lon="0.386872"><ele>23.0</ele><time>2026-05-01T12:52:20.999Z</time></trkpt><trkpt lat="40.41189" lon="0.3870271"><ele>23.0</ele><time>2026-05-01T12:52:22Z</time></trkpt><trkpt lat="40.4118179" lon="0.3871482"><ele>23.0</ele><time>2026-05-01T12:52:22.999Z</time></trkpt><trkpt lat="40.4117509" lon="0.3872642"><ele>23.0</ele><time>2026-05-01T12:52:23.999Z</time></trkpt><trkpt lat="40.4116902" lon="0.387358"><ele>23.0</ele><time>2026-05-01T12:52:24.999Z</time></trkpt><trkpt lat="40.411627" lon="0.3874548"><ele>23.0</ele><time>2026-05-01T12:52:25.999Z</time></trkpt><trkpt lat="40.4115625" lon="0.3875385"><ele>23.2</ele><time>2026-05-01T12:52:26.999Z</time></trkpt><trkpt lat="40.4114906" lon="0.3876196"><ele>23.4</ele><time>2026-05-01T12:52:27.999Z</time></trkpt><trkpt lat="40.4114102" lon="0.3877032"><ele>23.599999999999998</ele><time>2026-05-01T12:52:29Z</time></trkpt><trkpt lat="40.4113321" lon="0.3877854"><ele>23.799999999999997</ele><time>2026-05-01T12:52:29.999Z</time></trkpt><trkpt lat="40.4112673" lon="0.3878769"><ele>24.0</ele><time>2026-05-01T12:52:31Z</time></trkpt><trkpt lat="40.4112036" lon="0.3879578"><ele>23.4</ele><time>2026-05-01T12:52:32Z</time></trkpt><trkpt lat="40.411149" lon="0.3880501"><ele>22.799999999999997</ele><time>2026-05-01T12:52:32.999Z</time></trkpt><trkpt lat="40.4110932" lon="0.3881586"><ele>22.200000000000003</ele><time>2026-05-01T12:52:33.999Z</time></trkpt><trkpt lat="40.4110428" lon="0.3882754"><ele>21.6</ele><time>2026-05-01T12:52:34.999Z</time></trkpt><trkpt lat="40.4110099" lon="0.3884069"><ele>21.0</ele><time>2026-05-01T12:52:35.999Z</time></trkpt><trkpt lat="40.4109857" lon="0.388542"><ele>21.0</ele><time>2026-05-01T12:52:37Z</time></trkpt><trkpt lat="40.4109775" lon="0.3886822"><ele>21.0</ele><time>2026-05-01T12:52:37.999Z</time></trkpt><trkpt lat="40.4109726" lon="0.3888437"><ele>21.0</ele><time>2026-05-01T12:52:38.999Z</time></trkpt><trkpt lat="40.4109621" lon="0.3890014"><ele>21.0</ele><time>2026-05-01T12:52:39.999Z</time></trkpt><trkpt lat="40.4109498" lon="0.3891427"><ele>21.0</ele><time>2026-05-01T12:52:40.999Z</time></trkpt><trkpt lat="40.4109439" lon="0.3892661"><ele>21.0</ele><time>2026-05-01T12:52:41.999Z</time></trkpt><trkpt lat="40.4109777" lon="0.3893859"><ele>21.0</ele><time>2026-05-01T12:52:43.999Z</time></trkpt><trkpt lat="40.4110554" lon="0.3893427"><ele>21.0</ele><time>2026-05-01T12:52:46.999Z</time></trkpt><trkpt lat="40.4111068" lon="0.3891669"><ele>21.0</ele><time>2026-05-01T12:52:48.999Z</time></trkpt><trkpt lat="40.4111485" lon="0.3890422"><ele>21.0</ele><time>2026-05-01T12:52:49.999Z</time></trkpt><trkpt lat="40.4112014" lon="0.3889022"><ele>21.0</ele><time>2026-05-01T12:52:51Z</time></trkpt><trkpt lat="40.4112521" lon="0.3887674"><ele>21.0</ele><time>2026-05-01T12:52:51.999Z</time></trkpt><trkpt lat="40.4112969" lon="0.3886487"><ele>21.0</ele><time>2026-05-01T12:52:52.999Z</time></trkpt><trkpt lat="40.4113294" lon="0.3885637"><ele>21.0</ele><time>2026-05-01T12:52:54Z</time></trkpt><trkpt lat="40.4114181" lon="0.3885186"><ele>21.0</ele><time>2026-05-01T12:52:56Z</time></trkpt><trkpt lat="40.4114651" lon="0.3886373"><ele>21.0</ele><time>2026-05-01T12:52:58Z</time></trkpt><trkpt lat="40.4114778" lon="0.3887413"><ele>21.0</ele><time>2026-05-01T12:52:59Z</time></trkpt><trkpt lat="40.4114958" lon="0.3888758"><ele>21.0</ele><time>2026-05-01T12:53:00Z</time></trkpt><trkpt lat="40.411522" lon="0.3890377"><ele>21.0</ele><time>2026-05-01T12:53:01Z</time></trkpt><trkpt lat="40.4115495" lon="0.3891972"><ele>20.75</ele><time>2026-05-01T12:53:01.999Z</time></trkpt><trkpt lat="40.4115778" lon="0.3893828"><ele>20.5</ele><time>2026-05-01T12:53:02.999Z</time></trkpt><trkpt lat="40.4116083" lon="0.3895706"><ele>20.25</ele><time>2026-05-01T12:53:04Z</time></trkpt><trkpt lat="40.4116351" lon="0.3897616"><ele>20.0</ele><time>2026-05-01T12:53:04.999Z</time></trkpt><trkpt lat="40.4116669" lon="0.3899488"><ele>20.0</ele><time>2026-05-01T12:53:05.999Z</time></trkpt><trkpt lat="40.4117002" lon="0.3901354"><ele>20.0</ele><time>2026-05-01T12:53:06.999Z</time></trkpt><trkpt lat="40.4117245" lon="0.3903029"><ele>20.0</ele><time>2026-05-01T12:53:08Z</time></trkpt><trkpt lat="40.4117516" lon="0.3904707"><ele>20.0</ele><time>2026-05-01T12:53:08.999Z</time></trkpt><trkpt lat="40.4117712" lon="0.3906385"><ele>19.75</ele><time>2026-05-01T12:53:09.999Z</time></trkpt><trkpt lat="40.4117948" lon="0.3908081"><ele>19.5</ele><time>2026-05-01T12:53:11Z</time></trkpt><trkpt lat="40.4118132" lon="0.3909814"><ele>19.25</ele><time>2026-05-01T12:53:11.999Z</time></trkpt><trkpt lat="40.4118415" lon="0.3911557"><ele>19.0</ele><time>2026-05-01T12:53:12.999Z</time></trkpt><trkpt lat="40.4118718" lon="0.391328"><ele>19.0</ele><time>2026-05-01T12:53:13.999Z</time></trkpt><trkpt lat="40.4118969" lon="0.3914942"><ele>19.0</ele><time>2026-05-01T12:53:15Z</time></trkpt><trkpt lat="40.4119254" lon="0.3916531"><ele>19.0</ele><time>2026-05-01T12:53:15.999Z</time></trkpt><trkpt lat="40.4119459" lon="0.391804"><ele>19.0</ele><time>2026-05-01T12:53:16.999Z</time></trkpt><trkpt lat="40.4119735" lon="0.3919452"><ele>19.0</ele><time>2026-05-01T12:53:17.999Z</time></trkpt><trkpt lat="40.4120013" lon="0.392075"><ele>19.0</ele><time>2026-05-01T12:53:18.999Z</time></trkpt><trkpt lat="40.4120188" lon="0.3921945"><ele>19.0</ele><time>2026-05-01T12:53:20Z</time></trkpt><trkpt lat="40.4120388" lon="0.392301"><ele>19.0</ele><time>2026-05-01T12:53:20.999Z</time></trkpt><trkpt lat="40.4120606" lon="0.3923997"><ele>19.0</ele><time>2026-05-01T12:53:21.999Z</time></trkpt><trkpt lat="40.412079" lon="0.3924926"><ele>19.0</ele><time>2026-05-01T12:53:22.999Z</time></trkpt><trkpt lat="40.4120982" lon="0.3925828"><ele>18.857142857142858</ele><time>2026-05-01T12:53:23.999Z</time></trkpt><trkpt lat="40.4121228" lon="0.3926779"><ele>18.714285714285715</ele><time>2026-05-01T12:53:24.999Z</time></trkpt><trkpt lat="40.412145" lon="0.3927859"><ele>18.571428571428573</ele><time>2026-05-01T12:53:25.999Z</time></trkpt><trkpt lat="40.4121626" lon="0.3928815"><ele>18.42857142857143</ele><time>2026-05-01T12:53:26.999Z</time></trkpt><trkpt lat="40.4121719" lon="0.3929674"><ele>18.285714285714285</ele><time>2026-05-01T12:53:27.999Z</time></trkpt><trkpt lat="40.4121709" lon="0.3930536"><ele>18.142857142857146</ele><time>2026-05-01T12:53:30Z</time></trkpt><trkpt lat="40.4121013" lon="0.3930663"><ele>18.0</ele><time>2026-05-01T12:53:32Z</time></trkpt><trkpt lat="40.4120283" lon="0.3930532"><ele>17.666666666666668</ele><time>2026-05-01T12:53:32.999Z</time></trkpt><trkpt lat="40.4119529" lon="0.3930546"><ele>17.333333333333332</ele><time>2026-05-01T12:53:34Z</time></trkpt><trkpt lat="40.4118803" lon="0.3930735"><ele>17.0</ele><time>2026-05-01T12:53:35Z</time></trkpt><trkpt lat="40.4117982" lon="0.393115"><ele>16.666666666666664</ele><time>2026-05-01T12:53:36Z</time></trkpt><trkpt lat="40.4117232" lon="0.3931499"><ele>16.333333333333332</ele><time>2026-05-01T12:53:37Z</time></trkpt><trkpt lat="40.411655" lon="0.3931792"><ele>16.0</ele><time>2026-05-01T12:53:38Z</time></trkpt><trkpt lat="40.4115749" lon="0.3932109"><ele>16.0</ele><time>2026-05-01T12:53:38.999Z</time></trkpt><trkpt lat="40.4115054" lon="0.3932424"><ele>16.0</ele><time>2026-05-01T12:53:39.999Z</time></trkpt><trkpt lat="40.4114045" lon="0.3932884"><ele>16.0</ele><time>2026-05-01T12:53:42Z</time></trkpt><trkpt lat="40.4112991" lon="0.3933496"><ele>16.0</ele><time>2026-05-01T12:53:43.999Z</time></trkpt><trkpt lat="40.4112326" lon="0.3933863"><ele>16.0</ele><time>2026-05-01T12:53:45Z</time></trkpt><trkpt lat="40.4111523" lon="0.3934127"><ele>15.999999999999998</ele><time>2026-05-01T12:53:46Z</time></trkpt><trkpt lat="40.4110753" lon="0.39345"><ele>16.0</ele><time>2026-05-01T12:53:46.999Z</time></trkpt><trkpt lat="40.4109949" lon="0.3934885"><ele>16.0</ele><time>2026-05-01T12:53:48Z</time></trkpt><trkpt lat="40.4109171" lon="0.3935278"><ele>16.0</ele><time>2026-05-01T12:53:49Z</time></trkpt><trkpt lat="40.4108515" lon="0.3935601"><ele>15.999999999999998</ele><time>2026-05-01T12:53:50Z</time></trkpt><trkpt lat="40.4107941" lon="0.3935981"><ele>16.0</ele><time>2026-05-01T12:53:50.999Z</time></trkpt><trkpt lat="40.4107269" lon="0.3936321"><ele>15.999999999999998</ele><time>2026-05-01T12:53:52Z</time></trkpt><trkpt lat="40.4106522" lon="0.3936676"><ele>16.0</ele><time>2026-05-01T12:53:52.999Z</time></trkpt><trkpt lat="40.4105764" lon="0.3937043"><ele>16.0</ele><time>2026-05-01T12:53:54Z</time></trkpt><trkpt lat="40.4105116" lon="0.393742"><ele>16.0</ele><time>2026-05-01T12:53:54.999Z</time></trkpt><trkpt lat="40.4104496" lon="0.3937792"><ele>15.999999999999998</ele><time>2026-05-01T12:53:55.999Z</time></trkpt><trkpt lat="40.4103692" lon="0.3938254"><ele>16.0</ele><time>2026-05-01T12:53:58Z</time></trkpt><trkpt lat="40.4102978" lon="0.3938233"><ele>16.5</ele><time>2026-05-01T12:54:11Z</time></trkpt><trkpt lat="40.4102307" lon="0.393676"><ele>17.0</ele><time>2026-05-01T12:54:12.999Z</time></trkpt><trkpt lat="40.4101877" lon="0.3935363"><ele>17.5</ele><time>2026-05-01T12:54:13.999Z</time></trkpt><trkpt lat="40.4101394" lon="0.3933795"><ele>18.0</ele><time>2026-05-01T12:54:14.999Z</time></trkpt><trkpt lat="40.4100961" lon="0.3932094"><ele>18.0</ele><time>2026-05-01T12:54:16Z</time></trkpt><trkpt lat="40.4100642" lon="0.3930374"><ele>18.0</ele><time>2026-05-01T12:54:16.999Z</time></trkpt><trkpt lat="40.4100324" lon="0.392878"><ele>18.0</ele><time>2026-05-01T12:54:17.999Z</time></trkpt><trkpt lat="40.4100104" lon="0.3927292"><ele>18.0</ele><time>2026-05-01T12:54:18.999Z</time></trkpt><trkpt lat="40.4099942" lon="0.3925855"><ele>18.166666666666668</ele><time>2026-05-01T12:54:19.999Z</time></trkpt><trkpt lat="40.4099911" lon="0.3924646"><ele>18.333333333333332</ele><time>2026-05-01T12:54:20.999Z</time></trkpt><trkpt lat="40.4099824" lon="0.3923548"><ele>18.5</ele><time>2026-05-01T12:54:21.999Z</time></trkpt><trkpt lat="40.4099466" lon="0.3922594"><ele>18.666666666666664</ele><time>2026-05-01T12:54:22.999Z</time></trkpt><trkpt lat="40.4098994" lon="0.3921886"><ele>18.833333333333332</ele><time>2026-05-01T12:54:23.999Z</time></trkpt><trkpt lat="40.4098353" lon="0.3921626"><ele>19.0</ele><time>2026-05-01T12:54:24.999Z</time></trkpt><trkpt lat="40.4097068" lon="0.3921852"><ele>18.666666666666664</ele><time>2026-05-01T12:54:26.999Z</time></trkpt><trkpt lat="40.4096484" lon="0.3922338"><ele>18.333333333333332</ele><time>2026-05-01T12:54:28Z</time></trkpt><trkpt lat="40.4096082" lon="0.3923011"><ele>18.0</ele><time>2026-05-01T12:54:28.999Z</time></trkpt><trkpt lat="40.4095818" lon="0.3923918"><ele>17.666666666666668</ele><time>2026-05-01T12:54:29.999Z</time></trkpt><trkpt lat="40.4095682" lon="0.3924962"><ele>17.333333333333336</ele><time>2026-05-01T12:54:31Z</time></trkpt><trkpt lat="40.4095534" lon="0.392606"><ele>17.0</ele><time>2026-05-01T12:54:32Z</time></trkpt><trkpt lat="40.4095394" lon="0.3927381"><ele>17.0</ele><time>2026-05-01T12:54:32.999Z</time></trkpt><trkpt lat="40.4095184" lon="0.3928921"><ele>17.0</ele><time>2026-05-01T12:54:33.999Z</time></trkpt><trkpt lat="40.4095011" lon="0.3930511"><ele>17.0</ele><time>2026-05-01T12:54:35Z</time></trkpt><trkpt lat="40.4094675" lon="0.3932238"><ele>17.0</ele><time>2026-05-01T12:54:35.999Z</time></trkpt><trkpt lat="40.4094163" lon="0.393398"><ele>17.0</ele><time>2026-05-01T12:54:36.999Z</time></trkpt><trkpt lat="40.4093531" lon="0.3935748"><ele>17.0</ele><time>2026-05-01T12:54:37.999Z</time></trkpt><trkpt lat="40.4092878" lon="0.3937468"><ele>17.0</ele><time>2026-05-01T12:54:39Z</time></trkpt><trkpt lat="40.4092237" lon="0.3939053"><ele>17.0</ele><time>2026-05-01T12:54:39.999Z</time></trkpt><trkpt lat="40.4091697" lon="0.3940265"><ele>17.0</ele><time>2026-05-01T12:54:41Z</time></trkpt><trkpt lat="40.4091246" lon="0.3941288"><ele>17.0</ele><time>2026-05-01T12:54:41.999Z</time></trkpt><trkpt lat="40.4090895" lon="0.3942177"><ele>17.0</ele><time>2026-05-01T12:54:43Z</time></trkpt><trkpt lat="40.4090579" lon="0.3942919"><ele>17.0</ele><time>2026-05-01T12:54:44Z</time></trkpt><trkpt lat="40.4089566" lon="0.3943166"><ele>17.0</ele><time>2026-05-01T12:54:45.999Z</time></trkpt><trkpt lat="40.4088413" lon="0.3942453"><ele>16.666666666666668</ele><time>2026-05-01T12:54:47.999Z</time></trkpt><trkpt lat="40.4087734" lon="0.3942007"><ele>16.333333333333336</ele><time>2026-05-01T12:54:49Z</time></trkpt><trkpt lat="40.4087062" lon="0.39415"><ele>16.0</ele><time>2026-05-01T12:54:50Z</time></trkpt><trkpt lat="40.4086381" lon="0.3941046"><ele>15.666666666666668</ele><time>2026-05-01T12:54:50.999Z</time></trkpt><trkpt lat="40.4085715" lon="0.3940478"><ele>15.333333333333334</ele><time>2026-05-01T12:54:51.999Z</time></trkpt><trkpt lat="40.4085071" lon="0.3939952"><ele>15.0</ele><time>2026-05-01T12:54:53Z</time></trkpt><trkpt lat="40.4084448" lon="0.3939482"><ele>15.0</ele><time>2026-05-01T12:54:53.999Z</time></trkpt><trkpt lat="40.4083838" lon="0.3938991"><ele>15.0</ele><time>2026-05-01T12:54:54.999Z</time></trkpt><trkpt lat="40.408319" lon="0.3938651"><ele>15.0</ele><time>2026-05-01T12:54:55.999Z</time></trkpt><trkpt lat="40.4082134" lon="0.3938316"><ele>15.0</ele><time>2026-05-01T12:54:57.999Z</time></trkpt><trkpt lat="40.4081387" lon="0.3938604"><ele>15.0</ele><time>2026-05-01T12:54:59.999Z</time></trkpt><trkpt lat="40.4080465" lon="0.3939913"><ele>15.0</ele><time>2026-05-01T12:55:01.999Z</time></trkpt><trkpt lat="40.4079952" lon="0.3940809"><ele>15.0</ele><time>2026-05-01T12:55:03Z</time></trkpt><trkpt lat="40.4079413" lon="0.3941729"><ele>15.0</ele><time>2026-05-01T12:55:04Z</time></trkpt><trkpt lat="40.4078824" lon="0.3942482"><ele>15.0</ele><time>2026-05-01T12:55:04.999Z</time></trkpt><trkpt lat="40.4078095" lon="0.394315"><ele>15.0</ele><time>2026-05-01T12:55:05.999Z</time></trkpt><trkpt lat="40.4077275" lon="0.3943591"><ele>15.0</ele><time>2026-05-01T12:55:06.999Z</time></trkpt><trkpt lat="40.4076639" lon="0.394399"><ele>14.857142857142858</ele><time>2026-05-01T12:55:07.999Z</time></trkpt><trkpt lat="40.4075928" lon="0.3944436"><ele>14.714285714285714</ele><time>2026-05-01T12:55:09Z</time></trkpt><trkpt lat="40.4075232" lon="0.3944718"><ele>14.571428571428571</ele><time>2026-05-01T12:55:09.999Z</time></trkpt><trkpt lat="40.4074552" lon="0.3944861"><ele>14.428571428571429</ele><time>2026-05-01T12:55:10.999Z</time></trkpt><trkpt lat="40.4073871" lon="0.3944901"><ele>14.285714285714285</ele><time>2026-05-01T12:55:12Z</time></trkpt><trkpt lat="40.4073164" lon="0.3944695"><ele>14.142857142857142</ele><time>2026-05-01T12:55:12.999Z</time></trkpt><trkpt lat="40.4072499" lon="0.3944256"><ele>14.0</ele><time>2026-05-01T12:55:13.999Z</time></trkpt><trkpt lat="40.4071885" lon="0.3943734"><ele>14.666666666666668</ele><time>2026-05-01T12:55:15Z</time></trkpt><trkpt lat="40.4071278" lon="0.394305"><ele>15.333333333333334</ele><time>2026-05-01T12:55:15.999Z</time></trkpt><trkpt lat="40.4070755" lon="0.3942172"><ele>16.0</ele><time>2026-05-01T12:55:16.999Z</time></trkpt><trkpt lat="40.4070262" lon="0.3941333"><ele>16.666666666666668</ele><time>2026-05-01T12:55:18Z</time></trkpt><trkpt lat="40.4069778" lon="0.3940589"><ele>17.333333333333332</ele><time>2026-05-01T12:55:18.999Z</time></trkpt><trkpt lat="40.4069287" lon="0.3939959"><ele>18.0</ele><time>2026-05-01T12:55:20Z</time></trkpt><trkpt lat="40.4068733" lon="0.3939471"><ele>18.0</ele><time>2026-05-01T12:55:21Z</time></trkpt><trkpt lat="40.4068069" lon="0.3939495"><ele>18.0</ele><time>2026-05-01T12:55:22Z</time></trkpt><trkpt lat="40.4066969" lon="0.394001"><ele>18.0</ele><time>2026-05-01T12:55:24Z</time></trkpt><trkpt lat="40.4065967" lon="0.3940712"><ele>18.0</ele><time>2026-05-01T12:55:25.999Z</time></trkpt><trkpt lat="40.4065408" lon="0.3941185"><ele>18.0</ele><time>2026-05-01T12:55:26.999Z</time></trkpt><trkpt lat="40.4064774" lon="0.3941689"><ele>18.0</ele><time>2026-05-01T12:55:27.999Z</time></trkpt><trkpt lat="40.4064114" lon="0.3942346"><ele>18.0</ele><time>2026-05-01T12:55:28.999Z</time></trkpt><trkpt lat="40.4063423" lon="0.3943087"><ele>18.0</ele><time>2026-05-01T12:55:30Z</time></trkpt><trkpt lat="40.4062689" lon="0.3943874"><ele>18.0</ele><time>2026-05-01T12:55:30.999Z</time></trkpt><trkpt lat="40.4061918" lon="0.3944688"><ele>18.0</ele><time>2026-05-01T12:55:31.999Z</time></trkpt><trkpt lat="40.4061201" lon="0.3945485"><ele>18.0</ele><time>2026-05-01T12:55:32.999Z</time></trkpt><trkpt lat="40.4060424" lon="0.3946247"><ele>17.8</ele><time>2026-05-01T12:55:33.999Z</time></trkpt><trkpt lat="40.4059676" lon="0.3947029"><ele>17.6</ele><time>2026-05-01T12:55:34.999Z</time></trkpt><trkpt lat="40.4058926" lon="0.3947749"><ele>17.4</ele><time>2026-05-01T12:55:36Z</time></trkpt><trkpt lat="40.405823" lon="0.3948466"><ele>17.2</ele><time>2026-05-01T12:55:36.999Z</time></trkpt><trkpt lat="40.4057505" lon="0.3949109"><ele>17.0</ele><time>2026-05-01T12:55:37.999Z</time></trkpt><trkpt lat="40.4056813" lon="0.3949809"><ele>17.0</ele><time>2026-05-01T12:55:39Z</time></trkpt><trkpt lat="40.4056067" lon="0.3950493"><ele>17.0</ele><time>2026-05-01T12:55:40Z</time></trkpt><trkpt lat="40.4055338" lon="0.3951286"><ele>17.0</ele><time>2026-05-01T12:55:40.999Z</time></trkpt><trkpt lat="40.4054551" lon="0.395205"><ele>17.0</ele><time>2026-05-01T12:55:41.999Z</time></trkpt><trkpt lat="40.4053768" lon="0.3952944"><ele>17.0</ele><time>2026-05-01T12:55:43Z</time></trkpt><trkpt lat="40.4052898" lon="0.3953875"><ele>17.0</ele><time>2026-05-01T12:55:43.999Z</time></trkpt><trkpt lat="40.4052091" lon="0.3954692"><ele>17.0</ele><time>2026-05-01T12:55:44.999Z</time></trkpt><trkpt lat="40.4051318" lon="0.3955429"><ele>17.0</ele><time>2026-05-01T12:55:45.999Z</time></trkpt><trkpt lat="40.4050596" lon="0.3956172"><ele>17.0</ele><time>2026-05-01T12:55:47Z</time></trkpt><trkpt lat="40.4049796" lon="0.3956995"><ele>17.0</ele><time>2026-05-01T12:55:47.999Z</time></trkpt><trkpt lat="40.4048969" lon="0.3957738"><ele>17.0</ele><time>2026-05-01T12:55:48.999Z</time></trkpt><trkpt lat="40.4048105" lon="0.3958451"><ele>17.0</ele><time>2026-05-01T12:55:49.999Z</time></trkpt><trkpt lat="40.404727" lon="0.395931"><ele>17.0</ele><time>2026-05-01T12:55:50.999Z</time></trkpt><trkpt lat="40.4046392" lon="0.3960133"><ele>17.0</ele><time>2026-05-01T12:55:52Z</time></trkpt><trkpt lat="40.4045569" lon="0.3960987"><ele>17.0</ele><time>2026-05-01T12:55:52.999Z</time></trkpt><trkpt lat="40.4044725" lon="0.3961858"><ele>16.8</ele><time>2026-05-01T12:55:53.999Z</time></trkpt><trkpt lat="40.4043917" lon="0.3962677"><ele>16.6</ele><time>2026-05-01T12:55:54.999Z</time></trkpt><trkpt lat="40.4043108" lon="0.3963468"><ele>16.400000000000002</ele><time>2026-05-01T12:55:56Z</time></trkpt><trkpt lat="40.4042375" lon="0.3964181"><ele>16.2</ele><time>2026-05-01T12:55:56.999Z</time></trkpt><trkpt lat="40.4041718" lon="0.3964876"><ele>16.0</ele><time>2026-05-01T12:55:57.999Z</time></trkpt><trkpt lat="40.4041035" lon="0.3965512"><ele>16.0</ele><time>2026-05-01T12:55:58.999Z</time></trkpt><trkpt lat="40.4040371" lon="0.3966234"><ele>16.0</ele><time>2026-05-01T12:55:59.999Z</time></trkpt><trkpt lat="40.4039651" lon="0.3967038"><ele>16.0</ele><time>2026-05-01T12:56:00.999Z</time></trkpt><trkpt lat="40.4038865" lon="0.3967826"><ele>16.0</ele><time>2026-05-01T12:56:01.999Z</time></trkpt><trkpt lat="40.403803" lon="0.3968609"><ele>16.0</ele><time>2026-05-01T12:56:02.999Z</time></trkpt><trkpt lat="40.4037149" lon="0.3969421"><ele>16.0</ele><time>2026-05-01T12:56:03.999Z</time></trkpt><trkpt lat="40.4036302" lon="0.3970341"><ele>16.0</ele><time>2026-05-01T12:56:04.999Z</time></trkpt><trkpt lat="40.4035415" lon="0.3971254"><ele>16.0</ele><time>2026-05-01T12:56:06Z</time></trkpt><trkpt lat="40.4034459" lon="0.3972118"><ele>16.0</ele><time>2026-05-01T12:56:06.999Z</time></trkpt><trkpt lat="40.4033612" lon="0.3973076"><ele>16.0</ele><time>2026-05-01T12:56:08Z</time></trkpt><trkpt lat="40.4032708" lon="0.3973946"><ele>16.0</ele><time>2026-05-01T12:56:08.999Z</time></trkpt><trkpt lat="40.4031788" lon="0.3974854"><ele>16.0</ele><time>2026-05-01T12:56:09.999Z</time></trkpt><trkpt lat="40.4030726" lon="0.3975773"><ele>16.0</ele><time>2026-05-01T12:56:11Z</time></trkpt><trkpt lat="40.4029627" lon="0.3976759"><ele>15.75</ele><time>2026-05-01T12:56:11.999Z</time></trkpt><trkpt lat="40.4028474" lon="0.3977873"><ele>15.5</ele><time>2026-05-01T12:56:12.999Z</time></trkpt><trkpt lat="40.4027263" lon="0.3978809"><ele>15.25</ele><time>2026-05-01T12:56:14Z</time></trkpt><trkpt lat="40.4026002" lon="0.3979678"><ele>15.0</ele><time>2026-05-01T12:56:14.999Z</time></trkpt><trkpt lat="40.4024527" lon="0.398023"><ele>15.0</ele><time>2026-05-01T12:56:15.999Z</time></trkpt><trkpt lat="40.4023104" lon="0.3980834"><ele>15.0</ele><time>2026-05-01T12:56:17Z</time></trkpt><trkpt lat="40.4021641" lon="0.3981456"><ele>15.0</ele><time>2026-05-01T12:56:18Z</time></trkpt><trkpt lat="40.402019" lon="0.3982145"><ele>14.0</ele><time>2026-05-01T12:56:18.999Z</time></trkpt><trkpt lat="40.401864" lon="0.3982813"><ele>13.0</ele><time>2026-05-01T12:56:20Z</time></trkpt><trkpt lat="40.4017205" lon="0.3983428"><ele>12.0</ele><time>2026-05-01T12:56:20.999Z</time></trkpt><trkpt lat="40.4015858" lon="0.3984045"><ele>12.0</ele><time>2026-05-01T12:56:21.999Z</time></trkpt><trkpt lat="40.4014587" lon="0.3984698"><ele>12.0</ele><time>2026-05-01T12:56:22.999Z</time></trkpt><trkpt lat="40.4013267" lon="0.3985405"><ele>12.0</ele><time>2026-05-01T12:56:24Z</time></trkpt><trkpt lat="40.4012053" lon="0.3986312"><ele>12.0</ele><time>2026-05-01T12:56:25Z</time></trkpt><trkpt lat="40.4010858" lon="0.3987612"><ele>12.75</ele><time>2026-05-01T12:56:25.999Z</time></trkpt><trkpt lat="40.40098" lon="0.3988623"><ele>13.5</ele><time>2026-05-01T12:56:26.999Z</time></trkpt><trkpt lat="40.4008693" lon="0.3989556"><ele>14.25</ele><time>2026-05-01T12:56:27.999Z</time></trkpt><trkpt lat="40.400753" lon="0.3990519"><ele>15.0</ele><time>2026-05-01T12:56:28.999Z</time></trkpt><trkpt lat="40.4006413" lon="0.3991515"><ele>15.0</ele><time>2026-05-01T12:56:29.999Z</time></trkpt><trkpt lat="40.4005433" lon="0.3992473"><ele>15.0</ele><time>2026-05-01T12:56:30.999Z</time></trkpt><trkpt lat="40.4004479" lon="0.3993414"><ele>15.0</ele><time>2026-05-01T12:56:32Z</time></trkpt><trkpt lat="40.4003492" lon="0.3994379"><ele>15.0</ele><time>2026-05-01T12:56:32.999Z</time></trkpt><trkpt lat="40.4002552" lon="0.399539"><ele>15.0</ele><time>2026-05-01T12:56:34Z</time></trkpt><trkpt lat="40.4001612" lon="0.3996452"><ele>15.0</ele><time>2026-05-01T12:56:34.999Z</time></trkpt><trkpt lat="40.4000712" lon="0.3997434"><ele>15.0</ele><time>2026-05-01T12:56:35.999Z</time></trkpt><trkpt lat="40.3999912" lon="0.3998397"><ele>15.0</ele><time>2026-05-01T12:56:37Z</time></trkpt><trkpt lat="40.399909" lon="0.3999339"><ele>14.5</ele><time>2026-05-01T12:56:37.999Z</time></trkpt><trkpt lat="40.3998205" lon="0.4000288"><ele>14.0</ele><time>2026-05-01T12:56:38.999Z</time></trkpt><trkpt lat="40.3997328" lon="0.4001222"><ele>13.5</ele><time>2026-05-01T12:56:40Z</time></trkpt><trkpt lat="40.3996414" lon="0.4002207"><ele>13.0</ele><time>2026-05-01T12:56:40.999Z</time></trkpt><trkpt lat="40.3995584" lon="0.4003074"><ele>13.0</ele><time>2026-05-01T12:56:42Z</time></trkpt><trkpt lat="40.3994766" lon="0.4003966"><ele>13.0</ele><time>2026-05-01T12:56:42.999Z</time></trkpt><trkpt lat="40.3993976" lon="0.4004949"><ele>13.0</ele><time>2026-05-01T12:56:43.999Z</time></trkpt><trkpt lat="40.3993326" lon="0.4006004"><ele>13.0</ele><time>2026-05-01T12:56:45Z</time></trkpt><trkpt lat="40.3992707" lon="0.400697"><ele>13.0</ele><time>2026-05-01T12:56:45.999Z</time></trkpt><trkpt lat="40.3992108" lon="0.4007993"><ele>12.600000000000001</ele><time>2026-05-01T12:56:46.999Z</time></trkpt><trkpt lat="40.399164" lon="0.4008839"><ele>12.200000000000001</ele><time>2026-05-01T12:56:48Z</time></trkpt><trkpt lat="40.3990909" lon="0.4010144"><ele>11.8</ele><time>2026-05-01T12:56:49.999Z</time></trkpt><trkpt lat="40.3990307" lon="0.4011271"><ele>11.4</ele><time>2026-05-01T12:56:52Z</time></trkpt><trkpt lat="40.3989727" lon="0.4012171"><ele>11.0</ele><time>2026-05-01T12:56:53.999Z</time></trkpt><trkpt lat="40.3989242" lon="0.4013191"><ele>11.285714285714286</ele><time>2026-05-01T12:56:56Z</time></trkpt><trkpt lat="40.3988896" lon="0.4014082"><ele>11.571428571428571</ele><time>2026-05-01T12:56:58Z</time></trkpt><trkpt lat="40.3988484" lon="0.4014772"><ele>11.857142857142858</ele><time>2026-05-01T12:56:59.999Z</time></trkpt><trkpt lat="40.3988028" lon="0.4015456"><ele>12.142857142857142</ele><time>2026-05-01T12:57:01.999Z</time></trkpt><trkpt lat="40.3987445" lon="0.4016469"><ele>12.428571428571429</ele><time>2026-05-01T12:57:04Z</time></trkpt><trkpt lat="40.3987336" lon="0.4017298"><ele>12.714285714285714</ele><time>2026-05-01T12:57:05.999Z</time></trkpt><trkpt lat="40.3987902" lon="0.4016898"><ele>13.0</ele><time>2026-05-01T12:57:19.999Z</time></trkpt><trkpt lat="40.3988209" lon="0.4015687"><ele>12.999999999999998</ele><time>2026-05-01T12:57:22Z</time></trkpt><trkpt lat="40.3988615" lon="0.4015014"><ele>13.0</ele><time>2026-05-01T12:57:23Z</time></trkpt><trkpt lat="40.3989052" lon="0.4014239"><ele>13.0</ele><time>2026-05-01T12:57:23.999Z</time></trkpt><trkpt lat="40.3989585" lon="0.4013269"><ele>13.0</ele><time>2026-05-01T12:57:24.999Z</time></trkpt><trkpt lat="40.3990127" lon="0.4012128"><ele>12.999999999999998</ele><time>2026-05-01T12:57:25.999Z</time></trkpt><trkpt lat="40.3990719" lon="0.4011067"><ele>13.0</ele><time>2026-05-01T12:57:27Z</time></trkpt><trkpt lat="40.399123" lon="0.4010038"><ele>13.0</ele><time>2026-05-01T12:57:27.999Z</time></trkpt><trkpt lat="40.3991664" lon="0.4009095"><ele>13.0</ele><time>2026-05-01T12:57:28.999Z</time></trkpt><trkpt lat="40.3992058" lon="0.4008382"><ele>13.0</ele><time>2026-05-01T12:57:30Z</time></trkpt><trkpt lat="40.3992873" lon="0.4007032"><ele>13.0</ele><time>2026-05-01T12:57:31.999Z</time></trkpt><trkpt lat="40.3993621" lon="0.400585"><ele>13.0</ele><time>2026-05-01T12:57:33.999Z</time></trkpt><trkpt lat="40.3993907" lon="0.4004714"><ele>13.0</ele><time>2026-05-01T12:57:35.999Z</time></trkpt><trkpt lat="40.3993415" lon="0.4004089"><ele>13.0</ele><time>2026-05-01T12:57:37.999Z</time></trkpt><trkpt lat="40.3992226" lon="0.4003514"><ele>13.0</ele><time>2026-05-01T12:57:40Z</time></trkpt><trkpt lat="40.3991388" lon="0.4002966"><ele>13.0</ele><time>2026-05-01T12:57:40.999Z</time></trkpt><trkpt lat="40.3990505" lon="0.4002488"><ele>13.0</ele><time>2026-05-01T12:57:41.999Z</time></trkpt><trkpt lat="40.3989645" lon="0.400205"><ele>12.999999999999998</ele><time>2026-05-01T12:57:42.999Z</time></trkpt><trkpt lat="40.3988806" lon="0.4001554"><ele>13.0</ele><time>2026-05-01T12:57:44Z</time></trkpt><trkpt lat="40.3987971" lon="0.4001073"><ele>13.0</ele><time>2026-05-01T12:57:45Z</time></trkpt><trkpt lat="40.3987164" lon="0.4000635"><ele>13.0</ele><time>2026-05-01T12:57:45.999Z</time></trkpt><trkpt lat="40.3986439" lon="0.4000289"><ele>12.999999999999998</ele><time>2026-05-01T12:57:47Z</time></trkpt><trkpt lat="40.3985623" lon="0.3999895"><ele>13.0</ele><time>2026-05-01T12:57:48Z</time></trkpt><trkpt lat="40.3984813" lon="0.3999477"><ele>12.999999999999998</ele><time>2026-05-01T12:57:48.999Z</time></trkpt><trkpt lat="40.3983973" lon="0.3999041"><ele>13.0</ele><time>2026-05-01T12:57:49.999Z</time></trkpt><trkpt lat="40.3983149" lon="0.3998617"><ele>13.0</ele><time>2026-05-01T12:57:50.999Z</time></trkpt><trkpt lat="40.3982333" lon="0.3998189"><ele>13.0</ele><time>2026-05-01T12:57:51.999Z</time></trkpt><trkpt lat="40.3981525" lon="0.3997704"><ele>12.999999999999998</ele><time>2026-05-01T12:57:52.999Z</time></trkpt><trkpt lat="40.3980773" lon="0.3997245"><ele>13.0</ele><time>2026-05-01T12:57:54Z</time></trkpt><trkpt lat="40.3979991" lon="0.3996815"><ele>12.999999999999998</ele><time>2026-05-01T12:57:55Z</time></trkpt><trkpt lat="40.3979191" lon="0.3996397"><ele>13.0</ele><time>2026-05-01T12:57:56Z</time></trkpt><trkpt lat="40.3978426" lon="0.3995973"><ele>13.0</ele><time>2026-05-01T12:57:56.999Z</time></trkpt><trkpt lat="40.397766" lon="0.3995464"><ele>13.0</ele><time>2026-05-01T12:57:57.998Z</time></trkpt><trkpt lat="40.3976936" lon="0.3994811"><ele>12.999999999999998</ele><time>2026-05-01T12:57:59Z</time></trkpt><trkpt lat="40.3976164" lon="0.3994053"><ele>13.0</ele><time>2026-05-01T12:58:00Z</time></trkpt><trkpt lat="40.3975372" lon="0.3993294"><ele>13.0</ele><time>2026-05-01T12:58:00.999Z</time></trkpt><trkpt lat="40.3974568" lon="0.399251"><ele>13.0</ele><time>2026-05-01T12:58:01.999Z</time></trkpt><trkpt lat="40.3973772" lon="0.3991629"><ele>13.0</ele><time>2026-05-01T12:58:02.999Z</time></trkpt><trkpt lat="40.3972912" lon="0.3990793"><ele>13.0</ele><time>2026-05-01T12:58:03.999Z</time></trkpt><trkpt lat="40.3972067" lon="0.3990068"><ele>13.0</ele><time>2026-05-01T12:58:04.999Z</time></trkpt><trkpt lat="40.397131" lon="0.3989317"><ele>12.999999999999998</ele><time>2026-05-01T12:58:05.999Z</time></trkpt><trkpt lat="40.3970721" lon="0.3988763"><ele>13.0</ele><time>2026-05-01T12:58:07Z</time></trkpt><trkpt lat="40.3970155" lon="0.3988189"><ele>13.0</ele><time>2026-05-01T12:58:07.999Z</time></trkpt><trkpt lat="40.396959" lon="0.3987822"><ele>13.0</ele><time>2026-05-01T12:58:09Z</time></trkpt><trkpt lat="40.3968849" lon="0.3987399"><ele>12.999999999999998</ele><time>2026-05-01T12:58:10.999Z</time></trkpt><trkpt lat="40.3968085" lon="0.3987213"><ele>13.0</ele><time>2026-05-01T12:58:12.999Z</time></trkpt><trkpt lat="40.3967307" lon="0.3987807"><ele>13.0</ele><time>2026-05-01T12:58:15Z</time></trkpt><trkpt lat="40.3967743" lon="0.3988455"><ele>13.0</ele><time>2026-05-01T12:58:24.999Z</time></trkpt><trkpt lat="40.3968848" lon="0.3987988"><ele>13.0</ele><time>2026-05-01T12:58:27Z</time></trkpt><trkpt lat="40.3970038" lon="0.3988179"><ele>13.0</ele><time>2026-05-01T12:58:29Z</time></trkpt><trkpt lat="40.3970631" lon="0.3988762"><ele>13.0</ele><time>2026-05-01T12:58:30Z</time></trkpt><trkpt lat="40.3971312" lon="0.3989469"><ele>13.0</ele><time>2026-05-01T12:58:30.999Z</time></trkpt><trkpt lat="40.3972046" lon="0.3990109"><ele>13.0</ele><time>2026-05-01T12:58:31.999Z</time></trkpt><trkpt lat="40.3972851" lon="0.3990881"><ele>13.0</ele><time>2026-05-01T12:58:32.999Z</time></trkpt><trkpt lat="40.3973754" lon="0.3991698"><ele>13.0</ele><time>2026-05-01T12:58:33.999Z</time></trkpt><trkpt lat="40.3974715" lon="0.3992611"><ele>13.0</ele><time>2026-05-01T12:58:34.999Z</time></trkpt><trkpt lat="40.3975632" lon="0.3993536"><ele>13.0</ele><time>2026-05-01T12:58:35.999Z</time></trkpt><trkpt lat="40.397645" lon="0.3994374"><ele>13.0</ele><time>2026-05-01T12:58:37Z</time></trkpt><trkpt lat="40.3977246" lon="0.399504"><ele>13.0</ele><time>2026-05-01T12:58:37.999Z</time></trkpt><trkpt lat="40.3978132" lon="0.3995734"><ele>13.0</ele><time>2026-05-01T12:58:39Z</time></trkpt><trkpt lat="40.3979076" lon="0.3996393"><ele>13.0</ele><time>2026-05-01T12:58:40Z</time></trkpt><trkpt lat="40.3980191" lon="0.3997001"><ele>13.0</ele><time>2026-05-01T12:58:41Z</time></trkpt><trkpt lat="40.3981329" lon="0.3997628"><ele>13.0</ele><time>2026-05-01T12:58:41.999Z</time></trkpt><trkpt lat="40.3982435" lon="0.3998256"><ele>13.0</ele><time>2026-05-01T12:58:42.999Z</time></trkpt><trkpt lat="40.3983552" lon="0.3998903"><ele>13.0</ele><time>2026-05-01T12:58:44Z</time></trkpt><trkpt lat="40.3984702" lon="0.3999509"><ele>13.0</ele><time>2026-05-01T12:58:44.999Z</time></trkpt><trkpt lat="40.3985773" lon="0.4000136"><ele>13.0</ele><time>2026-05-01T12:58:45.999Z</time></trkpt><trkpt lat="40.3986728" lon="0.4000643"><ele>13.0</ele><time>2026-05-01T12:58:47Z</time></trkpt><trkpt lat="40.3987774" lon="0.400125"><ele>13.0</ele><time>2026-05-01T12:58:47.999Z</time></trkpt><trkpt lat="40.398884" lon="0.4001845"><ele>13.0</ele><time>2026-05-01T12:58:48.999Z</time></trkpt><trkpt lat="40.3989936" lon="0.4002409"><ele>13.0</ele><time>2026-05-01T12:58:49.999Z</time></trkpt><trkpt lat="40.3990967" lon="0.4002946"><ele>13.0</ele><time>2026-05-01T12:58:51Z</time></trkpt><trkpt lat="40.3992772" lon="0.400398"><ele>13.0</ele><time>2026-05-01T12:58:52.999Z</time></trkpt><trkpt lat="40.3993774" lon="0.4004596"><ele>12.600000000000001</ele><time>2026-05-01T12:58:55Z</time></trkpt><trkpt lat="40.3993662" lon="0.4005811"><ele>12.200000000000001</ele><time>2026-05-01T12:59:02.999Z</time></trkpt><trkpt lat="40.3993174" lon="0.400661"><ele>11.8</ele><time>2026-05-01T12:59:03.999Z</time></trkpt><trkpt lat="40.3992385" lon="0.4007652"><ele>11.4</ele><time>2026-05-01T12:59:04.999Z</time></trkpt><trkpt lat="40.399156" lon="0.400888"><ele>11.0</ele><time>2026-05-01T12:59:05.999Z</time></trkpt><trkpt lat="40.3990697" lon="0.4010426"><ele>11.0</ele><time>2026-05-01T12:59:06.999Z</time></trkpt><trkpt lat="40.3989878" lon="0.4011991"><ele>11.0</ele><time>2026-05-01T12:59:07.999Z</time></trkpt><trkpt lat="40.3989121" lon="0.4013472"><ele>11.0</ele><time>2026-05-01T12:59:08.999Z</time></trkpt><trkpt lat="40.3988424" lon="0.4014846"><ele>11.0</ele><time>2026-05-01T12:59:09.999Z</time></trkpt><trkpt lat="40.3987721" lon="0.4016185"><ele>11.5</ele><time>2026-05-01T12:59:10.999Z</time></trkpt><trkpt lat="40.398703" lon="0.4017524"><ele>12.0</ele><time>2026-05-01T12:59:11.999Z</time></trkpt><trkpt lat="40.3986352" lon="0.4018776"><ele>12.5</ele><time>2026-05-01T12:59:13Z</time></trkpt><trkpt lat="40.3985716" lon="0.402002"><ele>13.0</ele><time>2026-05-01T12:59:13.999Z</time></trkpt><trkpt lat="40.39851" lon="0.4021252"><ele>12.600000000000001</ele><time>2026-05-01T12:59:15Z</time></trkpt><trkpt lat="40.398443" lon="0.4022476"><ele>12.200000000000001</ele><time>2026-05-01T12:59:15.999Z</time></trkpt><trkpt lat="40.3983748" lon="0.4023752"><ele>11.8</ele><time>2026-05-01T12:59:17Z</time></trkpt><trkpt lat="40.3983128" lon="0.4025018"><ele>11.4</ele><time>2026-05-01T12:59:17.999Z</time></trkpt><trkpt lat="40.3982561" lon="0.4026092"><ele>11.0</ele><time>2026-05-01T12:59:18.999Z</time></trkpt><trkpt lat="40.3982062" lon="0.402696"><ele>11.0</ele><time>2026-05-01T12:59:19.999Z</time></trkpt><trkpt lat="40.3981671" lon="0.4027717"><ele>11.0</ele><time>2026-05-01T12:59:21Z</time></trkpt><trkpt lat="40.3981026" lon="0.402891"><ele>11.0</ele><time>2026-05-01T12:59:23Z</time></trkpt><trkpt lat="40.3980613" lon="0.4029893"><ele>11.0</ele><time>2026-05-01T12:59:25Z</time></trkpt><trkpt lat="40.3980194" lon="0.4030666"><ele>11.0</ele><time>2026-05-01T12:59:27Z</time></trkpt><trkpt lat="40.3979714" lon="0.4031541"><ele>11.0</ele><time>2026-05-01T12:59:29Z</time></trkpt><trkpt lat="40.3979075" lon="0.4032669"><ele>10.857142857142858</ele><time>2026-05-01T12:59:30.999Z</time></trkpt><trkpt lat="40.397863" lon="0.403335"><ele>10.714285714285714</ele><time>2026-05-01T12:59:32Z</time></trkpt><trkpt lat="40.397828" lon="0.4034076"><ele>10.571428571428571</ele><time>2026-05-01T12:59:33Z</time></trkpt><trkpt lat="40.3977865" lon="0.4034908"><ele>10.428571428571429</ele><time>2026-05-01T12:59:33.999Z</time></trkpt><trkpt lat="40.3977385" lon="0.4035739"><ele>10.285714285714286</ele><time>2026-05-01T12:59:34.999Z</time></trkpt><trkpt lat="40.3976977" lon="0.4036517"><ele>10.142857142857142</ele><time>2026-05-01T12:59:36Z</time></trkpt><trkpt lat="40.3976613" lon="0.4037269"><ele>10.0</ele><time>2026-05-01T12:59:37Z</time></trkpt><trkpt lat="40.3975488" lon="0.4037669"><ele>10.0</ele><time>2026-05-01T12:59:38.999Z</time></trkpt><trkpt lat="40.3974735" lon="0.4037255"><ele>10.0</ele><time>2026-05-01T12:59:39.999Z</time></trkpt><trkpt lat="40.3973858" lon="0.4036834"><ele>10.0</ele><time>2026-05-01T12:59:40.999Z</time></trkpt><trkpt lat="40.3972903" lon="0.4036286"><ele>10.0</ele><time>2026-05-01T12:59:42Z</time></trkpt><trkpt lat="40.3971859" lon="0.4035659"><ele>10.0</ele><time>2026-05-01T12:59:42.999Z</time></trkpt><trkpt lat="40.3970734" lon="0.4034906"><ele>10.0</ele><time>2026-05-01T12:59:43.999Z</time></trkpt><trkpt lat="40.3969563" lon="0.4034166"><ele>10.0</ele><time>2026-05-01T12:59:45Z</time></trkpt><trkpt lat="40.3968321" lon="0.4033395"><ele>10.0</ele><time>2026-05-01T12:59:45.999Z</time></trkpt><trkpt lat="40.3966918" lon="0.4032578"><ele>10.0</ele><time>2026-05-01T12:59:47Z</time></trkpt><trkpt lat="40.3965506" lon="0.4031812"><ele>10.0</ele><time>2026-05-01T12:59:47.999Z</time></trkpt><trkpt lat="40.3964154" lon="0.4031025"><ele>10.0</ele><time>2026-05-01T12:59:49Z</time></trkpt><trkpt lat="40.3962837" lon="0.4030247"><ele>10.0</ele><time>2026-05-01T12:59:49.999Z</time></trkpt><trkpt lat="40.3961661" lon="0.4029529"><ele>10.0</ele><time>2026-05-01T12:59:51Z</time></trkpt><trkpt lat="40.3960496" lon="0.4028804"><ele>10.0</ele><time>2026-05-01T12:59:51.999Z</time></trkpt><trkpt lat="40.3959405" lon="0.4028163"><ele>10.0</ele><time>2026-05-01T12:59:53Z</time></trkpt><trkpt lat="40.3958423" lon="0.4027521"><ele>10.0</ele><time>2026-05-01T12:59:53.999Z</time></trkpt><trkpt lat="40.3957403" lon="0.4026961"><ele>10.0</ele><time>2026-05-01T12:59:54.999Z</time></trkpt><trkpt lat="40.3956377" lon="0.4026281"><ele>10.0</ele><time>2026-05-01T12:59:56Z</time></trkpt><trkpt lat="40.395535" lon="0.4025648"><ele>10.0</ele><time>2026-05-01T12:59:56.999Z</time></trkpt><trkpt lat="40.3954405" lon="0.4025048"><ele>10.0</ele><time>2026-05-01T12:59:57.999Z</time></trkpt><trkpt lat="40.3953445" lon="0.4024486"><ele>10.0</ele><time>2026-05-01T12:59:59Z</time></trkpt><trkpt lat="40.3952532" lon="0.402387"><ele>10.0</ele><time>2026-05-01T13:00:00Z</time></trkpt><trkpt lat="40.3951675" lon="0.4023199"><ele>10.0</ele><time>2026-05-01T13:00:00.999Z</time></trkpt><trkpt lat="40.3950749" lon="0.4022478"><ele>10.0</ele><time>2026-05-01T13:00:01.999Z</time></trkpt><trkpt lat="40.3949904" lon="0.4021839"><ele>10.0</ele><time>2026-05-01T13:00:02.999Z</time></trkpt><trkpt lat="40.3949107" lon="0.4021162"><ele>10.0</ele><time>2026-05-01T13:00:03.999Z</time></trkpt><trkpt lat="40.3948381" lon="0.4020419"><ele>10.0</ele><time>2026-05-01T13:00:05Z</time></trkpt><trkpt lat="40.3947604" lon="0.4019744"><ele>10.0</ele><time>2026-05-01T13:00:05.999Z</time></trkpt><trkpt lat="40.3946951" lon="0.4018999"><ele>10.0</ele><time>2026-05-01T13:00:06.999Z</time></trkpt><trkpt lat="40.3946111" lon="0.4018352"><ele>10.0</ele><time>2026-05-01T13:00:07.999Z</time></trkpt><trkpt lat="40.3945194" lon="0.4017592"><ele>10.0</ele><time>2026-05-01T13:00:08.999Z</time></trkpt><trkpt lat="40.3944309" lon="0.4016812"><ele>10.0</ele><time>2026-05-01T13:00:09.999Z</time></trkpt><trkpt lat="40.3943401" lon="0.401605"><ele>9.8</ele><time>2026-05-01T13:00:10.999Z</time></trkpt><trkpt lat="40.3942544" lon="0.4015287"><ele>9.6</ele><time>2026-05-01T13:00:12Z</time></trkpt><trkpt lat="40.394172" lon="0.4014591"><ele>9.4</ele><time>2026-05-01T13:00:13Z</time></trkpt><trkpt lat="40.3940967" lon="0.4013917"><ele>9.2</ele><time>2026-05-01T13:00:14Z</time></trkpt><trkpt lat="40.3940209" lon="0.4013243"><ele>9.0</ele><time>2026-05-01T13:00:14.999Z</time></trkpt><trkpt lat="40.393947" lon="0.4012621"><ele>9.0</ele><time>2026-05-01T13:00:16Z</time></trkpt><trkpt lat="40.3938837" lon="0.4012104"><ele>9.0</ele><time>2026-05-01T13:00:16.999Z</time></trkpt><trkpt lat="40.3938238" lon="0.4011806"><ele>9.0</ele><time>2026-05-01T13:00:18Z</time></trkpt><trkpt lat="40.3937456" lon="0.4012505"><ele>9.0</ele><time>2026-05-01T13:00:20Z</time></trkpt><trkpt lat="40.3936571" lon="0.4013809"><ele>9.0</ele><time>2026-05-01T13:00:21.999Z</time></trkpt><trkpt lat="40.3935894" lon="0.4014738"><ele>8.6</ele><time>2026-05-01T13:00:22.999Z</time></trkpt><trkpt lat="40.3935153" lon="0.4015668"><ele>8.2</ele><time>2026-05-01T13:00:24Z</time></trkpt><trkpt lat="40.3934337" lon="0.4016821"><ele>7.799999999999999</ele><time>2026-05-01T13:00:25Z</time></trkpt><trkpt lat="40.3933663" lon="0.4017894"><ele>7.3999999999999995</ele><time>2026-05-01T13:00:25.999Z</time></trkpt><trkpt lat="40.3932976" lon="0.4018988"><ele>7.0</ele><time>2026-05-01T13:00:27Z</time></trkpt><trkpt lat="40.393237" lon="0.4019904"><ele>7.000000000000001</ele><time>2026-05-01T13:00:27.999Z</time></trkpt><trkpt lat="40.3931815" lon="0.4020754"><ele>7.0</ele><time>2026-05-01T13:00:28.999Z</time></trkpt><trkpt lat="40.3931274" lon="0.4021537"><ele>7.0</ele><time>2026-05-01T13:00:29.999Z</time></trkpt><trkpt lat="40.3930705" lon="0.4022321"><ele>7.0</ele><time>2026-05-01T13:00:30.999Z</time></trkpt><trkpt lat="40.3930194" lon="0.4023061"><ele>7.000000000000001</ele><time>2026-05-01T13:00:31.999Z</time></trkpt><trkpt lat="40.3929672" lon="0.4023914"><ele>7.0</ele><time>2026-05-01T13:00:33Z</time></trkpt><trkpt lat="40.392915" lon="0.4024748"><ele>7.000000000000001</ele><time>2026-05-01T13:00:33.999Z</time></trkpt><trkpt lat="40.3928623" lon="0.4025561"><ele>7.0</ele><time>2026-05-01T13:00:34.999Z</time></trkpt><trkpt lat="40.3928051" lon="0.4026527"><ele>7.0</ele><time>2026-05-01T13:00:35.999Z</time></trkpt><trkpt lat="40.3927462" lon="0.4027421"><ele>7.0</ele><time>2026-05-01T13:00:36.999Z</time></trkpt><trkpt lat="40.3926929" lon="0.4028308"><ele>7.000000000000001</ele><time>2026-05-01T13:00:37.999Z</time></trkpt><trkpt lat="40.392639" lon="0.4029113"><ele>7.0</ele><time>2026-05-01T13:00:38.999Z</time></trkpt><trkpt lat="40.3925778" lon="0.4030021"><ele>6.8</ele><time>2026-05-01T13:00:39.999Z</time></trkpt><trkpt lat="40.3925167" lon="0.4030901"><ele>6.6</ele><time>2026-05-01T13:00:41Z</time></trkpt><trkpt lat="40.3924542" lon="0.4031832"><ele>6.3999999999999995</ele><time>2026-05-01T13:00:41.999Z</time></trkpt><trkpt lat="40.3923936" lon="0.4032789"><ele>6.199999999999999</ele><time>2026-05-01T13:00:42.999Z</time></trkpt><trkpt lat="40.3923286" lon="0.4033718"><ele>6.0</ele><time>2026-05-01T13:00:44Z</time></trkpt><trkpt lat="40.3922636" lon="0.403469"><ele>6.0</ele><time>2026-05-01T13:00:44.999Z</time></trkpt><trkpt lat="40.392202" lon="0.4035605"><ele>6.0</ele><time>2026-05-01T13:00:45.999Z</time></trkpt><trkpt lat="40.3921409" lon="0.4036413"><ele>6.0</ele><time>2026-05-01T13:00:46.999Z</time></trkpt><trkpt lat="40.3920867" lon="0.403721"><ele>6.0</ele><time>2026-05-01T13:00:47.999Z</time></trkpt><trkpt lat="40.3920341" lon="0.4038189"><ele>6.0</ele><time>2026-05-01T13:00:48.999Z</time></trkpt><trkpt lat="40.3919763" lon="0.4038981"><ele>6.0</ele><time>2026-05-01T13:00:49.999Z</time></trkpt><trkpt lat="40.3919209" lon="0.4039847"><ele>6.0</ele><time>2026-05-01T13:00:50.999Z</time></trkpt><trkpt lat="40.3918783" lon="0.4040667"><ele>6.0</ele><time>2026-05-01T13:00:51.999Z</time></trkpt><trkpt lat="40.3918343" lon="0.4041431"><ele>6.0</ele><time>2026-05-01T13:00:52.999Z</time></trkpt><trkpt lat="40.3917902" lon="0.4042227"><ele>6.0</ele><time>2026-05-01T13:00:53.999Z</time></trkpt><trkpt lat="40.3917264" lon="0.4043099"><ele>6.0</ele><time>2026-05-01T13:00:55Z</time></trkpt><trkpt lat="40.3916608" lon="0.4043982"><ele>6.0</ele><time>2026-05-01T13:00:55.999Z</time></trkpt><trkpt lat="40.3916004" lon="0.4044848"><ele>6.0</ele><time>2026-05-01T13:00:57Z</time></trkpt><trkpt lat="40.3915489" lon="0.4045725"><ele>6.0</ele><time>2026-05-01T13:00:57.999Z</time></trkpt><trkpt lat="40.3914941" lon="0.4046573"><ele>6.0</ele><time>2026-05-01T13:00:58.999Z</time></trkpt><trkpt lat="40.3914431" lon="0.4047335"><ele>6.0</ele><time>2026-05-01T13:01:00Z</time></trkpt><trkpt lat="40.3913875" lon="0.40481"><ele>6.0</ele><time>2026-05-01T13:01:00.999Z</time></trkpt><trkpt lat="40.3913306" lon="0.4048967"><ele>6.0</ele><time>2026-05-01T13:01:01.999Z</time></trkpt><trkpt lat="40.3912709" lon="0.4049832"><ele>5.666666666666667</ele><time>2026-05-01T13:01:02.999Z</time></trkpt><trkpt lat="40.3912106" lon="0.4050703"><ele>5.333333333333333</ele><time>2026-05-01T13:01:04Z</time></trkpt><trkpt lat="40.3911475" lon="0.4051633"><ele>5.0</ele><time>2026-05-01T13:01:05Z</time></trkpt><trkpt lat="40.3910864" lon="0.4052588"><ele>4.666666666666666</ele><time>2026-05-01T13:01:06Z</time></trkpt><trkpt lat="40.3910296" lon="0.4053471"><ele>4.333333333333333</ele><time>2026-05-01T13:01:06.999Z</time></trkpt><trkpt lat="40.3909761" lon="0.4054268"><ele>4.0</ele><time>2026-05-01T13:01:07.999Z</time></trkpt><trkpt lat="40.3909226" lon="0.4055065"><ele>3.9999999999999996</ele><time>2026-05-01T13:01:09Z</time></trkpt><trkpt lat="40.3908541" lon="0.4055795"><ele>4.0</ele><time>2026-05-01T13:01:11Z</time></trkpt><trkpt lat="40.3907869" lon="0.4055729"><ele>4.0</ele><time>2026-05-01T13:01:19Z</time></trkpt><trkpt lat="40.3907358" lon="0.4055177"><ele>4.0</ele><time>2026-05-01T13:01:19.999Z</time></trkpt><trkpt lat="40.3906682" lon="0.4054436"><ele>3.9999999999999996</ele><time>2026-05-01T13:01:21Z</time></trkpt><trkpt lat="40.3905784" lon="0.4053508"><ele>4.0</ele><time>2026-05-01T13:01:21.999Z</time></trkpt><trkpt lat="40.3904868" lon="0.4052596"><ele>3.5</ele><time>2026-05-01T13:01:22.999Z</time></trkpt><trkpt lat="40.3903856" lon="0.4051574"><ele>3.0</ele><time>2026-05-01T13:01:23.999Z</time></trkpt><trkpt lat="40.3902722" lon="0.4050402"><ele>2.5</ele><time>2026-05-01T13:01:24.999Z</time></trkpt><trkpt lat="40.390158" lon="0.4049179"><ele>2.0</ele><time>2026-05-01T13:01:25.999Z</time></trkpt><trkpt lat="40.3900339" lon="0.4047994"><ele>2.0</ele><time>2026-05-01T13:01:26.999Z</time></trkpt><trkpt lat="40.3899019" lon="0.4046751"><ele>2.0</ele><time>2026-05-01T13:01:28Z</time></trkpt><trkpt lat="40.3897602" lon="0.4045474"><ele>2.0</ele><time>2026-05-01T13:01:28.999Z</time></trkpt><trkpt lat="40.3896192" lon="0.4044219"><ele>3.0</ele><time>2026-05-01T13:01:29.999Z</time></trkpt><trkpt lat="40.3894864" lon="0.4043079"><ele>4.0</ele><time>2026-05-01T13:01:30.999Z</time></trkpt><trkpt lat="40.3893567" lon="0.4041914"><ele>5.0</ele><time>2026-05-01T13:01:31.999Z</time></trkpt><trkpt lat="40.3892349" lon="0.4040836"><ele>5.0</ele><time>2026-05-01T13:01:33Z</time></trkpt><trkpt lat="40.3891271" lon="0.4039847"><ele>5.0</ele><time>2026-05-01T13:01:33.999Z</time></trkpt><trkpt lat="40.3890221" lon="0.4038889"><ele>5.0</ele><time>2026-05-01T13:01:34.999Z</time></trkpt><trkpt lat="40.3889254" lon="0.4037975"><ele>5.0</ele><time>2026-05-01T13:01:36Z</time></trkpt><trkpt lat="40.3888321" lon="0.4037105"><ele>4.8</ele><time>2026-05-01T13:01:36.999Z</time></trkpt><trkpt lat="40.3887443" lon="0.4036274"><ele>4.6</ele><time>2026-05-01T13:01:38Z</time></trkpt><trkpt lat="40.3886644" lon="0.4035533"><ele>4.4</ele><time>2026-05-01T13:01:38.999Z</time></trkpt><trkpt lat="40.3885929" lon="0.403482"><ele>4.2</ele><time>2026-05-01T13:01:39.999Z</time></trkpt><trkpt lat="40.3885338" lon="0.403401"><ele>4.0</ele><time>2026-05-01T13:01:40.999Z</time></trkpt><trkpt lat="40.3884758" lon="0.4033115"><ele>3.9999999999999996</ele><time>2026-05-01T13:01:41.999Z</time></trkpt><trkpt lat="40.3884338" lon="0.4032169"><ele>4.0</ele><time>2026-05-01T13:01:43Z</time></trkpt><trkpt lat="40.3884038" lon="0.4031249"><ele>4.0</ele><time>2026-05-01T13:01:43.999Z</time></trkpt><trkpt lat="40.388372" lon="0.4030332"><ele>4.0</ele><time>2026-05-01T13:01:44.999Z</time></trkpt><trkpt lat="40.3883266" lon="0.4029336"><ele>3.9999999999999996</ele><time>2026-05-01T13:01:45.999Z</time></trkpt><trkpt lat="40.3882553" lon="0.4028561"><ele>4.0</ele><time>2026-05-01T13:01:46.999Z</time></trkpt><trkpt lat="40.3881597" lon="0.402801"><ele>3.75</ele><time>2026-05-01T13:01:47.999Z</time></trkpt><trkpt lat="40.3880476" lon="0.402764"><ele>3.5</ele><time>2026-05-01T13:01:48.999Z</time></trkpt><trkpt lat="40.3879313" lon="0.4027176"><ele>3.25</ele><time>2026-05-01T13:01:49.999Z</time></trkpt><trkpt lat="40.3878066" lon="0.4026419"><ele>3.0</ele><time>2026-05-01T13:01:50.999Z</time></trkpt><trkpt lat="40.3876737" lon="0.4025283"><ele>3.0</ele><time>2026-05-01T13:01:51.999Z</time></trkpt><trkpt lat="40.3875477" lon="0.402415"><ele>3.0</ele><time>2026-05-01T13:01:53Z</time></trkpt><trkpt lat="40.3874218" lon="0.4022959"><ele>3.0</ele><time>2026-05-01T13:01:53.999Z</time></trkpt><trkpt lat="40.3872952" lon="0.4021585"><ele>3.333333333333333</ele><time>2026-05-01T13:01:54.999Z</time></trkpt><trkpt lat="40.3871638" lon="0.40203"><ele>3.6666666666666665</ele><time>2026-05-01T13:01:55.999Z</time></trkpt><trkpt lat="40.3870257" lon="0.4018966"><ele>4.0</ele><time>2026-05-01T13:01:56.999Z</time></trkpt><trkpt lat="40.3868728" lon="0.4017373"><ele>4.0</ele><time>2026-05-01T13:01:57.999Z</time></trkpt><trkpt lat="40.3867204" lon="0.4015822"><ele>4.0</ele><time>2026-05-01T13:01:58.999Z</time></trkpt><trkpt lat="40.3865751" lon="0.4014374"><ele>4.0</ele><time>2026-05-01T13:01:59.999Z</time></trkpt><trkpt lat="40.3864244" lon="0.4012955"><ele>4.333333333333333</ele><time>2026-05-01T13:02:00.999Z</time></trkpt><trkpt lat="40.3862701" lon="0.4011555"><ele>4.666666666666667</ele><time>2026-05-01T13:02:01.999Z</time></trkpt><trkpt lat="40.3861151" lon="0.4010088"><ele>5.0</ele><time>2026-05-01T13:02:02.999Z</time></trkpt><trkpt lat="40.3859415" lon="0.4008721"><ele>5.0</ele><time>2026-05-01T13:02:04Z</time></trkpt><trkpt lat="40.3857511" lon="0.4007408"><ele>5.0</ele><time>2026-05-01T13:02:05Z</time></trkpt><trkpt lat="40.3855769" lon="0.4006221"><ele>5.0</ele><time>2026-05-01T13:02:05.999Z</time></trkpt><trkpt lat="40.3854065" lon="0.4005192"><ele>4.333333333333334</ele><time>2026-05-01T13:02:07Z</time></trkpt><trkpt lat="40.3852334" lon="0.4004298"><ele>3.666666666666667</ele><time>2026-05-01T13:02:08Z</time></trkpt><trkpt lat="40.3850528" lon="0.400344"><ele>3.0</ele><time>2026-05-01T13:02:09Z</time></trkpt><trkpt lat="40.3848702" lon="0.4002513"><ele>3.0</ele><time>2026-05-01T13:02:09.999Z</time></trkpt><trkpt lat="40.3846867" lon="0.4001589"><ele>3.0</ele><time>2026-05-01T13:02:10.999Z</time></trkpt><trkpt lat="40.3845111" lon="0.4000708"><ele>3.0</ele><time>2026-05-01T13:02:11.999Z</time></trkpt><trkpt lat="40.384347" lon="0.3999948"><ele>3.0</ele><time>2026-05-01T13:02:12.999Z</time></trkpt><trkpt lat="40.384182" lon="0.3999178"><ele>3.0</ele><time>2026-05-01T13:02:14Z</time></trkpt><trkpt lat="40.3840298" lon="0.3998355"><ele>3.0</ele><time>2026-05-01T13:02:14.999Z</time></trkpt><trkpt lat="40.3838814" lon="0.3997442"><ele>3.0</ele><time>2026-05-01T13:02:16Z</time></trkpt><trkpt lat="40.3837459" lon="0.3996204"><ele>3.0</ele><time>2026-05-01T13:02:17Z</time></trkpt><trkpt lat="40.3836171" lon="0.3994878"><ele>3.0</ele><time>2026-05-01T13:02:17.999Z</time></trkpt><trkpt lat="40.3834922" lon="0.3993496"><ele>3.0</ele><time>2026-05-01T13:02:19Z</time></trkpt><trkpt lat="40.3833817" lon="0.3992192"><ele>3.0</ele><time>2026-05-01T13:02:19.999Z</time></trkpt><trkpt lat="40.383276" lon="0.3990939"><ele>3.0</ele><time>2026-05-01T13:02:21Z</time></trkpt><trkpt lat="40.3831801" lon="0.398981"><ele>3.0</ele><time>2026-05-01T13:02:22Z</time></trkpt><trkpt lat="40.383081" lon="0.3988782"><ele>3.5</ele><time>2026-05-01T13:02:22.999Z</time></trkpt><trkpt lat="40.3829965" lon="0.3987773"><ele>4.0</ele><time>2026-05-01T13:02:24Z</time></trkpt><trkpt lat="40.3829187" lon="0.3986672"><ele>4.5</ele><time>2026-05-01T13:02:24.999Z</time></trkpt><trkpt lat="40.3828481" lon="0.3985418"><ele>5.0</ele><time>2026-05-01T13:02:25.999Z</time></trkpt><trkpt lat="40.382793" lon="0.3984068"><ele>5.0</ele><time>2026-05-01T13:02:26.999Z</time></trkpt><trkpt lat="40.382734" lon="0.3982968"><ele>5.0</ele><time>2026-05-01T13:02:28Z</time></trkpt><trkpt lat="40.3826552" lon="0.398214"><ele>5.0</ele><time>2026-05-01T13:02:28.999Z</time></trkpt><trkpt lat="40.3825536" lon="0.3981569"><ele>5.0</ele><time>2026-05-01T13:02:30Z</time></trkpt><trkpt lat="40.3824363" lon="0.3981159"><ele>5.0</ele><time>2026-05-01T13:02:30.999Z</time></trkpt><trkpt lat="40.3823115" lon="0.3980649"><ele>5.0</ele><time>2026-05-01T13:02:31.999Z</time></trkpt><trkpt lat="40.3821787" lon="0.3980045"><ele>5.0</ele><time>2026-05-01T13:02:32.999Z</time></trkpt><trkpt lat="40.3820415" lon="0.3979293"><ele>5.0</ele><time>2026-05-01T13:02:33.999Z</time></trkpt><trkpt lat="40.3819008" lon="0.3978466"><ele>5.0</ele><time>2026-05-01T13:02:34.999Z</time></trkpt><trkpt lat="40.3817589" lon="0.3977544"><ele>5.0</ele><time>2026-05-01T13:02:36Z</time></trkpt><trkpt lat="40.381616" lon="0.3976668"><ele>5.0</ele><time>2026-05-01T13:02:37Z</time></trkpt><trkpt lat="40.3814728" lon="0.3975756"><ele>5.0</ele><time>2026-05-01T13:02:38Z</time></trkpt><trkpt lat="40.3813291" lon="0.3974843"><ele>5.333333333333334</ele><time>2026-05-01T13:02:38.999Z</time></trkpt><trkpt lat="40.3811864" lon="0.3973915"><ele>5.666666666666667</ele><time>2026-05-01T13:02:39.999Z</time></trkpt><trkpt lat="40.3810494" lon="0.3973016"><ele>6.0</ele><time>2026-05-01T13:02:40.999Z</time></trkpt><trkpt lat="40.3809075" lon="0.3972107"><ele>6.0</ele><time>2026-05-01T13:02:41.999Z</time></trkpt><trkpt lat="40.380768" lon="0.3971151"><ele>6.0</ele><time>2026-05-01T13:02:42.999Z</time></trkpt><trkpt lat="40.3806343" lon="0.3970181"><ele>6.0</ele><time>2026-05-01T13:02:43.999Z</time></trkpt><trkpt lat="40.3804955" lon="0.3969278"><ele>6.0</ele><time>2026-05-01T13:02:44.999Z</time></trkpt><trkpt lat="40.3803485" lon="0.3968612"><ele>6.0</ele><time>2026-05-01T13:02:46Z</time></trkpt><trkpt lat="40.3801903" lon="0.3968465"><ele>6.0</ele><time>2026-05-01T13:02:46.999Z</time></trkpt><trkpt lat="40.3800353" lon="0.3968608"><ele>6.0</ele><time>2026-05-01T13:02:47.999Z</time></trkpt><trkpt lat="40.3798742" lon="0.3969038"><ele>6.0</ele><time>2026-05-01T13:02:48.999Z</time></trkpt><trkpt lat="40.3797107" lon="0.3969569"><ele>6.0</ele><time>2026-05-01T13:02:50Z</time></trkpt><trkpt lat="40.3795376" lon="0.3970207"><ele>6.333333333333334</ele><time>2026-05-01T13:02:50.999Z</time></trkpt><trkpt lat="40.3793597" lon="0.3970792"><ele>6.666666666666667</ele><time>2026-05-01T13:02:51.999Z</time></trkpt><trkpt lat="40.3791752" lon="0.3971376"><ele>7.0</ele><time>2026-05-01T13:02:53Z</time></trkpt><trkpt lat="40.3789981" lon="0.3972078"><ele>6.0</ele><time>2026-05-01T13:02:54Z</time></trkpt><trkpt lat="40.3788368" lon="0.3972643"><ele>5.0</ele><time>2026-05-01T13:02:54.999Z</time></trkpt><trkpt lat="40.3786827" lon="0.3973158"><ele>4.0</ele><time>2026-05-01T13:02:56Z</time></trkpt><trkpt lat="40.3785383" lon="0.3973574"><ele>4.0</ele><time>2026-05-01T13:02:56.999Z</time></trkpt><trkpt lat="40.3783873" lon="0.3973804"><ele>4.0</ele><time>2026-05-01T13:02:58Z</time></trkpt><trkpt lat="40.3782309" lon="0.3973913"><ele>4.0</ele><time>2026-05-01T13:02:58.999Z</time></trkpt><trkpt lat="40.3780691" lon="0.3973895"><ele>4.0</ele><time>2026-05-01T13:02:59.999Z</time></trkpt><trkpt lat="40.3779016" lon="0.397375"><ele>4.0</ele><time>2026-05-01T13:03:00.999Z</time></trkpt><trkpt lat="40.3777299" lon="0.3973502"><ele>4.0</ele><time>2026-05-01T13:03:01.999Z</time></trkpt><trkpt lat="40.3775498" lon="0.3973112"><ele>4.0</ele><time>2026-05-01T13:03:02.999Z</time></trkpt><trkpt lat="40.3773686" lon="0.3972715"><ele>4.0</ele><time>2026-05-01T13:03:03.999Z</time></trkpt><trkpt lat="40.3771837" lon="0.3972199"><ele>4.0</ele><time>2026-05-01T13:03:04.999Z</time></trkpt><trkpt lat="40.3769938" lon="0.3971675"><ele>4.666666666666666</ele><time>2026-05-01T13:03:05.999Z</time></trkpt><trkpt lat="40.3768014" lon="0.397105"><ele>5.333333333333333</ele><time>2026-05-01T13:03:06.999Z</time></trkpt><trkpt lat="40.3766002" lon="0.3970489"><ele>6.0</ele><time>2026-05-01T13:03:07.999Z</time></trkpt><trkpt lat="40.3764058" lon="0.396987"><ele>6.0</ele><time>2026-05-01T13:03:08.999Z</time></trkpt><trkpt lat="40.3762273" lon="0.3969283"><ele>6.0</ele><time>2026-05-01T13:03:09.999Z</time></trkpt><trkpt lat="40.3760413" lon="0.3968866"><ele>6.0</ele><time>2026-05-01T13:03:11Z</time></trkpt><trkpt lat="40.3758518" lon="0.3968515"><ele>6.0</ele><time>2026-05-01T13:03:11.999Z</time></trkpt><trkpt lat="40.3756551" lon="0.396822"><ele>6.0</ele><time>2026-05-01T13:03:12.999Z</time></trkpt><trkpt lat="40.37547" lon="0.3967917"><ele>6.0</ele><time>2026-05-01T13:03:13.999Z</time></trkpt><trkpt lat="40.3752953" lon="0.3967524"><ele>5.333333333333333</ele><time>2026-05-01T13:03:14.999Z</time></trkpt><trkpt lat="40.3751213" lon="0.3966983"><ele>4.666666666666666</ele><time>2026-05-01T13:03:16Z</time></trkpt><trkpt lat="40.3749406" lon="0.3966414"><ele>4.0</ele><time>2026-05-01T13:03:16.999Z</time></trkpt><trkpt lat="40.3747553" lon="0.3965834"><ele>3.6666666666666665</ele><time>2026-05-01T13:03:17.999Z</time></trkpt><trkpt lat="40.374576" lon="0.3965108"><ele>3.333333333333333</ele><time>2026-05-01T13:03:18.999Z</time></trkpt><trkpt lat="40.3743932" lon="0.3964427"><ele>3.0</ele><time>2026-05-01T13:03:20Z</time></trkpt><trkpt lat="40.3742358" lon="0.3963762"><ele>3.0</ele><time>2026-05-01T13:03:20.999Z</time></trkpt><trkpt lat="40.3741392" lon="0.3963228"><ele>3.0</ele><time>2026-05-01T13:03:22Z</time></trkpt><trkpt lat="40.3740653" lon="0.3962897"><ele>3.0</ele><time>2026-05-01T13:03:22.999Z</time></trkpt><trkpt lat="40.3739657" lon="0.3963185"><ele>3.0</ele><time>2026-05-01T13:03:25Z</time></trkpt><trkpt lat="40.3738928" lon="0.3965008"><ele>3.0</ele><time>2026-05-01T13:03:27Z</time></trkpt><trkpt lat="40.3738595" lon="0.3966364"><ele>2.8</ele><time>2026-05-01T13:03:28Z</time></trkpt><trkpt lat="40.3738235" lon="0.3967707"><ele>2.5999999999999996</ele><time>2026-05-01T13:03:28.999Z</time></trkpt><trkpt lat="40.3737939" lon="0.3969032"><ele>2.4000000000000004</ele><time>2026-05-01T13:03:29.999Z</time></trkpt><trkpt lat="40.3737703" lon="0.3970358"><ele>2.2</ele><time>2026-05-01T13:03:30.999Z</time></trkpt><trkpt lat="40.3737402" lon="0.3971543"><ele>2.0</ele><time>2026-05-01T13:03:32Z</time></trkpt><trkpt lat="40.373712" lon="0.3972373"><ele>2.0</ele><time>2026-05-01T13:03:32.999Z</time></trkpt><trkpt lat="40.3736218" lon="0.3972987"><ele>2.0</ele><time>2026-05-01T13:03:34.999Z</time></trkpt><trkpt lat="40.3734964" lon="0.3972509"><ele>2.0</ele><time>2026-05-01T13:03:36.999Z</time></trkpt><trkpt lat="40.3734045" lon="0.397208"><ele>2.0</ele><time>2026-05-01T13:03:37.999Z</time></trkpt><trkpt lat="40.3732865" lon="0.3971472"><ele>2.0</ele><time>2026-05-01T13:03:38.999Z</time></trkpt><trkpt lat="40.3731684" lon="0.3970874"><ele>2.0</ele><time>2026-05-01T13:03:40Z</time></trkpt><trkpt lat="40.3730416" lon="0.3970309"><ele>2.0</ele><time>2026-05-01T13:03:40.999Z</time></trkpt><trkpt lat="40.3729172" lon="0.3969732"><ele>2.0</ele><time>2026-05-01T13:03:41.999Z</time></trkpt><trkpt lat="40.372803" lon="0.3969165"><ele>2.0</ele><time>2026-05-01T13:03:43Z</time></trkpt><trkpt lat="40.3726963" lon="0.3968592"><ele>2.0</ele><time>2026-05-01T13:03:44Z</time></trkpt><trkpt lat="40.3726015" lon="0.3967808"><ele>2.0</ele><time>2026-05-01T13:03:44.999Z</time></trkpt><trkpt lat="40.3724973" lon="0.3967011"><ele>2.0</ele><time>2026-05-01T13:03:46Z</time></trkpt><trkpt lat="40.3723852" lon="0.396614"><ele>2.0</ele><time>2026-05-01T13:03:46.999Z</time></trkpt><trkpt lat="40.3722612" lon="0.396536"><ele>2.0</ele><time>2026-05-01T13:03:48Z</time></trkpt><trkpt lat="40.3721343" lon="0.3964785"><ele>2.0</ele><time>2026-05-01T13:03:48.999Z</time></trkpt><trkpt lat="40.3720164" lon="0.3964316"><ele>2.0</ele><time>2026-05-01T13:03:49.999Z</time></trkpt><trkpt lat="40.371895" lon="0.3963877"><ele>2.0</ele><time>2026-05-01T13:03:51Z</time></trkpt><trkpt lat="40.3717677" lon="0.3963606"><ele>2.0</ele><time>2026-05-01T13:03:51.999Z</time></trkpt><trkpt lat="40.3716317" lon="0.3963664"><ele>2.0</ele><time>2026-05-01T13:03:52.999Z</time></trkpt><trkpt lat="40.371507" lon="0.3963729"><ele>2.0</ele><time>2026-05-01T13:03:53.999Z</time></trkpt><trkpt lat="40.3713871" lon="0.3963789"><ele>2.0</ele><time>2026-05-01T13:03:55Z</time></trkpt><trkpt lat="40.3712733" lon="0.396375"><ele>2.0</ele><time>2026-05-01T13:03:55.999Z</time></trkpt><trkpt lat="40.3711626" lon="0.3963408"><ele>2.0</ele><time>2026-05-01T13:03:56.999Z</time></trkpt><trkpt lat="40.371042" lon="0.3962897"><ele>2.0</ele><time>2026-05-01T13:03:57.999Z</time></trkpt><trkpt lat="40.3709325" lon="0.3962333"><ele>2.0</ele><time>2026-05-01T13:03:58.999Z</time></trkpt><trkpt lat="40.3708258" lon="0.3961788"><ele>2.0</ele><time>2026-05-01T13:03:59.999Z</time></trkpt><trkpt lat="40.3707271" lon="0.3961363"><ele>2.0</ele><time>2026-05-01T13:04:00.999Z</time></trkpt><trkpt lat="40.3706357" lon="0.3960846"><ele>2.0</ele><time>2026-05-01T13:04:01.999Z</time></trkpt><trkpt lat="40.370573" lon="0.3960636"><ele>2.0</ele><time>2026-05-01T13:04:03Z</time></trkpt><trkpt lat="40.3705065" lon="0.3961265"><ele>1.9999999999999998</ele><time>2026-05-01T13:04:05Z</time></trkpt><trkpt lat="40.3704825" lon="0.3962153"><ele>2.0</ele><time>2026-05-01T13:04:05.999Z</time></trkpt><trkpt lat="40.3704581" lon="0.3963184"><ele>2.0</ele><time>2026-05-01T13:04:06.999Z</time></trkpt><trkpt lat="40.3704327" lon="0.3964287"><ele>2.0</ele><time>2026-05-01T13:04:07.999Z</time></trkpt><trkpt lat="40.3703849" lon="0.3965043"><ele>1.9999999999999998</ele><time>2026-05-01T13:04:08.999Z</time></trkpt><trkpt lat="40.3703275" lon="0.396543"><ele>2.0</ele><time>2026-05-01T13:04:09.999Z</time></trkpt><trkpt lat="40.3702533" lon="0.3965487"><ele>2.0</ele><time>2026-05-01T13:04:10.999Z</time></trkpt><trkpt lat="40.3701619" lon="0.3965161"><ele>2.0</ele><time>2026-05-01T13:04:11.999Z</time></trkpt><trkpt lat="40.3700598" lon="0.396482"><ele>2.0</ele><time>2026-05-01T13:04:13Z</time></trkpt><trkpt lat="40.3699441" lon="0.396444"><ele>2.0</ele><time>2026-05-01T13:04:14Z</time></trkpt><trkpt lat="40.3698264" lon="0.3963901"><ele>2.0</ele><time>2026-05-01T13:04:15Z</time></trkpt><trkpt lat="40.3697157" lon="0.3963398"><ele>2.0</ele><time>2026-05-01T13:04:15.999Z</time></trkpt><trkpt lat="40.3696101" lon="0.3962908"><ele>2.0</ele><time>2026-05-01T13:04:17Z</time></trkpt><trkpt lat="40.3694995" lon="0.3962532"><ele>2.0</ele><time>2026-05-01T13:04:17.999Z</time></trkpt><trkpt lat="40.3693955" lon="0.3962221"><ele>2.0</ele><time>2026-05-01T13:04:19Z</time></trkpt><trkpt lat="40.3692941" lon="0.3961953"><ele>2.0</ele><time>2026-05-01T13:04:20Z</time></trkpt><trkpt lat="40.3691956" lon="0.3961828"><ele>2.0</ele><time>2026-05-01T13:04:21Z</time></trkpt><trkpt lat="40.3690921" lon="0.3961693"><ele>2.0</ele><time>2026-05-01T13:04:21.999Z</time></trkpt><trkpt lat="40.3689678" lon="0.3961753"><ele>2.0</ele><time>2026-05-01T13:04:22.999Z</time></trkpt><trkpt lat="40.3688437" lon="0.3961976"><ele>2.0</ele><time>2026-05-01T13:04:23.999Z</time></trkpt><trkpt lat="40.368723" lon="0.3962329"><ele>2.25</ele><time>2026-05-01T13:04:25Z</time></trkpt><trkpt lat="40.3686008" lon="0.396266"><ele>2.5</ele><time>2026-05-01T13:04:25.999Z</time></trkpt><trkpt lat="40.3684755" lon="0.3963051"><ele>2.75</ele><time>2026-05-01T13:04:26.999Z</time></trkpt><trkpt lat="40.3683448" lon="0.3963413"><ele>3.0</ele><time>2026-05-01T13:04:28Z</time></trkpt><trkpt lat="40.3682188" lon="0.3963699"><ele>3.0</ele><time>2026-05-01T13:04:29Z</time></trkpt><trkpt lat="40.3680958" lon="0.3964053"><ele>3.0</ele><time>2026-05-01T13:04:29.999Z</time></trkpt><trkpt lat="40.3679642" lon="0.3964255"><ele>3.0</ele><time>2026-05-01T13:04:30.999Z</time></trkpt><trkpt lat="40.367844" lon="0.3964478"><ele>3.0</ele><time>2026-05-01T13:04:31.999Z</time></trkpt><trkpt lat="40.3677307" lon="0.3964683"><ele>2.8</ele><time>2026-05-01T13:04:32.999Z</time></trkpt><trkpt lat="40.3676288" lon="0.3964838"><ele>2.5999999999999996</ele><time>2026-05-01T13:04:33.999Z</time></trkpt><trkpt lat="40.3675189" lon="0.3965025"><ele>2.4000000000000004</ele><time>2026-05-01T13:04:34.999Z</time></trkpt><trkpt lat="40.3674076" lon="0.3965188"><ele>2.2</ele><time>2026-05-01T13:04:35.999Z</time></trkpt><trkpt lat="40.3672999" lon="0.3965439"><ele>2.0</ele><time>2026-05-01T13:04:36.999Z</time></trkpt><trkpt lat="40.3671927" lon="0.3965756"><ele>1.8</ele><time>2026-05-01T13:04:37.999Z</time></trkpt><trkpt lat="40.3670939" lon="0.3966059"><ele>1.6</ele><time>2026-05-01T13:04:39Z</time></trkpt><trkpt lat="40.3669993" lon="0.3966392"><ele>1.4000000000000001</ele><time>2026-05-01T13:04:40Z</time></trkpt><trkpt lat="40.3669034" lon="0.3966673"><ele>1.2000000000000002</ele><time>2026-05-01T13:04:40.999Z</time></trkpt><trkpt lat="40.3668184" lon="0.396697"><ele>1.0</ele><time>2026-05-01T13:04:42Z</time></trkpt><trkpt lat="40.3667383" lon="0.3967036"><ele>1.0</ele><time>2026-05-01T13:04:43Z</time></trkpt><trkpt lat="40.3666551" lon="0.3967147"><ele>0.9999999999999999</ele><time>2026-05-01T13:04:43.999Z</time></trkpt><trkpt lat="40.36658" lon="0.3967257"><ele>1.0</ele><time>2026-05-01T13:04:44.999Z</time></trkpt><trkpt lat="40.3665124" lon="0.3967437"><ele>1.0</ele><time>2026-05-01T13:04:45.999Z</time></trkpt><trkpt lat="40.3664496" lon="0.3967655"><ele>0.9999999999999999</ele><time>2026-05-01T13:04:47Z</time></trkpt><trkpt lat="40.3663819" lon="0.3967722"><ele>1.0</ele><time>2026-05-01T13:04:47.999Z</time></trkpt><trkpt lat="40.3663102" lon="0.3967735"><ele>1.0</ele><time>2026-05-01T13:04:49Z</time></trkpt><trkpt lat="40.3662453" lon="0.3967823"><ele>1.0</ele><time>2026-05-01T13:04:49.999Z</time></trkpt><trkpt lat="40.3661801" lon="0.3967907"><ele>1.0</ele><time>2026-05-01T13:04:50.999Z</time></trkpt><trkpt lat="40.366079" lon="0.3968053"><ele>1.0</ele><time>2026-05-01T13:04:53Z</time></trkpt><trkpt lat="40.3659737" lon="0.3967516"><ele>1.0</ele><time>2026-05-01T13:04:54.999Z</time></trkpt><trkpt lat="40.3658739" lon="0.3966746"><ele>1.0</ele><time>2026-05-01T13:04:56.999Z</time></trkpt><trkpt lat="40.3658134" lon="0.3966175"><ele>1.0</ele><time>2026-05-01T13:04:58Z</time></trkpt><trkpt lat="40.3657443" lon="0.396552"><ele>1.0</ele><time>2026-05-01T13:04:59Z</time></trkpt><trkpt lat="40.3656719" lon="0.3964786"><ele>1.0</ele><time>2026-05-01T13:04:59.999Z</time></trkpt><trkpt lat="40.3655924" lon="0.3964039"><ele>1.0</ele><time>2026-05-01T13:05:00.999Z</time></trkpt><trkpt lat="40.3655087" lon="0.3963215"><ele>1.0</ele><time>2026-05-01T13:05:01.999Z</time></trkpt><trkpt lat="40.3654266" lon="0.3962439"><ele>1.8333333333333333</ele><time>2026-05-01T13:05:03Z</time></trkpt><trkpt lat="40.3653622" lon="0.3961492"><ele>2.6666666666666665</ele><time>2026-05-01T13:05:03.999Z</time></trkpt><trkpt lat="40.3652995" lon="0.3960701"><ele>3.5</ele><time>2026-05-01T13:05:05Z</time></trkpt><trkpt lat="40.365241" lon="0.3959831"><ele>4.333333333333333</ele><time>2026-05-01T13:05:05.999Z</time></trkpt><trkpt lat="40.3651819" lon="0.3959049"><ele>5.166666666666667</ele><time>2026-05-01T13:05:06.999Z</time></trkpt><trkpt lat="40.3651283" lon="0.3958081"><ele>6.0</ele><time>2026-05-01T13:05:08Z</time></trkpt><trkpt lat="40.365089" lon="0.3957001"><ele>6.0</ele><time>2026-05-01T13:05:08.999Z</time></trkpt><trkpt lat="40.3650635" lon="0.3955867"><ele>6.0</ele><time>2026-05-01T13:05:10Z</time></trkpt><trkpt lat="40.3650367" lon="0.3954562"><ele>6.0</ele><time>2026-05-01T13:05:10.999Z</time></trkpt><trkpt lat="40.3650377" lon="0.395344"><ele>6.0</ele><time>2026-05-01T13:05:11.999Z</time></trkpt><trkpt lat="40.3650758" lon="0.3952574"><ele>6.0</ele><time>2026-05-01T13:05:13.999Z</time></trkpt><trkpt lat="40.3651523" lon="0.3951626"><ele>7.0</ele><time>2026-05-01T13:05:17Z</time></trkpt><trkpt lat="40.3652078" lon="0.3951006"><ele>8.0</ele><time>2026-05-01T13:05:17.999Z</time></trkpt><trkpt lat="40.3652318" lon="0.3950211"><ele>9.0</ele><time>2026-05-01T13:05:18.999Z</time></trkpt><trkpt lat="40.3652207" lon="0.3949156"><ele>10.0</ele><time>2026-05-01T13:05:19.999Z</time></trkpt><trkpt lat="40.3651712" lon="0.3947856"><ele>11.0</ele><time>2026-05-01T13:05:21.999Z</time></trkpt><trkpt lat="40.3650822" lon="0.3947434"><ele>12.0</ele><time>2026-05-01T13:05:23.999Z</time></trkpt><trkpt lat="40.3649965" lon="0.3947541"><ele>12.0</ele><time>2026-05-01T13:05:25.999Z</time></trkpt><trkpt lat="40.3649232" lon="0.3948062"><ele>12.0</ele><time>2026-05-01T13:05:28Z</time></trkpt><trkpt lat="40.3648652" lon="0.3948986"><ele>12.0</ele><time>2026-05-01T13:05:29.999Z</time></trkpt><trkpt lat="40.3648004" lon="0.3949908"><ele>12.0</ele><time>2026-05-01T13:05:31.999Z</time></trkpt><trkpt lat="40.3646904" lon="0.3950574"><ele>12.0</ele><time>2026-05-01T13:05:34Z</time></trkpt><trkpt lat="40.3646313" lon="0.3950929"><ele>12.0</ele><time>2026-05-01T13:05:34.999Z</time></trkpt><trkpt lat="40.3645681" lon="0.3951205"><ele>12.0</ele><time>2026-05-01T13:05:36Z</time></trkpt><trkpt lat="40.3645057" lon="0.3951433"><ele>12.0</ele><time>2026-05-01T13:05:36.999Z</time></trkpt><trkpt lat="40.3643987" lon="0.3951746"><ele>12.0</ele><time>2026-05-01T13:05:38.999Z</time></trkpt><trkpt lat="40.3643392" lon="0.3950672"><ele>12.0</ele><time>2026-05-01T13:05:40.999Z</time></trkpt><trkpt lat="40.3643267" lon="0.3949034"><ele>11.999999999999998</ele><time>2026-05-01T13:05:42.999Z</time></trkpt><trkpt lat="40.36434" lon="0.3948141"><ele>12.0</ele><time>2026-05-01T13:05:43.999Z</time></trkpt><trkpt lat="40.3643397" lon="0.3947271"><ele>12.0</ele><time>2026-05-01T13:05:44.999Z</time></trkpt><trkpt lat="40.3642973" lon="0.3946548"><ele>12.0</ele><time>2026-05-01T13:05:46Z</time></trkpt><trkpt lat="40.364225" lon="0.394613"><ele>12.0</ele><time>2026-05-01T13:05:47Z</time></trkpt><trkpt lat="40.3641513" lon="0.3945781"><ele>11.999999999999998</ele><time>2026-05-01T13:05:47.999Z</time></trkpt><trkpt lat="40.3640707" lon="0.3945374"><ele>12.0</ele><time>2026-05-01T13:05:49Z</time></trkpt><trkpt lat="40.3639774" lon="0.3944867"><ele>13.0</ele><time>2026-05-01T13:05:50Z</time></trkpt><trkpt lat="40.3638696" lon="0.3944409"><ele>14.0</ele><time>2026-05-01T13:05:51Z</time></trkpt><trkpt lat="40.3637658" lon="0.3943944"><ele>15.0</ele><time>2026-05-01T13:05:51.999Z</time></trkpt><trkpt lat="40.3636627" lon="0.394348"><ele>16.0</ele><time>2026-05-01T13:05:52.999Z</time></trkpt><trkpt lat="40.3635755" lon="0.3943072"><ele>17.0</ele><time>2026-05-01T13:05:54Z</time></trkpt><trkpt lat="40.3634965" lon="0.3942611"><ele>17.0</ele><time>2026-05-01T13:05:54.999Z</time></trkpt><trkpt lat="40.3634317" lon="0.3941856"><ele>17.0</ele><time>2026-05-01T13:05:55.999Z</time></trkpt><trkpt lat="40.3633708" lon="0.3940909"><ele>17.0</ele><time>2026-05-01T13:05:56.999Z</time></trkpt><trkpt lat="40.3633215" lon="0.3939976"><ele>17.0</ele><time>2026-05-01T13:05:57.999Z</time></trkpt><trkpt lat="40.3632739" lon="0.3939226"><ele>17.0</ele><time>2026-05-01T13:05:58.999Z</time></trkpt><trkpt lat="40.3632113" lon="0.3938477"><ele>17.0</ele><time>2026-05-01T13:05:59.999Z</time></trkpt><trkpt lat="40.363136" lon="0.3937784"><ele>17.8</ele><time>2026-05-01T13:06:00.999Z</time></trkpt><trkpt lat="40.3630398" lon="0.3937232"><ele>18.6</ele><time>2026-05-01T13:06:01.999Z</time></trkpt><trkpt lat="40.3629508" lon="0.3936895"><ele>19.400000000000002</ele><time>2026-05-01T13:06:02.999Z</time></trkpt><trkpt lat="40.3628518" lon="0.3936629"><ele>20.2</ele><time>2026-05-01T13:06:03.999Z</time></trkpt><trkpt lat="40.3627544" lon="0.3936387"><ele>21.0</ele><time>2026-05-01T13:06:04.999Z</time></trkpt><trkpt lat="40.3626582" lon="0.3936424"><ele>21.0</ele><time>2026-05-01T13:06:05.999Z</time></trkpt><trkpt lat="40.3625641" lon="0.393652"><ele>21.0</ele><time>2026-05-01T13:06:06.999Z</time></trkpt><trkpt lat="40.3624817" lon="0.3936581"><ele>21.0</ele><time>2026-05-01T13:06:08Z</time></trkpt><trkpt lat="40.3623931" lon="0.3936565"><ele>21.0</ele><time>2026-05-01T13:06:08.999Z</time></trkpt><trkpt lat="40.3623015" lon="0.3936409"><ele>21.0</ele><time>2026-05-01T13:06:09.999Z</time></trkpt><trkpt lat="40.3622214" lon="0.3936266"><ele>21.0</ele><time>2026-05-01T13:06:11Z</time></trkpt><trkpt lat="40.3621555" lon="0.3936045"><ele>21.0</ele><time>2026-05-01T13:06:12Z</time></trkpt><trkpt lat="40.3620811" lon="0.3935886"><ele>21.0</ele><time>2026-05-01T13:06:14Z</time></trkpt><trkpt lat="40.3620061" lon="0.3936145"><ele>21.0</ele><time>2026-05-01T13:06:17.999Z</time></trkpt><trkpt lat="40.3619546" lon="0.3937465"><ele>21.0</ele><time>2026-05-01T13:06:19.999Z</time></trkpt><trkpt lat="40.3619208" lon="0.3938379"><ele>21.0</ele><time>2026-05-01T13:06:21Z</time></trkpt><trkpt lat="40.3618829" lon="0.3939252"><ele>21.0</ele><time>2026-05-01T13:06:22Z</time></trkpt><trkpt lat="40.3618465" lon="0.3940053"><ele>20.166666666666668</ele><time>2026-05-01T13:06:22.999Z</time></trkpt><trkpt lat="40.3618136" lon="0.394082"><ele>19.333333333333332</ele><time>2026-05-01T13:06:23.999Z</time></trkpt><trkpt lat="40.3617413" lon="0.3941607"><ele>18.5</ele><time>2026-05-01T13:06:25.999Z</time></trkpt><trkpt lat="40.3616396" lon="0.3941428"><ele>17.666666666666664</ele><time>2026-05-01T13:06:27.999Z</time></trkpt><trkpt lat="40.361579" lon="0.3940903"><ele>16.833333333333332</ele><time>2026-05-01T13:06:29Z</time></trkpt><trkpt lat="40.3615203" lon="0.3940303"><ele>16.0</ele><time>2026-05-01T13:06:29.999Z</time></trkpt><trkpt lat="40.3614666" lon="0.3939695"><ele>16.0</ele><time>2026-05-01T13:06:31Z</time></trkpt><trkpt lat="40.3613702" lon="0.3938743"><ele>16.0</ele><time>2026-05-01T13:06:32.999Z</time></trkpt><trkpt lat="40.3612843" lon="0.3938224"><ele>16.0</ele><time>2026-05-01T13:06:34.999Z</time></trkpt><trkpt lat="40.3612013" lon="0.3938908"><ele>16.0</ele><time>2026-05-01T13:06:36.999Z</time></trkpt><trkpt lat="40.3611479" lon="0.3939594"><ele>16.0</ele><time>2026-05-01T13:06:37.999Z</time></trkpt><trkpt lat="40.3610956" lon="0.3940272"><ele>16.6</ele><time>2026-05-01T13:06:38.999Z</time></trkpt><trkpt lat="40.3610477" lon="0.3940999"><ele>17.200000000000003</ele><time>2026-05-01T13:06:40Z</time></trkpt><trkpt lat="40.3609992" lon="0.3941769"><ele>17.799999999999997</ele><time>2026-05-01T13:06:40.999Z</time></trkpt><trkpt lat="40.3609311" lon="0.3942951"><ele>18.4</ele><time>2026-05-01T13:06:43Z</time></trkpt><trkpt lat="40.3608482" lon="0.394393"><ele>19.0</ele><time>2026-05-01T13:06:45Z</time></trkpt><trkpt lat="40.3607808" lon="0.3944851"><ele>19.0</ele><time>2026-05-01T13:06:46.999Z</time></trkpt><trkpt lat="40.3608187" lon="0.3946364"><ele>19.0</ele><time>2026-05-01T13:06:48.999Z</time></trkpt><trkpt lat="40.3608529" lon="0.3948026"><ele>19.0</ele><time>2026-05-01T13:06:50.999Z</time></trkpt><trkpt lat="40.3608725" lon="0.3949457"><ele>19.0</ele><time>2026-05-01T13:06:53Z</time></trkpt><trkpt lat="40.3608901" lon="0.3951118"><ele>18.166666666666664</ele><time>2026-05-01T13:06:54.999Z</time></trkpt><trkpt lat="40.3609031" lon="0.3952204"><ele>17.333333333333332</ele><time>2026-05-01T13:06:56Z</time></trkpt><trkpt lat="40.3609202" lon="0.3953403"><ele>16.5</ele><time>2026-05-01T13:06:57Z</time></trkpt><trkpt lat="40.360935" lon="0.3954487"><ele>15.666666666666668</ele><time>2026-05-01T13:06:57.999Z</time></trkpt><trkpt lat="40.3609514" lon="0.3955376"><ele>14.833333333333334</ele><time>2026-05-01T13:06:58.999Z</time></trkpt><trkpt lat="40.360972" lon="0.3956589"><ele>14.0</ele><time>2026-05-01T13:07:01Z</time></trkpt><trkpt lat="40.3609444" lon="0.3957887"><ele>13.500000000000002</ele><time>2026-05-01T13:07:03.999Z</time></trkpt><trkpt lat="40.3608918" lon="0.3958505"><ele>13.0</ele><time>2026-05-01T13:07:05.999Z</time></trkpt><trkpt lat="40.3607714" lon="0.3958588"><ele>12.5</ele><time>2026-05-01T13:07:07.999Z</time></trkpt><trkpt lat="40.3607021" lon="0.3958783"><ele>12.0</ele><time>2026-05-01T13:07:08.999Z</time></trkpt><trkpt lat="40.3606382" lon="0.395909"><ele>11.5</ele><time>2026-05-01T13:07:10Z</time></trkpt><trkpt lat="40.3605861" lon="0.3959588"><ele>11.0</ele><time>2026-05-01T13:07:11Z</time></trkpt><trkpt lat="40.3605426" lon="0.3960359"><ele>11.0</ele><time>2026-05-01T13:07:11.999Z</time></trkpt><trkpt lat="40.3605052" lon="0.3961328"><ele>11.0</ele><time>2026-05-01T13:07:13Z</time></trkpt><trkpt lat="40.3604685" lon="0.396236"><ele>11.0</ele><time>2026-05-01T13:07:13.999Z</time></trkpt><trkpt lat="40.3604292" lon="0.3963405"><ele>11.0</ele><time>2026-05-01T13:07:14.999Z</time></trkpt><trkpt lat="40.3603964" lon="0.3964563"><ele>11.0</ele><time>2026-05-01T13:07:15.999Z</time></trkpt><trkpt lat="40.3603643" lon="0.3965637"><ele>11.0</ele><time>2026-05-01T13:07:16.999Z</time></trkpt><trkpt lat="40.3603015" lon="0.396654"><ele>11.0</ele><time>2026-05-01T13:07:18Z</time></trkpt><trkpt lat="40.3602192" lon="0.3967225"><ele>11.0</ele><time>2026-05-01T13:07:18.999Z</time></trkpt><trkpt lat="40.3601344" lon="0.3967735"><ele>11.0</ele><time>2026-05-01T13:07:19.999Z</time></trkpt><trkpt lat="40.3600481" lon="0.3968253"><ele>11.0</ele><time>2026-05-01T13:07:20.999Z</time></trkpt><trkpt lat="40.3599631" lon="0.396884"><ele>11.0</ele><time>2026-05-01T13:07:22Z</time></trkpt><trkpt lat="40.3598786" lon="0.3969414"><ele>11.0</ele><time>2026-05-01T13:07:22.999Z</time></trkpt><trkpt lat="40.3598048" lon="0.3969969"><ele>11.0</ele><time>2026-05-01T13:07:23.999Z</time></trkpt><trkpt lat="40.359736" lon="0.3970675"><ele>11.0</ele><time>2026-05-01T13:07:24.999Z</time></trkpt><trkpt lat="40.3596883" lon="0.397136"><ele>11.0</ele><time>2026-05-01T13:07:25.999Z</time></trkpt><trkpt lat="40.3596309" lon="0.3972109"><ele>11.0</ele><time>2026-05-01T13:07:38.999Z</time></trkpt><trkpt lat="40.3595979" lon="0.3973855"><ele>11.0</ele><time>2026-05-01T13:07:41.999Z</time></trkpt><trkpt lat="40.3595706" lon="0.397484"><ele>11.0</ele><time>2026-05-01T13:07:43Z</time></trkpt><trkpt lat="40.3595437" lon="0.3975676"><ele>11.0</ele><time>2026-05-01T13:07:43.999Z</time></trkpt><trkpt lat="40.3595246" lon="0.3976611"><ele>11.0</ele><time>2026-05-01T13:07:44.999Z</time></trkpt><trkpt lat="40.3595027" lon="0.3977455"><ele>11.0</ele><time>2026-05-01T13:07:45.999Z</time></trkpt><trkpt lat="40.3594483" lon="0.3978885"><ele>11.0</ele><time>2026-05-01T13:07:47.999Z</time></trkpt><trkpt lat="40.3594374" lon="0.3979716"><ele>10.333333333333332</ele><time>2026-05-01T13:07:49.999Z</time></trkpt><trkpt lat="40.3594098" lon="0.3980753"><ele>9.666666666666666</ele><time>2026-05-01T13:07:53Z</time></trkpt><trkpt lat="40.3593738" lon="0.3981509"><ele>9.0</ele><time>2026-05-01T13:07:54.999Z</time></trkpt><trkpt lat="40.35932" lon="0.3982522"><ele>8.333333333333334</ele><time>2026-05-01T13:07:58Z</time></trkpt><trkpt lat="40.3592608" lon="0.3983241"><ele>7.666666666666667</ele><time>2026-05-01T13:07:59.999Z</time></trkpt><trkpt lat="40.359191" lon="0.3984316"><ele>7.0</ele><time>2026-05-01T13:08:01.999Z</time></trkpt><trkpt lat="40.3591372" lon="0.398505"><ele>7.000000000000001</ele><time>2026-05-01T13:08:03.999Z</time></trkpt><trkpt lat="40.3590658" lon="0.3985656"><ele>7.0</ele><time>2026-05-01T13:08:06Z</time></trkpt><trkpt lat="40.358992" lon="0.3986397"><ele>7.0</ele><time>2026-05-01T13:08:07.998Z</time></trkpt><trkpt lat="40.3589047" lon="0.3987496"><ele>7.0</ele><time>2026-05-01T13:08:09.999Z</time></trkpt><trkpt lat="40.3588548" lon="0.3988229"><ele>7.000000000000001</ele><time>2026-05-01T13:08:11.999Z</time></trkpt><trkpt lat="40.3588025" lon="0.3988941"><ele>7.0</ele><time>2026-05-01T13:08:16.999Z</time></trkpt><trkpt lat="40.3587392" lon="0.3989646"><ele>7.000000000000001</ele><time>2026-05-01T13:08:20.999Z</time></trkpt><trkpt lat="40.358688" lon="0.3990337"><ele>7.0</ele><time>2026-05-01T13:08:22.999Z</time></trkpt><trkpt lat="40.3586271" lon="0.3991007"><ele>7.0</ele><time>2026-05-01T13:08:24.999Z</time></trkpt><trkpt lat="40.3585664" lon="0.3991416"><ele>7.0</ele><time>2026-05-01T13:08:27Z</time></trkpt><trkpt lat="40.3584999" lon="0.3990899"><ele>7.000000000000001</ele><time>2026-05-01T13:08:28.999Z</time></trkpt><trkpt lat="40.3585189" lon="0.3989477"><ele>7.0</ele><time>2026-05-01T13:08:30Z</time></trkpt><trkpt lat="40.3585171" lon="0.3987979"><ele>7.000000000000001</ele><time>2026-05-01T13:08:32Z</time></trkpt><trkpt lat="40.3585334" lon="0.3987048"><ele>7.0</ele><time>2026-05-01T13:08:33Z</time></trkpt><trkpt lat="40.3585593" lon="0.3986204"><ele>7.0</ele><time>2026-05-01T13:08:34Z</time></trkpt><trkpt lat="40.358578" lon="0.3985359"><ele>7.0</ele><time>2026-05-01T13:08:34.999Z</time></trkpt><trkpt lat="40.3586015" lon="0.3983982"><ele>7.000000000000001</ele><time>2026-05-01T13:08:36.999Z</time></trkpt><trkpt lat="40.3585671" lon="0.3983184"><ele>7.0</ele><time>2026-05-01T13:08:39.999Z</time></trkpt><trkpt lat="40.3584977" lon="0.3982712"><ele>7.0</ele><time>2026-05-01T13:08:41.999Z</time></trkpt><trkpt lat="40.3584123" lon="0.398263"><ele>6.999999999999999</ele><time>2026-05-01T13:08:44Z</time></trkpt><trkpt lat="40.3583295" lon="0.398281"><ele>6.999999999999999</ele><time>2026-05-01T13:08:46Z</time></trkpt><trkpt lat="40.3582157" lon="0.3983132"><ele>7.0</ele><time>2026-05-01T13:08:48Z</time></trkpt><trkpt lat="40.3581117" lon="0.3983429"><ele>7.0</ele><time>2026-05-01T13:08:49.999Z</time></trkpt><trkpt lat="40.3580312" lon="0.3983518"><ele>7.285714285714286</ele><time>2026-05-01T13:08:50.999Z</time></trkpt><trkpt lat="40.357964" lon="0.3983698"><ele>7.571428571428571</ele><time>2026-05-01T13:08:51.999Z</time></trkpt><trkpt lat="40.357893" lon="0.3984008"><ele>7.857142857142858</ele><time>2026-05-01T13:08:53Z</time></trkpt><trkpt lat="40.3578245" lon="0.3984288"><ele>8.142857142857142</ele><time>2026-05-01T13:08:54Z</time></trkpt><trkpt lat="40.357757" lon="0.3984568"><ele>8.428571428571429</ele><time>2026-05-01T13:08:55Z</time></trkpt><trkpt lat="40.3576904" lon="0.3984851"><ele>8.714285714285715</ele><time>2026-05-01T13:08:55.999Z</time></trkpt><trkpt lat="40.3576304" lon="0.3985122"><ele>9.0</ele><time>2026-05-01T13:08:56.999Z</time></trkpt><trkpt lat="40.3575296" lon="0.3985413"><ele>9.0</ele><time>2026-05-01T13:08:58.999Z</time></trkpt><trkpt lat="40.3574241" lon="0.3984968"><ele>9.0</ele><time>2026-05-01T13:09:00.999Z</time></trkpt><trkpt lat="40.3573696" lon="0.398447"><ele>9.0</ele><time>2026-05-01T13:09:02Z</time></trkpt><trkpt lat="40.3572946" lon="0.3983738"><ele>9.0</ele><time>2026-05-01T13:09:02.999Z</time></trkpt><trkpt lat="40.3572258" lon="0.3982984"><ele>9.0</ele><time>2026-05-01T13:09:03.999Z</time></trkpt><trkpt lat="40.3571393" lon="0.3982056"><ele>9.2</ele><time>2026-05-01T13:09:04.999Z</time></trkpt><trkpt lat="40.3570528" lon="0.3981102"><ele>9.4</ele><time>2026-05-01T13:09:05.999Z</time></trkpt><trkpt lat="40.3569671" lon="0.3980147"><ele>9.6</ele><time>2026-05-01T13:09:07Z</time></trkpt><trkpt lat="40.3568931" lon="0.3979294"><ele>9.8</ele><time>2026-05-01T13:09:07.999Z</time></trkpt><trkpt lat="40.356828" lon="0.3978767"><ele>10.0</ele><time>2026-05-01T13:09:08.999Z</time></trkpt><trkpt lat="40.3567625" lon="0.3978612"><ele>10.0</ele><time>2026-05-01T13:09:10Z</time></trkpt><trkpt lat="40.3566975" lon="0.3978998"><ele>10.0</ele><time>2026-05-01T13:09:10.999Z</time></trkpt><trkpt lat="40.3566345" lon="0.3979705"><ele>10.0</ele><time>2026-05-01T13:09:11.999Z</time></trkpt><trkpt lat="40.3565647" lon="0.3980422"><ele>10.0</ele><time>2026-05-01T13:09:12.999Z</time></trkpt><trkpt lat="40.3564903" lon="0.398133"><ele>10.0</ele><time>2026-05-01T13:09:13.999Z</time></trkpt><trkpt lat="40.3564062" lon="0.3982233"><ele>12.333333333333334</ele><time>2026-05-01T13:09:14.999Z</time></trkpt><trkpt lat="40.3563215" lon="0.3983197"><ele>14.666666666666668</ele><time>2026-05-01T13:09:15.999Z</time></trkpt><trkpt lat="40.3562345" lon="0.3983854"><ele>17.0</ele><time>2026-05-01T13:09:17Z</time></trkpt><trkpt lat="40.3561546" lon="0.3983966"><ele>19.333333333333332</ele><time>2026-05-01T13:09:18Z</time></trkpt><trkpt lat="40.3560877" lon="0.398373"><ele>21.666666666666668</ele><time>2026-05-01T13:09:18.999Z</time></trkpt><trkpt lat="40.3560126" lon="0.3983738"><ele>24.0</ele><time>2026-05-01T13:09:20Z</time></trkpt><trkpt lat="40.3559321" lon="0.3984079"><ele>24.0</ele><time>2026-05-01T13:09:21Z</time></trkpt><trkpt lat="40.3558438" lon="0.3984173"><ele>24.0</ele><time>2026-05-01T13:09:22Z</time></trkpt><trkpt lat="40.3557397" lon="0.398401"><ele>24.0</ele><time>2026-05-01T13:09:22.999Z</time></trkpt><trkpt lat="40.3556373" lon="0.3984001"><ele>24.0</ele><time>2026-05-01T13:09:23.999Z</time></trkpt><trkpt lat="40.3555369" lon="0.3984213"><ele>24.0</ele><time>2026-05-01T13:09:24.999Z</time></trkpt><trkpt lat="40.3554321" lon="0.3984291"><ele>24.0</ele><time>2026-05-01T13:09:25.999Z</time></trkpt><trkpt lat="40.3553348" lon="0.3984091"><ele>24.0</ele><time>2026-05-01T13:09:26.999Z</time></trkpt><trkpt lat="40.3552291" lon="0.3983887"><ele>24.0</ele><time>2026-05-01T13:09:27.999Z</time></trkpt><trkpt lat="40.3551208" lon="0.3983442"><ele>24.0</ele><time>2026-05-01T13:09:28.999Z</time></trkpt><trkpt lat="40.3550174" lon="0.3982681"><ele>24.0</ele><time>2026-05-01T13:09:29.999Z</time></trkpt><trkpt lat="40.3549162" lon="0.3982116"><ele>24.0</ele><time>2026-05-01T13:09:30.999Z</time></trkpt><trkpt lat="40.3548118" lon="0.3981641"><ele>24.0</ele><time>2026-05-01T13:09:31.999Z</time></trkpt><trkpt lat="40.3547136" lon="0.3981278"><ele>24.0</ele><time>2026-05-01T13:09:32.999Z</time></trkpt><trkpt lat="40.3546352" lon="0.3980801"><ele>24.0</ele><time>2026-05-01T13:09:34Z</time></trkpt><trkpt lat="40.3545883" lon="0.3979943"><ele>24.0</ele><time>2026-05-01T13:09:34.999Z</time></trkpt><trkpt lat="40.3545639" lon="0.3978803"><ele>23.2</ele><time>2026-05-01T13:09:35.999Z</time></trkpt><trkpt lat="40.3545377" lon="0.3977655"><ele>22.4</ele><time>2026-05-01T13:09:37Z</time></trkpt><trkpt lat="40.3545" lon="0.3976516"><ele>21.6</ele><time>2026-05-01T13:09:37.999Z</time></trkpt><trkpt lat="40.3544385" lon="0.3975592"><ele>20.8</ele><time>2026-05-01T13:09:38.999Z</time></trkpt><trkpt lat="40.3543487" lon="0.3974912"><ele>20.0</ele><time>2026-05-01T13:09:39.999Z</time></trkpt><trkpt lat="40.35425" lon="0.3974341"><ele>20.0</ele><time>2026-05-01T13:09:40.999Z</time></trkpt><trkpt lat="40.3541514" lon="0.3973875"><ele>20.0</ele><time>2026-05-01T13:09:41.999Z</time></trkpt><trkpt lat="40.3540514" lon="0.3973148"><ele>20.0</ele><time>2026-05-01T13:09:42.999Z</time></trkpt><trkpt lat="40.3539661" lon="0.3972073"><ele>20.0</ele><time>2026-05-01T13:09:43.999Z</time></trkpt><trkpt lat="40.3538754" lon="0.3970978"><ele>17.25</ele><time>2026-05-01T13:09:45Z</time></trkpt><trkpt lat="40.3537951" lon="0.3969928"><ele>14.5</ele><time>2026-05-01T13:09:45.999Z</time></trkpt><trkpt lat="40.3537236" lon="0.3968779"><ele>11.75</ele><time>2026-05-01T13:09:47Z</time></trkpt><trkpt lat="40.3536478" lon="0.396751"><ele>9.0</ele><time>2026-05-01T13:09:48Z</time></trkpt><trkpt lat="40.3535805" lon="0.3966202"><ele>9.0</ele><time>2026-05-01T13:09:49Z</time></trkpt><trkpt lat="40.3535534" lon="0.3964739"><ele>9.0</ele><time>2026-05-01T13:09:50Z</time></trkpt><trkpt lat="40.3535427" lon="0.396329"><ele>9.0</ele><time>2026-05-01T13:09:50.999Z</time></trkpt><trkpt lat="40.3535506" lon="0.3961841"><ele>9.0</ele><time>2026-05-01T13:09:51.999Z</time></trkpt><trkpt lat="40.3535624" lon="0.3960396"><ele>9.0</ele><time>2026-05-01T13:09:52.999Z</time></trkpt><trkpt lat="40.3535603" lon="0.3959155"><ele>9.2</ele><time>2026-05-01T13:09:53.999Z</time></trkpt><trkpt lat="40.3535533" lon="0.3957918"><ele>9.4</ele><time>2026-05-01T13:09:55Z</time></trkpt><trkpt lat="40.3535509" lon="0.3956703"><ele>9.6</ele><time>2026-05-01T13:09:55.999Z</time></trkpt><trkpt lat="40.3535402" lon="0.3955414"><ele>9.8</ele><time>2026-05-01T13:09:57Z</time></trkpt><trkpt lat="40.3535174" lon="0.3954025"><ele>10.0</ele><time>2026-05-01T13:09:57.999Z</time></trkpt><trkpt lat="40.3534836" lon="0.3952573"><ele>10.0</ele><time>2026-05-01T13:09:58.999Z</time></trkpt><trkpt lat="40.3534439" lon="0.3951131"><ele>10.0</ele><time>2026-05-01T13:10:00Z</time></trkpt><trkpt lat="40.3533917" lon="0.3949616"><ele>10.0</ele><time>2026-05-01T13:10:00.999Z</time></trkpt><trkpt lat="40.3533306" lon="0.3947858"><ele>10.0</ele><time>2026-05-01T13:10:01.999Z</time></trkpt><trkpt lat="40.3532707" lon="0.3946088"><ele>11.0</ele><time>2026-05-01T13:10:03Z</time></trkpt><trkpt lat="40.3532075" lon="0.3944294"><ele>12.0</ele><time>2026-05-01T13:10:03.999Z</time></trkpt><trkpt lat="40.3531413" lon="0.3942543"><ele>13.0</ele><time>2026-05-01T13:10:04.999Z</time></trkpt><trkpt lat="40.3530647" lon="0.3940837"><ele>10.75</ele><time>2026-05-01T13:10:05.999Z</time></trkpt><trkpt lat="40.3529843" lon="0.3939182"><ele>8.5</ele><time>2026-05-01T13:10:07Z</time></trkpt><trkpt lat="40.3529076" lon="0.3937628"><ele>6.25</ele><time>2026-05-01T13:10:08Z</time></trkpt><trkpt lat="40.3528357" lon="0.3936094"><ele>4.0</ele><time>2026-05-01T13:10:09Z</time></trkpt><trkpt lat="40.3527785" lon="0.3934722"><ele>3.8000000000000003</ele><time>2026-05-01T13:10:10Z</time></trkpt><trkpt lat="40.352717" lon="0.3933358"><ele>3.6000000000000005</ele><time>2026-05-01T13:10:10.999Z</time></trkpt><trkpt lat="40.352658" lon="0.39321"><ele>3.4</ele><time>2026-05-01T13:10:11.999Z</time></trkpt><trkpt lat="40.3526024" lon="0.3930945"><ele>3.2</ele><time>2026-05-01T13:10:12.999Z</time></trkpt><trkpt lat="40.3525451" lon="0.392981"><ele>3.0</ele><time>2026-05-01T13:10:13.999Z</time></trkpt><trkpt lat="40.3524876" lon="0.3928743"><ele>2.8</ele><time>2026-05-01T13:10:14.999Z</time></trkpt><trkpt lat="40.3524247" lon="0.3927735"><ele>2.5999999999999996</ele><time>2026-05-01T13:10:15.999Z</time></trkpt><trkpt lat="40.3523616" lon="0.3926721"><ele>2.4000000000000004</ele><time>2026-05-01T13:10:16.999Z</time></trkpt><trkpt lat="40.3523027" lon="0.3925748"><ele>2.2</ele><time>2026-05-01T13:10:17.999Z</time></trkpt><trkpt lat="40.352243" lon="0.392469"><ele>2.0</ele><time>2026-05-01T13:10:18.999Z</time></trkpt><trkpt lat="40.3521772" lon="0.392368"><ele>2.0</ele><time>2026-05-01T13:10:19.999Z</time></trkpt><trkpt lat="40.3521051" lon="0.3922701"><ele>2.0</ele><time>2026-05-01T13:10:21Z</time></trkpt><trkpt lat="40.3520391" lon="0.3921833"><ele>2.0</ele><time>2026-05-01T13:10:21.999Z</time></trkpt><trkpt lat="40.3519604" lon="0.392116"><ele>2.0</ele><time>2026-05-01T13:10:22.999Z</time></trkpt><trkpt lat="40.3518887" lon="0.3920558"><ele>2.0</ele><time>2026-05-01T13:10:23.999Z</time></trkpt><trkpt lat="40.351817" lon="0.3919895"><ele>2.6</ele><time>2026-05-01T13:10:24.999Z</time></trkpt><trkpt lat="40.3517482" lon="0.3919307"><ele>3.2</ele><time>2026-05-01T13:10:26Z</time></trkpt><trkpt lat="40.3516723" lon="0.3918649"><ele>3.8</ele><time>2026-05-01T13:10:27Z</time></trkpt><trkpt lat="40.3515937" lon="0.3918113"><ele>4.4</ele><time>2026-05-01T13:10:27.999Z</time></trkpt><trkpt lat="40.3515071" lon="0.3917738"><ele>5.0</ele><time>2026-05-01T13:10:28.999Z</time></trkpt><trkpt lat="40.3514062" lon="0.3917516"><ele>5.25</ele><time>2026-05-01T13:10:30Z</time></trkpt><trkpt lat="40.3512985" lon="0.3917548"><ele>5.5</ele><time>2026-05-01T13:10:30.999Z</time></trkpt><trkpt lat="40.3511834" lon="0.3917638"><ele>5.75</ele><time>2026-05-01T13:10:32Z</time></trkpt><trkpt lat="40.3510708" lon="0.3917834"><ele>6.0</ele><time>2026-05-01T13:10:32.999Z</time></trkpt><trkpt lat="40.3509495" lon="0.3917995"><ele>6.0</ele><time>2026-05-01T13:10:34Z</time></trkpt><trkpt lat="40.3508228" lon="0.3918051"><ele>6.0</ele><time>2026-05-01T13:10:34.999Z</time></trkpt><trkpt lat="40.3506944" lon="0.3918151"><ele>6.0</ele><time>2026-05-01T13:10:35.999Z</time></trkpt><trkpt lat="40.3505617" lon="0.3918181"><ele>6.0</ele><time>2026-05-01T13:10:36.999Z</time></trkpt><trkpt lat="40.3504302" lon="0.3918221"><ele>7.5</ele><time>2026-05-01T13:10:37.999Z</time></trkpt><trkpt lat="40.3502984" lon="0.3918248"><ele>9.0</ele><time>2026-05-01T13:10:38.999Z</time></trkpt><trkpt lat="40.3501701" lon="0.3918308"><ele>10.5</ele><time>2026-05-01T13:10:39.999Z</time></trkpt><trkpt lat="40.3500488" lon="0.39184"><ele>12.0</ele><time>2026-05-01T13:10:40.999Z</time></trkpt><trkpt lat="40.3499492" lon="0.391818"><ele>12.0</ele><time>2026-05-01T13:10:41.999Z</time></trkpt><trkpt lat="40.3498598" lon="0.3917621"><ele>12.0</ele><time>2026-05-01T13:10:42.999Z</time></trkpt><trkpt lat="40.3497979" lon="0.3916721"><ele>12.0</ele><time>2026-05-01T13:10:43.999Z</time></trkpt><trkpt lat="40.3497339" lon="0.39157"><ele>12.0</ele><time>2026-05-01T13:10:44.999Z</time></trkpt><trkpt lat="40.3496605" lon="0.3914699"><ele>12.0</ele><time>2026-05-01T13:10:46Z</time></trkpt><trkpt lat="40.3495849" lon="0.3914025"><ele>10.799999999999999</ele><time>2026-05-01T13:10:46.999Z</time></trkpt><trkpt lat="40.3494947" lon="0.3913627"><ele>9.6</ele><time>2026-05-01T13:10:47.999Z</time></trkpt><trkpt lat="40.3493968" lon="0.3913205"><ele>8.399999999999999</ele><time>2026-05-01T13:10:48.999Z</time></trkpt><trkpt lat="40.3492899" lon="0.3912521"><ele>7.199999999999999</ele><time>2026-05-01T13:10:49.999Z</time></trkpt><trkpt lat="40.3491878" lon="0.3911635"><ele>6.0</ele><time>2026-05-01T13:10:51Z</time></trkpt><trkpt lat="40.3490942" lon="0.3910646"><ele>7.0</ele><time>2026-05-01T13:10:52Z</time></trkpt><trkpt lat="40.3489977" lon="0.3909714"><ele>8.0</ele><time>2026-05-01T13:10:52.999Z</time></trkpt><trkpt lat="40.3489064" lon="0.3908866"><ele>9.0</ele><time>2026-05-01T13:10:54Z</time></trkpt><trkpt lat="40.3488107" lon="0.3908014"><ele>10.0</ele><time>2026-05-01T13:10:55Z</time></trkpt><trkpt lat="40.3487182" lon="0.3907225"><ele>10.0</ele><time>2026-05-01T13:10:56Z</time></trkpt><trkpt lat="40.3486263" lon="0.3906511"><ele>10.0</ele><time>2026-05-01T13:10:56.999Z</time></trkpt><trkpt lat="40.3485324" lon="0.3905775"><ele>10.0</ele><time>2026-05-01T13:10:58Z</time></trkpt><trkpt lat="40.3484405" lon="0.3904964"><ele>10.0</ele><time>2026-05-01T13:10:58.999Z</time></trkpt><trkpt lat="40.3483588" lon="0.3904082"><ele>10.0</ele><time>2026-05-01T13:10:59.999Z</time></trkpt><trkpt lat="40.3482688" lon="0.3903247"><ele>9.0</ele><time>2026-05-01T13:11:01Z</time></trkpt><trkpt lat="40.3481928" lon="0.3902283"><ele>8.0</ele><time>2026-05-01T13:11:01.999Z</time></trkpt><trkpt lat="40.3481292" lon="0.3901212"><ele>7.0</ele><time>2026-05-01T13:11:03Z</time></trkpt><trkpt lat="40.3480834" lon="0.3900029"><ele>6.0</ele><time>2026-05-01T13:11:03.999Z</time></trkpt><trkpt lat="40.3480422" lon="0.3898866"><ele>5.0</ele><time>2026-05-01T13:11:05Z</time></trkpt><trkpt lat="40.3480043" lon="0.3897616"><ele>5.333333333333334</ele><time>2026-05-01T13:11:06Z</time></trkpt><trkpt lat="40.3479643" lon="0.3896535"><ele>5.666666666666667</ele><time>2026-05-01T13:11:06.999Z</time></trkpt><trkpt lat="40.3479152" lon="0.3895485"><ele>6.0</ele><time>2026-05-01T13:11:07.999Z</time></trkpt><trkpt lat="40.3478694" lon="0.3894518"><ele>6.333333333333334</ele><time>2026-05-01T13:11:08.999Z</time></trkpt><trkpt lat="40.3478269" lon="0.3893489"><ele>6.666666666666667</ele><time>2026-05-01T13:11:09.999Z</time></trkpt><trkpt lat="40.3477863" lon="0.3892516"><ele>7.0</ele><time>2026-05-01T13:11:10.999Z</time></trkpt><trkpt lat="40.347743" lon="0.3891498"><ele>7.000000000000001</ele><time>2026-05-01T13:11:11.999Z</time></trkpt><trkpt lat="40.3476858" lon="0.3890783"><ele>7.0</ele><time>2026-05-01T13:11:12.999Z</time></trkpt><trkpt lat="40.347619" lon="0.3890417"><ele>7.0</ele><time>2026-05-01T13:11:13.999Z</time></trkpt><trkpt lat="40.3475459" lon="0.3890312"><ele>7.0</ele><time>2026-05-01T13:11:14.999Z</time></trkpt><trkpt lat="40.3474655" lon="0.389025"><ele>7.000000000000001</ele><time>2026-05-01T13:11:16Z</time></trkpt><trkpt lat="40.3473885" lon="0.389022"><ele>7.0</ele><time>2026-05-01T13:11:16.999Z</time></trkpt><trkpt lat="40.3473096" lon="0.3890421"><ele>7.000000000000001</ele><time>2026-05-01T13:11:17.999Z</time></trkpt><trkpt lat="40.3472283" lon="0.389063"><ele>7.0</ele><time>2026-05-01T13:11:19Z</time></trkpt><trkpt lat="40.3471498" lon="0.3890844"><ele>7.0</ele><time>2026-05-01T13:11:20Z</time></trkpt><trkpt lat="40.3470702" lon="0.3891054"><ele>7.0</ele><time>2026-05-01T13:11:20.999Z</time></trkpt><trkpt lat="40.3469994" lon="0.3891173"><ele>7.000000000000001</ele><time>2026-05-01T13:11:22Z</time></trkpt><trkpt lat="40.3469301" lon="0.3891227"><ele>7.0</ele><time>2026-05-01T13:11:23Z</time></trkpt><trkpt lat="40.3468562" lon="0.3891016"><ele>6.333333333333334</ele><time>2026-05-01T13:11:24Z</time></trkpt><trkpt lat="40.3467783" lon="0.3890711"><ele>5.666666666666667</ele><time>2026-05-01T13:11:25Z</time></trkpt><trkpt lat="40.3466996" lon="0.3890398"><ele>5.0</ele><time>2026-05-01T13:11:26Z</time></trkpt><trkpt lat="40.346613" lon="0.3890064"><ele>4.333333333333334</ele><time>2026-05-01T13:11:26.999Z</time></trkpt><trkpt lat="40.3465382" lon="0.3889545"><ele>3.666666666666667</ele><time>2026-05-01T13:11:27.999Z</time></trkpt><trkpt lat="40.3464634" lon="0.3888958"><ele>3.0</ele><time>2026-05-01T13:11:28.999Z</time></trkpt><trkpt lat="40.3463956" lon="0.3888431"><ele>3.4</ele><time>2026-05-01T13:11:29.999Z</time></trkpt><trkpt lat="40.3463336" lon="0.3887735"><ele>3.8</ele><time>2026-05-01T13:11:31Z</time></trkpt><trkpt lat="40.346266" lon="0.3886862"><ele>4.2</ele><time>2026-05-01T13:11:32Z</time></trkpt><trkpt lat="40.3461962" lon="0.3885728"><ele>4.6</ele><time>2026-05-01T13:11:32.999Z</time></trkpt><trkpt lat="40.3461255" lon="0.3884422"><ele>5.0</ele><time>2026-05-01T13:11:33.999Z</time></trkpt><trkpt lat="40.3460611" lon="0.3882946"><ele>5.0</ele><time>2026-05-01T13:11:35Z</time></trkpt><trkpt lat="40.345993" lon="0.3881392"><ele>5.0</ele><time>2026-05-01T13:11:35.999Z</time></trkpt><trkpt lat="40.3459188" lon="0.387971"><ele>5.0</ele><time>2026-05-01T13:11:37Z</time></trkpt><trkpt lat="40.3458482" lon="0.3878044"><ele>5.0</ele><time>2026-05-01T13:11:37.999Z</time></trkpt><trkpt lat="40.3457823" lon="0.3876501"><ele>5.8</ele><time>2026-05-01T13:11:38.999Z</time></trkpt><trkpt lat="40.3457244" lon="0.3875196"><ele>6.6</ele><time>2026-05-01T13:11:39.999Z</time></trkpt><trkpt lat="40.3456647" lon="0.387385"><ele>7.4</ele><time>2026-05-01T13:11:41Z</time></trkpt><trkpt lat="40.3456089" lon="0.3872623"><ele>8.2</ele><time>2026-05-01T13:11:41.999Z</time></trkpt><trkpt lat="40.3455586" lon="0.3871569"><ele>9.0</ele><time>2026-05-01T13:11:42.999Z</time></trkpt><trkpt lat="40.3455295" lon="0.3870663"><ele>10.0</ele><time>2026-05-01T13:11:43.999Z</time></trkpt><trkpt lat="40.3454828" lon="0.3869522"><ele>11.0</ele><time>2026-05-01T13:11:45.999Z</time></trkpt><trkpt lat="40.3454335" lon="0.3868627"><ele>11.999999999999998</ele><time>2026-05-01T13:11:47.999Z</time></trkpt><trkpt lat="40.3453566" lon="0.3867384"><ele>13.0</ele><time>2026-05-01T13:11:49.999Z</time></trkpt><trkpt lat="40.3452863" lon="0.3866232"><ele>14.0</ele><time>2026-05-01T13:11:52Z</time></trkpt><trkpt lat="40.3452299" lon="0.3865569"><ele>14.0</ele><time>2026-05-01T13:11:54Z</time></trkpt><trkpt lat="40.3451532" lon="0.3866789"><ele>13.999999999999998</ele><time>2026-05-01T13:11:56.999Z</time></trkpt><trkpt lat="40.3451378" lon="0.3868051"><ele>13.999999999999998</ele><time>2026-05-01T13:11:58Z</time></trkpt><trkpt lat="40.3451111" lon="0.3869053"><ele>14.0</ele><time>2026-05-01T13:11:59Z</time></trkpt><trkpt lat="40.3450791" lon="0.387016"><ele>14.0</ele><time>2026-05-01T13:11:59.999Z</time></trkpt><trkpt lat="40.3450519" lon="0.3871242"><ele>13.166666666666668</ele><time>2026-05-01T13:12:00.999Z</time></trkpt><trkpt lat="40.3450208" lon="0.3872399"><ele>12.333333333333334</ele><time>2026-05-01T13:12:01.999Z</time></trkpt><trkpt lat="40.3449914" lon="0.3873446"><ele>11.5</ele><time>2026-05-01T13:12:03Z</time></trkpt><trkpt lat="40.3449734" lon="0.387442"><ele>10.666666666666668</ele><time>2026-05-01T13:12:03.999Z</time></trkpt><trkpt lat="40.3449538" lon="0.387536"><ele>9.833333333333334</ele><time>2026-05-01T13:12:04.999Z</time></trkpt><trkpt lat="40.3449231" lon="0.3876269"><ele>9.0</ele><time>2026-05-01T13:12:06Z</time></trkpt><trkpt lat="40.344888" lon="0.3877206"><ele>9.0</ele><time>2026-05-01T13:12:06.999Z</time></trkpt><trkpt lat="40.3448484" lon="0.3878121"><ele>9.0</ele><time>2026-05-01T13:12:07.999Z</time></trkpt><trkpt lat="40.3448157" lon="0.3878859"><ele>9.0</ele><time>2026-05-01T13:12:09Z</time></trkpt><trkpt lat="40.3447607" lon="0.3879484"><ele>9.0</ele><time>2026-05-01T13:12:11Z</time></trkpt><trkpt lat="40.3446986" lon="0.3878929"><ele>9.0</ele><time>2026-05-01T13:12:14.999Z</time></trkpt><trkpt lat="40.3446841" lon="0.3877616"><ele>9.0</ele><time>2026-05-01T13:12:17Z</time></trkpt><trkpt lat="40.3446623" lon="0.3876833"><ele>8.6</ele><time>2026-05-01T13:12:17.999Z</time></trkpt><trkpt lat="40.344578" lon="0.3875677"><ele>8.2</ele><time>2026-05-01T13:12:19.999Z</time></trkpt><trkpt lat="40.3444674" lon="0.3875434"><ele>7.799999999999999</ele><time>2026-05-01T13:12:21.999Z</time></trkpt><trkpt lat="40.3443624" lon="0.3876395"><ele>7.3999999999999995</ele><time>2026-05-01T13:12:23.999Z</time></trkpt><trkpt lat="40.3443089" lon="0.3876999"><ele>7.0</ele><time>2026-05-01T13:12:24.999Z</time></trkpt><trkpt lat="40.3442463" lon="0.3877544"><ele>7.000000000000001</ele><time>2026-05-01T13:12:25.999Z</time></trkpt><trkpt lat="40.3441695" lon="0.3878001"><ele>7.0</ele><time>2026-05-01T13:12:27Z</time></trkpt><trkpt lat="40.3440836" lon="0.387839"><ele>7.0</ele><time>2026-05-01T13:12:27.999Z</time></trkpt><trkpt lat="40.3439983" lon="0.387873"><ele>7.0</ele><time>2026-05-01T13:12:28.999Z</time></trkpt><trkpt lat="40.3439103" lon="0.3878981"><ele>7.000000000000001</ele><time>2026-05-01T13:12:29.999Z</time></trkpt><trkpt lat="40.3438193" lon="0.3879142"><ele>7.0</ele><time>2026-05-01T13:12:31Z</time></trkpt><trkpt lat="40.3437359" lon="0.3879266"><ele>7.166666666666667</ele><time>2026-05-01T13:12:32Z</time></trkpt><trkpt lat="40.3436457" lon="0.3879445"><ele>7.333333333333334</ele><time>2026-05-01T13:12:32.999Z</time></trkpt><trkpt lat="40.3435675" lon="0.3879456"><ele>7.5</ele><time>2026-05-01T13:12:33.999Z</time></trkpt><trkpt lat="40.3434874" lon="0.3879283"><ele>7.666666666666666</ele><time>2026-05-01T13:12:34.999Z</time></trkpt><trkpt lat="40.3434" lon="0.387897"><ele>7.833333333333333</ele><time>2026-05-01T13:12:35.999Z</time></trkpt><trkpt lat="40.3433018" lon="0.3878505"><ele>8.0</ele><time>2026-05-01T13:12:37Z</time></trkpt><trkpt lat="40.3432006" lon="0.3877916"><ele>8.0</ele><time>2026-05-01T13:12:37.999Z</time></trkpt><trkpt lat="40.3430977" lon="0.3877353"><ele>8.0</ele><time>2026-05-01T13:12:38.999Z</time></trkpt><trkpt lat="40.342984" lon="0.3876803"><ele>8.0</ele><time>2026-05-01T13:12:40Z</time></trkpt><trkpt lat="40.3428753" lon="0.3876293"><ele>8.0</ele><time>2026-05-01T13:12:40.999Z</time></trkpt><trkpt lat="40.3427743" lon="0.3875784"><ele>7.0</ele><time>2026-05-01T13:12:41.999Z</time></trkpt><trkpt lat="40.3426742" lon="0.3875137"><ele>6.0</ele><time>2026-05-01T13:12:43Z</time></trkpt><trkpt lat="40.3425771" lon="0.387433"><ele>5.0</ele><time>2026-05-01T13:12:44Z</time></trkpt><trkpt lat="40.3424779" lon="0.3873484"><ele>4.0</ele><time>2026-05-01T13:12:44.999Z</time></trkpt><trkpt lat="40.3423828" lon="0.3872656"><ele>4.0</ele><time>2026-05-01T13:12:45.999Z</time></trkpt><trkpt lat="40.3422996" lon="0.3871819"><ele>4.0</ele><time>2026-05-01T13:12:46.999Z</time></trkpt><trkpt lat="40.3422202" lon="0.3870939"><ele>4.0</ele><time>2026-05-01T13:12:47.999Z</time></trkpt><trkpt lat="40.342141" lon="0.3870066"><ele>4.0</ele><time>2026-05-01T13:12:48.999Z</time></trkpt><trkpt lat="40.3420535" lon="0.3869385"><ele>4.0</ele><time>2026-05-01T13:12:49.999Z</time></trkpt><trkpt lat="40.341966" lon="0.386874"><ele>4.2</ele><time>2026-05-01T13:12:51Z</time></trkpt><trkpt lat="40.3418821" lon="0.3868141"><ele>4.4</ele><time>2026-05-01T13:12:52Z</time></trkpt><trkpt lat="40.3417977" lon="0.3867586"><ele>4.6</ele><time>2026-05-01T13:12:52.999Z</time></trkpt><trkpt lat="40.3417135" lon="0.3866962"><ele>4.8</ele><time>2026-05-01T13:12:53.999Z</time></trkpt><trkpt lat="40.3416418" lon="0.3866153"><ele>5.0</ele><time>2026-05-01T13:12:54.999Z</time></trkpt><trkpt lat="40.3415771" lon="0.3865301"><ele>5.0</ele><time>2026-05-01T13:12:56Z</time></trkpt><trkpt lat="40.3415119" lon="0.3864508"><ele>5.0</ele><time>2026-05-01T13:12:56.999Z</time></trkpt><trkpt lat="40.3414489" lon="0.3863745"><ele>5.0</ele><time>2026-05-01T13:12:57.999Z</time></trkpt><trkpt lat="40.3413948" lon="0.386303"><ele>5.0</ele><time>2026-05-01T13:12:58.999Z</time></trkpt><trkpt lat="40.3413536" lon="0.3862229"><ele>5.0</ele><time>2026-05-01T13:12:59.999Z</time></trkpt><trkpt lat="40.3413228" lon="0.3861434"><ele>5.0</ele><time>2026-05-01T13:13:01Z</time></trkpt><trkpt lat="40.3412999" lon="0.38606"><ele>5.2</ele><time>2026-05-01T13:13:02Z</time></trkpt><trkpt lat="40.3413179" lon="0.3859183"><ele>5.4</ele><time>2026-05-01T13:13:04Z</time></trkpt><trkpt lat="40.341347" lon="0.3857957"><ele>5.6</ele><time>2026-05-01T13:13:05.999Z</time></trkpt><trkpt lat="40.3413215" lon="0.3856658"><ele>5.8</ele><time>2026-05-01T13:13:07.999Z</time></trkpt><trkpt lat="40.3412787" lon="0.3855934"><ele>6.0</ele><time>2026-05-01T13:13:08.999Z</time></trkpt><trkpt lat="40.3412262" lon="0.3855228"><ele>6.8</ele><time>2026-05-01T13:13:10Z</time></trkpt><trkpt lat="40.3411671" lon="0.3854458"><ele>7.6</ele><time>2026-05-01T13:13:10.999Z</time></trkpt><trkpt lat="40.3411069" lon="0.3853685"><ele>8.4</ele><time>2026-05-01T13:13:12Z</time></trkpt><trkpt lat="40.3410223" lon="0.3852915"><ele>9.2</ele><time>2026-05-01T13:13:12.999Z</time></trkpt><trkpt lat="40.3409414" lon="0.3852218"><ele>10.0</ele><time>2026-05-01T13:13:14Z</time></trkpt><trkpt lat="40.3408547" lon="0.385153"><ele>10.0</ele><time>2026-05-01T13:13:14.999Z</time></trkpt><trkpt lat="40.3407746" lon="0.3850918"><ele>10.0</ele><time>2026-05-01T13:13:16Z</time></trkpt><trkpt lat="40.3407099" lon="0.3850182"><ele>10.0</ele><time>2026-05-01T13:13:16.999Z</time></trkpt><trkpt lat="40.3406483" lon="0.3849415"><ele>10.0</ele><time>2026-05-01T13:13:17.999Z</time></trkpt><trkpt lat="40.3406173" lon="0.3848694"><ele>10.0</ele><time>2026-05-01T13:13:19Z</time></trkpt><trkpt lat="40.3406172" lon="0.3847392"><ele>10.0</ele><time>2026-05-01T13:13:20.999Z</time></trkpt><trkpt lat="40.3406765" lon="0.3846278"><ele>10.166666666666668</ele><time>2026-05-01T13:13:22.999Z</time></trkpt><trkpt lat="40.3406963" lon="0.3845194"><ele>10.333333333333334</ele><time>2026-05-01T13:13:25Z</time></trkpt><trkpt lat="40.3406593" lon="0.3844431"><ele>10.5</ele><time>2026-05-01T13:13:25.999Z</time></trkpt><trkpt lat="40.3406115" lon="0.384359"><ele>10.666666666666666</ele><time>2026-05-01T13:13:27Z</time></trkpt><trkpt lat="40.3405526" lon="0.3842616"><ele>10.833333333333332</ele><time>2026-05-01T13:13:28Z</time></trkpt><trkpt lat="40.3404764" lon="0.384159"><ele>11.0</ele><time>2026-05-01T13:13:28.999Z</time></trkpt><trkpt lat="40.3403934" lon="0.3840508"><ele>10.5</ele><time>2026-05-01T13:13:29.999Z</time></trkpt><trkpt lat="40.3403043" lon="0.3839455"><ele>10.0</ele><time>2026-05-01T13:13:31Z</time></trkpt><trkpt lat="40.340221" lon="0.3838358"><ele>9.5</ele><time>2026-05-01T13:13:31.999Z</time></trkpt><trkpt lat="40.3401427" lon="0.3837373"><ele>9.0</ele><time>2026-05-01T13:13:32.999Z</time></trkpt><trkpt lat="40.3400669" lon="0.3836444"><ele>9.0</ele><time>2026-05-01T13:13:33.999Z</time></trkpt><trkpt lat="40.3399822" lon="0.383562"><ele>9.0</ele><time>2026-05-01T13:13:34.999Z</time></trkpt><trkpt lat="40.3398915" lon="0.3834865"><ele>9.0</ele><time>2026-05-01T13:13:36Z</time></trkpt><trkpt lat="40.3397851" lon="0.383408"><ele>9.0</ele><time>2026-05-01T13:13:37Z</time></trkpt><trkpt lat="40.3396841" lon="0.3833257"><ele>8.0</ele><time>2026-05-01T13:13:37.999Z</time></trkpt><trkpt lat="40.3395907" lon="0.3832421"><ele>7.0</ele><time>2026-05-01T13:13:39Z</time></trkpt><trkpt lat="40.339518" lon="0.3831749"><ele>6.0</ele><time>2026-05-01T13:13:39.999Z</time></trkpt><trkpt lat="40.3394059" lon="0.3831303"><ele>5.0</ele><time>2026-05-01T13:13:42Z</time></trkpt><trkpt lat="40.339337" lon="0.3831469"><ele>4.0</ele><time>2026-05-01T13:13:43Z</time></trkpt><trkpt lat="40.3392545" lon="0.3831903"><ele>3.9999999999999996</ele><time>2026-05-01T13:13:44Z</time></trkpt><trkpt lat="40.3391606" lon="0.383236"><ele>4.0</ele><time>2026-05-01T13:13:45Z</time></trkpt><trkpt lat="40.3390634" lon="0.3832847"><ele>4.0</ele><time>2026-05-01T13:13:46Z</time></trkpt><trkpt lat="40.338976" lon="0.3833166"><ele>4.0</ele><time>2026-05-01T13:13:46.999Z</time></trkpt><trkpt lat="40.3388928" lon="0.3833374"><ele>3.9999999999999996</ele><time>2026-05-01T13:13:47.999Z</time></trkpt><trkpt lat="40.3388304" lon="0.3833593"><ele>4.0</ele><time>2026-05-01T13:13:48.999Z</time></trkpt><trkpt lat="40.3387766" lon="0.3834026"><ele>3.8000000000000003</ele><time>2026-05-01T13:13:49.999Z</time></trkpt><trkpt lat="40.3386856" lon="0.3834828"><ele>3.6000000000000005</ele><time>2026-05-01T13:13:51.999Z</time></trkpt><trkpt lat="40.338559" lon="0.3834941"><ele>3.4</ele><time>2026-05-01T13:13:54Z</time></trkpt><trkpt lat="40.3384822" lon="0.3834415"><ele>3.2</ele><time>2026-05-01T13:13:56Z</time></trkpt><trkpt lat="40.3384221" lon="0.3833128"><ele>3.0</ele><time>2026-05-01T13:13:58Z</time></trkpt><trkpt lat="40.3383562" lon="0.3832534"><ele>3.0</ele><time>2026-05-01T13:13:58.999Z</time></trkpt><trkpt lat="40.3382725" lon="0.3831767"><ele>3.0</ele><time>2026-05-01T13:13:59.999Z</time></trkpt><trkpt lat="40.3381856" lon="0.3830986"><ele>3.0</ele><time>2026-05-01T13:14:01Z</time></trkpt><trkpt lat="40.3381049" lon="0.3830285"><ele>3.0</ele><time>2026-05-01T13:14:01.999Z</time></trkpt><trkpt lat="40.3380265" lon="0.3829558"><ele>3.0</ele><time>2026-05-01T13:14:02.999Z</time></trkpt><trkpt lat="40.3379498" lon="0.3828767"><ele>3.0</ele><time>2026-05-01T13:14:03.999Z</time></trkpt><trkpt lat="40.3378776" lon="0.3827951"><ele>3.0</ele><time>2026-05-01T13:14:04.999Z</time></trkpt><trkpt lat="40.3378118" lon="0.382714"><ele>3.0</ele><time>2026-05-01T13:14:05.999Z</time></trkpt><trkpt lat="40.3377549" lon="0.3826349"><ele>3.0</ele><time>2026-05-01T13:14:07Z</time></trkpt><trkpt lat="40.3376927" lon="0.3825513"><ele>3.0</ele><time>2026-05-01T13:14:07.999Z</time></trkpt><trkpt lat="40.3376198" lon="0.3824628"><ele>3.0</ele><time>2026-05-01T13:14:09Z</time></trkpt><trkpt lat="40.3375567" lon="0.3823827"><ele>3.0</ele><time>2026-05-01T13:14:10Z</time></trkpt><trkpt lat="40.3375181" lon="0.3822873"><ele>3.0</ele><time>2026-05-01T13:14:11Z</time></trkpt><trkpt lat="40.3374961" lon="0.3821819"><ele>3.0</ele><time>2026-05-01T13:14:12Z</time></trkpt><trkpt lat="40.337462" lon="0.382081"><ele>3.0</ele><time>2026-05-01T13:14:13Z</time></trkpt><trkpt lat="40.3374133" lon="0.3820012"><ele>3.0</ele><time>2026-05-01T13:14:14Z</time></trkpt><trkpt lat="40.3373467" lon="0.3819398"><ele>3.0</ele><time>2026-05-01T13:14:15Z</time></trkpt><trkpt lat="40.3372839" lon="0.3818701"><ele>3.0</ele><time>2026-05-01T13:14:16Z</time></trkpt><trkpt lat="40.3372188" lon="0.3818157"><ele>3.0</ele><time>2026-05-01T13:14:16.999Z</time></trkpt><trkpt lat="40.3371495" lon="0.3817502"><ele>3.0</ele><time>2026-05-01T13:14:18Z</time></trkpt><trkpt lat="40.3370736" lon="0.3816709"><ele>3.0</ele><time>2026-05-01T13:14:19Z</time></trkpt><trkpt lat="40.3370139" lon="0.3815872"><ele>3.0</ele><time>2026-05-01T13:14:19.999Z</time></trkpt><trkpt lat="40.3369575" lon="0.3814836"><ele>3.0</ele><time>2026-05-01T13:14:21Z</time></trkpt><trkpt lat="40.3369144" lon="0.3813635"><ele>3.0</ele><time>2026-05-01T13:14:21.999Z</time></trkpt><trkpt lat="40.3368737" lon="0.3812519"><ele>3.0</ele><time>2026-05-01T13:14:23Z</time></trkpt><trkpt lat="40.336849" lon="0.3811342"><ele>3.0</ele><time>2026-05-01T13:14:23.999Z</time></trkpt><trkpt lat="40.3368326" lon="0.3810341"><ele>3.0</ele><time>2026-05-01T13:14:24.999Z</time></trkpt><trkpt lat="40.3368138" lon="0.3809274"><ele>3.1428571428571423</ele><time>2026-05-01T13:14:26Z</time></trkpt><trkpt lat="40.3368172" lon="0.3808289"><ele>3.2857142857142856</ele><time>2026-05-01T13:14:27Z</time></trkpt><trkpt lat="40.3368155" lon="0.3807253"><ele>3.4285714285714284</ele><time>2026-05-01T13:14:28Z</time></trkpt><trkpt lat="40.3368154" lon="0.380623"><ele>3.571428571428571</ele><time>2026-05-01T13:14:29Z</time></trkpt><trkpt lat="40.3368162" lon="0.3805283"><ele>3.714285714285714</ele><time>2026-05-01T13:14:29.999Z</time></trkpt><trkpt lat="40.3367854" lon="0.3804448"><ele>3.8571428571428568</ele><time>2026-05-01T13:14:30.999Z</time></trkpt><trkpt lat="40.3367405" lon="0.3803713"><ele>4.0</ele><time>2026-05-01T13:14:31.999Z</time></trkpt><trkpt lat="40.3366949" lon="0.3802965"><ele>3.6</ele><time>2026-05-01T13:14:32.999Z</time></trkpt><trkpt lat="40.3366565" lon="0.3802264"><ele>3.2</ele><time>2026-05-01T13:14:33.999Z</time></trkpt><trkpt lat="40.3365874" lon="0.3800989"><ele>2.8000000000000003</ele><time>2026-05-01T13:14:35.999Z</time></trkpt><trkpt lat="40.3365022" lon="0.3800223"><ele>2.4000000000000004</ele><time>2026-05-01T13:14:37.999Z</time></trkpt><trkpt lat="40.3363977" lon="0.380017"><ele>2.0</ele><time>2026-05-01T13:14:40Z</time></trkpt><trkpt lat="40.336271" lon="0.3800467"><ele>1.9999999999999998</ele><time>2026-05-01T13:14:42Z</time></trkpt><trkpt lat="40.3362018" lon="0.3800652"><ele>2.0</ele><time>2026-05-01T13:14:43Z</time></trkpt><trkpt lat="40.3361334" lon="0.3800854"><ele>2.0</ele><time>2026-05-01T13:14:44Z</time></trkpt><trkpt lat="40.3360656" lon="0.3800858"><ele>2.0</ele><time>2026-05-01T13:14:44.999Z</time></trkpt><trkpt lat="40.3360025" lon="0.3800603"><ele>1.9999999999999998</ele><time>2026-05-01T13:14:45.999Z</time></trkpt><trkpt lat="40.3359377" lon="0.380021"><ele>2.0</ele><time>2026-05-01T13:14:46.999Z</time></trkpt><trkpt lat="40.3358467" lon="0.3798961"><ele>1.9999999999999998</ele><time>2026-05-01T13:14:48.999Z</time></trkpt><trkpt lat="40.3358037" lon="0.3798193"><ele>2.0</ele><time>2026-05-01T13:14:49.999Z</time></trkpt><trkpt lat="40.3357658" lon="0.3797281"><ele>2.0</ele><time>2026-05-01T13:14:50.999Z</time></trkpt><trkpt lat="40.335735" lon="0.3796285"><ele>2.0</ele><time>2026-05-01T13:14:51.999Z</time></trkpt><trkpt lat="40.3357024" lon="0.3795277"><ele>1.9999999999999998</ele><time>2026-05-01T13:14:53Z</time></trkpt><trkpt lat="40.3356695" lon="0.3794327"><ele>2.0</ele><time>2026-05-01T13:14:54Z</time></trkpt><trkpt lat="40.3356362" lon="0.3793351"><ele>1.9999999999999998</ele><time>2026-05-01T13:14:54.999Z</time></trkpt><trkpt lat="40.335608" lon="0.3792322"><ele>2.0</ele><time>2026-05-01T13:14:55.999Z</time></trkpt><trkpt lat="40.335583" lon="0.3791161"><ele>2.0</ele><time>2026-05-01T13:14:57Z</time></trkpt><trkpt lat="40.3355662" lon="0.3790037"><ele>2.0</ele><time>2026-05-01T13:14:58Z</time></trkpt><trkpt lat="40.3355519" lon="0.3788925"><ele>1.9999999999999998</ele><time>2026-05-01T13:14:58.999Z</time></trkpt><trkpt lat="40.3355343" lon="0.3787868"><ele>2.0</ele><time>2026-05-01T13:14:59.999Z</time></trkpt><trkpt lat="40.335515" lon="0.3786931"><ele>2.0</ele><time>2026-05-01T13:15:00.999Z</time></trkpt><trkpt lat="40.335474" lon="0.3785974"><ele>2.0</ele><time>2026-05-01T13:15:02Z</time></trkpt><trkpt lat="40.3354289" lon="0.3784925"><ele>2.0</ele><time>2026-05-01T13:15:03Z</time></trkpt><trkpt lat="40.3353769" lon="0.3783866"><ele>2.0</ele><time>2026-05-01T13:15:03.999Z</time></trkpt><trkpt lat="40.3353204" lon="0.3782852"><ele>2.0</ele><time>2026-05-01T13:15:04.999Z</time></trkpt><trkpt lat="40.3352591" lon="0.378173"><ele>2.0</ele><time>2026-05-01T13:15:06Z</time></trkpt><trkpt lat="40.3351844" lon="0.3780753"><ele>2.0</ele><time>2026-05-01T13:15:07Z</time></trkpt><trkpt lat="40.3350982" lon="0.3779721"><ele>2.0</ele><time>2026-05-01T13:15:08Z</time></trkpt><trkpt lat="40.3349996" lon="0.3778809"><ele>2.0</ele><time>2026-05-01T13:15:08.999Z</time></trkpt><trkpt lat="40.3349228" lon="0.3777983"><ele>2.0</ele><time>2026-05-01T13:15:09.999Z</time></trkpt><trkpt lat="40.3348476" lon="0.3777184"><ele>2.4000000000000004</ele><time>2026-05-01T13:15:10.999Z</time></trkpt><trkpt lat="40.3347815" lon="0.3776517"><ele>2.8000000000000003</ele><time>2026-05-01T13:15:11.999Z</time></trkpt><trkpt lat="40.3347015" lon="0.3775847"><ele>3.2</ele><time>2026-05-01T13:15:13Z</time></trkpt><trkpt lat="40.334625" lon="0.3775196"><ele>3.6</ele><time>2026-05-01T13:15:13.999Z</time></trkpt><trkpt lat="40.3345436" lon="0.3774322"><ele>4.0</ele><time>2026-05-01T13:15:15Z</time></trkpt><trkpt lat="40.3344766" lon="0.3773061"><ele>4.4</ele><time>2026-05-01T13:15:15.999Z</time></trkpt><trkpt lat="40.3344104" lon="0.3771777"><ele>4.800000000000001</ele><time>2026-05-01T13:15:17Z</time></trkpt><trkpt lat="40.3343547" lon="0.3770482"><ele>5.199999999999999</ele><time>2026-05-01T13:15:17.999Z</time></trkpt><trkpt lat="40.3343124" lon="0.3769304"><ele>5.6</ele><time>2026-05-01T13:15:19Z</time></trkpt><trkpt lat="40.3342696" lon="0.3768106"><ele>6.0</ele><time>2026-05-01T13:15:19.999Z</time></trkpt><trkpt lat="40.3342287" lon="0.3767046"><ele>6.0</ele><time>2026-05-01T13:15:21Z</time></trkpt><trkpt lat="40.3341917" lon="0.3766054"><ele>6.0</ele><time>2026-05-01T13:15:22Z</time></trkpt><trkpt lat="40.3341421" lon="0.3764914"><ele>6.0</ele><time>2026-05-01T13:15:23.999Z</time></trkpt><trkpt lat="40.3341235" lon="0.3764032"><ele>6.0</ele><time>2026-05-01T13:15:26Z</time></trkpt><trkpt lat="40.3341503" lon="0.3763234"><ele>6.0</ele><time>2026-05-01T13:15:30Z</time></trkpt><trkpt lat="40.3341588" lon="0.3762126"><ele>6.0</ele><time>2026-05-01T13:15:32.999Z</time></trkpt><trkpt lat="40.3341426" lon="0.3761191"><ele>6.0</ele><time>2026-05-01T13:15:34.999Z</time></trkpt><trkpt lat="40.3341156" lon="0.3760425"><ele>6.0</ele><time>2026-05-01T13:15:36.999Z</time></trkpt><trkpt lat="40.3341363" lon="0.3761262"><ele>6.0</ele><time>2026-05-01T13:16:04.999Z</time></trkpt><trkpt lat="40.3341666" lon="0.37621"><ele>6.0</ele><time>2026-05-01T13:16:07.999Z</time></trkpt><trkpt lat="40.3341724" lon="0.3763305"><ele>6.0</ele><time>2026-05-01T13:16:10.999Z</time></trkpt><trkpt lat="40.3341405" lon="0.3764267"><ele>6.0</ele><time>2026-05-01T13:16:14.999Z</time></trkpt><trkpt lat="40.3341147" lon="0.376526"><ele>6.0</ele><time>2026-05-01T13:16:18.999Z</time></trkpt><trkpt lat="40.3341591" lon="0.3766266"><ele>6.0</ele><time>2026-05-01T13:16:22Z</time></trkpt><trkpt lat="40.3342" lon="0.3766931"><ele>6.0</ele><time>2026-05-01T13:16:23Z</time></trkpt><trkpt lat="40.3342526" lon="0.3767875"><ele>6.0</ele><time>2026-05-01T13:16:24.999Z</time></trkpt><trkpt lat="40.3342919" lon="0.3769126"><ele>6.0</ele><time>2026-05-01T13:16:26.999Z</time></trkpt><trkpt lat="40.3343352" lon="0.3770265"><ele>6.0</ele><time>2026-05-01T13:16:28.999Z</time></trkpt><trkpt lat="40.3343897" lon="0.3771543"><ele>5.6</ele><time>2026-05-01T13:16:30.999Z</time></trkpt><trkpt lat="40.3344423" lon="0.3772775"><ele>5.199999999999999</ele><time>2026-05-01T13:16:33Z</time></trkpt><trkpt lat="40.3345017" lon="0.377393"><ele>4.800000000000001</ele><time>2026-05-01T13:16:34.999Z</time></trkpt><trkpt lat="40.334562" lon="0.3774931"><ele>4.4</ele><time>2026-05-01T13:16:36.999Z</time></trkpt><trkpt lat="40.3346244" lon="0.3775545"><ele>4.0</ele><time>2026-05-01T13:16:39Z</time></trkpt><trkpt lat="40.334704" lon="0.3775557"><ele>4.2</ele><time>2026-05-01T13:16:40.999Z</time></trkpt><trkpt lat="40.3347821" lon="0.3775004"><ele>4.4</ele><time>2026-05-01T13:16:42.999Z</time></trkpt><trkpt lat="40.3348677" lon="0.3774518"><ele>4.6</ele><time>2026-05-01T13:16:44.999Z</time></trkpt><trkpt lat="40.3349636" lon="0.3774207"><ele>4.8</ele><time>2026-05-01T13:16:46.999Z</time></trkpt><trkpt lat="40.3350723" lon="0.3773789"><ele>5.0</ele><time>2026-05-01T13:16:48.999Z</time></trkpt><trkpt lat="40.3351823" lon="0.3773409"><ele>5.0</ele><time>2026-05-01T13:16:51Z</time></trkpt><trkpt lat="40.3352863" lon="0.3773125"><ele>5.0</ele><time>2026-05-01T13:16:52.999Z</time></trkpt><trkpt lat="40.3353997" lon="0.3772685"><ele>5.0</ele><time>2026-05-01T13:16:54.999Z</time></trkpt><trkpt lat="40.3354919" lon="0.3772016"><ele>5.0</ele><time>2026-05-01T13:16:56.999Z</time></trkpt><trkpt lat="40.3355988" lon="0.377121"><ele>6.0</ele><time>2026-05-01T13:16:59Z</time></trkpt><trkpt lat="40.3357098" lon="0.3770546"><ele>7.0</ele><time>2026-05-01T13:17:01Z</time></trkpt><trkpt lat="40.3357683" lon="0.3770055"><ele>8.0</ele><time>2026-05-01T13:17:01.999Z</time></trkpt><trkpt lat="40.3358305" lon="0.376955"><ele>9.0</ele><time>2026-05-01T13:17:03Z</time></trkpt><trkpt lat="40.3358884" lon="0.3768945"><ele>10.0</ele><time>2026-05-01T13:17:04Z</time></trkpt><trkpt lat="40.3359495" lon="0.3768475"><ele>11.0</ele><time>2026-05-01T13:17:04.999Z</time></trkpt><trkpt lat="40.3360627" lon="0.3767792"><ele>11.0</ele><time>2026-05-01T13:17:07Z</time></trkpt><trkpt lat="40.3361262" lon="0.37675"><ele>11.0</ele><time>2026-05-01T13:17:07.999Z</time></trkpt><trkpt lat="40.3361906" lon="0.3767216"><ele>11.0</ele><time>2026-05-01T13:17:09Z</time></trkpt><trkpt lat="40.3363015" lon="0.3766738"><ele>11.0</ele><time>2026-05-01T13:17:10.999Z</time></trkpt><trkpt lat="40.3363541" lon="0.3766007"><ele>11.0</ele><time>2026-05-01T13:17:12.999Z</time></trkpt><trkpt lat="40.3363694" lon="0.37646"><ele>11.0</ele><time>2026-05-01T13:17:14.999Z</time></trkpt><trkpt lat="40.3363943" lon="0.3762862"><ele>11.833333333333332</ele><time>2026-05-01T13:17:17Z</time></trkpt><trkpt lat="40.3364131" lon="0.3761884"><ele>12.666666666666666</ele><time>2026-05-01T13:17:17.999Z</time></trkpt><trkpt lat="40.3364251" lon="0.3760943"><ele>13.5</ele><time>2026-05-01T13:17:18.999Z</time></trkpt><trkpt lat="40.3364438" lon="0.3759947"><ele>14.333333333333332</ele><time>2026-05-01T13:17:19.999Z</time></trkpt><trkpt lat="40.3364585" lon="0.3758919"><ele>15.166666666666666</ele><time>2026-05-01T13:17:20.999Z</time></trkpt><trkpt lat="40.3365051" lon="0.3757368"><ele>16.0</ele><time>2026-05-01T13:17:22.999Z</time></trkpt><trkpt lat="40.3365326" lon="0.3756506"><ele>15.999999999999998</ele><time>2026-05-01T13:17:23.999Z</time></trkpt><trkpt lat="40.3365594" lon="0.3755676"><ele>16.0</ele><time>2026-05-01T13:17:24.999Z</time></trkpt><trkpt lat="40.3365957" lon="0.3754916"><ele>16.0</ele><time>2026-05-01T13:17:25.999Z</time></trkpt><trkpt lat="40.3366508" lon="0.3753503"><ele>16.0</ele><time>2026-05-01T13:17:28Z</time></trkpt><trkpt lat="40.3366614" lon="0.3752662"><ele>15.999999999999998</ele><time>2026-05-01T13:17:28.999Z</time></trkpt><trkpt lat="40.3366982" lon="0.3751116"><ele>16.0</ele><time>2026-05-01T13:17:30.999Z</time></trkpt><trkpt lat="40.3367134" lon="0.3750058"><ele>17.0</ele><time>2026-05-01T13:17:32.999Z</time></trkpt><trkpt lat="40.3366995" lon="0.374905"><ele>18.0</ele><time>2026-05-01T13:17:36Z</time></trkpt><trkpt lat="40.3366065" lon="0.3747825"><ele>19.0</ele><time>2026-05-01T13:17:37.999Z</time></trkpt><trkpt lat="40.3365451" lon="0.3747061"><ele>20.0</ele><time>2026-05-01T13:17:38.999Z</time></trkpt><trkpt lat="40.336491" lon="0.3746269"><ele>21.0</ele><time>2026-05-01T13:17:40Z</time></trkpt><trkpt lat="40.3364356" lon="0.374551"><ele>21.0</ele><time>2026-05-01T13:17:40.999Z</time></trkpt><trkpt lat="40.3363803" lon="0.3744729"><ele>21.0</ele><time>2026-05-01T13:17:41.999Z</time></trkpt><trkpt lat="40.3363026" lon="0.374382"><ele>21.0</ele><time>2026-05-01T13:17:42.999Z</time></trkpt><trkpt lat="40.3362406" lon="0.3742924"><ele>21.0</ele><time>2026-05-01T13:17:43.999Z</time></trkpt><trkpt lat="40.3361788" lon="0.3742074"><ele>21.0</ele><time>2026-05-01T13:17:44.999Z</time></trkpt><trkpt lat="40.3361291" lon="0.374133"><ele>21.0</ele><time>2026-05-01T13:17:46Z</time></trkpt><trkpt lat="40.3360783" lon="0.3740621"><ele>21.0</ele><time>2026-05-01T13:17:47Z</time></trkpt><trkpt lat="40.3360314" lon="0.3739979"><ele>21.0</ele><time>2026-05-01T13:17:47.999Z</time></trkpt><trkpt lat="40.3359946" lon="0.3739277"><ele>21.0</ele><time>2026-05-01T13:17:48.999Z</time></trkpt><trkpt lat="40.335935" lon="0.3738279"><ele>21.0</ele><time>2026-05-01T13:17:51Z</time></trkpt><trkpt lat="40.3358714" lon="0.3738045"><ele>21.0</ele><time>2026-05-01T13:17:53Z</time></trkpt><trkpt lat="40.335775" lon="0.3738329"><ele>21.0</ele><time>2026-05-01T13:17:54.999Z</time></trkpt><trkpt lat="40.335675" lon="0.3738558"><ele>21.0</ele><time>2026-05-01T13:17:57Z</time></trkpt><trkpt lat="40.3355829" lon="0.3738783"><ele>21.0</ele><time>2026-05-01T13:17:58.999Z</time></trkpt><trkpt lat="40.3354767" lon="0.3739015"><ele>21.0</ele><time>2026-05-01T13:18:01Z</time></trkpt><trkpt lat="40.3353715" lon="0.3739188"><ele>21.0</ele><time>2026-05-01T13:18:02.999Z</time></trkpt><trkpt lat="40.3353039" lon="0.3739153"><ele>21.0</ele><time>2026-05-01T13:18:04Z</time></trkpt><trkpt lat="40.3352302" lon="0.3739225"><ele>21.0</ele><time>2026-05-01T13:18:04.999Z</time></trkpt><trkpt lat="40.3351599" lon="0.3739483"><ele>20.714285714285715</ele><time>2026-05-01T13:18:06Z</time></trkpt><trkpt lat="40.3350979" lon="0.373983"><ele>20.42857142857143</ele><time>2026-05-01T13:18:06.999Z</time></trkpt><trkpt lat="40.3350365" lon="0.3740132"><ele>20.142857142857142</ele><time>2026-05-01T13:18:08Z</time></trkpt><trkpt lat="40.3349636" lon="0.3740356"><ele>19.857142857142858</ele><time>2026-05-01T13:18:09Z</time></trkpt><trkpt lat="40.3348886" lon="0.3740445"><ele>19.571428571428573</ele><time>2026-05-01T13:18:09.999Z</time></trkpt><trkpt lat="40.3348099" lon="0.3740416"><ele>19.285714285714285</ele><time>2026-05-01T13:18:10.999Z</time></trkpt><trkpt lat="40.334736" lon="0.3739982"><ele>19.0</ele><time>2026-05-01T13:18:11.999Z</time></trkpt><trkpt lat="40.33466" lon="0.373942"><ele>19.166666666666664</ele><time>2026-05-01T13:18:12.999Z</time></trkpt><trkpt lat="40.3345949" lon="0.3739031"><ele>19.333333333333332</ele><time>2026-05-01T13:18:13.999Z</time></trkpt><trkpt lat="40.3345362" lon="0.3738512"><ele>19.5</ele><time>2026-05-01T13:18:14.999Z</time></trkpt><trkpt lat="40.3344798" lon="0.3738139"><ele>19.666666666666668</ele><time>2026-05-01T13:18:15.999Z</time></trkpt><trkpt lat="40.334366" lon="0.3738139"><ele>19.833333333333336</ele><time>2026-05-01T13:18:17.999Z</time></trkpt><trkpt lat="40.3342537" lon="0.3738994"><ele>20.0</ele><time>2026-05-01T13:18:20Z</time></trkpt><trkpt lat="40.3342033" lon="0.3739656"><ele>19.333333333333336</ele><time>2026-05-01T13:18:20.999Z</time></trkpt><trkpt lat="40.3341497" lon="0.3740308"><ele>18.666666666666668</ele><time>2026-05-01T13:18:21.999Z</time></trkpt><trkpt lat="40.3340917" lon="0.3740921"><ele>18.0</ele><time>2026-05-01T13:18:23Z</time></trkpt><trkpt lat="40.3340315" lon="0.3741174"><ele>17.333333333333332</ele><time>2026-05-01T13:18:23.999Z</time></trkpt><trkpt lat="40.3339409" lon="0.3740597"><ele>16.666666666666664</ele><time>2026-05-01T13:18:25.999Z</time></trkpt><trkpt lat="40.3339" lon="0.3739958"><ele>16.0</ele><time>2026-05-01T13:18:26.999Z</time></trkpt><trkpt lat="40.3338571" lon="0.3739036"><ele>15.833333333333332</ele><time>2026-05-01T13:18:27.999Z</time></trkpt><trkpt lat="40.3337942" lon="0.3738355"><ele>15.666666666666666</ele><time>2026-05-01T13:18:29Z</time></trkpt><trkpt lat="40.3337299" lon="0.3737964"><ele>15.5</ele><time>2026-05-01T13:18:30Z</time></trkpt><trkpt lat="40.3336631" lon="0.3737825"><ele>15.333333333333332</ele><time>2026-05-01T13:18:30.999Z</time></trkpt><trkpt lat="40.3335757" lon="0.3738129"><ele>15.166666666666666</ele><time>2026-05-01T13:18:31.999Z</time></trkpt><trkpt lat="40.3334891" lon="0.3738401"><ele>15.0</ele><time>2026-05-01T13:18:32.999Z</time></trkpt><trkpt lat="40.3334092" lon="0.3738675"><ele>14.2</ele><time>2026-05-01T13:18:33.999Z</time></trkpt><trkpt lat="40.333325" lon="0.3738842"><ele>13.4</ele><time>2026-05-01T13:18:34.999Z</time></trkpt><trkpt lat="40.3332356" lon="0.3738828"><ele>12.600000000000001</ele><time>2026-05-01T13:18:36Z</time></trkpt><trkpt lat="40.3331411" lon="0.3738667"><ele>11.8</ele><time>2026-05-01T13:18:36.999Z</time></trkpt><trkpt lat="40.3330406" lon="0.3738276"><ele>11.0</ele><time>2026-05-01T13:18:38Z</time></trkpt><trkpt lat="40.3329371" lon="0.3737915"><ele>10.75</ele><time>2026-05-01T13:18:38.999Z</time></trkpt><trkpt lat="40.3328301" lon="0.3737564"><ele>10.5</ele><time>2026-05-01T13:18:39.999Z</time></trkpt><trkpt lat="40.3327177" lon="0.3737296"><ele>10.25</ele><time>2026-05-01T13:18:40.999Z</time></trkpt><trkpt lat="40.3325928" lon="0.3737028"><ele>10.0</ele><time>2026-05-01T13:18:42Z</time></trkpt><trkpt lat="40.332461" lon="0.373649"><ele>10.0</ele><time>2026-05-01T13:18:43Z</time></trkpt><trkpt lat="40.3323325" lon="0.3735912"><ele>10.0</ele><time>2026-05-01T13:18:43.999Z</time></trkpt><trkpt lat="40.3322129" lon="0.3735373"><ele>10.0</ele><time>2026-05-01T13:18:44.999Z</time></trkpt><trkpt lat="40.3321033" lon="0.3734927"><ele>10.0</ele><time>2026-05-01T13:18:45.999Z</time></trkpt><trkpt lat="40.3319976" lon="0.3734495"><ele>10.166666666666668</ele><time>2026-05-01T13:18:47Z</time></trkpt><trkpt lat="40.3319177" lon="0.373408"><ele>10.333333333333334</ele><time>2026-05-01T13:18:47.999Z</time></trkpt><trkpt lat="40.3318539" lon="0.3733454"><ele>10.5</ele><time>2026-05-01T13:18:48.999Z</time></trkpt><trkpt lat="40.331815" lon="0.3732589"><ele>10.666666666666666</ele><time>2026-05-01T13:18:50Z</time></trkpt><trkpt lat="40.3317802" lon="0.3731665"><ele>10.833333333333332</ele><time>2026-05-01T13:18:50.999Z</time></trkpt><trkpt lat="40.3317529" lon="0.3730658"><ele>11.0</ele><time>2026-05-01T13:18:51.999Z</time></trkpt><trkpt lat="40.3317093" lon="0.3729527"><ele>11.0</ele><time>2026-05-01T13:18:53Z</time></trkpt><trkpt lat="40.3316575" lon="0.3728217"><ele>11.0</ele><time>2026-05-01T13:18:54Z</time></trkpt><trkpt lat="40.3316171" lon="0.3726909"><ele>11.0</ele><time>2026-05-01T13:18:54.999Z</time></trkpt><trkpt lat="40.3315774" lon="0.3725641"><ele>11.0</ele><time>2026-05-01T13:18:55.999Z</time></trkpt><trkpt lat="40.3315334" lon="0.3724669"><ele>11.0</ele><time>2026-05-01T13:18:57Z</time></trkpt><trkpt lat="40.3314811" lon="0.372396"><ele>11.0</ele><time>2026-05-01T13:18:57.999Z</time></trkpt><trkpt lat="40.3314103" lon="0.3723545"><ele>11.0</ele><time>2026-05-01T13:18:58.999Z</time></trkpt><trkpt lat="40.3313252" lon="0.3723146"><ele>11.0</ele><time>2026-05-01T13:19:00Z</time></trkpt><trkpt lat="40.3312289" lon="0.3722913"><ele>11.0</ele><time>2026-05-01T13:19:00.999Z</time></trkpt><trkpt lat="40.331157" lon="0.3722785"><ele>11.0</ele><time>2026-05-01T13:19:02Z</time></trkpt><trkpt lat="40.3310477" lon="0.3722198"><ele>12.8</ele><time>2026-05-01T13:19:03.999Z</time></trkpt><trkpt lat="40.3309961" lon="0.3721497"><ele>14.600000000000001</ele><time>2026-05-01T13:19:04.999Z</time></trkpt><trkpt lat="40.3309385" lon="0.3720703"><ele>16.4</ele><time>2026-05-01T13:19:05.999Z</time></trkpt><trkpt lat="40.3308771" lon="0.3719726"><ele>18.2</ele><time>2026-05-01T13:19:07Z</time></trkpt><trkpt lat="40.3308294" lon="0.3718537"><ele>20.0</ele><time>2026-05-01T13:19:07.999Z</time></trkpt><trkpt lat="40.3307813" lon="0.3717273"><ele>20.0</ele><time>2026-05-01T13:19:08.999Z</time></trkpt><trkpt lat="40.330733" lon="0.3715948"><ele>20.0</ele><time>2026-05-01T13:19:10Z</time></trkpt><trkpt lat="40.3306775" lon="0.3714522"><ele>20.0</ele><time>2026-05-01T13:19:10.999Z</time></trkpt><trkpt lat="40.3306248" lon="0.3712936"><ele>20.0</ele><time>2026-05-01T13:19:11.999Z</time></trkpt><trkpt lat="40.3305563" lon="0.3711237"><ele>21.75</ele><time>2026-05-01T13:19:13Z</time></trkpt><trkpt lat="40.3304859" lon="0.3709381"><ele>23.5</ele><time>2026-05-01T13:19:14Z</time></trkpt><trkpt lat="40.3304292" lon="0.3707611"><ele>25.25</ele><time>2026-05-01T13:19:14.999Z</time></trkpt><trkpt lat="40.3303793" lon="0.3706052"><ele>27.0</ele><time>2026-05-01T13:19:16Z</time></trkpt><trkpt lat="40.3303251" lon="0.3704599"><ele>30.75</ele><time>2026-05-01T13:19:16.999Z</time></trkpt><trkpt lat="40.3302768" lon="0.3703469"><ele>34.5</ele><time>2026-05-01T13:19:17.999Z</time></trkpt><trkpt lat="40.3302015" lon="0.3702335"><ele>38.25</ele><time>2026-05-01T13:19:19Z</time></trkpt><trkpt lat="40.3300997" lon="0.3701247"><ele>42.0</ele><time>2026-05-01T13:19:19.999Z</time></trkpt><trkpt lat="40.329993" lon="0.3700032"><ele>42.0</ele><time>2026-05-01T13:19:20.999Z</time></trkpt><trkpt lat="40.3298871" lon="0.3698786"><ele>42.0</ele><time>2026-05-01T13:19:21.999Z</time></trkpt><trkpt lat="40.3297812" lon="0.3697516"><ele>42.0</ele><time>2026-05-01T13:19:22.999Z</time></trkpt><trkpt lat="40.3296895" lon="0.3696478"><ele>42.0</ele><time>2026-05-01T13:19:23.999Z</time></trkpt><trkpt lat="40.3296131" lon="0.3695375"><ele>43.0</ele><time>2026-05-01T13:19:24.999Z</time></trkpt><trkpt lat="40.3295378" lon="0.3694228"><ele>44.0</ele><time>2026-05-01T13:19:25.999Z</time></trkpt><trkpt lat="40.3294793" lon="0.3692894"><ele>45.0</ele><time>2026-05-01T13:19:26.999Z</time></trkpt><trkpt lat="40.3294286" lon="0.3691521"><ele>46.0</ele><time>2026-05-01T13:19:28Z</time></trkpt><trkpt lat="40.3293928" lon="0.3690119"><ele>46.0</ele><time>2026-05-01T13:19:28.999Z</time></trkpt><trkpt lat="40.3293523" lon="0.3688931"><ele>46.0</ele><time>2026-05-01T13:19:29.999Z</time></trkpt><trkpt lat="40.3292932" lon="0.3688051"><ele>46.0</ele><time>2026-05-01T13:19:30.999Z</time></trkpt><trkpt lat="40.3292171" lon="0.3687372"><ele>46.0</ele><time>2026-05-01T13:19:31.999Z</time></trkpt><trkpt lat="40.3291219" lon="0.368699"><ele>46.0</ele><time>2026-05-01T13:19:32.999Z</time></trkpt><trkpt lat="40.3290122" lon="0.3686787"><ele>46.0</ele><time>2026-05-01T13:19:33.999Z</time></trkpt><trkpt lat="40.3289036" lon="0.3686721"><ele>46.0</ele><time>2026-05-01T13:19:35Z</time></trkpt><trkpt lat="40.3288017" lon="0.3686644"><ele>46.0</ele><time>2026-05-01T13:19:35.999Z</time></trkpt><trkpt lat="40.3287135" lon="0.3686319"><ele>46.0</ele><time>2026-05-01T13:19:37Z</time></trkpt><trkpt lat="40.3286413" lon="0.3686012"><ele>46.0</ele><time>2026-05-01T13:19:38Z</time></trkpt><trkpt lat="40.3285769" lon="0.368538"><ele>46.0</ele><time>2026-05-01T13:19:39Z</time></trkpt><trkpt lat="40.3285154" lon="0.3684481"><ele>46.0</ele><time>2026-05-01T13:19:39.999Z</time></trkpt><trkpt lat="40.3284755" lon="0.3683288"><ele>46.0</ele><time>2026-05-01T13:19:41Z</time></trkpt><trkpt lat="40.3284507" lon="0.3681888"><ele>46.0</ele><time>2026-05-01T13:19:41.999Z</time></trkpt><trkpt lat="40.3284363" lon="0.3680642"><ele>46.0</ele><time>2026-05-01T13:19:42.999Z</time></trkpt><trkpt lat="40.3284272" lon="0.3679463"><ele>46.4</ele><time>2026-05-01T13:19:43.999Z</time></trkpt><trkpt lat="40.328388" lon="0.3678724"><ele>46.8</ele><time>2026-05-01T13:19:45Z</time></trkpt><trkpt lat="40.3282662" lon="0.3678071"><ele>47.199999999999996</ele><time>2026-05-01T13:19:46.999Z</time></trkpt><trkpt lat="40.3281776" lon="0.3677961"><ele>47.599999999999994</ele><time>2026-05-01T13:19:48Z</time></trkpt><trkpt lat="40.3280786" lon="0.3677658"><ele>48.0</ele><time>2026-05-01T13:19:48.999Z</time></trkpt><trkpt lat="40.3279731" lon="0.3677254"><ele>48.0</ele><time>2026-05-01T13:19:50Z</time></trkpt><trkpt lat="40.3278601" lon="0.367659"><ele>48.0</ele><time>2026-05-01T13:19:50.999Z</time></trkpt><trkpt lat="40.3277588" lon="0.3675965"><ele>48.0</ele><time>2026-05-01T13:19:52Z</time></trkpt><trkpt lat="40.3276612" lon="0.3675282"><ele>48.0</ele><time>2026-05-01T13:19:52.999Z</time></trkpt><trkpt lat="40.3275561" lon="0.3674477"><ele>48.0</ele><time>2026-05-01T13:19:53.999Z</time></trkpt><trkpt lat="40.3274646" lon="0.3673643"><ele>48.0</ele><time>2026-05-01T13:19:54.999Z</time></trkpt><trkpt lat="40.3273898" lon="0.3672846"><ele>48.0</ele><time>2026-05-01T13:19:56Z</time></trkpt><trkpt lat="40.3273278" lon="0.3672009"><ele>48.0</ele><time>2026-05-01T13:19:57Z</time></trkpt><trkpt lat="40.3272773" lon="0.3671066"><ele>48.0</ele><time>2026-05-01T13:19:58Z</time></trkpt><trkpt lat="40.327242" lon="0.3669928"><ele>46.75</ele><time>2026-05-01T13:19:58.999Z</time></trkpt><trkpt lat="40.3272144" lon="0.3668657"><ele>45.5</ele><time>2026-05-01T13:19:59.999Z</time></trkpt><trkpt lat="40.3271889" lon="0.3667165"><ele>44.25</ele><time>2026-05-01T13:20:00.999Z</time></trkpt><trkpt lat="40.3271659" lon="0.3665706"><ele>43.0</ele><time>2026-05-01T13:20:02Z</time></trkpt><trkpt lat="40.3271401" lon="0.3664132"><ele>48.599999999999994</ele><time>2026-05-01T13:20:03Z</time></trkpt><trkpt lat="40.3271123" lon="0.3662757"><ele>54.199999999999996</ele><time>2026-05-01T13:20:03.999Z</time></trkpt><trkpt lat="40.3270886" lon="0.3661417"><ele>59.8</ele><time>2026-05-01T13:20:04.999Z</time></trkpt><trkpt lat="40.3270536" lon="0.3660231"><ele>65.39999999999999</ele><time>2026-05-01T13:20:05.999Z</time></trkpt><trkpt lat="40.3269952" lon="0.3659231"><ele>71.0</ele><time>2026-05-01T13:20:07Z</time></trkpt><trkpt lat="40.3269118" lon="0.3658317"><ele>71.0</ele><time>2026-05-01T13:20:08Z</time></trkpt><trkpt lat="40.3268102" lon="0.3657538"><ele>71.0</ele><time>2026-05-01T13:20:08.999Z</time></trkpt><trkpt lat="40.3266934" lon="0.3656919"><ele>71.0</ele><time>2026-05-01T13:20:09.999Z</time></trkpt><trkpt lat="40.3265792" lon="0.365634"><ele>71.0</ele><time>2026-05-01T13:20:11Z</time></trkpt><trkpt lat="40.3264784" lon="0.3655616"><ele>70.39999999999999</ele><time>2026-05-01T13:20:11.999Z</time></trkpt><trkpt lat="40.3263829" lon="0.3654804"><ele>69.8</ele><time>2026-05-01T13:20:12.999Z</time></trkpt><trkpt lat="40.3263101" lon="0.3653738"><ele>69.19999999999999</ele><time>2026-05-01T13:20:14Z</time></trkpt><trkpt lat="40.3262448" lon="0.365269"><ele>68.6</ele><time>2026-05-01T13:20:14.999Z</time></trkpt><trkpt lat="40.3261629" lon="0.3651542"><ele>68.0</ele><time>2026-05-01T13:20:15.999Z</time></trkpt><trkpt lat="40.3260775" lon="0.3650376"><ele>68.0</ele><time>2026-05-01T13:20:16.999Z</time></trkpt><trkpt lat="40.3259924" lon="0.3649291"><ele>68.0</ele><time>2026-05-01T13:20:17.999Z</time></trkpt><trkpt lat="40.3259118" lon="0.3648261"><ele>68.0</ele><time>2026-05-01T13:20:18.999Z</time></trkpt><trkpt lat="40.3258358" lon="0.3647294"><ele>68.0</ele><time>2026-05-01T13:20:20Z</time></trkpt><trkpt lat="40.3257659" lon="0.3646334"><ele>68.0</ele><time>2026-05-01T13:20:20.999Z</time></trkpt><trkpt lat="40.3256968" lon="0.3645368"><ele>65.2</ele><time>2026-05-01T13:20:21.999Z</time></trkpt><trkpt lat="40.3256281" lon="0.3644435"><ele>62.4</ele><time>2026-05-01T13:20:22.999Z</time></trkpt><trkpt lat="40.3255715" lon="0.3643406"><ele>59.60000000000001</ele><time>2026-05-01T13:20:24Z</time></trkpt><trkpt lat="40.3255259" lon="0.3642324"><ele>56.800000000000004</ele><time>2026-05-01T13:20:25Z</time></trkpt><trkpt lat="40.3254882" lon="0.3641162"><ele>54.0</ele><time>2026-05-01T13:20:26Z</time></trkpt><trkpt lat="40.3254695" lon="0.3640066"><ele>54.0</ele><time>2026-05-01T13:20:27Z</time></trkpt><trkpt lat="40.3254791" lon="0.3638992"><ele>54.0</ele><time>2026-05-01T13:20:27.999Z</time></trkpt><trkpt lat="40.3254888" lon="0.363798"><ele>54.0</ele><time>2026-05-01T13:20:28.999Z</time></trkpt><trkpt lat="40.3255045" lon="0.3636953"><ele>54.0</ele><time>2026-05-01T13:20:29.999Z</time></trkpt><trkpt lat="40.3255119" lon="0.3635937"><ele>54.0</ele><time>2026-05-01T13:20:30.999Z</time></trkpt><trkpt lat="40.3254893" lon="0.3635028"><ele>54.0</ele><time>2026-05-01T13:20:32Z</time></trkpt><trkpt lat="40.3254366" lon="0.363433"><ele>57.5</ele><time>2026-05-01T13:20:32.999Z</time></trkpt><trkpt lat="40.325377" lon="0.3633758"><ele>61.0</ele><time>2026-05-01T13:20:33.999Z</time></trkpt><trkpt lat="40.325318" lon="0.3633125"><ele>64.5</ele><time>2026-05-01T13:20:34.999Z</time></trkpt><trkpt lat="40.3252598" lon="0.3632591"><ele>68.0</ele><time>2026-05-01T13:20:36Z</time></trkpt><trkpt lat="40.3251379" lon="0.3632848"><ele>71.5</ele><time>2026-05-01T13:20:37.999Z</time></trkpt><trkpt lat="40.3250776" lon="0.3633136"><ele>75.0</ele><time>2026-05-01T13:20:38.999Z</time></trkpt><trkpt lat="40.3250036" lon="0.3633728"><ele>75.0</ele><time>2026-05-01T13:20:40Z</time></trkpt><trkpt lat="40.3249255" lon="0.3634276"><ele>75.0</ele><time>2026-05-01T13:20:41Z</time></trkpt><trkpt lat="40.3248352" lon="0.3634587"><ele>75.0</ele><time>2026-05-01T13:20:41.999Z</time></trkpt><trkpt lat="40.3247473" lon="0.3634801"><ele>75.0</ele><time>2026-05-01T13:20:43Z</time></trkpt><trkpt lat="40.3246551" lon="0.3634946"><ele>75.0</ele><time>2026-05-01T13:20:44Z</time></trkpt><trkpt lat="40.3245635" lon="0.3635042"><ele>74.0</ele><time>2026-05-01T13:20:44.999Z</time></trkpt><trkpt lat="40.3244702" lon="0.3634842"><ele>73.0</ele><time>2026-05-01T13:20:46Z</time></trkpt><trkpt lat="40.3243717" lon="0.3634581"><ele>72.0</ele><time>2026-05-01T13:20:47Z</time></trkpt><trkpt lat="40.3242824" lon="0.3634161"><ele>71.0</ele><time>2026-05-01T13:20:48Z</time></trkpt><trkpt lat="40.3241984" lon="0.3633774"><ele>70.0</ele><time>2026-05-01T13:20:49Z</time></trkpt><trkpt lat="40.3241241" lon="0.3633312"><ele>70.0</ele><time>2026-05-01T13:20:50Z</time></trkpt><trkpt lat="40.32405" lon="0.3632763"><ele>70.0</ele><time>2026-05-01T13:20:51Z</time></trkpt><trkpt lat="40.323979" lon="0.3632265"><ele>70.0</ele><time>2026-05-01T13:20:52Z</time></trkpt><trkpt lat="40.3238953" lon="0.3632094"><ele>70.0</ele><time>2026-05-01T13:20:52.999Z</time></trkpt><trkpt lat="40.3238043" lon="0.3632127"><ele>70.0</ele><time>2026-05-01T13:20:54Z</time></trkpt><trkpt lat="40.3237042" lon="0.3632461"><ele>70.0</ele><time>2026-05-01T13:20:54.999Z</time></trkpt><trkpt lat="40.3236061" lon="0.3632719"><ele>68.6</ele><time>2026-05-01T13:20:55.999Z</time></trkpt><trkpt lat="40.3235046" lon="0.3632855"><ele>67.2</ele><time>2026-05-01T13:20:56.999Z</time></trkpt><trkpt lat="40.323398" lon="0.3632789"><ele>65.8</ele><time>2026-05-01T13:20:58Z</time></trkpt><trkpt lat="40.32329" lon="0.3632529"><ele>64.4</ele><time>2026-05-01T13:20:58.999Z</time></trkpt><trkpt lat="40.3231885" lon="0.3632256"><ele>63.0</ele><time>2026-05-01T13:20:59.999Z</time></trkpt><trkpt lat="40.3231014" lon="0.363194"><ele>61.5</ele><time>2026-05-01T13:21:00.999Z</time></trkpt><trkpt lat="40.3230355" lon="0.3631556"><ele>60.0</ele><time>2026-05-01T13:21:01.999Z</time></trkpt><trkpt lat="40.3229757" lon="0.3630729"><ele>58.5</ele><time>2026-05-01T13:21:03.999Z</time></trkpt><trkpt lat="40.3229251" lon="0.3629871"><ele>57.0</ele><time>2026-05-01T13:21:06.999Z</time></trkpt><trkpt lat="40.3228613" lon="0.3629586"><ele>55.5</ele><time>2026-05-01T13:21:08.999Z</time></trkpt><trkpt lat="40.3227916" lon="0.3629498"><ele>54.0</ele><time>2026-05-01T13:21:11Z</time></trkpt><trkpt lat="40.322683" lon="0.3629346"><ele>54.0</ele><time>2026-05-01T13:21:12.999Z</time></trkpt><trkpt lat="40.3226173" lon="0.3629423"><ele>54.0</ele><time>2026-05-01T13:21:13.999Z</time></trkpt><trkpt lat="40.3225531" lon="0.3629372"><ele>54.0</ele><time>2026-05-01T13:21:14.999Z</time></trkpt><trkpt lat="40.3224874" lon="0.3629357"><ele>54.0</ele><time>2026-05-01T13:21:15.999Z</time></trkpt><trkpt lat="40.322418" lon="0.3629249"><ele>54.0</ele><time>2026-05-01T13:21:16.999Z</time></trkpt><trkpt lat="40.3223496" lon="0.362914"><ele>54.0</ele><time>2026-05-01T13:21:17.999Z</time></trkpt><trkpt lat="40.3222788" lon="0.3629072"><ele>54.0</ele><time>2026-05-01T13:21:19Z</time></trkpt><trkpt lat="40.3222095" lon="0.3628994"><ele>51.833333333333336</ele><time>2026-05-01T13:21:19.999Z</time></trkpt><trkpt lat="40.3221369" lon="0.3628963"><ele>49.666666666666664</ele><time>2026-05-01T13:21:20.999Z</time></trkpt><trkpt lat="40.3220654" lon="0.3628909"><ele>47.5</ele><time>2026-05-01T13:21:21.999Z</time></trkpt><trkpt lat="40.32199" lon="0.3628871"><ele>45.33333333333333</ele><time>2026-05-01T13:21:22.999Z</time></trkpt><trkpt lat="40.32191" lon="0.3628822"><ele>43.166666666666664</ele><time>2026-05-01T13:21:23.999Z</time></trkpt><trkpt lat="40.3218292" lon="0.3628894"><ele>41.0</ele><time>2026-05-01T13:21:24.999Z</time></trkpt><trkpt lat="40.3217429" lon="0.3629053"><ele>41.0</ele><time>2026-05-01T13:21:25.999Z</time></trkpt><trkpt lat="40.321658" lon="0.3629155"><ele>41.0</ele><time>2026-05-01T13:21:27Z</time></trkpt><trkpt lat="40.3215764" lon="0.3629351"><ele>41.0</ele><time>2026-05-01T13:21:28Z</time></trkpt><trkpt lat="40.3214909" lon="0.3629529"><ele>41.0</ele><time>2026-05-01T13:21:29Z</time></trkpt><trkpt lat="40.321423" lon="0.3629801"><ele>41.0</ele><time>2026-05-01T13:21:29.999Z</time></trkpt><trkpt lat="40.3213598" lon="0.3630136"><ele>41.0</ele><time>2026-05-01T13:21:30.999Z</time></trkpt><trkpt lat="40.3212616" lon="0.3630497"><ele>41.0</ele><time>2026-05-01T13:21:32.999Z</time></trkpt><trkpt lat="40.3211894" lon="0.3629988"><ele>41.0</ele><time>2026-05-01T13:21:34.999Z</time></trkpt><trkpt lat="40.3211911" lon="0.3628962"><ele>41.0</ele><time>2026-05-01T13:21:37Z</time></trkpt><trkpt lat="40.3212771" lon="0.3627759"><ele>41.0</ele><time>2026-05-01T13:21:38.999Z</time></trkpt><trkpt lat="40.3213529" lon="0.3627381"><ele>41.0</ele><time>2026-05-01T13:21:39.999Z</time></trkpt><trkpt lat="40.3214268" lon="0.3626956"><ele>41.0</ele><time>2026-05-01T13:21:40.999Z</time></trkpt><trkpt lat="40.3215205" lon="0.3626521"><ele>41.0</ele><time>2026-05-01T13:21:41.999Z</time></trkpt><trkpt lat="40.3216248" lon="0.3626029"><ele>41.0</ele><time>2026-05-01T13:21:42.999Z</time></trkpt><trkpt lat="40.3217212" lon="0.3625587"><ele>41.0</ele><time>2026-05-01T13:21:44Z</time></trkpt><trkpt lat="40.3218185" lon="0.3625223"><ele>41.0</ele><time>2026-05-01T13:21:45Z</time></trkpt><trkpt lat="40.3219099" lon="0.3624816"><ele>41.0</ele><time>2026-05-01T13:21:46Z</time></trkpt><trkpt lat="40.3219933" lon="0.3624446"><ele>40.99999999999999</ele><time>2026-05-01T13:21:47Z</time></trkpt><trkpt lat="40.3220636" lon="0.3624326"><ele>41.0</ele><time>2026-05-01T13:21:47.999Z</time></trkpt><trkpt lat="40.3221207" lon="0.3623949"><ele>41.0</ele><time>2026-05-01T13:21:49Z</time></trkpt><trkpt lat="40.3221075" lon="0.3623042"><ele>41.0</ele><time>2026-05-01T13:21:50.999Z</time></trkpt><trkpt lat="40.3220396" lon="0.3623129"><ele>41.0</ele><time>2026-05-01T13:21:52Z</time></trkpt><trkpt lat="40.3219734" lon="0.3623186"><ele>40.99999999999999</ele><time>2026-05-01T13:21:52.999Z</time></trkpt><trkpt lat="40.3218954" lon="0.3623321"><ele>41.0</ele><time>2026-05-01T13:21:54Z</time></trkpt><trkpt lat="40.321808" lon="0.362334"><ele>41.0</ele><time>2026-05-01T13:21:54.999Z</time></trkpt><trkpt lat="40.3217179" lon="0.362343"><ele>41.0</ele><time>2026-05-01T13:21:55.999Z</time></trkpt><trkpt lat="40.3216226" lon="0.3623513"><ele>41.0</ele><time>2026-05-01T13:21:56.999Z</time></trkpt><trkpt lat="40.3215275" lon="0.3623498"><ele>41.0</ele><time>2026-05-01T13:21:57.999Z</time></trkpt><trkpt lat="40.3214357" lon="0.3623376"><ele>41.0</ele><time>2026-05-01T13:21:59Z</time></trkpt><trkpt lat="40.3213423" lon="0.3623316"><ele>38.83333333333333</ele><time>2026-05-01T13:22:00Z</time></trkpt><trkpt lat="40.3212541" lon="0.3623171"><ele>36.666666666666664</ele><time>2026-05-01T13:22:01Z</time></trkpt><trkpt lat="40.3211658" lon="0.362312"><ele>34.5</ele><time>2026-05-01T13:22:01.999Z</time></trkpt><trkpt lat="40.3210841" lon="0.3623184"><ele>32.333333333333336</ele><time>2026-05-01T13:22:02.999Z</time></trkpt><trkpt lat="40.3210037" lon="0.3623226"><ele>30.166666666666668</ele><time>2026-05-01T13:22:03.999Z</time></trkpt><trkpt lat="40.3209235" lon="0.362326"><ele>28.0</ele><time>2026-05-01T13:22:05Z</time></trkpt><trkpt lat="40.320845" lon="0.3623275"><ele>28.000000000000004</ele><time>2026-05-01T13:22:05.999Z</time></trkpt><trkpt lat="40.3207694" lon="0.3623444"><ele>28.0</ele><time>2026-05-01T13:22:06.999Z</time></trkpt><trkpt lat="40.3206968" lon="0.3623742"><ele>28.0</ele><time>2026-05-01T13:22:07.999Z</time></trkpt><trkpt lat="40.3206419" lon="0.3624197"><ele>28.0</ele><time>2026-05-01T13:22:08.999Z</time></trkpt><trkpt lat="40.320567" lon="0.3625342"><ele>28.000000000000004</ele><time>2026-05-01T13:22:11Z</time></trkpt><trkpt lat="40.3205277" lon="0.3625992"><ele>28.0</ele><time>2026-05-01T13:22:12Z</time></trkpt><trkpt lat="40.3204421" lon="0.3625813"><ele>28.000000000000004</ele><time>2026-05-01T13:22:13.999Z</time></trkpt><trkpt lat="40.3204636" lon="0.3624982"><ele>28.0</ele><time>2026-05-01T13:22:14.999Z</time></trkpt><trkpt lat="40.3204907" lon="0.3624115"><ele>28.0</ele><time>2026-05-01T13:22:16Z</time></trkpt><trkpt lat="40.3205355" lon="0.3623293"><ele>28.0</ele><time>2026-05-01T13:22:16.999Z</time></trkpt><trkpt lat="40.3205905" lon="0.362262"><ele>28.000000000000004</ele><time>2026-05-01T13:22:18Z</time></trkpt><trkpt lat="40.3206763" lon="0.3622119"><ele>28.0</ele><time>2026-05-01T13:22:19Z</time></trkpt><trkpt lat="40.3207588" lon="0.3621578"><ele>26.599999999999998</ele><time>2026-05-01T13:22:19.999Z</time></trkpt><trkpt lat="40.320855" lon="0.3621087"><ele>25.199999999999996</ele><time>2026-05-01T13:22:21Z</time></trkpt><trkpt lat="40.3209423" lon="0.3620591"><ele>23.8</ele><time>2026-05-01T13:22:21.999Z</time></trkpt><trkpt lat="40.3210271" lon="0.3620201"><ele>22.4</ele><time>2026-05-01T13:22:22.999Z</time></trkpt><trkpt lat="40.3211133" lon="0.3619739"><ele>21.0</ele><time>2026-05-01T13:22:24Z</time></trkpt><trkpt lat="40.3211986" lon="0.3619526"><ele>21.0</ele><time>2026-05-01T13:22:25Z</time></trkpt><trkpt lat="40.3212746" lon="0.3619398"><ele>21.0</ele><time>2026-05-01T13:22:25.999Z</time></trkpt><trkpt lat="40.3213347" lon="0.3619121"><ele>21.0</ele><time>2026-05-01T13:22:26.999Z</time></trkpt><trkpt lat="40.3213391" lon="0.3618023"><ele>21.0</ele><time>2026-05-01T13:22:28.999Z</time></trkpt><trkpt lat="40.3212244" lon="0.3617551"><ele>21.0</ele><time>2026-05-01T13:22:30.999Z</time></trkpt><trkpt lat="40.321147" lon="0.3617472"><ele>21.0</ele><time>2026-05-01T13:22:32Z</time></trkpt><trkpt lat="40.321051" lon="0.3617357"><ele>21.0</ele><time>2026-05-01T13:22:33Z</time></trkpt><trkpt lat="40.3209427" lon="0.3617253"><ele>21.0</ele><time>2026-05-01T13:22:33.999Z</time></trkpt><trkpt lat="40.3208376" lon="0.3617153"><ele>21.0</ele><time>2026-05-01T13:22:35Z</time></trkpt><trkpt lat="40.3207343" lon="0.3617139"><ele>21.0</ele><time>2026-05-01T13:22:35.999Z</time></trkpt><trkpt lat="40.3206368" lon="0.3617176"><ele>21.0</ele><time>2026-05-01T13:22:36.999Z</time></trkpt><trkpt lat="40.3205361" lon="0.3617203"><ele>19.2</ele><time>2026-05-01T13:22:38Z</time></trkpt><trkpt lat="40.3204439" lon="0.3616767"><ele>17.400000000000002</ele><time>2026-05-01T13:22:38.999Z</time></trkpt><trkpt lat="40.3203501" lon="0.3616505"><ele>15.6</ele><time>2026-05-01T13:22:40Z</time></trkpt><trkpt lat="40.3202604" lon="0.3616285"><ele>13.8</ele><time>2026-05-01T13:22:41Z</time></trkpt><trkpt lat="40.3201589" lon="0.3616458"><ele>12.0</ele><time>2026-05-01T13:22:41.999Z</time></trkpt><trkpt lat="40.320054" lon="0.3616917"><ele>12.0</ele><time>2026-05-01T13:22:42.999Z</time></trkpt><trkpt lat="40.3199711" lon="0.3617208"><ele>12.0</ele><time>2026-05-01T13:22:43.999Z</time></trkpt><trkpt lat="40.3198862" lon="0.3617134"><ele>12.0</ele><time>2026-05-01T13:22:44.999Z</time></trkpt><trkpt lat="40.3198125" lon="0.3616799"><ele>12.0</ele><time>2026-05-01T13:22:46Z</time></trkpt><trkpt lat="40.3197651" lon="0.3615958"><ele>12.0</ele><time>2026-05-01T13:22:47Z</time></trkpt><trkpt lat="40.3197326" lon="0.3615017"><ele>12.0</ele><time>2026-05-01T13:22:47.999Z</time></trkpt><trkpt lat="40.3197288" lon="0.3614012"><ele>12.6</ele><time>2026-05-01T13:22:48.999Z</time></trkpt><trkpt lat="40.3197302" lon="0.3613102"><ele>13.2</ele><time>2026-05-01T13:22:49.999Z</time></trkpt><trkpt lat="40.3197085" lon="0.3612299"><ele>13.8</ele><time>2026-05-01T13:22:50.999Z</time></trkpt><trkpt lat="40.3196457" lon="0.3611042"><ele>14.4</ele><time>2026-05-01T13:22:52.999Z</time></trkpt><trkpt lat="40.3195547" lon="0.3609842"><ele>15.0</ele><time>2026-05-01T13:22:54.999Z</time></trkpt><trkpt lat="40.3194936" lon="0.3609202"><ele>15.0</ele><time>2026-05-01T13:22:56Z</time></trkpt><trkpt lat="40.3194365" lon="0.3608575"><ele>15.0</ele><time>2026-05-01T13:22:56.999Z</time></trkpt><trkpt lat="40.3193856" lon="0.3608043"><ele>15.0</ele><time>2026-05-01T13:22:57.999Z</time></trkpt><trkpt lat="40.3193281" lon="0.3607483"><ele>15.0</ele><time>2026-05-01T13:22:58.999Z</time></trkpt><trkpt lat="40.3192742" lon="0.3606913"><ele>15.0</ele><time>2026-05-01T13:22:59.999Z</time></trkpt><trkpt lat="40.3192208" lon="0.3606388"><ele>15.0</ele><time>2026-05-01T13:23:01Z</time></trkpt><trkpt lat="40.3191697" lon="0.3605719"><ele>15.0</ele><time>2026-05-01T13:23:01.999Z</time></trkpt><trkpt lat="40.3191229" lon="0.3604978"><ele>15.833333333333334</ele><time>2026-05-01T13:23:02.999Z</time></trkpt><trkpt lat="40.3190809" lon="0.3604186"><ele>16.666666666666668</ele><time>2026-05-01T13:23:03.999Z</time></trkpt><trkpt lat="40.3190356" lon="0.3603275"><ele>17.5</ele><time>2026-05-01T13:23:05Z</time></trkpt><trkpt lat="40.3189929" lon="0.36023"><ele>18.333333333333336</ele><time>2026-05-01T13:23:05.999Z</time></trkpt><trkpt lat="40.3189484" lon="0.3601245"><ele>19.166666666666668</ele><time>2026-05-01T13:23:06.999Z</time></trkpt><trkpt lat="40.3189016" lon="0.3600368"><ele>20.0</ele><time>2026-05-01T13:23:07.999Z</time></trkpt><trkpt lat="40.3188534" lon="0.3599571"><ele>20.333333333333336</ele><time>2026-05-01T13:23:08.999Z</time></trkpt><trkpt lat="40.3187923" lon="0.359892"><ele>20.666666666666668</ele><time>2026-05-01T13:23:09.999Z</time></trkpt><trkpt lat="40.3187141" lon="0.3598403"><ele>21.0</ele><time>2026-05-01T13:23:10.999Z</time></trkpt><trkpt lat="40.3186401" lon="0.3597946"><ele>21.333333333333332</ele><time>2026-05-01T13:23:11.999Z</time></trkpt><trkpt lat="40.3185617" lon="0.3597538"><ele>21.666666666666664</ele><time>2026-05-01T13:23:12.999Z</time></trkpt><trkpt lat="40.318477" lon="0.3597137"><ele>22.0</ele><time>2026-05-01T13:23:13.999Z</time></trkpt><trkpt lat="40.3183911" lon="0.3596707"><ele>22.0</ele><time>2026-05-01T13:23:15Z</time></trkpt><trkpt lat="40.3182975" lon="0.3596333"><ele>22.0</ele><time>2026-05-01T13:23:15.999Z</time></trkpt><trkpt lat="40.318213" lon="0.3595772"><ele>22.0</ele><time>2026-05-01T13:23:16.999Z</time></trkpt><trkpt lat="40.3181322" lon="0.3595086"><ele>22.0</ele><time>2026-05-01T13:23:17.999Z</time></trkpt><trkpt lat="40.3180433" lon="0.359469"><ele>22.0</ele><time>2026-05-01T13:23:18.999Z</time></trkpt><trkpt lat="40.3179559" lon="0.3594482"><ele>20.200000000000003</ele><time>2026-05-01T13:23:19.999Z</time></trkpt><trkpt lat="40.3178536" lon="0.359455"><ele>18.400000000000002</ele><time>2026-05-01T13:23:20.999Z</time></trkpt><trkpt lat="40.3177638" lon="0.3594539"><ele>16.6</ele><time>2026-05-01T13:23:21.999Z</time></trkpt><trkpt lat="40.3176829" lon="0.3594512"><ele>14.8</ele><time>2026-05-01T13:23:22.999Z</time></trkpt><trkpt lat="40.3175974" lon="0.3594317"><ele>13.0</ele><time>2026-05-01T13:23:23.999Z</time></trkpt><trkpt lat="40.3175086" lon="0.3594071"><ele>13.0</ele><time>2026-05-01T13:23:24.999Z</time></trkpt><trkpt lat="40.3174246" lon="0.3593556"><ele>13.0</ele><time>2026-05-01T13:23:26Z</time></trkpt><trkpt lat="40.3173359" lon="0.3592851"><ele>13.0</ele><time>2026-05-01T13:23:26.999Z</time></trkpt><trkpt lat="40.3172529" lon="0.3592086"><ele>13.0</ele><time>2026-05-01T13:23:27.999Z</time></trkpt><trkpt lat="40.3171786" lon="0.3591098"><ele>13.0</ele><time>2026-05-01T13:23:28.999Z</time></trkpt><trkpt lat="40.317118" lon="0.3590028"><ele>12.4</ele><time>2026-05-01T13:23:30Z</time></trkpt><trkpt lat="40.3170555" lon="0.3588982"><ele>11.8</ele><time>2026-05-01T13:23:31Z</time></trkpt><trkpt lat="40.3169886" lon="0.3587919"><ele>11.2</ele><time>2026-05-01T13:23:31.999Z</time></trkpt><trkpt lat="40.316921" lon="0.3586939"><ele>10.6</ele><time>2026-05-01T13:23:32.999Z</time></trkpt><trkpt lat="40.3168542" lon="0.3586074"><ele>10.0</ele><time>2026-05-01T13:23:33.999Z</time></trkpt><trkpt lat="40.3167853" lon="0.3585334"><ele>10.0</ele><time>2026-05-01T13:23:34.999Z</time></trkpt><trkpt lat="40.3167173" lon="0.3584583"><ele>10.0</ele><time>2026-05-01T13:23:35.999Z</time></trkpt><trkpt lat="40.3166736" lon="0.3583823"><ele>10.0</ele><time>2026-05-01T13:23:36.999Z</time></trkpt><trkpt lat="40.3166549" lon="0.3582936"><ele>10.0</ele><time>2026-05-01T13:23:37.999Z</time></trkpt><trkpt lat="40.3166769" lon="0.3582141"><ele>10.0</ele><time>2026-05-01T13:23:39Z</time></trkpt><trkpt lat="40.3167395" lon="0.3580683"><ele>10.0</ele><time>2026-05-01T13:23:40.999Z</time></trkpt><trkpt lat="40.3167309" lon="0.3579358"><ele>10.0</ele><time>2026-05-01T13:23:42.999Z</time></trkpt><trkpt lat="40.3166495" lon="0.3579084"><ele>10.0</ele><time>2026-05-01T13:23:44.999Z</time></trkpt><trkpt lat="40.3165897" lon="0.3579371"><ele>10.0</ele><time>2026-05-01T13:23:45.999Z</time></trkpt><trkpt lat="40.3165222" lon="0.3580046"><ele>10.0</ele><time>2026-05-01T13:23:46.999Z</time></trkpt><trkpt lat="40.3164488" lon="0.3580864"><ele>10.0</ele><time>2026-05-01T13:23:47.999Z</time></trkpt><trkpt lat="40.3163781" lon="0.3581535"><ele>10.0</ele><time>2026-05-01T13:23:48.999Z</time></trkpt><trkpt lat="40.3163026" lon="0.358184"><ele>9.833333333333334</ele><time>2026-05-01T13:23:49.999Z</time></trkpt><trkpt lat="40.3162231" lon="0.35819"><ele>9.666666666666668</ele><time>2026-05-01T13:23:51Z</time></trkpt><trkpt lat="40.3161474" lon="0.3581603"><ele>9.5</ele><time>2026-05-01T13:23:51.999Z</time></trkpt><trkpt lat="40.3160684" lon="0.3581178"><ele>9.333333333333334</ele><time>2026-05-01T13:23:53Z</time></trkpt><trkpt lat="40.3159887" lon="0.3580553"><ele>9.166666666666666</ele><time>2026-05-01T13:23:53.999Z</time></trkpt><trkpt lat="40.3159045" lon="0.3579861"><ele>9.0</ele><time>2026-05-01T13:23:54.999Z</time></trkpt><trkpt lat="40.3158196" lon="0.3579067"><ele>9.0</ele><time>2026-05-01T13:23:55.999Z</time></trkpt><trkpt lat="40.3157323" lon="0.3577827"><ele>9.0</ele><time>2026-05-01T13:23:56.999Z</time></trkpt><trkpt lat="40.315644" lon="0.3576646"><ele>9.0</ele><time>2026-05-01T13:23:57.999Z</time></trkpt><trkpt lat="40.3155617" lon="0.3575457"><ele>9.0</ele><time>2026-05-01T13:23:58.999Z</time></trkpt><trkpt lat="40.3154672" lon="0.3574293"><ele>9.0</ele><time>2026-05-01T13:24:00Z</time></trkpt><trkpt lat="40.3153688" lon="0.3573153"><ele>9.0</ele><time>2026-05-01T13:24:01Z</time></trkpt><trkpt lat="40.3152498" lon="0.3572197"><ele>9.0</ele><time>2026-05-01T13:24:01.999Z</time></trkpt><trkpt lat="40.3151332" lon="0.3571382"><ele>9.0</ele><time>2026-05-01T13:24:02.999Z</time></trkpt><trkpt lat="40.315028" lon="0.3570541"><ele>9.0</ele><time>2026-05-01T13:24:03.999Z</time></trkpt><trkpt lat="40.3149334" lon="0.3569635"><ele>9.0</ele><time>2026-05-01T13:24:04.999Z</time></trkpt><trkpt lat="40.3148356" lon="0.3568562"><ele>9.0</ele><time>2026-05-01T13:24:05.999Z</time></trkpt><trkpt lat="40.3147335" lon="0.3567404"><ele>9.0</ele><time>2026-05-01T13:24:06.999Z</time></trkpt><trkpt lat="40.3146329" lon="0.3566144"><ele>8.25</ele><time>2026-05-01T13:24:08Z</time></trkpt><trkpt lat="40.3145376" lon="0.3564967"><ele>7.5</ele><time>2026-05-01T13:24:09Z</time></trkpt><trkpt lat="40.314449" lon="0.3563783"><ele>6.75</ele><time>2026-05-01T13:24:10Z</time></trkpt><trkpt lat="40.3143645" lon="0.3562687"><ele>6.0</ele><time>2026-05-01T13:24:10.999Z</time></trkpt><trkpt lat="40.314279" lon="0.3561738"><ele>6.0</ele><time>2026-05-01T13:24:12Z</time></trkpt><trkpt lat="40.3141922" lon="0.3561008"><ele>6.0</ele><time>2026-05-01T13:24:13Z</time></trkpt><trkpt lat="40.3141059" lon="0.3560357"><ele>6.0</ele><time>2026-05-01T13:24:13.999Z</time></trkpt><trkpt lat="40.3140148" lon="0.3559916"><ele>6.0</ele><time>2026-05-01T13:24:15Z</time></trkpt><trkpt lat="40.3139296" lon="0.3559416"><ele>6.0</ele><time>2026-05-01T13:24:16Z</time></trkpt><trkpt lat="40.3138379" lon="0.3558691"><ele>5.5</ele><time>2026-05-01T13:24:17Z</time></trkpt><trkpt lat="40.3137457" lon="0.3557798"><ele>5.0</ele><time>2026-05-01T13:24:17.999Z</time></trkpt><trkpt lat="40.3136511" lon="0.3556719"><ele>4.5</ele><time>2026-05-01T13:24:18.999Z</time></trkpt><trkpt lat="40.3135512" lon="0.3555525"><ele>4.0</ele><time>2026-05-01T13:24:20Z</time></trkpt><trkpt lat="40.3134499" lon="0.3554199"><ele>4.0</ele><time>2026-05-01T13:24:20.999Z</time></trkpt><trkpt lat="40.3133512" lon="0.3552951"><ele>4.0</ele><time>2026-05-01T13:24:21.999Z</time></trkpt><trkpt lat="40.3132659" lon="0.3551762"><ele>4.0</ele><time>2026-05-01T13:24:22.999Z</time></trkpt><trkpt lat="40.3131825" lon="0.3550407"><ele>4.0</ele><time>2026-05-01T13:24:24Z</time></trkpt><trkpt lat="40.3131122" lon="0.3548708"><ele>3.75</ele><time>2026-05-01T13:24:24.999Z</time></trkpt><trkpt lat="40.3130283" lon="0.3547066"><ele>3.5</ele><time>2026-05-01T13:24:25.999Z</time></trkpt><trkpt lat="40.3129419" lon="0.3545404"><ele>3.25</ele><time>2026-05-01T13:24:27Z</time></trkpt><trkpt lat="40.312864" lon="0.3543823"><ele>3.0</ele><time>2026-05-01T13:24:27.999Z</time></trkpt><trkpt lat="40.3127889" lon="0.3542312"><ele>2.75</ele><time>2026-05-01T13:24:29Z</time></trkpt><trkpt lat="40.3127147" lon="0.3540982"><ele>2.5</ele><time>2026-05-01T13:24:29.999Z</time></trkpt><trkpt lat="40.3126481" lon="0.3539743"><ele>2.25</ele><time>2026-05-01T13:24:30.999Z</time></trkpt><trkpt lat="40.3125644" lon="0.3538671"><ele>2.0</ele><time>2026-05-01T13:24:31.999Z</time></trkpt><trkpt lat="40.3124635" lon="0.3537618"><ele>2.75</ele><time>2026-05-01T13:24:32.999Z</time></trkpt><trkpt lat="40.3123348" lon="0.3536719"><ele>3.5</ele><time>2026-05-01T13:24:34Z</time></trkpt><trkpt lat="40.3122051" lon="0.3535968"><ele>4.25</ele><time>2026-05-01T13:24:34.999Z</time></trkpt><trkpt lat="40.3120818" lon="0.3535436"><ele>5.0</ele><time>2026-05-01T13:24:35.999Z</time></trkpt><trkpt lat="40.3119633" lon="0.3535027"><ele>5.0</ele><time>2026-05-01T13:24:36.999Z</time></trkpt><trkpt lat="40.3118488" lon="0.3534756"><ele>5.0</ele><time>2026-05-01T13:24:38Z</time></trkpt><trkpt lat="40.3117315" lon="0.3534803"><ele>5.0</ele><time>2026-05-01T13:24:38.999Z</time></trkpt><trkpt lat="40.3116274" lon="0.3534791"><ele>5.0</ele><time>2026-05-01T13:24:39.999Z</time></trkpt><trkpt lat="40.3115262" lon="0.353439"><ele>5.0</ele><time>2026-05-01T13:24:41Z</time></trkpt><trkpt lat="40.3114099" lon="0.3533685"><ele>4.5</ele><time>2026-05-01T13:24:41.999Z</time></trkpt><trkpt lat="40.3112898" lon="0.3532954"><ele>4.0</ele><time>2026-05-01T13:24:42.999Z</time></trkpt><trkpt lat="40.3111545" lon="0.3532244"><ele>3.5</ele><time>2026-05-01T13:24:43.999Z</time></trkpt><trkpt lat="40.3109954" lon="0.3531508"><ele>3.0</ele><time>2026-05-01T13:24:44.999Z</time></trkpt><trkpt lat="40.3108392" lon="0.3530753"><ele>3.25</ele><time>2026-05-01T13:24:45.999Z</time></trkpt><trkpt lat="40.3106994" lon="0.3530159"><ele>3.5</ele><time>2026-05-01T13:24:47Z</time></trkpt><trkpt lat="40.3105611" lon="0.3529599"><ele>3.75</ele><time>2026-05-01T13:24:47.999Z</time></trkpt><trkpt lat="40.3104315" lon="0.3529049"><ele>4.0</ele><time>2026-05-01T13:24:49Z</time></trkpt><trkpt lat="40.3102979" lon="0.3528377"><ele>4.0</ele><time>2026-05-01T13:24:49.999Z</time></trkpt><trkpt lat="40.3101637" lon="0.3527544"><ele>4.0</ele><time>2026-05-01T13:24:51Z</time></trkpt><trkpt lat="40.3100422" lon="0.3526644"><ele>4.0</ele><time>2026-05-01T13:24:52Z</time></trkpt><trkpt lat="40.3099368" lon="0.3525754"><ele>4.0</ele><time>2026-05-01T13:24:52.999Z</time></trkpt><trkpt lat="40.30984" lon="0.3524861"><ele>4.0</ele><time>2026-05-01T13:24:53.999Z</time></trkpt><trkpt lat="40.3097464" lon="0.3524072"><ele>4.0</ele><time>2026-05-01T13:24:54.999Z</time></trkpt><trkpt lat="40.3096556" lon="0.3523342"><ele>4.0</ele><time>2026-05-01T13:24:55.999Z</time></trkpt><trkpt lat="40.3095718" lon="0.3522439"><ele>4.0</ele><time>2026-05-01T13:24:56.999Z</time></trkpt><trkpt lat="40.3094851" lon="0.3521263"><ele>4.6</ele><time>2026-05-01T13:24:58Z</time></trkpt><trkpt lat="40.3094057" lon="0.3520156"><ele>5.2</ele><time>2026-05-01T13:24:59Z</time></trkpt><trkpt lat="40.3093267" lon="0.3519083"><ele>5.799999999999999</ele><time>2026-05-01T13:24:59.999Z</time></trkpt><trkpt lat="40.3092394" lon="0.3518151"><ele>6.3999999999999995</ele><time>2026-05-01T13:25:00.999Z</time></trkpt><trkpt lat="40.3091396" lon="0.3517653"><ele>7.0</ele><time>2026-05-01T13:25:02Z</time></trkpt><trkpt lat="40.3090334" lon="0.35171"><ele>7.0</ele><time>2026-05-01T13:25:02.999Z</time></trkpt><trkpt lat="40.3089307" lon="0.3516918"><ele>6.999999999999999</ele><time>2026-05-01T13:25:03.999Z</time></trkpt><trkpt lat="40.3088232" lon="0.3516906"><ele>6.999999999999999</ele><time>2026-05-01T13:25:04.999Z</time></trkpt><trkpt lat="40.3087054" lon="0.3517118"><ele>7.0</ele><time>2026-05-01T13:25:05.999Z</time></trkpt><trkpt lat="40.3085972" lon="0.3517353"><ele>7.0</ele><time>2026-05-01T13:25:06.999Z</time></trkpt><trkpt lat="40.3084896" lon="0.3517465"><ele>7.0</ele><time>2026-05-01T13:25:07.999Z</time></trkpt><trkpt lat="40.3083968" lon="0.3517121"><ele>6.999999999999999</ele><time>2026-05-01T13:25:08.999Z</time></trkpt><trkpt lat="40.3083071" lon="0.3516485"><ele>6.999999999999999</ele><time>2026-05-01T13:25:09.999Z</time></trkpt><trkpt lat="40.3082232" lon="0.3515644"><ele>7.0</ele><time>2026-05-01T13:25:11Z</time></trkpt><trkpt lat="40.3081493" lon="0.3514723"><ele>7.0</ele><time>2026-05-01T13:25:11.999Z</time></trkpt><trkpt lat="40.3081042" lon="0.3513675"><ele>7.000000000000001</ele><time>2026-05-01T13:25:12.999Z</time></trkpt><trkpt lat="40.3080799" lon="0.3512533"><ele>7.0</ele><time>2026-05-01T13:25:13.999Z</time></trkpt><trkpt lat="40.3080548" lon="0.351143"><ele>7.0</ele><time>2026-05-01T13:25:14.999Z</time></trkpt><trkpt lat="40.3080233" lon="0.3510405"><ele>7.0</ele><time>2026-05-01T13:25:15.999Z</time></trkpt><trkpt lat="40.3079821" lon="0.3509517"><ele>7.000000000000001</ele><time>2026-05-01T13:25:16.999Z</time></trkpt><trkpt lat="40.3078872" lon="0.3509051"><ele>7.0</ele><time>2026-05-01T13:25:19Z</time></trkpt><trkpt lat="40.30776" lon="0.3509633"><ele>6.6</ele><time>2026-05-01T13:25:20.999Z</time></trkpt><trkpt lat="40.3076826" lon="0.351013"><ele>6.199999999999999</ele><time>2026-05-01T13:25:22Z</time></trkpt><trkpt lat="40.3076046" lon="0.3510315"><ele>5.8</ele><time>2026-05-01T13:25:22.999Z</time></trkpt><trkpt lat="40.3075165" lon="0.35103"><ele>5.4</ele><time>2026-05-01T13:25:24Z</time></trkpt><trkpt lat="40.3074041" lon="0.3510123"><ele>5.0</ele><time>2026-05-01T13:25:24.999Z</time></trkpt><trkpt lat="40.3072804" lon="0.3509993"><ele>5.333333333333334</ele><time>2026-05-01T13:25:25.999Z</time></trkpt><trkpt lat="40.3071305" lon="0.3509673"><ele>5.666666666666667</ele><time>2026-05-01T13:25:26.999Z</time></trkpt><trkpt lat="40.3069553" lon="0.3509283"><ele>6.0</ele><time>2026-05-01T13:25:28Z</time></trkpt><trkpt lat="40.3067792" lon="0.3508975"><ele>6.0</ele><time>2026-05-01T13:25:28.999Z</time></trkpt><trkpt lat="40.3066187" lon="0.3508812"><ele>6.0</ele><time>2026-05-01T13:25:29.999Z</time></trkpt><trkpt lat="40.3064676" lon="0.3508685"><ele>6.0</ele><time>2026-05-01T13:25:30.999Z</time></trkpt><trkpt lat="40.3063127" lon="0.3508519"><ele>6.0</ele><time>2026-05-01T13:25:31.999Z</time></trkpt><trkpt lat="40.3061634" lon="0.3508244"><ele>6.0</ele><time>2026-05-01T13:25:33Z</time></trkpt><trkpt lat="40.3060174" lon="0.3507925"><ele>6.0</ele><time>2026-05-01T13:25:33.999Z</time></trkpt><trkpt lat="40.305878" lon="0.3507577"><ele>6.0</ele><time>2026-05-01T13:25:35Z</time></trkpt><trkpt lat="40.3057643" lon="0.350692"><ele>6.0</ele><time>2026-05-01T13:25:35.999Z</time></trkpt><trkpt lat="40.3056576" lon="0.3506247"><ele>6.0</ele><time>2026-05-01T13:25:36.999Z</time></trkpt><trkpt lat="40.3055546" lon="0.3505594"><ele>6.0</ele><time>2026-05-01T13:25:38Z</time></trkpt><trkpt lat="40.3054539" lon="0.3504921"><ele>6.0</ele><time>2026-05-01T13:25:39Z</time></trkpt><trkpt lat="40.3053506" lon="0.3504473"><ele>6.75</ele><time>2026-05-01T13:25:39.999Z</time></trkpt><trkpt lat="40.3052297" lon="0.3504283"><ele>7.5</ele><time>2026-05-01T13:25:40.999Z</time></trkpt><trkpt lat="40.3051169" lon="0.3504284"><ele>8.25</ele><time>2026-05-01T13:25:41.999Z</time></trkpt><trkpt lat="40.3050001" lon="0.3504391"><ele>9.0</ele><time>2026-05-01T13:25:42.999Z</time></trkpt><trkpt lat="40.30489" lon="0.3504488"><ele>9.0</ele><time>2026-05-01T13:25:43.999Z</time></trkpt><trkpt lat="40.304792" lon="0.3504404"><ele>9.0</ele><time>2026-05-01T13:25:44.999Z</time></trkpt><trkpt lat="40.3046957" lon="0.3504299"><ele>9.0</ele><time>2026-05-01T13:25:45.999Z</time></trkpt><trkpt lat="40.3046051" lon="0.3504082"><ele>9.0</ele><time>2026-05-01T13:25:46.999Z</time></trkpt><trkpt lat="40.3045062" lon="0.3503912"><ele>9.0</ele><time>2026-05-01T13:25:47.999Z</time></trkpt><trkpt lat="40.3043959" lon="0.3503849"><ele>9.0</ele><time>2026-05-01T13:25:48.999Z</time></trkpt><trkpt lat="40.3042732" lon="0.3503652"><ele>9.0</ele><time>2026-05-01T13:25:49.999Z</time></trkpt><trkpt lat="40.304144" lon="0.3503592"><ele>9.0</ele><time>2026-05-01T13:25:50.999Z</time></trkpt><trkpt lat="40.3040208" lon="0.3503455"><ele>9.0</ele><time>2026-05-01T13:25:52Z</time></trkpt><trkpt lat="40.303895" lon="0.3503423"><ele>9.0</ele><time>2026-05-01T13:25:52.999Z</time></trkpt><trkpt lat="40.303762" lon="0.3503342"><ele>9.0</ele><time>2026-05-01T13:25:54Z</time></trkpt><trkpt lat="40.303638" lon="0.3503262"><ele>9.0</ele><time>2026-05-01T13:25:54.999Z</time></trkpt><trkpt lat="40.3035127" lon="0.3503073"><ele>9.0</ele><time>2026-05-01T13:25:55.999Z</time></trkpt><trkpt lat="40.3033841" lon="0.3502761"><ele>9.0</ele><time>2026-05-01T13:25:56.999Z</time></trkpt><trkpt lat="40.3032588" lon="0.3502242"><ele>9.0</ele><time>2026-05-01T13:25:58Z</time></trkpt><trkpt lat="40.3031375" lon="0.3501434"><ele>9.0</ele><time>2026-05-01T13:25:58.999Z</time></trkpt><trkpt lat="40.3030171" lon="0.3500646"><ele>9.0</ele><time>2026-05-01T13:25:59.999Z</time></trkpt><trkpt lat="40.3028837" lon="0.350012"><ele>8.75</ele><time>2026-05-01T13:26:01Z</time></trkpt><trkpt lat="40.3027542" lon="0.3499787"><ele>8.5</ele><time>2026-05-01T13:26:01.999Z</time></trkpt><trkpt lat="40.3026343" lon="0.349942"><ele>8.25</ele><time>2026-05-01T13:26:02.999Z</time></trkpt><trkpt lat="40.3025161" lon="0.349867"><ele>8.0</ele><time>2026-05-01T13:26:04Z</time></trkpt><trkpt lat="40.3023942" lon="0.3497821"><ele>8.0</ele><time>2026-05-01T13:26:05Z</time></trkpt><trkpt lat="40.3022575" lon="0.3497024"><ele>8.0</ele><time>2026-05-01T13:26:06Z</time></trkpt><trkpt lat="40.3021169" lon="0.3496282"><ele>8.0</ele><time>2026-05-01T13:26:06.999Z</time></trkpt><trkpt lat="40.301977" lon="0.3495588"><ele>8.0</ele><time>2026-05-01T13:26:08Z</time></trkpt><trkpt lat="40.3018509" lon="0.3494991"><ele>8.0</ele><time>2026-05-01T13:26:09Z</time></trkpt><trkpt lat="40.3017231" lon="0.3494437"><ele>8.0</ele><time>2026-05-01T13:26:10Z</time></trkpt><trkpt lat="40.3015861" lon="0.3493984"><ele>8.0</ele><time>2026-05-01T13:26:10.999Z</time></trkpt><trkpt lat="40.3014457" lon="0.3493717"><ele>8.25</ele><time>2026-05-01T13:26:12Z</time></trkpt><trkpt lat="40.3012939" lon="0.3493744"><ele>8.5</ele><time>2026-05-01T13:26:12.999Z</time></trkpt><trkpt lat="40.301144" lon="0.3493591"><ele>8.75</ele><time>2026-05-01T13:26:13.999Z</time></trkpt><trkpt lat="40.301002" lon="0.3493494"><ele>9.0</ele><time>2026-05-01T13:26:15Z</time></trkpt><trkpt lat="40.3008753" lon="0.3493222"><ele>9.0</ele><time>2026-05-01T13:26:15.999Z</time></trkpt><trkpt lat="40.3007462" lon="0.3492755"><ele>9.0</ele><time>2026-05-01T13:26:16.999Z</time></trkpt><trkpt lat="40.3006219" lon="0.3492033"><ele>9.0</ele><time>2026-05-01T13:26:17.999Z</time></trkpt><trkpt lat="40.3004972" lon="0.3491348"><ele>9.0</ele><time>2026-05-01T13:26:18.999Z</time></trkpt><trkpt lat="40.3003705" lon="0.3490929"><ele>8.75</ele><time>2026-05-01T13:26:20Z</time></trkpt><trkpt lat="40.3002517" lon="0.3490583"><ele>8.5</ele><time>2026-05-01T13:26:21Z</time></trkpt><trkpt lat="40.3001322" lon="0.349002"><ele>8.25</ele><time>2026-05-01T13:26:21.999Z</time></trkpt><trkpt lat="40.3000226" lon="0.3489158"><ele>8.0</ele><time>2026-05-01T13:26:22.999Z</time></trkpt><trkpt lat="40.2999132" lon="0.3488065"><ele>7.75</ele><time>2026-05-01T13:26:23.999Z</time></trkpt><trkpt lat="40.2998" lon="0.3486943"><ele>7.5</ele><time>2026-05-01T13:26:24.999Z</time></trkpt><trkpt lat="40.2996794" lon="0.3485833"><ele>7.25</ele><time>2026-05-01T13:26:25.999Z</time></trkpt><trkpt lat="40.2995645" lon="0.3484882"><ele>7.0</ele><time>2026-05-01T13:26:26.999Z</time></trkpt><trkpt lat="40.2994618" lon="0.3483718"><ele>7.0</ele><time>2026-05-01T13:26:28Z</time></trkpt><trkpt lat="40.2993571" lon="0.348254"><ele>7.0</ele><time>2026-05-01T13:26:28.999Z</time></trkpt><trkpt lat="40.2992414" lon="0.3481449"><ele>7.0</ele><time>2026-05-01T13:26:29.999Z</time></trkpt><trkpt lat="40.29911" lon="0.3480448"><ele>7.0</ele><time>2026-05-01T13:26:30.999Z</time></trkpt><trkpt lat="40.2989803" lon="0.3479339"><ele>6.75</ele><time>2026-05-01T13:26:31.999Z</time></trkpt><trkpt lat="40.2988614" lon="0.3478147"><ele>6.5</ele><time>2026-05-01T13:26:32.999Z</time></trkpt><trkpt lat="40.2987453" lon="0.3476928"><ele>6.25</ele><time>2026-05-01T13:26:33.999Z</time></trkpt><trkpt lat="40.2986175" lon="0.3476002"><ele>6.0</ele><time>2026-05-01T13:26:34.999Z</time></trkpt><trkpt lat="40.2984823" lon="0.3475043"><ele>6.0</ele><time>2026-05-01T13:26:36Z</time></trkpt><trkpt lat="40.2983504" lon="0.3474061"><ele>6.0</ele><time>2026-05-01T13:26:36.999Z</time></trkpt><trkpt lat="40.2982178" lon="0.3473136"><ele>6.0</ele><time>2026-05-01T13:26:37.999Z</time></trkpt><trkpt lat="40.298087" lon="0.347223"><ele>5.75</ele><time>2026-05-01T13:26:39Z</time></trkpt><trkpt lat="40.2979499" lon="0.3471378"><ele>5.5</ele><time>2026-05-01T13:26:39.999Z</time></trkpt><trkpt lat="40.2978315" lon="0.3470256"><ele>5.25</ele><time>2026-05-01T13:26:40.999Z</time></trkpt><trkpt lat="40.2977097" lon="0.3469328"><ele>5.0</ele><time>2026-05-01T13:26:41.999Z</time></trkpt><trkpt lat="40.2976047" lon="0.3468635"><ele>5.0</ele><time>2026-05-01T13:26:42.999Z</time></trkpt><trkpt lat="40.297516" lon="0.3467807"><ele>5.0</ele><time>2026-05-01T13:26:44Z</time></trkpt><trkpt lat="40.2974301" lon="0.3466727"><ele>5.0</ele><time>2026-05-01T13:26:44.999Z</time></trkpt><trkpt lat="40.2973547" lon="0.3465604"><ele>5.0</ele><time>2026-05-01T13:26:45.999Z</time></trkpt><trkpt lat="40.2972642" lon="0.3464802"><ele>4.4</ele><time>2026-05-01T13:26:46.999Z</time></trkpt><trkpt lat="40.2971698" lon="0.3464261"><ele>3.8</ele><time>2026-05-01T13:26:47.999Z</time></trkpt><trkpt lat="40.2970729" lon="0.3463757"><ele>3.2</ele><time>2026-05-01T13:26:48.999Z</time></trkpt><trkpt lat="40.2969881" lon="0.3463503"><ele>2.6</ele><time>2026-05-01T13:26:49.999Z</time></trkpt><trkpt lat="40.2969083" lon="0.3463171"><ele>2.0</ele><time>2026-05-01T13:26:50.999Z</time></trkpt><trkpt lat="40.2968517" lon="0.3462458"><ele>1.8333333333333333</ele><time>2026-05-01T13:26:52Z</time></trkpt><trkpt lat="40.2968094" lon="0.3461541"><ele>1.6666666666666665</ele><time>2026-05-01T13:26:52.999Z</time></trkpt><trkpt lat="40.2967775" lon="0.3460394"><ele>1.5</ele><time>2026-05-01T13:26:53.999Z</time></trkpt><trkpt lat="40.2967631" lon="0.3459245"><ele>1.3333333333333333</ele><time>2026-05-01T13:26:55Z</time></trkpt><trkpt lat="40.2967451" lon="0.3458122"><ele>1.1666666666666665</ele><time>2026-05-01T13:26:55.999Z</time></trkpt><trkpt lat="40.2967012" lon="0.3457149"><ele>1.0</ele><time>2026-05-01T13:26:56.999Z</time></trkpt><trkpt lat="40.2966489" lon="0.3456125"><ele>1.0</ele><time>2026-05-01T13:26:57.999Z</time></trkpt><trkpt lat="40.2965919" lon="0.3455098"><ele>1.0</ele><time>2026-05-01T13:26:59Z</time></trkpt><trkpt lat="40.2965342" lon="0.3453988"><ele>1.0</ele><time>2026-05-01T13:26:59.999Z</time></trkpt><trkpt lat="40.2964747" lon="0.3452735"><ele>1.0</ele><time>2026-05-01T13:27:00.999Z</time></trkpt><trkpt lat="40.2964145" lon="0.3451503"><ele>1.0</ele><time>2026-05-01T13:27:01.999Z</time></trkpt><trkpt lat="40.296358" lon="0.3450361"><ele>1.0</ele><time>2026-05-01T13:27:02.999Z</time></trkpt><trkpt lat="40.2962929" lon="0.3449312"><ele>1.0</ele><time>2026-05-01T13:27:03.999Z</time></trkpt><trkpt lat="40.2962096" lon="0.3448558"><ele>1.0</ele><time>2026-05-01T13:27:04.999Z</time></trkpt><trkpt lat="40.2961257" lon="0.3447823"><ele>1.0</ele><time>2026-05-01T13:27:06Z</time></trkpt><trkpt lat="40.2960569" lon="0.3446858"><ele>1.0</ele><time>2026-05-01T13:27:07Z</time></trkpt><trkpt lat="40.2959972" lon="0.3445619"><ele>1.25</ele><time>2026-05-01T13:27:08Z</time></trkpt><trkpt lat="40.2959295" lon="0.3444355"><ele>1.5</ele><time>2026-05-01T13:27:08.999Z</time></trkpt><trkpt lat="40.2958523" lon="0.3443203"><ele>1.75</ele><time>2026-05-01T13:27:09.999Z</time></trkpt><trkpt lat="40.2957846" lon="0.3441923"><ele>2.0</ele><time>2026-05-01T13:27:11Z</time></trkpt><trkpt lat="40.2957257" lon="0.3440542"><ele>2.0</ele><time>2026-05-01T13:27:12Z</time></trkpt><trkpt lat="40.2956684" lon="0.3439125"><ele>2.0</ele><time>2026-05-01T13:27:12.999Z</time></trkpt><trkpt lat="40.2956201" lon="0.3437679"><ele>2.0</ele><time>2026-05-01T13:27:13.999Z</time></trkpt><trkpt lat="40.2955671" lon="0.3436237"><ele>2.0</ele><time>2026-05-01T13:27:14.999Z</time></trkpt><trkpt lat="40.2955149" lon="0.3434718"><ele>1.75</ele><time>2026-05-01T13:27:16Z</time></trkpt><trkpt lat="40.2954557" lon="0.3433231"><ele>1.5</ele><time>2026-05-01T13:27:17Z</time></trkpt><trkpt lat="40.2954076" lon="0.3431804"><ele>1.25</ele><time>2026-05-01T13:27:17.999Z</time></trkpt><trkpt lat="40.295372" lon="0.343053"><ele>1.0</ele><time>2026-05-01T13:27:19Z</time></trkpt><trkpt lat="40.2953435" lon="0.3429278"><ele>1.0</ele><time>2026-05-01T13:27:19.999Z</time></trkpt><trkpt lat="40.2953281" lon="0.3427974"><ele>1.0</ele><time>2026-05-01T13:27:21Z</time></trkpt><trkpt lat="40.2953324" lon="0.3426627"><ele>1.0</ele><time>2026-05-01T13:27:21.999Z</time></trkpt><trkpt lat="40.295321" lon="0.3425239"><ele>1.0</ele><time>2026-05-01T13:27:22.999Z</time></trkpt><trkpt lat="40.2953017" lon="0.3423687"><ele>1.0</ele><time>2026-05-01T13:27:23.999Z</time></trkpt><trkpt lat="40.2952809" lon="0.342203"><ele>0.8</ele><time>2026-05-01T13:27:24.999Z</time></trkpt><trkpt lat="40.2952588" lon="0.3420404"><ele>0.6000000000000001</ele><time>2026-05-01T13:27:25.999Z</time></trkpt><trkpt lat="40.295241" lon="0.3418948"><ele>0.4</ele><time>2026-05-01T13:27:27Z</time></trkpt><trkpt lat="40.2952266" lon="0.3417566"><ele>0.2</ele><time>2026-05-01T13:27:28Z</time></trkpt><trkpt lat="40.2952051" lon="0.3416343"><ele>0.0</ele><time>2026-05-01T13:27:28.999Z</time></trkpt><trkpt lat="40.2951767" lon="0.3415159"><ele>0.0</ele><time>2026-05-01T13:27:30Z</time></trkpt><trkpt lat="40.2951448" lon="0.3414006"><ele>0.0</ele><time>2026-05-01T13:27:30.999Z</time></trkpt><trkpt lat="40.29511" lon="0.3412837"><ele>0.0</ele><time>2026-05-01T13:27:32Z</time></trkpt><trkpt lat="40.2950719" lon="0.3411815"><ele>0.0</ele><time>2026-05-01T13:27:32.999Z</time></trkpt><trkpt lat="40.2950302" lon="0.3410658"><ele>0.0</ele><time>2026-05-01T13:27:33.999Z</time></trkpt><trkpt lat="40.2949833" lon="0.3409405"><ele>0.5</ele><time>2026-05-01T13:27:35Z</time></trkpt><trkpt lat="40.2949446" lon="0.340812"><ele>1.0</ele><time>2026-05-01T13:27:35.999Z</time></trkpt><trkpt lat="40.2949041" lon="0.3406719"><ele>1.5</ele><time>2026-05-01T13:27:36.999Z</time></trkpt><trkpt lat="40.2948582" lon="0.3405288"><ele>2.0</ele><time>2026-05-01T13:27:37.999Z</time></trkpt><trkpt lat="40.2948148" lon="0.3403882"><ele>2.0</ele><time>2026-05-01T13:27:39Z</time></trkpt><trkpt lat="40.2947693" lon="0.3402368"><ele>2.0</ele><time>2026-05-01T13:27:40Z</time></trkpt><trkpt lat="40.2947144" lon="0.3400851"><ele>2.0</ele><time>2026-05-01T13:27:40.999Z</time></trkpt><trkpt lat="40.2946619" lon="0.3399445"><ele>2.0</ele><time>2026-05-01T13:27:41.999Z</time></trkpt><trkpt lat="40.2946135" lon="0.3398098"><ele>2.0</ele><time>2026-05-01T13:27:42.999Z</time></trkpt><trkpt lat="40.2945665" lon="0.3396835"><ele>2.0</ele><time>2026-05-01T13:27:43.999Z</time></trkpt><trkpt lat="40.2945236" lon="0.3395521"><ele>2.0</ele><time>2026-05-01T13:27:44.999Z</time></trkpt><trkpt lat="40.2944831" lon="0.3394206"><ele>2.0</ele><time>2026-05-01T13:27:45.999Z</time></trkpt><trkpt lat="40.2944346" lon="0.3392848"><ele>2.0</ele><time>2026-05-01T13:27:46.999Z</time></trkpt><trkpt lat="40.2943954" lon="0.3391517"><ele>2.0</ele><time>2026-05-01T13:27:47.999Z</time></trkpt><trkpt lat="40.294354" lon="0.33902"><ele>2.0</ele><time>2026-05-01T13:27:49Z</time></trkpt><trkpt lat="40.2943084" lon="0.3389127"><ele>2.0</ele><time>2026-05-01T13:27:49.999Z</time></trkpt><trkpt lat="40.2942669" lon="0.3388111"><ele>2.0</ele><time>2026-05-01T13:27:50.999Z</time></trkpt><trkpt lat="40.2942293" lon="0.3387104"><ele>2.0</ele><time>2026-05-01T13:27:52Z</time></trkpt><trkpt lat="40.2941976" lon="0.3386121"><ele>2.333333333333333</ele><time>2026-05-01T13:27:52.999Z</time></trkpt><trkpt lat="40.2941724" lon="0.3385182"><ele>2.6666666666666665</ele><time>2026-05-01T13:27:53.999Z</time></trkpt><trkpt lat="40.2941537" lon="0.3384242"><ele>3.0</ele><time>2026-05-01T13:27:54.999Z</time></trkpt><trkpt lat="40.2941385" lon="0.3383269"><ele>3.333333333333333</ele><time>2026-05-01T13:27:55.999Z</time></trkpt><trkpt lat="40.2941124" lon="0.3382263"><ele>3.6666666666666665</ele><time>2026-05-01T13:27:56.999Z</time></trkpt><trkpt lat="40.2940681" lon="0.3381118"><ele>4.0</ele><time>2026-05-01T13:27:57.999Z</time></trkpt><trkpt lat="40.293999" lon="0.3380086"><ele>3.75</ele><time>2026-05-01T13:27:59Z</time></trkpt><trkpt lat="40.2939291" lon="0.3378989"><ele>3.5</ele><time>2026-05-01T13:27:59.999Z</time></trkpt><trkpt lat="40.2938545" lon="0.337775"><ele>3.25</ele><time>2026-05-01T13:28:00.999Z</time></trkpt><trkpt lat="40.2937788" lon="0.3376339"><ele>3.0</ele><time>2026-05-01T13:28:02Z</time></trkpt><trkpt lat="40.2937045" lon="0.337495"><ele>3.0</ele><time>2026-05-01T13:28:03Z</time></trkpt><trkpt lat="40.2936422" lon="0.3373614"><ele>3.0</ele><time>2026-05-01T13:28:03.999Z</time></trkpt><trkpt lat="40.2935864" lon="0.3372252"><ele>3.0</ele><time>2026-05-01T13:28:04.999Z</time></trkpt><trkpt lat="40.2935149" lon="0.3370952"><ele>3.0</ele><time>2026-05-01T13:28:05.999Z</time></trkpt><trkpt lat="40.2934331" lon="0.3369739"><ele>2.75</ele><time>2026-05-01T13:28:06.999Z</time></trkpt><trkpt lat="40.2933398" lon="0.3368501"><ele>2.5</ele><time>2026-05-01T13:28:07.999Z</time></trkpt><trkpt lat="40.2932414" lon="0.336721"><ele>2.25</ele><time>2026-05-01T13:28:08.999Z</time></trkpt><trkpt lat="40.2931367" lon="0.3365939"><ele>2.0</ele><time>2026-05-01T13:28:09.999Z</time></trkpt><trkpt lat="40.2930297" lon="0.3364579"><ele>2.75</ele><time>2026-05-01T13:28:10.999Z</time></trkpt><trkpt lat="40.2929332" lon="0.3363382"><ele>3.5</ele><time>2026-05-01T13:28:11.999Z</time></trkpt><trkpt lat="40.2928244" lon="0.3362213"><ele>4.25</ele><time>2026-05-01T13:28:12.999Z</time></trkpt><trkpt lat="40.2927244" lon="0.336091"><ele>5.0</ele><time>2026-05-01T13:28:14Z</time></trkpt><trkpt lat="40.2926158" lon="0.335965"><ele>5.0</ele><time>2026-05-01T13:28:14.999Z</time></trkpt><trkpt lat="40.292509" lon="0.3358239"><ele>5.0</ele><time>2026-05-01T13:28:15.999Z</time></trkpt><trkpt lat="40.2924022" lon="0.3356844"><ele>5.0</ele><time>2026-05-01T13:28:17Z</time></trkpt><trkpt lat="40.2923067" lon="0.3355496"><ele>5.0</ele><time>2026-05-01T13:28:17.999Z</time></trkpt><trkpt lat="40.2922071" lon="0.3354133"><ele>4.25</ele><time>2026-05-01T13:28:18.999Z</time></trkpt><trkpt lat="40.2921027" lon="0.3352809"><ele>3.5</ele><time>2026-05-01T13:28:20Z</time></trkpt><trkpt lat="40.2919902" lon="0.3351558"><ele>2.75</ele><time>2026-05-01T13:28:20.999Z</time></trkpt><trkpt lat="40.2918595" lon="0.3350612"><ele>2.0</ele><time>2026-05-01T13:28:21.999Z</time></trkpt><trkpt lat="40.2917247" lon="0.3349752"><ele>2.0</ele><time>2026-05-01T13:28:23Z</time></trkpt><trkpt lat="40.2915839" lon="0.3348775"><ele>2.0</ele><time>2026-05-01T13:28:23.999Z</time></trkpt><trkpt lat="40.2914462" lon="0.3347865"><ele>2.0</ele><time>2026-05-01T13:28:25Z</time></trkpt><trkpt lat="40.291314" lon="0.3346924"><ele>2.75</ele><time>2026-05-01T13:28:25.999Z</time></trkpt><trkpt lat="40.2911827" lon="0.3346077"><ele>3.5</ele><time>2026-05-01T13:28:26.999Z</time></trkpt><trkpt lat="40.2910534" lon="0.33452"><ele>4.25</ele><time>2026-05-01T13:28:28Z</time></trkpt><trkpt lat="40.2909141" lon="0.3344291"><ele>5.0</ele><time>2026-05-01T13:28:28.999Z</time></trkpt><trkpt lat="40.2907729" lon="0.3343366"><ele>5.0</ele><time>2026-05-01T13:28:29.999Z</time></trkpt><trkpt lat="40.2906328" lon="0.3342503"><ele>5.0</ele><time>2026-05-01T13:28:30.999Z</time></trkpt><trkpt lat="40.2904963" lon="0.3341497"><ele>5.0</ele><time>2026-05-01T13:28:32Z</time></trkpt><trkpt lat="40.2903567" lon="0.3340531"><ele>5.333333333333334</ele><time>2026-05-01T13:28:33Z</time></trkpt><trkpt lat="40.2902212" lon="0.3339572"><ele>5.666666666666667</ele><time>2026-05-01T13:28:34Z</time></trkpt><trkpt lat="40.2900943" lon="0.3338592"><ele>6.0</ele><time>2026-05-01T13:28:34.999Z</time></trkpt><trkpt lat="40.2899634" lon="0.3337587"><ele>6.0</ele><time>2026-05-01T13:28:35.999Z</time></trkpt><trkpt lat="40.2898338" lon="0.3336744"><ele>6.0</ele><time>2026-05-01T13:28:37Z</time></trkpt><trkpt lat="40.2897061" lon="0.3336023"><ele>6.0</ele><time>2026-05-01T13:28:38Z</time></trkpt><trkpt lat="40.2895765" lon="0.333527"><ele>6.0</ele><time>2026-05-01T13:28:38.999Z</time></trkpt><trkpt lat="40.2894417" lon="0.3334543"><ele>4.666666666666667</ele><time>2026-05-01T13:28:39.999Z</time></trkpt><trkpt lat="40.2893003" lon="0.333391"><ele>3.333333333333333</ele><time>2026-05-01T13:28:40.999Z</time></trkpt><trkpt lat="40.2891427" lon="0.333343"><ele>2.0</ele><time>2026-05-01T13:28:41.999Z</time></trkpt><trkpt lat="40.2889883" lon="0.3332954"><ele>2.0</ele><time>2026-05-01T13:28:43Z</time></trkpt><trkpt lat="40.2888438" lon="0.3332551"><ele>2.0</ele><time>2026-05-01T13:28:43.999Z</time></trkpt><trkpt lat="40.288712" lon="0.3332399"><ele>2.0</ele><time>2026-05-01T13:28:44.999Z</time></trkpt><trkpt lat="40.2886066" lon="0.3332207"><ele>2.0</ele><time>2026-05-01T13:28:45.999Z</time></trkpt><trkpt lat="40.2885285" lon="0.3332151"><ele>1.9999999999999998</ele><time>2026-05-01T13:28:47Z</time></trkpt><trkpt lat="40.2884507" lon="0.3332267"><ele>2.0</ele><time>2026-05-01T13:28:47.999Z</time></trkpt><trkpt lat="40.2883822" lon="0.3332522"><ele>2.0</ele><time>2026-05-01T13:28:49Z</time></trkpt><trkpt lat="40.2882998" lon="0.3332682"><ele>2.0</ele><time>2026-05-01T13:28:49.999Z</time></trkpt><trkpt lat="40.2882169" lon="0.3332607"><ele>1.9999999999999998</ele><time>2026-05-01T13:28:50.999Z</time></trkpt><trkpt lat="40.2881344" lon="0.3332421"><ele>2.0</ele><time>2026-05-01T13:28:51.999Z</time></trkpt><trkpt lat="40.2880435" lon="0.3332015"><ele>2.0</ele><time>2026-05-01T13:28:53Z</time></trkpt><trkpt lat="40.2879474" lon="0.3331443"><ele>2.0</ele><time>2026-05-01T13:28:53.999Z</time></trkpt><trkpt lat="40.2878539" lon="0.3330697"><ele>2.0</ele><time>2026-05-01T13:28:54.999Z</time></trkpt><trkpt lat="40.2877694" lon="0.3329776"><ele>2.0</ele><time>2026-05-01T13:28:55.999Z</time></trkpt><trkpt lat="40.2876975" lon="0.3328758"><ele>2.0</ele><time>2026-05-01T13:28:56.999Z</time></trkpt><trkpt lat="40.2876507" lon="0.3327599"><ele>2.8</ele><time>2026-05-01T13:28:58Z</time></trkpt><trkpt lat="40.2876091" lon="0.3326395"><ele>3.6</ele><time>2026-05-01T13:28:59Z</time></trkpt><trkpt lat="40.2875631" lon="0.3325174"><ele>4.3999999999999995</ele><time>2026-05-01T13:29:00Z</time></trkpt><trkpt lat="40.2875097" lon="0.3324117"><ele>5.2</ele><time>2026-05-01T13:29:00.999Z</time></trkpt><trkpt lat="40.2874478" lon="0.3323179"><ele>6.0</ele><time>2026-05-01T13:29:01.999Z</time></trkpt><trkpt lat="40.2874028" lon="0.332217"><ele>6.199999999999999</ele><time>2026-05-01T13:29:02.999Z</time></trkpt><trkpt lat="40.287384" lon="0.3320808"><ele>6.3999999999999995</ele><time>2026-05-01T13:29:04Z</time></trkpt><trkpt lat="40.2873731" lon="0.3319459"><ele>6.6</ele><time>2026-05-01T13:29:05Z</time></trkpt><trkpt lat="40.2873631" lon="0.3318192"><ele>6.8</ele><time>2026-05-01T13:29:06Z</time></trkpt><trkpt lat="40.2873571" lon="0.3316976"><ele>7.0</ele><time>2026-05-01T13:29:06.999Z</time></trkpt><trkpt lat="40.2873448" lon="0.331593"><ele>7.0</ele><time>2026-05-01T13:29:07.999Z</time></trkpt><trkpt lat="40.2873108" lon="0.3314844"><ele>6.999999999999999</ele><time>2026-05-01T13:29:08.999Z</time></trkpt><trkpt lat="40.2872482" lon="0.3313718"><ele>6.999999999999999</ele><time>2026-05-01T13:29:09.999Z</time></trkpt><trkpt lat="40.2871634" lon="0.3312537"><ele>7.0</ele><time>2026-05-01T13:29:10.999Z</time></trkpt><trkpt lat="40.2870835" lon="0.3311329"><ele>7.0</ele><time>2026-05-01T13:29:12Z</time></trkpt><trkpt lat="40.2870103" lon="0.3310174"><ele>7.500000000000001</ele><time>2026-05-01T13:29:13Z</time></trkpt><trkpt lat="40.2869434" lon="0.3309134"><ele>8.0</ele><time>2026-05-01T13:29:13.999Z</time></trkpt><trkpt lat="40.2868926" lon="0.3308156"><ele>8.5</ele><time>2026-05-01T13:29:14.999Z</time></trkpt><trkpt lat="40.2868805" lon="0.3307229"><ele>9.0</ele><time>2026-05-01T13:29:15.999Z</time></trkpt><trkpt lat="40.2868368" lon="0.3306341"><ele>9.5</ele><time>2026-05-01T13:29:16.999Z</time></trkpt><trkpt lat="40.2867678" lon="0.3305454"><ele>10.0</ele><time>2026-05-01T13:29:18Z</time></trkpt><trkpt lat="40.2866967" lon="0.3304537"><ele>10.75</ele><time>2026-05-01T13:29:18.999Z</time></trkpt><trkpt lat="40.2866398" lon="0.3303204"><ele>11.5</ele><time>2026-05-01T13:29:20Z</time></trkpt><trkpt lat="40.2865814" lon="0.3301798"><ele>12.25</ele><time>2026-05-01T13:29:20.999Z</time></trkpt><trkpt lat="40.2865214" lon="0.330018"><ele>13.0</ele><time>2026-05-01T13:29:21.999Z</time></trkpt><trkpt lat="40.2864654" lon="0.3298581"><ele>13.5</ele><time>2026-05-01T13:29:22.999Z</time></trkpt><trkpt lat="40.2864289" lon="0.3296951"><ele>14.0</ele><time>2026-05-01T13:29:23.999Z</time></trkpt><trkpt lat="40.286396" lon="0.3295474"><ele>14.5</ele><time>2026-05-01T13:29:24.999Z</time></trkpt><trkpt lat="40.2863586" lon="0.3294173"><ele>15.0</ele><time>2026-05-01T13:29:25.999Z</time></trkpt><trkpt lat="40.2863005" lon="0.329298"><ele>15.0</ele><time>2026-05-01T13:29:26.999Z</time></trkpt><trkpt lat="40.2862352" lon="0.3291921"><ele>15.0</ele><time>2026-05-01T13:29:27.999Z</time></trkpt><trkpt lat="40.2861868" lon="0.329084"><ele>15.0</ele><time>2026-05-01T13:29:28.999Z</time></trkpt><trkpt lat="40.2861611" lon="0.328954"><ele>15.0</ele><time>2026-05-01T13:29:29.999Z</time></trkpt><trkpt lat="40.2861432" lon="0.3288163"><ele>15.0</ele><time>2026-05-01T13:29:30.999Z</time></trkpt><trkpt lat="40.2861298" lon="0.3286874"><ele>15.8</ele><time>2026-05-01T13:29:32Z</time></trkpt><trkpt lat="40.2860936" lon="0.3285671"><ele>16.6</ele><time>2026-05-01T13:29:32.999Z</time></trkpt><trkpt lat="40.2860157" lon="0.3284592"><ele>17.4</ele><time>2026-05-01T13:29:33.999Z</time></trkpt><trkpt lat="40.2859513" lon="0.3283433"><ele>18.2</ele><time>2026-05-01T13:29:34.999Z</time></trkpt><trkpt lat="40.2859112" lon="0.3282042"><ele>19.0</ele><time>2026-05-01T13:29:36Z</time></trkpt><trkpt lat="40.2858871" lon="0.3280442"><ele>19.75</ele><time>2026-05-01T13:29:37Z</time></trkpt><trkpt lat="40.2858709" lon="0.327877"><ele>20.5</ele><time>2026-05-01T13:29:37.999Z</time></trkpt><trkpt lat="40.2858671" lon="0.3277105"><ele>21.25</ele><time>2026-05-01T13:29:38.999Z</time></trkpt><trkpt lat="40.2858524" lon="0.3275476"><ele>22.0</ele><time>2026-05-01T13:29:39.999Z</time></trkpt><trkpt lat="40.2858188" lon="0.3273875"><ele>23.25</ele><time>2026-05-01T13:29:41Z</time></trkpt><trkpt lat="40.2857732" lon="0.3272254"><ele>24.5</ele><time>2026-05-01T13:29:41.999Z</time></trkpt><trkpt lat="40.2857272" lon="0.3270554"><ele>25.75</ele><time>2026-05-01T13:29:43Z</time></trkpt><trkpt lat="40.2856801" lon="0.326906"><ele>27.0</ele><time>2026-05-01T13:29:43.999Z</time></trkpt><trkpt lat="40.2856199" lon="0.3267849"><ele>27.0</ele><time>2026-05-01T13:29:44.999Z</time></trkpt><trkpt lat="40.2855494" lon="0.3266793"><ele>27.000000000000004</ele><time>2026-05-01T13:29:46Z</time></trkpt><trkpt lat="40.2854917" lon="0.3265688"><ele>27.000000000000004</ele><time>2026-05-01T13:29:46.999Z</time></trkpt><trkpt lat="40.2854473" lon="0.326464"><ele>27.0</ele><time>2026-05-01T13:29:47.999Z</time></trkpt><trkpt lat="40.2854034" lon="0.3263686"><ele>27.0</ele><time>2026-05-01T13:29:48.999Z</time></trkpt><trkpt lat="40.2853599" lon="0.3262888"><ele>27.6</ele><time>2026-05-01T13:29:49.999Z</time></trkpt><trkpt lat="40.2853031" lon="0.3262426"><ele>28.200000000000003</ele><time>2026-05-01T13:29:50.999Z</time></trkpt><trkpt lat="40.2852511" lon="0.3261951"><ele>28.8</ele><time>2026-05-01T13:29:51.999Z</time></trkpt><trkpt lat="40.2851557" lon="0.3261093"><ele>29.4</ele><time>2026-05-01T13:29:54Z</time></trkpt><trkpt lat="40.2850554" lon="0.3260438"><ele>30.0</ele><time>2026-05-01T13:29:56Z</time></trkpt><trkpt lat="40.2849418" lon="0.3260125"><ele>30.0</ele><time>2026-05-01T13:29:57.999Z</time></trkpt><trkpt lat="40.2848287" lon="0.3259585"><ele>30.0</ele><time>2026-05-01T13:29:59.999Z</time></trkpt><trkpt lat="40.2847301" lon="0.3258634"><ele>30.0</ele><time>2026-05-01T13:30:01.999Z</time></trkpt><trkpt lat="40.2846758" lon="0.3258116"><ele>30.0</ele><time>2026-05-01T13:30:03Z</time></trkpt><trkpt lat="40.2846101" lon="0.3257553"><ele>30.0</ele><time>2026-05-01T13:30:04Z</time></trkpt><trkpt lat="40.2845296" lon="0.3256946"><ele>29.833333333333332</ele><time>2026-05-01T13:30:05Z</time></trkpt><trkpt lat="40.284443" lon="0.3256324"><ele>29.666666666666664</ele><time>2026-05-01T13:30:05.999Z</time></trkpt><trkpt lat="40.2843795" lon="0.3255618"><ele>29.5</ele><time>2026-05-01T13:30:06.999Z</time></trkpt><trkpt lat="40.2843541" lon="0.3254644"><ele>29.333333333333332</ele><time>2026-05-01T13:30:07.999Z</time></trkpt><trkpt lat="40.2843365" lon="0.3253684"><ele>29.166666666666664</ele><time>2026-05-01T13:30:09Z</time></trkpt><trkpt lat="40.2843334" lon="0.3252296"><ele>29.0</ele><time>2026-05-01T13:30:11Z</time></trkpt><trkpt lat="40.2842711" lon="0.3251761"><ele>29.0</ele><time>2026-05-01T13:30:12.999Z</time></trkpt><trkpt lat="40.284155" lon="0.3251973"><ele>29.0</ele><time>2026-05-01T13:30:15Z</time></trkpt><trkpt lat="40.2840668" lon="0.3252232"><ele>29.0</ele><time>2026-05-01T13:30:16Z</time></trkpt><trkpt lat="40.2839815" lon="0.3252428"><ele>29.0</ele><time>2026-05-01T13:30:17Z</time></trkpt><trkpt lat="40.2838994" lon="0.3252719"><ele>29.0</ele><time>2026-05-01T13:30:18Z</time></trkpt><trkpt lat="40.2838229" lon="0.3253273"><ele>28.5</ele><time>2026-05-01T13:30:18.999Z</time></trkpt><trkpt lat="40.283763" lon="0.3254274"><ele>28.0</ele><time>2026-05-01T13:30:19.999Z</time></trkpt><trkpt lat="40.2837021" lon="0.3255441"><ele>27.5</ele><time>2026-05-01T13:30:20.999Z</time></trkpt><trkpt lat="40.2836252" lon="0.32568"><ele>27.0</ele><time>2026-05-01T13:30:21.999Z</time></trkpt><trkpt lat="40.2835535" lon="0.3258126"><ele>26.6</ele><time>2026-05-01T13:30:22.999Z</time></trkpt><trkpt lat="40.283478" lon="0.3259246"><ele>26.200000000000003</ele><time>2026-05-01T13:30:23.999Z</time></trkpt><trkpt lat="40.2833976" lon="0.3260091"><ele>25.8</ele><time>2026-05-01T13:30:24.999Z</time></trkpt><trkpt lat="40.2833084" lon="0.3260785"><ele>25.4</ele><time>2026-05-01T13:30:25.999Z</time></trkpt><trkpt lat="40.2831991" lon="0.3261304"><ele>25.0</ele><time>2026-05-01T13:30:26.999Z</time></trkpt><trkpt lat="40.2830839" lon="0.3261736"><ele>24.25</ele><time>2026-05-01T13:30:27.999Z</time></trkpt><trkpt lat="40.2829709" lon="0.3262338"><ele>23.5</ele><time>2026-05-01T13:30:28.999Z</time></trkpt><trkpt lat="40.2828694" lon="0.3263093"><ele>22.75</ele><time>2026-05-01T13:30:30Z</time></trkpt><trkpt lat="40.2827844" lon="0.3264003"><ele>22.0</ele><time>2026-05-01T13:30:30.999Z</time></trkpt><trkpt lat="40.2826808" lon="0.3264774"><ele>21.75</ele><time>2026-05-01T13:30:31.999Z</time></trkpt><trkpt lat="40.2825651" lon="0.326543"><ele>21.5</ele><time>2026-05-01T13:30:32.999Z</time></trkpt><trkpt lat="40.2824455" lon="0.3266131"><ele>21.25</ele><time>2026-05-01T13:30:34Z</time></trkpt><trkpt lat="40.2823239" lon="0.3266838"><ele>21.0</ele><time>2026-05-01T13:30:34.999Z</time></trkpt><trkpt lat="40.2822091" lon="0.3267383"><ele>20.400000000000002</ele><time>2026-05-01T13:30:36Z</time></trkpt><trkpt lat="40.2820999" lon="0.3267853"><ele>19.8</ele><time>2026-05-01T13:30:36.999Z</time></trkpt><trkpt lat="40.2819868" lon="0.3268333"><ele>19.200000000000003</ele><time>2026-05-01T13:30:38Z</time></trkpt><trkpt lat="40.2818806" lon="0.3268888"><ele>18.6</ele><time>2026-05-01T13:30:38.999Z</time></trkpt><trkpt lat="40.2817855" lon="0.3269319"><ele>18.0</ele><time>2026-05-01T13:30:39.999Z</time></trkpt><trkpt lat="40.2816766" lon="0.3269476"><ele>18.0</ele><time>2026-05-01T13:30:40.999Z</time></trkpt><trkpt lat="40.2815885" lon="0.3269744"><ele>18.0</ele><time>2026-05-01T13:30:42Z</time></trkpt><trkpt lat="40.2814931" lon="0.3269607"><ele>18.0</ele><time>2026-05-01T13:30:43Z</time></trkpt><trkpt lat="40.2813903" lon="0.3269302"><ele>18.0</ele><time>2026-05-01T13:30:44Z</time></trkpt><trkpt lat="40.2812896" lon="0.3269106"><ele>18.0</ele><time>2026-05-01T13:30:45Z</time></trkpt><trkpt lat="40.2811838" lon="0.3269133"><ele>17.25</ele><time>2026-05-01T13:30:45.999Z</time></trkpt><trkpt lat="40.2810624" lon="0.3269498"><ele>16.5</ele><time>2026-05-01T13:30:46.999Z</time></trkpt><trkpt lat="40.2809414" lon="0.3269808"><ele>15.75</ele><time>2026-05-01T13:30:47.999Z</time></trkpt><trkpt lat="40.2808196" lon="0.3270131"><ele>15.0</ele><time>2026-05-01T13:30:48.999Z</time></trkpt><trkpt lat="40.2807019" lon="0.3270479"><ele>14.2</ele><time>2026-05-01T13:30:49.999Z</time></trkpt><trkpt lat="40.2805915" lon="0.3270835"><ele>13.4</ele><time>2026-05-01T13:30:51Z</time></trkpt><trkpt lat="40.2804743" lon="0.3271026"><ele>12.600000000000001</ele><time>2026-05-01T13:30:51.999Z</time></trkpt><trkpt lat="40.2803652" lon="0.3271055"><ele>11.8</ele><time>2026-05-01T13:30:52.999Z</time></trkpt><trkpt lat="40.2802572" lon="0.3271076"><ele>11.0</ele><time>2026-05-01T13:30:54Z</time></trkpt><trkpt lat="40.280159" lon="0.3271116"><ele>11.0</ele><time>2026-05-01T13:30:54.999Z</time></trkpt><trkpt lat="40.2800502" lon="0.3271459"><ele>11.0</ele><time>2026-05-01T13:30:55.999Z</time></trkpt><trkpt lat="40.2799377" lon="0.3271802"><ele>11.0</ele><time>2026-05-01T13:30:56.999Z</time></trkpt><trkpt lat="40.279832" lon="0.3272385"><ele>11.0</ele><time>2026-05-01T13:30:58Z</time></trkpt><trkpt lat="40.2797332" lon="0.3272956"><ele>10.166666666666666</ele><time>2026-05-01T13:30:58.999Z</time></trkpt><trkpt lat="40.2796445" lon="0.3273426"><ele>9.333333333333332</ele><time>2026-05-01T13:30:59.999Z</time></trkpt><trkpt lat="40.2795634" lon="0.3273832"><ele>8.5</ele><time>2026-05-01T13:31:01Z</time></trkpt><trkpt lat="40.2794835" lon="0.3274155"><ele>7.666666666666666</ele><time>2026-05-01T13:31:02Z</time></trkpt><trkpt lat="40.2794103" lon="0.3274266"><ele>6.833333333333333</ele><time>2026-05-01T13:31:02.999Z</time></trkpt><trkpt lat="40.2793438" lon="0.3274087"><ele>6.0</ele><time>2026-05-01T13:31:03.999Z</time></trkpt><trkpt lat="40.2792878" lon="0.32736"><ele>6.0</ele><time>2026-05-01T13:31:04.999Z</time></trkpt><trkpt lat="40.2792545" lon="0.3272703"><ele>6.0</ele><time>2026-05-01T13:31:06Z</time></trkpt><trkpt lat="40.2792437" lon="0.3271686"><ele>6.0</ele><time>2026-05-01T13:31:06.999Z</time></trkpt><trkpt lat="40.2792296" lon="0.3270671"><ele>6.0</ele><time>2026-05-01T13:31:07.999Z</time></trkpt><trkpt lat="40.279184" lon="0.3269894"><ele>6.0</ele><time>2026-05-01T13:31:08.999Z</time></trkpt><trkpt lat="40.2791202" lon="0.3269407"><ele>6.0</ele><time>2026-05-01T13:31:09.999Z</time></trkpt><trkpt lat="40.2790444" lon="0.3269004"><ele>6.0</ele><time>2026-05-01T13:31:11.999Z</time></trkpt><trkpt lat="40.2790457" lon="0.3268113"><ele>6.0</ele><time>2026-05-01T13:31:13.999Z</time></trkpt><trkpt lat="40.2791436" lon="0.3267417"><ele>6.0</ele><time>2026-05-01T13:31:16Z</time></trkpt><trkpt lat="40.2792295" lon="0.3267441"><ele>6.0</ele><time>2026-05-01T13:31:17Z</time></trkpt><trkpt lat="40.2793255" lon="0.3267361"><ele>6.0</ele><time>2026-05-01T13:31:17.999Z</time></trkpt><trkpt lat="40.2794099" lon="0.3267235"><ele>6.0</ele><time>2026-05-01T13:31:18.999Z</time></trkpt><trkpt lat="40.279481" lon="0.32668"><ele>6.0</ele><time>2026-05-01T13:31:19.999Z</time></trkpt><trkpt lat="40.2795229" lon="0.3265909"><ele>6.0</ele><time>2026-05-01T13:31:20.999Z</time></trkpt><trkpt lat="40.2795569" lon="0.3264913"><ele>6.0</ele><time>2026-05-01T13:31:21.999Z</time></trkpt><trkpt lat="40.2795553" lon="0.3263749"><ele>6.0</ele><time>2026-05-01T13:31:22.999Z</time></trkpt><trkpt lat="40.2795309" lon="0.3262481"><ele>6.0</ele><time>2026-05-01T13:31:24Z</time></trkpt><trkpt lat="40.2795227" lon="0.3261304"><ele>6.0</ele><time>2026-05-01T13:31:25Z</time></trkpt><trkpt lat="40.2795344" lon="0.3260127"><ele>6.6</ele><time>2026-05-01T13:31:26Z</time></trkpt><trkpt lat="40.2795522" lon="0.3258913"><ele>7.199999999999999</ele><time>2026-05-01T13:31:27Z</time></trkpt><trkpt lat="40.2795925" lon="0.3257733"><ele>7.800000000000001</ele><time>2026-05-01T13:31:28Z</time></trkpt><trkpt lat="40.2796353" lon="0.3256555"><ele>8.4</ele><time>2026-05-01T13:31:28.999Z</time></trkpt><trkpt lat="40.2796932" lon="0.325551"><ele>9.0</ele><time>2026-05-01T13:31:30Z</time></trkpt><trkpt lat="40.2797758" lon="0.3254627"><ele>10.25</ele><time>2026-05-01T13:31:30.999Z</time></trkpt><trkpt lat="40.2798678" lon="0.3253689"><ele>11.5</ele><time>2026-05-01T13:31:32Z</time></trkpt><trkpt lat="40.2799614" lon="0.3252733"><ele>12.75</ele><time>2026-05-01T13:31:32.999Z</time></trkpt><trkpt lat="40.2800562" lon="0.32517"><ele>14.0</ele><time>2026-05-01T13:31:34Z</time></trkpt><trkpt lat="40.2801538" lon="0.3250629"><ele>14.0</ele><time>2026-05-01T13:31:35Z</time></trkpt><trkpt lat="40.2802431" lon="0.3249497"><ele>14.0</ele><time>2026-05-01T13:31:36Z</time></trkpt><trkpt lat="40.2803211" lon="0.324824"><ele>14.0</ele><time>2026-05-01T13:31:37Z</time></trkpt><trkpt lat="40.2803872" lon="0.3246944"><ele>14.0</ele><time>2026-05-01T13:31:37.999Z</time></trkpt><trkpt lat="40.2804447" lon="0.3245661"><ele>14.6</ele><time>2026-05-01T13:31:38.999Z</time></trkpt><trkpt lat="40.2805026" lon="0.3244243"><ele>15.2</ele><time>2026-05-01T13:31:40Z</time></trkpt><trkpt lat="40.2805672" lon="0.3242994"><ele>15.799999999999999</ele><time>2026-05-01T13:31:41Z</time></trkpt><trkpt lat="40.2806195" lon="0.3242044"><ele>16.4</ele><time>2026-05-01T13:31:41.999Z</time></trkpt><trkpt lat="40.2806318" lon="0.3241198"><ele>17.0</ele><time>2026-05-01T13:31:43Z</time></trkpt><trkpt lat="40.2805688" lon="0.324008"><ele>17.0</ele><time>2026-05-01T13:31:44.999Z</time></trkpt><trkpt lat="40.2805096" lon="0.3240473"><ele>17.0</ele><time>2026-05-01T13:31:45.999Z</time></trkpt><trkpt lat="40.2804389" lon="0.3240971"><ele>17.0</ele><time>2026-05-01T13:31:46.999Z</time></trkpt><trkpt lat="40.2803534" lon="0.3241533"><ele>17.0</ele><time>2026-05-01T13:31:47.999Z</time></trkpt><trkpt lat="40.2802659" lon="0.3241872"><ele>17.0</ele><time>2026-05-01T13:31:48.999Z</time></trkpt><trkpt lat="40.2801928" lon="0.3241751"><ele>17.0</ele><time>2026-05-01T13:31:50Z</time></trkpt><trkpt lat="40.2801565" lon="0.3240692"><ele>17.0</ele><time>2026-05-01T13:31:52Z</time></trkpt><trkpt lat="40.2802007" lon="0.3239994"><ele>17.0</ele><time>2026-05-01T13:31:53Z</time></trkpt><trkpt lat="40.2802656" lon="0.3239283"><ele>17.0</ele><time>2026-05-01T13:31:53.999Z</time></trkpt><trkpt lat="40.280342" lon="0.3238282"><ele>17.0</ele><time>2026-05-01T13:31:54.999Z</time></trkpt><trkpt lat="40.2804137" lon="0.3236661"><ele>17.0</ele><time>2026-05-01T13:31:56Z</time></trkpt><trkpt lat="40.2804811" lon="0.3235302"><ele>18.25</ele><time>2026-05-01T13:31:56.999Z</time></trkpt><trkpt lat="40.2805101" lon="0.3233941"><ele>19.5</ele><time>2026-05-01T13:31:58Z</time></trkpt><trkpt lat="40.2805386" lon="0.3232417"><ele>20.75</ele><time>2026-05-01T13:31:59Z</time></trkpt><trkpt lat="40.2805728" lon="0.323036"><ele>22.0</ele><time>2026-05-01T13:32:00Z</time></trkpt><trkpt lat="40.2806174" lon="0.3228348"><ele>23.0</ele><time>2026-05-01T13:32:01Z</time></trkpt><trkpt lat="40.2806518" lon="0.3226476"><ele>24.0</ele><time>2026-05-01T13:32:01.999Z</time></trkpt><trkpt lat="40.2806708" lon="0.3224696"><ele>25.0</ele><time>2026-05-01T13:32:02.999Z</time></trkpt><trkpt lat="40.2806895" lon="0.3222999"><ele>26.0</ele><time>2026-05-01T13:32:03.999Z</time></trkpt><trkpt lat="40.2807018" lon="0.3221467"><ele>26.4</ele><time>2026-05-01T13:32:04.999Z</time></trkpt><trkpt lat="40.2807064" lon="0.321997"><ele>26.8</ele><time>2026-05-01T13:32:05.999Z</time></trkpt><trkpt lat="40.2807052" lon="0.321848"><ele>27.199999999999996</ele><time>2026-05-01T13:32:06.999Z</time></trkpt><trkpt lat="40.2806844" lon="0.3217091"><ele>27.599999999999998</ele><time>2026-05-01T13:32:07.999Z</time></trkpt><trkpt lat="40.2806501" lon="0.3216003"><ele>28.0</ele><time>2026-05-01T13:32:08.999Z</time></trkpt><trkpt lat="40.2805946" lon="0.321513"><ele>28.0</ele><time>2026-05-01T13:32:10Z</time></trkpt><trkpt lat="40.2805209" lon="0.3214308"><ele>28.0</ele><time>2026-05-01T13:32:11Z</time></trkpt><trkpt lat="40.2804181" lon="0.3213435"><ele>28.0</ele><time>2026-05-01T13:32:11.999Z</time></trkpt><trkpt lat="40.2803009" lon="0.3212423"><ele>28.0</ele><time>2026-05-01T13:32:12.999Z</time></trkpt><trkpt lat="40.2801634" lon="0.3211348"><ele>28.5</ele><time>2026-05-01T13:32:14Z</time></trkpt><trkpt lat="40.280029" lon="0.3210385"><ele>29.0</ele><time>2026-05-01T13:32:14.999Z</time></trkpt><trkpt lat="40.2798967" lon="0.3209457"><ele>29.5</ele><time>2026-05-01T13:32:15.999Z</time></trkpt><trkpt lat="40.2797716" lon="0.3208656"><ele>30.0</ele><time>2026-05-01T13:32:16.999Z</time></trkpt><trkpt lat="40.2796441" lon="0.3207753"><ele>30.0</ele><time>2026-05-01T13:32:18Z</time></trkpt><trkpt lat="40.2795115" lon="0.3206789"><ele>30.0</ele><time>2026-05-01T13:32:19Z</time></trkpt><trkpt lat="40.2793784" lon="0.3205708"><ele>30.0</ele><time>2026-05-01T13:32:19.999Z</time></trkpt><trkpt lat="40.2792599" lon="0.3204779"><ele>30.0</ele><time>2026-05-01T13:32:20.999Z</time></trkpt><trkpt lat="40.2791481" lon="0.3203866"><ele>30.4</ele><time>2026-05-01T13:32:22Z</time></trkpt><trkpt lat="40.2790801" lon="0.3203023"><ele>30.8</ele><time>2026-05-01T13:32:22.999Z</time></trkpt><trkpt lat="40.2790282" lon="0.3202091"><ele>31.200000000000003</ele><time>2026-05-01T13:32:23.999Z</time></trkpt><trkpt lat="40.2790023" lon="0.3201029"><ele>31.6</ele><time>2026-05-01T13:32:24.999Z</time></trkpt><trkpt lat="40.2789802" lon="0.3199661"><ele>32.0</ele><time>2026-05-01T13:32:26Z</time></trkpt><trkpt lat="40.2789592" lon="0.3197913"><ele>32.666666666666664</ele><time>2026-05-01T13:32:26.999Z</time></trkpt><trkpt lat="40.2789478" lon="0.3195963"><ele>33.333333333333336</ele><time>2026-05-01T13:32:28Z</time></trkpt><trkpt lat="40.2789246" lon="0.3193901"><ele>34.0</ele><time>2026-05-01T13:32:28.999Z</time></trkpt><trkpt lat="40.278898" lon="0.3192073"><ele>34.0</ele><time>2026-05-01T13:32:30Z</time></trkpt><trkpt lat="40.2788629" lon="0.3190447"><ele>34.0</ele><time>2026-05-01T13:32:30.999Z</time></trkpt><trkpt lat="40.2788295" lon="0.3189095"><ele>34.0</ele><time>2026-05-01T13:32:31.999Z</time></trkpt><trkpt lat="40.2788113" lon="0.3187738"><ele>34.0</ele><time>2026-05-01T13:32:32.999Z</time></trkpt><trkpt lat="40.278811" lon="0.318649"><ele>34.0</ele><time>2026-05-01T13:32:33.999Z</time></trkpt><trkpt lat="40.2788552" lon="0.318533"><ele>34.6</ele><time>2026-05-01T13:32:34.999Z</time></trkpt><trkpt lat="40.2789063" lon="0.3184174"><ele>35.2</ele><time>2026-05-01T13:32:36Z</time></trkpt><trkpt lat="40.2789822" lon="0.3182956"><ele>35.800000000000004</ele><time>2026-05-01T13:32:36.999Z</time></trkpt><trkpt lat="40.2790546" lon="0.318173"><ele>36.4</ele><time>2026-05-01T13:32:37.999Z</time></trkpt><trkpt lat="40.27909" lon="0.318085"><ele>37.0</ele><time>2026-05-01T13:32:38.999Z</time></trkpt><trkpt lat="40.2791062" lon="0.318003"><ele>38.2</ele><time>2026-05-01T13:32:39.999Z</time></trkpt><trkpt lat="40.2790557" lon="0.3178524"><ele>39.400000000000006</ele><time>2026-05-01T13:32:41.999Z</time></trkpt><trkpt lat="40.2790431" lon="0.317746"><ele>40.599999999999994</ele><time>2026-05-01T13:32:43Z</time></trkpt><trkpt lat="40.2790511" lon="0.3176292"><ele>41.8</ele><time>2026-05-01T13:32:43.999Z</time></trkpt><trkpt lat="40.2790819" lon="0.3174829"><ele>43.0</ele><time>2026-05-01T13:32:44.999Z</time></trkpt><trkpt lat="40.2791198" lon="0.3173288"><ele>44.25</ele><time>2026-05-01T13:32:45.999Z</time></trkpt><trkpt lat="40.2791428" lon="0.3171796"><ele>45.5</ele><time>2026-05-01T13:32:47Z</time></trkpt><trkpt lat="40.279161" lon="0.3170316"><ele>46.75</ele><time>2026-05-01T13:32:47.999Z</time></trkpt><trkpt lat="40.2791621" lon="0.3168851"><ele>48.0</ele><time>2026-05-01T13:32:48.999Z</time></trkpt><trkpt lat="40.2791564" lon="0.3167402"><ele>48.0</ele><time>2026-05-01T13:32:49.999Z</time></trkpt><trkpt lat="40.2791306" lon="0.316596"><ele>48.0</ele><time>2026-05-01T13:32:51Z</time></trkpt><trkpt lat="40.2790702" lon="0.3164533"><ele>48.0</ele><time>2026-05-01T13:32:52Z</time></trkpt><trkpt lat="40.278985" lon="0.3163026"><ele>48.0</ele><time>2026-05-01T13:32:53Z</time></trkpt><trkpt lat="40.2788916" lon="0.3161683"><ele>48.0</ele><time>2026-05-01T13:32:53.999Z</time></trkpt><trkpt lat="40.2787909" lon="0.3160313"><ele>48.0</ele><time>2026-05-01T13:32:54.999Z</time></trkpt><trkpt lat="40.2786943" lon="0.3159243"><ele>48.0</ele><time>2026-05-01T13:32:55.999Z</time></trkpt><trkpt lat="40.2786057" lon="0.3158103"><ele>48.0</ele><time>2026-05-01T13:32:56.999Z</time></trkpt><trkpt lat="40.2785358" lon="0.3156809"><ele>48.5</ele><time>2026-05-01T13:32:57.999Z</time></trkpt><trkpt lat="40.2784815" lon="0.3155276"><ele>49.0</ele><time>2026-05-01T13:32:58.999Z</time></trkpt><trkpt lat="40.2784059" lon="0.3153863"><ele>49.5</ele><time>2026-05-01T13:32:59.999Z</time></trkpt><trkpt lat="40.2783066" lon="0.3152513"><ele>50.0</ele><time>2026-05-01T13:33:01Z</time></trkpt><trkpt lat="40.2782087" lon="0.3151346"><ele>50.0</ele><time>2026-05-01T13:33:01.999Z</time></trkpt><trkpt lat="40.278124" lon="0.3150424"><ele>50.0</ele><time>2026-05-01T13:33:02.999Z</time></trkpt><trkpt lat="40.2780615" lon="0.3149496"><ele>50.0</ele><time>2026-05-01T13:33:03.999Z</time></trkpt><trkpt lat="40.2780137" lon="0.314848"><ele>50.0</ele><time>2026-05-01T13:33:05Z</time></trkpt><trkpt lat="40.2780023" lon="0.3147309"><ele>50.0</ele><time>2026-05-01T13:33:06Z</time></trkpt><trkpt lat="40.277981" lon="0.3145915"><ele>49.2</ele><time>2026-05-01T13:33:07Z</time></trkpt><trkpt lat="40.277957" lon="0.3144536"><ele>48.4</ele><time>2026-05-01T13:33:07.999Z</time></trkpt><trkpt lat="40.277948" lon="0.3143195"><ele>47.599999999999994</ele><time>2026-05-01T13:33:08.999Z</time></trkpt><trkpt lat="40.2779619" lon="0.3141972"><ele>46.8</ele><time>2026-05-01T13:33:09.999Z</time></trkpt><trkpt lat="40.2779883" lon="0.3140727"><ele>46.0</ele><time>2026-05-01T13:33:11Z</time></trkpt><trkpt lat="40.2780205" lon="0.3139621"><ele>46.285714285714285</ele><time>2026-05-01T13:33:12Z</time></trkpt><trkpt lat="40.2780317" lon="0.3138539"><ele>46.57142857142857</ele><time>2026-05-01T13:33:12.999Z</time></trkpt><trkpt lat="40.2780279" lon="0.3137533"><ele>46.857142857142854</ele><time>2026-05-01T13:33:13.999Z</time></trkpt><trkpt lat="40.2780129" lon="0.3136563"><ele>47.14285714285714</ele><time>2026-05-01T13:33:15Z</time></trkpt><trkpt lat="40.2779808" lon="0.3135781"><ele>47.42857142857143</ele><time>2026-05-01T13:33:16Z</time></trkpt><trkpt lat="40.2779258" lon="0.3135296"><ele>47.71428571428571</ele><time>2026-05-01T13:33:16.999Z</time></trkpt><trkpt lat="40.2778717" lon="0.3134795"><ele>48.0</ele><time>2026-05-01T13:33:17.999Z</time></trkpt><trkpt lat="40.2778203" lon="0.313412"><ele>48.0</ele><time>2026-05-01T13:33:18.999Z</time></trkpt><trkpt lat="40.2777747" lon="0.3133379"><ele>48.0</ele><time>2026-05-01T13:33:19.999Z</time></trkpt><trkpt lat="40.2777424" lon="0.3132605"><ele>48.0</ele><time>2026-05-01T13:33:20.999Z</time></trkpt><trkpt lat="40.2777256" lon="0.3131728"><ele>48.0</ele><time>2026-05-01T13:33:21.999Z</time></trkpt><trkpt lat="40.277702" lon="0.313086"><ele>48.0</ele><time>2026-05-01T13:33:22.999Z</time></trkpt><trkpt lat="40.2776667" lon="0.3129953"><ele>48.0</ele><time>2026-05-01T13:33:24Z</time></trkpt><trkpt lat="40.277596" lon="0.3128981"><ele>48.25</ele><time>2026-05-01T13:33:24.999Z</time></trkpt><trkpt lat="40.277528" lon="0.3128069"><ele>48.5</ele><time>2026-05-01T13:33:25.999Z</time></trkpt><trkpt lat="40.2774307" lon="0.3127039"><ele>48.75</ele><time>2026-05-01T13:33:27Z</time></trkpt><trkpt lat="40.2773279" lon="0.3125944"><ele>49.0</ele><time>2026-05-01T13:33:28Z</time></trkpt><trkpt lat="40.2772292" lon="0.3125033"><ele>48.5</ele><time>2026-05-01T13:33:28.999Z</time></trkpt><trkpt lat="40.2771351" lon="0.3124095"><ele>48.0</ele><time>2026-05-01T13:33:29.999Z</time></trkpt><trkpt lat="40.2770547" lon="0.3123075"><ele>47.5</ele><time>2026-05-01T13:33:30.999Z</time></trkpt><trkpt lat="40.2769823" lon="0.3121921"><ele>47.0</ele><time>2026-05-01T13:33:31.999Z</time></trkpt><trkpt lat="40.2769266" lon="0.3120659"><ele>47.0</ele><time>2026-05-01T13:33:33Z</time></trkpt><trkpt lat="40.27688" lon="0.3119469"><ele>47.0</ele><time>2026-05-01T13:33:33.999Z</time></trkpt><trkpt lat="40.2768412" lon="0.3118359"><ele>47.0</ele><time>2026-05-01T13:33:35Z</time></trkpt><trkpt lat="40.276797" lon="0.3117353"><ele>47.0</ele><time>2026-05-01T13:33:35.999Z</time></trkpt><trkpt lat="40.2767438" lon="0.3116646"><ele>47.0</ele><time>2026-05-01T13:33:36.999Z</time></trkpt><trkpt lat="40.2766813" lon="0.3116085"><ele>47.0</ele><time>2026-05-01T13:33:38Z</time></trkpt><trkpt lat="40.2766063" lon="0.3115809"><ele>47.0</ele><time>2026-05-01T13:33:39Z</time></trkpt><trkpt lat="40.2765314" lon="0.3115806"><ele>47.0</ele><time>2026-05-01T13:33:39.999Z</time></trkpt><trkpt lat="40.2764634" lon="0.3115958"><ele>47.0</ele><time>2026-05-01T13:33:41Z</time></trkpt><trkpt lat="40.2763966" lon="0.3116344"><ele>47.0</ele><time>2026-05-01T13:33:42Z</time></trkpt><trkpt lat="40.2763273" lon="0.3116789"><ele>47.0</ele><time>2026-05-01T13:33:43Z</time></trkpt><trkpt lat="40.2762487" lon="0.3117234"><ele>47.0</ele><time>2026-05-01T13:33:43.999Z</time></trkpt><trkpt lat="40.2761527" lon="0.3117533"><ele>45.75</ele><time>2026-05-01T13:33:45Z</time></trkpt><trkpt lat="40.2760447" lon="0.3117655"><ele>44.5</ele><time>2026-05-01T13:33:45.999Z</time></trkpt><trkpt lat="40.2759195" lon="0.3117563"><ele>43.25</ele><time>2026-05-01T13:33:46.999Z</time></trkpt><trkpt lat="40.2757912" lon="0.3117599"><ele>42.0</ele><time>2026-05-01T13:33:47.999Z</time></trkpt><trkpt lat="40.275664" lon="0.3117564"><ele>40.75</ele><time>2026-05-01T13:33:48.999Z</time></trkpt><trkpt lat="40.2755433" lon="0.3117544"><ele>39.5</ele><time>2026-05-01T13:33:50Z</time></trkpt><trkpt lat="40.2754239" lon="0.3117545"><ele>38.25</ele><time>2026-05-01T13:33:50.999Z</time></trkpt><trkpt lat="40.2753103" lon="0.3117455"><ele>37.0</ele><time>2026-05-01T13:33:52Z</time></trkpt><trkpt lat="40.2751835" lon="0.3117351"><ele>37.0</ele><time>2026-05-01T13:33:52.999Z</time></trkpt><trkpt lat="40.2750572" lon="0.3117223"><ele>37.0</ele><time>2026-05-01T13:33:53.999Z</time></trkpt><trkpt lat="40.2749373" lon="0.3117076"><ele>37.0</ele><time>2026-05-01T13:33:54.999Z</time></trkpt><trkpt lat="40.2748264" lon="0.3116674"><ele>37.0</ele><time>2026-05-01T13:33:55.999Z</time></trkpt><trkpt lat="40.2747191" lon="0.3116259"><ele>35.5</ele><time>2026-05-01T13:33:56.999Z</time></trkpt><trkpt lat="40.2746265" lon="0.3115462"><ele>34.0</ele><time>2026-05-01T13:33:58Z</time></trkpt><trkpt lat="40.2745463" lon="0.3114343"><ele>32.5</ele><time>2026-05-01T13:33:58.999Z</time></trkpt><trkpt lat="40.27446" lon="0.3113326"><ele>31.0</ele><time>2026-05-01T13:33:59.999Z</time></trkpt><trkpt lat="40.2743685" lon="0.3112491"><ele>31.0</ele><time>2026-05-01T13:34:00.999Z</time></trkpt><trkpt lat="40.2742834" lon="0.3111689"><ele>31.0</ele><time>2026-05-01T13:34:01.999Z</time></trkpt><trkpt lat="40.274209" lon="0.3110847"><ele>31.0</ele><time>2026-05-01T13:34:03Z</time></trkpt><trkpt lat="40.2741327" lon="0.3109831"><ele>31.0</ele><time>2026-05-01T13:34:04Z</time></trkpt><trkpt lat="40.2740735" lon="0.3108779"><ele>31.0</ele><time>2026-05-01T13:34:04.999Z</time></trkpt><trkpt lat="40.2740224" lon="0.3107516"><ele>31.0</ele><time>2026-05-01T13:34:05.999Z</time></trkpt><trkpt lat="40.2739921" lon="0.3106152"><ele>31.0</ele><time>2026-05-01T13:34:07Z</time></trkpt><trkpt lat="40.273994" lon="0.3104908"><ele>31.0</ele><time>2026-05-01T13:34:07.999Z</time></trkpt><trkpt lat="40.2739798" lon="0.3103639"><ele>31.0</ele><time>2026-05-01T13:34:08.999Z</time></trkpt><trkpt lat="40.2739529" lon="0.3102448"><ele>31.0</ele><time>2026-05-01T13:34:09.999Z</time></trkpt><trkpt lat="40.2738843" lon="0.3101189"><ele>31.0</ele><time>2026-05-01T13:34:10.999Z</time></trkpt><trkpt lat="40.2738017" lon="0.3099917"><ele>31.0</ele><time>2026-05-01T13:34:11.999Z</time></trkpt><trkpt lat="40.2737137" lon="0.3098598"><ele>31.0</ele><time>2026-05-01T13:34:12.999Z</time></trkpt><trkpt lat="40.2736236" lon="0.309728"><ele>31.0</ele><time>2026-05-01T13:34:13.999Z</time></trkpt><trkpt lat="40.2735364" lon="0.3095864"><ele>31.0</ele><time>2026-05-01T13:34:14.999Z</time></trkpt><trkpt lat="40.273445" lon="0.30944"><ele>31.0</ele><time>2026-05-01T13:34:15.999Z</time></trkpt><trkpt lat="40.2733483" lon="0.3092861"><ele>31.0</ele><time>2026-05-01T13:34:16.999Z</time></trkpt><trkpt lat="40.273282" lon="0.3091269"><ele>31.0</ele><time>2026-05-01T13:34:17.999Z</time></trkpt><trkpt lat="40.2732231" lon="0.3089784"><ele>31.5</ele><time>2026-05-01T13:34:18.999Z</time></trkpt><trkpt lat="40.2731684" lon="0.3088394"><ele>32.0</ele><time>2026-05-01T13:34:19.999Z</time></trkpt><trkpt lat="40.2731252" lon="0.3087083"><ele>32.5</ele><time>2026-05-01T13:34:21Z</time></trkpt><trkpt lat="40.2730762" lon="0.308569"><ele>33.0</ele><time>2026-05-01T13:34:21.999Z</time></trkpt><trkpt lat="40.2730361" lon="0.3084139"><ele>33.0</ele><time>2026-05-01T13:34:23Z</time></trkpt><trkpt lat="40.2729921" lon="0.3082695"><ele>33.0</ele><time>2026-05-01T13:34:23.999Z</time></trkpt><trkpt lat="40.2729461" lon="0.3081298"><ele>33.0</ele><time>2026-05-01T13:34:24.999Z</time></trkpt><trkpt lat="40.2729038" lon="0.3079757"><ele>33.0</ele><time>2026-05-01T13:34:25.999Z</time></trkpt><trkpt lat="40.2728751" lon="0.307837"><ele>33.25</ele><time>2026-05-01T13:34:27Z</time></trkpt><trkpt lat="40.2728684" lon="0.3076882"><ele>33.5</ele><time>2026-05-01T13:34:27.999Z</time></trkpt><trkpt lat="40.2728696" lon="0.3075286"><ele>33.75</ele><time>2026-05-01T13:34:28.999Z</time></trkpt><trkpt lat="40.2728908" lon="0.3073691"><ele>34.0</ele><time>2026-05-01T13:34:29.999Z</time></trkpt><trkpt lat="40.2728979" lon="0.307189"><ele>35.0</ele><time>2026-05-01T13:34:31Z</time></trkpt><trkpt lat="40.272876" lon="0.3070332"><ele>36.0</ele><time>2026-05-01T13:34:31.999Z</time></trkpt><trkpt lat="40.2728325" lon="0.3068764"><ele>37.0</ele><time>2026-05-01T13:34:33Z</time></trkpt><trkpt lat="40.2727771" lon="0.3067178"><ele>38.0</ele><time>2026-05-01T13:34:34Z</time></trkpt><trkpt lat="40.2727068" lon="0.306573"><ele>38.0</ele><time>2026-05-01T13:34:35Z</time></trkpt><trkpt lat="40.2726151" lon="0.3064417"><ele>38.0</ele><time>2026-05-01T13:34:35.999Z</time></trkpt><trkpt lat="40.2725032" lon="0.3063098"><ele>38.0</ele><time>2026-05-01T13:34:37Z</time></trkpt><trkpt lat="40.2723854" lon="0.306222"><ele>38.0</ele><time>2026-05-01T13:34:37.999Z</time></trkpt><trkpt lat="40.2722621" lon="0.3061298"><ele>36.5</ele><time>2026-05-01T13:34:39Z</time></trkpt><trkpt lat="40.2721435" lon="0.3060393"><ele>35.0</ele><time>2026-05-01T13:34:40Z</time></trkpt><trkpt lat="40.2720427" lon="0.3059362"><ele>33.5</ele><time>2026-05-01T13:34:40.999Z</time></trkpt><trkpt lat="40.2719461" lon="0.3058153"><ele>32.0</ele><time>2026-05-01T13:34:42Z</time></trkpt><trkpt lat="40.271842" lon="0.3057097"><ele>32.0</ele><time>2026-05-01T13:34:42.999Z</time></trkpt><trkpt lat="40.2717469" lon="0.3056095"><ele>32.0</ele><time>2026-05-01T13:34:44Z</time></trkpt><trkpt lat="40.2716478" lon="0.3055032"><ele>32.0</ele><time>2026-05-01T13:34:44.999Z</time></trkpt><trkpt lat="40.2715499" lon="0.3054013"><ele>32.0</ele><time>2026-05-01T13:34:45.999Z</time></trkpt><trkpt lat="40.2714575" lon="0.305299"><ele>31.5</ele><time>2026-05-01T13:34:47Z</time></trkpt><trkpt lat="40.2713762" lon="0.3051723"><ele>31.0</ele><time>2026-05-01T13:34:47.999Z</time></trkpt><trkpt lat="40.2712964" lon="0.3050438"><ele>30.5</ele><time>2026-05-01T13:34:48.999Z</time></trkpt><trkpt lat="40.2712226" lon="0.3049152"><ele>30.0</ele><time>2026-05-01T13:34:49.999Z</time></trkpt><trkpt lat="40.2711485" lon="0.3047966"><ele>30.5</ele><time>2026-05-01T13:34:50.999Z</time></trkpt><trkpt lat="40.2710595" lon="0.3046966"><ele>31.0</ele><time>2026-05-01T13:34:51.999Z</time></trkpt><trkpt lat="40.2709542" lon="0.3046174"><ele>31.5</ele><time>2026-05-01T13:34:52.999Z</time></trkpt><trkpt lat="40.2708458" lon="0.304572"><ele>32.0</ele><time>2026-05-01T13:34:53.999Z</time></trkpt><trkpt lat="40.2707458" lon="0.3045178"><ele>32.0</ele><time>2026-05-01T13:34:54.999Z</time></trkpt><trkpt lat="40.2706514" lon="0.3044565"><ele>32.0</ele><time>2026-05-01T13:34:56Z</time></trkpt><trkpt lat="40.2705789" lon="0.3043627"><ele>32.0</ele><time>2026-05-01T13:34:56.999Z</time></trkpt><trkpt lat="40.2705078" lon="0.3042693"><ele>32.0</ele><time>2026-05-01T13:34:57.999Z</time></trkpt><trkpt lat="40.2704397" lon="0.3041358"><ele>32.0</ele><time>2026-05-01T13:34:58.999Z</time></trkpt><trkpt lat="40.2703686" lon="0.304008"><ele>32.75</ele><time>2026-05-01T13:34:59.999Z</time></trkpt><trkpt lat="40.2702921" lon="0.3038747"><ele>33.5</ele><time>2026-05-01T13:35:01Z</time></trkpt><trkpt lat="40.2701924" lon="0.3037417"><ele>34.25</ele><time>2026-05-01T13:35:02Z</time></trkpt><trkpt lat="40.2700855" lon="0.3035992"><ele>35.0</ele><time>2026-05-01T13:35:02.999Z</time></trkpt><trkpt lat="40.2699824" lon="0.3034522"><ele>35.0</ele><time>2026-05-01T13:35:03.999Z</time></trkpt><trkpt lat="40.2698619" lon="0.3032911"><ele>35.0</ele><time>2026-05-01T13:35:05Z</time></trkpt><trkpt lat="40.2697419" lon="0.3031485"><ele>35.0</ele><time>2026-05-01T13:35:06Z</time></trkpt><trkpt lat="40.269625" lon="0.3029895"><ele>36.33333333333333</ele><time>2026-05-01T13:35:07Z</time></trkpt><trkpt lat="40.2695193" lon="0.3028407"><ele>37.666666666666664</ele><time>2026-05-01T13:35:07.999Z</time></trkpt><trkpt lat="40.2694113" lon="0.3027049"><ele>39.0</ele><time>2026-05-01T13:35:08.999Z</time></trkpt><trkpt lat="40.2692991" lon="0.3025666"><ele>39.0</ele><time>2026-05-01T13:35:09.999Z</time></trkpt><trkpt lat="40.2692031" lon="0.3024511"><ele>39.0</ele><time>2026-05-01T13:35:11Z</time></trkpt><trkpt lat="40.2690962" lon="0.3023325"><ele>39.0</ele><time>2026-05-01T13:35:11.999Z</time></trkpt><trkpt lat="40.2689895" lon="0.302205"><ele>39.0</ele><time>2026-05-01T13:35:12.999Z</time></trkpt><trkpt lat="40.2688677" lon="0.3020844"><ele>39.5</ele><time>2026-05-01T13:35:13.999Z</time></trkpt><trkpt lat="40.2687249" lon="0.3019806"><ele>40.0</ele><time>2026-05-01T13:35:14.999Z</time></trkpt><trkpt lat="40.2685955" lon="0.3019035"><ele>40.5</ele><time>2026-05-01T13:35:16Z</time></trkpt><trkpt lat="40.2684706" lon="0.3018362"><ele>41.0</ele><time>2026-05-01T13:35:17Z</time></trkpt><trkpt lat="40.2683514" lon="0.3017598"><ele>41.0</ele><time>2026-05-01T13:35:17.999Z</time></trkpt><trkpt lat="40.268231" lon="0.3016711"><ele>41.0</ele><time>2026-05-01T13:35:18.999Z</time></trkpt><trkpt lat="40.2681133" lon="0.3015776"><ele>41.0</ele><time>2026-05-01T13:35:19.999Z</time></trkpt><trkpt lat="40.2680091" lon="0.3014667"><ele>41.0</ele><time>2026-05-01T13:35:20.999Z</time></trkpt><trkpt lat="40.2679212" lon="0.3013388"><ele>40.75</ele><time>2026-05-01T13:35:21.999Z</time></trkpt><trkpt lat="40.26784" lon="0.3012179"><ele>40.5</ele><time>2026-05-01T13:35:22.999Z</time></trkpt><trkpt lat="40.2677572" lon="0.3010956"><ele>40.25</ele><time>2026-05-01T13:35:23.999Z</time></trkpt><trkpt lat="40.2676635" lon="0.3009735"><ele>40.0</ele><time>2026-05-01T13:35:25Z</time></trkpt><trkpt lat="40.2675416" lon="0.3008773"><ele>40.0</ele><time>2026-05-01T13:35:25.999Z</time></trkpt><trkpt lat="40.2674177" lon="0.3007874"><ele>40.0</ele><time>2026-05-01T13:35:27Z</time></trkpt><trkpt lat="40.2672818" lon="0.3006935"><ele>40.0</ele><time>2026-05-01T13:35:28Z</time></trkpt><trkpt lat="40.2671477" lon="0.3006094"><ele>40.0</ele><time>2026-05-01T13:35:29Z</time></trkpt><trkpt lat="40.2670094" lon="0.3005329"><ele>40.5</ele><time>2026-05-01T13:35:29.999Z</time></trkpt><trkpt lat="40.266879" lon="0.3004703"><ele>41.0</ele><time>2026-05-01T13:35:30.999Z</time></trkpt><trkpt lat="40.2667552" lon="0.3003861"><ele>41.5</ele><time>2026-05-01T13:35:31.999Z</time></trkpt><trkpt lat="40.2666211" lon="0.300297"><ele>42.0</ele><time>2026-05-01T13:35:33Z</time></trkpt><trkpt lat="40.2665066" lon="0.3001987"><ele>41.0</ele><time>2026-05-01T13:35:34Z</time></trkpt><trkpt lat="40.2663933" lon="0.3001061"><ele>40.0</ele><time>2026-05-01T13:35:35Z</time></trkpt><trkpt lat="40.2662819" lon="0.300013"><ele>39.0</ele><time>2026-05-01T13:35:35.999Z</time></trkpt><trkpt lat="40.2661777" lon="0.2999243"><ele>38.0</ele><time>2026-05-01T13:35:36.999Z</time></trkpt><trkpt lat="40.2660786" lon="0.2998529"><ele>38.0</ele><time>2026-05-01T13:35:37.999Z</time></trkpt><trkpt lat="40.2659617" lon="0.2998078"><ele>38.0</ele><time>2026-05-01T13:35:38.999Z</time></trkpt><trkpt lat="40.2658382" lon="0.2997677"><ele>38.0</ele><time>2026-05-01T13:35:39.999Z</time></trkpt><trkpt lat="40.2656957" lon="0.2997603"><ele>38.0</ele><time>2026-05-01T13:35:41Z</time></trkpt><trkpt lat="40.2655516" lon="0.2997548"><ele>37.0</ele><time>2026-05-01T13:35:41.999Z</time></trkpt><trkpt lat="40.2654083" lon="0.2997526"><ele>36.0</ele><time>2026-05-01T13:35:43Z</time></trkpt><trkpt lat="40.265265" lon="0.2997718"><ele>35.0</ele><time>2026-05-01T13:35:44Z</time></trkpt><trkpt lat="40.2651317" lon="0.2997885"><ele>34.0</ele><time>2026-05-01T13:35:44.999Z</time></trkpt><trkpt lat="40.2650284" lon="0.2997842"><ele>34.2</ele><time>2026-05-01T13:35:46Z</time></trkpt><trkpt lat="40.2649327" lon="0.2997466"><ele>34.4</ele><time>2026-05-01T13:35:46.999Z</time></trkpt><trkpt lat="40.2648363" lon="0.2996681"><ele>34.6</ele><time>2026-05-01T13:35:47.999Z</time></trkpt><trkpt lat="40.2647525" lon="0.299561"><ele>34.8</ele><time>2026-05-01T13:35:48.999Z</time></trkpt><trkpt lat="40.2646628" lon="0.2994605"><ele>35.0</ele><time>2026-05-01T13:35:49.999Z</time></trkpt><trkpt lat="40.2645628" lon="0.2993755"><ele>35.0</ele><time>2026-05-01T13:35:50.999Z</time></trkpt><trkpt lat="40.2644337" lon="0.2992965"><ele>35.0</ele><time>2026-05-01T13:35:52Z</time></trkpt><trkpt lat="40.264281" lon="0.2992156"><ele>35.0</ele><time>2026-05-01T13:35:52.999Z</time></trkpt><trkpt lat="40.2640829" lon="0.2991599"><ele>32.666666666666664</ele><time>2026-05-01T13:35:53.999Z</time></trkpt><trkpt lat="40.2638782" lon="0.2990904"><ele>30.333333333333336</ele><time>2026-05-01T13:35:54.999Z</time></trkpt><trkpt lat="40.2636707" lon="0.2990259"><ele>28.0</ele><time>2026-05-01T13:35:55.999Z</time></trkpt><trkpt lat="40.263472" lon="0.2989724"><ele>28.0</ele><time>2026-05-01T13:35:56.999Z</time></trkpt><trkpt lat="40.2632774" lon="0.2989245"><ele>28.0</ele><time>2026-05-01T13:35:57.999Z</time></trkpt><trkpt lat="40.263089" lon="0.2988738"><ele>28.0</ele><time>2026-05-01T13:35:58.999Z</time></trkpt><trkpt lat="40.2628884" lon="0.2988192"><ele>27.666666666666668</ele><time>2026-05-01T13:35:59.999Z</time></trkpt><trkpt lat="40.2627239" lon="0.2987617"><ele>27.333333333333336</ele><time>2026-05-01T13:36:00.999Z</time></trkpt><trkpt lat="40.2625715" lon="0.2987018"><ele>27.0</ele><time>2026-05-01T13:36:02Z</time></trkpt><trkpt lat="40.2624282" lon="0.2986326"><ele>27.0</ele><time>2026-05-01T13:36:02.999Z</time></trkpt><trkpt lat="40.2622896" lon="0.2985714"><ele>27.0</ele><time>2026-05-01T13:36:03.999Z</time></trkpt><trkpt lat="40.2621621" lon="0.2984902"><ele>27.0</ele><time>2026-05-01T13:36:05Z</time></trkpt><trkpt lat="40.2620512" lon="0.2983922"><ele>27.0</ele><time>2026-05-01T13:36:05.999Z</time></trkpt><trkpt lat="40.2619419" lon="0.2982997"><ele>25.75</ele><time>2026-05-01T13:36:06.999Z</time></trkpt><trkpt lat="40.2618568" lon="0.2981953"><ele>24.5</ele><time>2026-05-01T13:36:07.999Z</time></trkpt><trkpt lat="40.261763" lon="0.2980959"><ele>23.25</ele><time>2026-05-01T13:36:09Z</time></trkpt><trkpt lat="40.2616702" lon="0.2980127"><ele>22.0</ele><time>2026-05-01T13:36:10Z</time></trkpt><trkpt lat="40.2615616" lon="0.2979611"><ele>22.0</ele><time>2026-05-01T13:36:10.999Z</time></trkpt><trkpt lat="40.2614555" lon="0.29793"><ele>22.0</ele><time>2026-05-01T13:36:12Z</time></trkpt><trkpt lat="40.2613471" lon="0.2979052"><ele>22.0</ele><time>2026-05-01T13:36:12.999Z</time></trkpt><trkpt lat="40.2612472" lon="0.2978489"><ele>22.0</ele><time>2026-05-01T13:36:13.999Z</time></trkpt><trkpt lat="40.2611515" lon="0.2977686"><ele>22.0</ele><time>2026-05-01T13:36:14.999Z</time></trkpt><trkpt lat="40.2610542" lon="0.2976798"><ele>20.0</ele><time>2026-05-01T13:36:15.999Z</time></trkpt><trkpt lat="40.2609546" lon="0.2975887"><ele>18.0</ele><time>2026-05-01T13:36:16.999Z</time></trkpt><trkpt lat="40.2608574" lon="0.2975053"><ele>16.0</ele><time>2026-05-01T13:36:17.999Z</time></trkpt><trkpt lat="40.2607602" lon="0.2974169"><ele>14.0</ele><time>2026-05-01T13:36:19Z</time></trkpt><trkpt lat="40.2606722" lon="0.297341"><ele>13.399999999999999</ele><time>2026-05-01T13:36:19.999Z</time></trkpt><trkpt lat="40.2605939" lon="0.2972703"><ele>12.799999999999999</ele><time>2026-05-01T13:36:21Z</time></trkpt><trkpt lat="40.2605114" lon="0.2971956"><ele>12.2</ele><time>2026-05-01T13:36:21.999Z</time></trkpt><trkpt lat="40.2604291" lon="0.2971378"><ele>11.600000000000001</ele><time>2026-05-01T13:36:22.999Z</time></trkpt><trkpt lat="40.2603531" lon="0.2970759"><ele>11.0</ele><time>2026-05-01T13:36:24Z</time></trkpt><trkpt lat="40.2602748" lon="0.2970182"><ele>11.0</ele><time>2026-05-01T13:36:24.999Z</time></trkpt><trkpt lat="40.2601997" lon="0.2969638"><ele>11.0</ele><time>2026-05-01T13:36:25.999Z</time></trkpt><trkpt lat="40.2601263" lon="0.2969149"><ele>11.0</ele><time>2026-05-01T13:36:26.999Z</time></trkpt><trkpt lat="40.2600502" lon="0.2968762"><ele>11.0</ele><time>2026-05-01T13:36:28Z</time></trkpt><trkpt lat="40.2599739" lon="0.2968256"><ele>11.0</ele><time>2026-05-01T13:36:28.999Z</time></trkpt><trkpt lat="40.2598995" lon="0.2967733"><ele>11.0</ele><time>2026-05-01T13:36:29.999Z</time></trkpt><trkpt lat="40.2598331" lon="0.2967149"><ele>10.833333333333332</ele><time>2026-05-01T13:36:31Z</time></trkpt><trkpt lat="40.2597643" lon="0.2966566"><ele>10.666666666666666</ele><time>2026-05-01T13:36:31.999Z</time></trkpt><trkpt lat="40.2597067" lon="0.2965981"><ele>10.5</ele><time>2026-05-01T13:36:32.999Z</time></trkpt><trkpt lat="40.2596537" lon="0.2965408"><ele>10.333333333333334</ele><time>2026-05-01T13:36:33.999Z</time></trkpt><trkpt lat="40.2595994" lon="0.2964779"><ele>10.166666666666668</ele><time>2026-05-01T13:36:34.999Z</time></trkpt><trkpt lat="40.2595456" lon="0.2964216"><ele>10.0</ele><time>2026-05-01T13:36:35.999Z</time></trkpt><trkpt lat="40.2594439" lon="0.296322"><ele>10.0</ele><time>2026-05-01T13:36:37.999Z</time></trkpt><trkpt lat="40.2593751" lon="0.2962899"><ele>10.0</ele><time>2026-05-01T13:36:39Z</time></trkpt><trkpt lat="40.2593072" lon="0.2962812"><ele>10.0</ele><time>2026-05-01T13:36:40Z</time></trkpt><trkpt lat="40.2592351" lon="0.2962753"><ele>10.0</ele><time>2026-05-01T13:36:40.999Z</time></trkpt><trkpt lat="40.2591254" lon="0.2962553"><ele>10.0</ele><time>2026-05-01T13:36:42.999Z</time></trkpt><trkpt lat="40.2590641" lon="0.2962269"><ele>10.0</ele><time>2026-05-01T13:36:44.999Z</time></trkpt><trkpt lat="40.2589911" lon="0.2962127"><ele>10.0</ele><time>2026-05-01T13:36:47.999Z</time></trkpt><trkpt lat="40.25898" lon="0.296309"><ele>10.0</ele><time>2026-05-01T13:36:50.999Z</time></trkpt><trkpt lat="40.2589934" lon="0.2963965"><ele>10.0</ele><time>2026-05-01T13:36:53.999Z</time></trkpt><trkpt lat="40.2590187" lon="0.2964788"><ele>10.0</ele><time>2026-05-01T13:36:55Z</time></trkpt><trkpt lat="40.2590438" lon="0.2965747"><ele>10.0</ele><time>2026-05-01T13:36:55.999Z</time></trkpt><trkpt lat="40.259081" lon="0.2966927"><ele>10.0</ele><time>2026-05-01T13:36:56.999Z</time></trkpt><trkpt lat="40.2591304" lon="0.2968196"><ele>9.5</ele><time>2026-05-01T13:36:57.999Z</time></trkpt><trkpt lat="40.2592017" lon="0.2969578"><ele>9.0</ele><time>2026-05-01T13:36:58.999Z</time></trkpt><trkpt lat="40.259299" lon="0.2971021"><ele>8.5</ele><time>2026-05-01T13:37:00Z</time></trkpt><trkpt lat="40.259386" lon="0.2972525"><ele>8.0</ele><time>2026-05-01T13:37:00.999Z</time></trkpt><trkpt lat="40.2594617" lon="0.2974099"><ele>7.0</ele><time>2026-05-01T13:37:01.999Z</time></trkpt><trkpt lat="40.2595342" lon="0.2975581"><ele>6.0</ele><time>2026-05-01T13:37:03Z</time></trkpt><trkpt lat="40.2596017" lon="0.2976922"><ele>5.0</ele><time>2026-05-01T13:37:04Z</time></trkpt><trkpt lat="40.2596714" lon="0.2978292"><ele>4.0</ele><time>2026-05-01T13:37:04.999Z</time></trkpt><trkpt lat="40.259731" lon="0.297964"><ele>3.5</ele><time>2026-05-01T13:37:05.999Z</time></trkpt><trkpt lat="40.2597817" lon="0.2981093"><ele>3.0</ele><time>2026-05-01T13:37:06.999Z</time></trkpt><trkpt lat="40.2598303" lon="0.298265"><ele>2.5</ele><time>2026-05-01T13:37:07.999Z</time></trkpt><trkpt lat="40.2598788" lon="0.2984138"><ele>2.0</ele><time>2026-05-01T13:37:08.999Z</time></trkpt><trkpt lat="40.259922" lon="0.298557"><ele>3.25</ele><time>2026-05-01T13:37:10Z</time></trkpt><trkpt lat="40.2599662" lon="0.2986951"><ele>4.5</ele><time>2026-05-01T13:37:10.999Z</time></trkpt><trkpt lat="40.2600077" lon="0.2988262"><ele>5.75</ele><time>2026-05-01T13:37:11.999Z</time></trkpt><trkpt lat="40.2600454" lon="0.298963"><ele>7.0</ele><time>2026-05-01T13:37:12.999Z</time></trkpt><trkpt lat="40.2600868" lon="0.299111"><ele>7.0</ele><time>2026-05-01T13:37:13.999Z</time></trkpt><trkpt lat="40.2601133" lon="0.2992634"><ele>6.999999999999999</ele><time>2026-05-01T13:37:15Z</time></trkpt><trkpt lat="40.2601399" lon="0.2994032"><ele>6.999999999999999</ele><time>2026-05-01T13:37:15.999Z</time></trkpt><trkpt lat="40.2601657" lon="0.2995473"><ele>7.0</ele><time>2026-05-01T13:37:17Z</time></trkpt><trkpt lat="40.2601882" lon="0.2996634"><ele>7.0</ele><time>2026-05-01T13:37:18Z</time></trkpt><trkpt lat="40.2602085" lon="0.2997718"><ele>7.3999999999999995</ele><time>2026-05-01T13:37:18.999Z</time></trkpt><trkpt lat="40.2602292" lon="0.2998824"><ele>7.799999999999999</ele><time>2026-05-01T13:37:19.999Z</time></trkpt><trkpt lat="40.260246" lon="0.2999945"><ele>8.2</ele><time>2026-05-01T13:37:21Z</time></trkpt><trkpt lat="40.260265" lon="0.3001157"><ele>8.6</ele><time>2026-05-01T13:37:22Z</time></trkpt><trkpt lat="40.2602857" lon="0.3002413"><ele>9.0</ele><time>2026-05-01T13:37:23Z</time></trkpt><trkpt lat="40.2603129" lon="0.3003732"><ele>9.0</ele><time>2026-05-01T13:37:23.999Z</time></trkpt><trkpt lat="40.2603362" lon="0.3005054"><ele>9.0</ele><time>2026-05-01T13:37:24.999Z</time></trkpt><trkpt lat="40.2603625" lon="0.3006503"><ele>9.0</ele><time>2026-05-01T13:37:26Z</time></trkpt><trkpt lat="40.2603755" lon="0.3007794"><ele>9.0</ele><time>2026-05-01T13:37:26.999Z</time></trkpt><trkpt lat="40.2603936" lon="0.3009116"><ele>9.0</ele><time>2026-05-01T13:37:27.999Z</time></trkpt><trkpt lat="40.2604048" lon="0.301025"><ele>8.8</ele><time>2026-05-01T13:37:29Z</time></trkpt><trkpt lat="40.2604141" lon="0.3011452"><ele>8.600000000000001</ele><time>2026-05-01T13:37:30Z</time></trkpt><trkpt lat="40.2604248" lon="0.3012752"><ele>8.4</ele><time>2026-05-01T13:37:30.999Z</time></trkpt><trkpt lat="40.2604355" lon="0.3013963"><ele>8.200000000000001</ele><time>2026-05-01T13:37:31.999Z</time></trkpt><trkpt lat="40.2604327" lon="0.3015385"><ele>8.0</ele><time>2026-05-01T13:37:33Z</time></trkpt><trkpt lat="40.2604318" lon="0.301673"><ele>7.6000000000000005</ele><time>2026-05-01T13:37:33.999Z</time></trkpt><trkpt lat="40.2604434" lon="0.3017959"><ele>7.200000000000001</ele><time>2026-05-01T13:37:34.999Z</time></trkpt><trkpt lat="40.2604449" lon="0.3019203"><ele>6.8</ele><time>2026-05-01T13:37:35.999Z</time></trkpt><trkpt lat="40.2604428" lon="0.3020343"><ele>6.4</ele><time>2026-05-01T13:37:36.999Z</time></trkpt><trkpt lat="40.2604465" lon="0.3021649"><ele>6.0</ele><time>2026-05-01T13:37:38Z</time></trkpt><trkpt lat="40.2604516" lon="0.3022847"><ele>5.833333333333333</ele><time>2026-05-01T13:37:38.999Z</time></trkpt><trkpt lat="40.2604571" lon="0.3024013"><ele>5.666666666666667</ele><time>2026-05-01T13:37:40Z</time></trkpt><trkpt lat="40.260467" lon="0.3025007"><ele>5.5</ele><time>2026-05-01T13:37:40.999Z</time></trkpt><trkpt lat="40.2604798" lon="0.3026059"><ele>5.333333333333334</ele><time>2026-05-01T13:37:41.999Z</time></trkpt><trkpt lat="40.2604911" lon="0.3026963"><ele>5.166666666666667</ele><time>2026-05-01T13:37:42.999Z</time></trkpt><trkpt lat="40.2605023" lon="0.302785"><ele>5.0</ele><time>2026-05-01T13:37:44Z</time></trkpt><trkpt lat="40.2604988" lon="0.3028744"><ele>5.0</ele><time>2026-05-01T13:37:45.999Z</time></trkpt><trkpt lat="40.2604542" lon="0.3029575"><ele>5.0</ele><time>2026-05-01T13:37:49Z</time></trkpt><trkpt lat="40.2604081" lon="0.3030218"><ele>5.0</ele><time>2026-05-01T13:37:51Z</time></trkpt><trkpt lat="40.2603675" lon="0.3031143"><ele>5.0</ele><time>2026-05-01T13:37:53Z</time></trkpt><trkpt lat="40.2603339" lon="0.3032014"><ele>5.0</ele><time>2026-05-01T13:37:54.999Z</time></trkpt><trkpt lat="40.2603049" lon="0.3032807"><ele>5.0</ele><time>2026-05-01T13:37:56.999Z</time></trkpt><trkpt lat="40.2602688" lon="0.303388"><ele>4.571428571428571</ele><time>2026-05-01T13:38:00Z</time></trkpt><trkpt lat="40.2602577" lon="0.3034874"><ele>4.142857142857143</ele><time>2026-05-01T13:38:03Z</time></trkpt><trkpt lat="40.2602762" lon="0.3035859"><ele>3.7142857142857144</ele><time>2026-05-01T13:38:06.999Z</time></trkpt><trkpt lat="40.2602746" lon="0.3036723"><ele>3.2857142857142856</ele><time>2026-05-01T13:38:09.999Z</time></trkpt><trkpt lat="40.2602233" lon="0.3036437"><ele>2.8571428571428568</ele><time>2026-05-01T13:47:02.999Z</time></trkpt><trkpt lat="40.2602067" lon="0.3035295"><ele>2.4285714285714284</ele><time>2026-05-01T13:47:05.999Z</time></trkpt><trkpt lat="40.2602175" lon="0.3034363"><ele>2.0</ele><time>2026-05-01T13:47:07.999Z</time></trkpt><trkpt lat="40.2602526" lon="0.3033405"><ele>2.0</ele><time>2026-05-01T13:47:09.999Z</time></trkpt><trkpt lat="40.2602991" lon="0.3032536"><ele>2.0</ele><time>2026-05-01T13:47:11Z</time></trkpt><trkpt lat="40.2603654" lon="0.3031084"><ele>2.0</ele><time>2026-05-01T13:47:13Z</time></trkpt><trkpt lat="40.2604052" lon="0.3030325"><ele>2.0</ele><time>2026-05-01T13:47:13.999Z</time></trkpt><trkpt lat="40.2604675" lon="0.3029255"><ele>2.0</ele><time>2026-05-01T13:47:16Z</time></trkpt><trkpt lat="40.2605098" lon="0.3028289"><ele>2.4285714285714284</ele><time>2026-05-01T13:47:17.999Z</time></trkpt><trkpt lat="40.2605014" lon="0.3027137"><ele>2.8571428571428568</ele><time>2026-05-01T13:47:20Z</time></trkpt><trkpt lat="40.2604865" lon="0.3026308"><ele>3.2857142857142856</ele><time>2026-05-01T13:47:20.999Z</time></trkpt><trkpt lat="40.2604745" lon="0.3025258"><ele>3.7142857142857144</ele><time>2026-05-01T13:47:22Z</time></trkpt><trkpt lat="40.2604712" lon="0.3024433"><ele>4.142857142857143</ele><time>2026-05-01T13:47:22.999Z</time></trkpt><trkpt lat="40.2604622" lon="0.3023463"><ele>4.571428571428571</ele><time>2026-05-01T13:47:24Z</time></trkpt><trkpt lat="40.2604569" lon="0.3022506"><ele>5.0</ele><time>2026-05-01T13:47:25Z</time></trkpt><trkpt lat="40.2604473" lon="0.302153"><ele>5.166666666666667</ele><time>2026-05-01T13:47:25.999Z</time></trkpt><trkpt lat="40.2604381" lon="0.3020468"><ele>5.333333333333334</ele><time>2026-05-01T13:47:27Z</time></trkpt><trkpt lat="40.2604348" lon="0.3019463"><ele>5.5</ele><time>2026-05-01T13:47:27.999Z</time></trkpt><trkpt lat="40.2604306" lon="0.3018126"><ele>5.666666666666667</ele><time>2026-05-01T13:47:30Z</time></trkpt><trkpt lat="40.2604251" lon="0.301724"><ele>5.833333333333333</ele><time>2026-05-01T13:47:33Z</time></trkpt><trkpt lat="40.2604235" lon="0.3015971"><ele>6.0</ele><time>2026-05-01T13:47:52.999Z</time></trkpt><trkpt lat="40.2604114" lon="0.3013896"><ele>6.333333333333333</ele><time>2026-05-01T13:47:54.999Z</time></trkpt><trkpt lat="40.2604075" lon="0.3012845"><ele>6.666666666666666</ele><time>2026-05-01T13:47:56Z</time></trkpt><trkpt lat="40.2603994" lon="0.3011731"><ele>7.0</ele><time>2026-05-01T13:47:56.999Z</time></trkpt><trkpt lat="40.2603956" lon="0.3010551"><ele>7.333333333333333</ele><time>2026-05-01T13:47:57.999Z</time></trkpt><trkpt lat="40.2603897" lon="0.3009444"><ele>7.666666666666666</ele><time>2026-05-01T13:47:59Z</time></trkpt><trkpt lat="40.2603771" lon="0.3008314"><ele>8.0</ele><time>2026-05-01T13:47:59.999Z</time></trkpt><trkpt lat="40.2603668" lon="0.3007314"><ele>7.999999999999999</ele><time>2026-05-01T13:48:01Z</time></trkpt><trkpt lat="40.2603471" lon="0.30063"><ele>8.0</ele><time>2026-05-01T13:48:02Z</time></trkpt><trkpt lat="40.2603357" lon="0.3005477"><ele>8.0</ele><time>2026-05-01T13:48:02.999Z</time></trkpt><trkpt lat="40.2603141" lon="0.3004622"><ele>8.0</ele><time>2026-05-01T13:48:04Z</time></trkpt><trkpt lat="40.2602965" lon="0.3003641"><ele>7.999999999999999</ele><time>2026-05-01T13:48:04.999Z</time></trkpt><trkpt lat="40.260282" lon="0.3002621"><ele>8.0</ele><time>2026-05-01T13:48:06Z</time></trkpt><trkpt lat="40.2602676" lon="0.3001473"><ele>8.200000000000001</ele><time>2026-05-01T13:48:06.999Z</time></trkpt><trkpt lat="40.2602577" lon="0.300042"><ele>8.4</ele><time>2026-05-01T13:48:07.999Z</time></trkpt><trkpt lat="40.2602323" lon="0.2999116"><ele>8.600000000000001</ele><time>2026-05-01T13:48:08.999Z</time></trkpt><trkpt lat="40.2602026" lon="0.2997651"><ele>8.8</ele><time>2026-05-01T13:48:09.999Z</time></trkpt><trkpt lat="40.2601739" lon="0.2996085"><ele>9.0</ele><time>2026-05-01T13:48:11Z</time></trkpt><trkpt lat="40.2601466" lon="0.299452"><ele>9.0</ele><time>2026-05-01T13:48:11.999Z</time></trkpt><trkpt lat="40.2601216" lon="0.299311"><ele>9.0</ele><time>2026-05-01T13:48:12.999Z</time></trkpt><trkpt lat="40.2600921" lon="0.2991724"><ele>9.0</ele><time>2026-05-01T13:48:14Z</time></trkpt><trkpt lat="40.2600625" lon="0.2990312"><ele>9.0</ele><time>2026-05-01T13:48:14.999Z</time></trkpt><trkpt lat="40.2600231" lon="0.2988906"><ele>9.0</ele><time>2026-05-01T13:48:16Z</time></trkpt><trkpt lat="40.259985" lon="0.2987432"><ele>9.0</ele><time>2026-05-01T13:48:16.999Z</time></trkpt><trkpt lat="40.2599445" lon="0.2986132"><ele>9.0</ele><time>2026-05-01T13:48:17.999Z</time></trkpt><trkpt lat="40.2599049" lon="0.2984826"><ele>9.0</ele><time>2026-05-01T13:48:19Z</time></trkpt><trkpt lat="40.2598635" lon="0.2983641"><ele>9.0</ele><time>2026-05-01T13:48:19.999Z</time></trkpt><trkpt lat="40.2598193" lon="0.2982504"><ele>9.0</ele><time>2026-05-01T13:48:21Z</time></trkpt><trkpt lat="40.2597779" lon="0.2981299"><ele>8.0</ele><time>2026-05-01T13:48:22Z</time></trkpt><trkpt lat="40.2597465" lon="0.2980101"><ele>7.0</ele><time>2026-05-01T13:48:22.999Z</time></trkpt><trkpt lat="40.2597025" lon="0.2978921"><ele>6.0</ele><time>2026-05-01T13:48:24Z</time></trkpt><trkpt lat="40.2596506" lon="0.2977796"><ele>5.0</ele><time>2026-05-01T13:48:24.999Z</time></trkpt><trkpt lat="40.2595894" lon="0.2976526"><ele>4.0</ele><time>2026-05-01T13:48:25.999Z</time></trkpt><trkpt lat="40.2595321" lon="0.2975383"><ele>4.0</ele><time>2026-05-01T13:48:26.999Z</time></trkpt><trkpt lat="40.2594575" lon="0.2974158"><ele>4.0</ele><time>2026-05-01T13:48:27.999Z</time></trkpt><trkpt lat="40.2593805" lon="0.297266"><ele>4.0</ele><time>2026-05-01T13:48:29Z</time></trkpt><trkpt lat="40.2593108" lon="0.2971262"><ele>4.0</ele><time>2026-05-01T13:48:30Z</time></trkpt><trkpt lat="40.2592435" lon="0.2969984"><ele>4.666666666666666</ele><time>2026-05-01T13:48:31Z</time></trkpt><trkpt lat="40.2591813" lon="0.2968857"><ele>5.333333333333333</ele><time>2026-05-01T13:48:31.999Z</time></trkpt><trkpt lat="40.2591303" lon="0.2967863"><ele>6.0</ele><time>2026-05-01T13:48:33Z</time></trkpt><trkpt lat="40.2590828" lon="0.2966877"><ele>6.666666666666666</ele><time>2026-05-01T13:48:33.999Z</time></trkpt><trkpt lat="40.2590421" lon="0.2965858"><ele>7.333333333333333</ele><time>2026-05-01T13:48:35Z</time></trkpt><trkpt lat="40.2590159" lon="0.296497"><ele>8.0</ele><time>2026-05-01T13:48:36Z</time></trkpt><trkpt lat="40.258977" lon="0.2963576"><ele>8.333333333333332</ele><time>2026-05-01T13:48:37.999Z</time></trkpt><trkpt lat="40.2589535" lon="0.2962409"><ele>8.666666666666666</ele><time>2026-05-01T13:48:52.999Z</time></trkpt><trkpt lat="40.2589308" lon="0.2961236"><ele>9.0</ele><time>2026-05-01T13:48:54Z</time></trkpt><trkpt lat="40.2589098" lon="0.2960246"><ele>9.333333333333334</ele><time>2026-05-01T13:48:54.999Z</time></trkpt><trkpt lat="40.258889" lon="0.2959261"><ele>9.666666666666668</ele><time>2026-05-01T13:48:55.999Z</time></trkpt><trkpt lat="40.2588825" lon="0.2958056"><ele>10.0</ele><time>2026-05-01T13:48:57Z</time></trkpt><trkpt lat="40.258879" lon="0.295683"><ele>9.6</ele><time>2026-05-01T13:48:57.999Z</time></trkpt><trkpt lat="40.2588624" lon="0.2955575"><ele>9.2</ele><time>2026-05-01T13:48:59Z</time></trkpt><trkpt lat="40.2588282" lon="0.2954331"><ele>8.8</ele><time>2026-05-01T13:48:59.999Z</time></trkpt><trkpt lat="40.2587798" lon="0.2953361"><ele>8.4</ele><time>2026-05-01T13:49:00.999Z</time></trkpt><trkpt lat="40.2587137" lon="0.2952537"><ele>8.0</ele><time>2026-05-01T13:49:01.999Z</time></trkpt><trkpt lat="40.2586196" lon="0.2951883"><ele>8.0</ele><time>2026-05-01T13:49:03Z</time></trkpt><trkpt lat="40.2585141" lon="0.2951344"><ele>8.0</ele><time>2026-05-01T13:49:04Z</time></trkpt><trkpt lat="40.2584198" lon="0.2950852"><ele>8.0</ele><time>2026-05-01T13:49:04.999Z</time></trkpt><trkpt lat="40.258323" lon="0.2950235"><ele>8.0</ele><time>2026-05-01T13:49:05.999Z</time></trkpt><trkpt lat="40.2582366" lon="0.2949321"><ele>8.0</ele><time>2026-05-01T13:49:07Z</time></trkpt><trkpt lat="40.2581563" lon="0.2948241"><ele>7.75</ele><time>2026-05-01T13:49:07.999Z</time></trkpt><trkpt lat="40.258083" lon="0.2947132"><ele>7.5</ele><time>2026-05-01T13:49:08.999Z</time></trkpt><trkpt lat="40.2580004" lon="0.2945935"><ele>7.25</ele><time>2026-05-01T13:49:10Z</time></trkpt><trkpt lat="40.2579136" lon="0.2944687"><ele>7.0</ele><time>2026-05-01T13:49:10.999Z</time></trkpt><trkpt lat="40.2578209" lon="0.2943375"><ele>7.0</ele><time>2026-05-01T13:49:11.999Z</time></trkpt><trkpt lat="40.2577344" lon="0.2942116"><ele>7.0</ele><time>2026-05-01T13:49:13Z</time></trkpt><trkpt lat="40.2576558" lon="0.2940949"><ele>7.0</ele><time>2026-05-01T13:49:13.999Z</time></trkpt><trkpt lat="40.2575737" lon="0.2939916"><ele>7.0</ele><time>2026-05-01T13:49:15Z</time></trkpt><trkpt lat="40.2574862" lon="0.293884"><ele>7.25</ele><time>2026-05-01T13:49:16Z</time></trkpt><trkpt lat="40.2574002" lon="0.2937776"><ele>7.5</ele><time>2026-05-01T13:49:16.999Z</time></trkpt><trkpt lat="40.2573154" lon="0.2936694"><ele>7.75</ele><time>2026-05-01T13:49:18Z</time></trkpt><trkpt lat="40.257224" lon="0.2935629"><ele>8.0</ele><time>2026-05-01T13:49:18.999Z</time></trkpt><trkpt lat="40.2571295" lon="0.293456"><ele>8.0</ele><time>2026-05-01T13:49:20Z</time></trkpt><trkpt lat="40.2570374" lon="0.2933461"><ele>8.0</ele><time>2026-05-01T13:49:20.999Z</time></trkpt><trkpt lat="40.256939" lon="0.2932339"><ele>8.0</ele><time>2026-05-01T13:49:22Z</time></trkpt><trkpt lat="40.2568257" lon="0.2931275"><ele>8.0</ele><time>2026-05-01T13:49:22.999Z</time></trkpt><trkpt lat="40.2567094" lon="0.2930193"><ele>8.25</ele><time>2026-05-01T13:49:23.999Z</time></trkpt><trkpt lat="40.2565992" lon="0.2929071"><ele>8.5</ele><time>2026-05-01T13:49:24.999Z</time></trkpt><trkpt lat="40.2565039" lon="0.2927999"><ele>8.75</ele><time>2026-05-01T13:49:26Z</time></trkpt><trkpt lat="40.2564094" lon="0.2926909"><ele>9.0</ele><time>2026-05-01T13:49:27Z</time></trkpt><trkpt lat="40.2563114" lon="0.2925852"><ele>9.25</ele><time>2026-05-01T13:49:27.999Z</time></trkpt><trkpt lat="40.2562064" lon="0.2924805"><ele>9.5</ele><time>2026-05-01T13:49:28.999Z</time></trkpt><trkpt lat="40.2561036" lon="0.2923717"><ele>9.75</ele><time>2026-05-01T13:49:29.999Z</time></trkpt><trkpt lat="40.2560016" lon="0.2922531"><ele>10.0</ele><time>2026-05-01T13:49:30.999Z</time></trkpt><trkpt lat="40.2558931" lon="0.2921444"><ele>10.0</ele><time>2026-05-01T13:49:31.999Z</time></trkpt><trkpt lat="40.2557842" lon="0.2920273"><ele>10.0</ele><time>2026-05-01T13:49:33Z</time></trkpt><trkpt lat="40.2556866" lon="0.2918826"><ele>10.0</ele><time>2026-05-01T13:49:34Z</time></trkpt><trkpt lat="40.2555902" lon="0.2917364"><ele>10.0</ele><time>2026-05-01T13:49:35Z</time></trkpt><trkpt lat="40.2554887" lon="0.2916005"><ele>9.0</ele><time>2026-05-01T13:49:36Z</time></trkpt><trkpt lat="40.2553937" lon="0.2914611"><ele>8.0</ele><time>2026-05-01T13:49:36.999Z</time></trkpt><trkpt lat="40.255315" lon="0.2913229"><ele>7.0</ele><time>2026-05-01T13:49:37.999Z</time></trkpt><trkpt lat="40.2552357" lon="0.2911894"><ele>6.0</ele><time>2026-05-01T13:49:39Z</time></trkpt><trkpt lat="40.2551619" lon="0.2910561"><ele>6.0</ele><time>2026-05-01T13:49:40Z</time></trkpt><trkpt lat="40.255089" lon="0.2909256"><ele>6.0</ele><time>2026-05-01T13:49:41Z</time></trkpt><trkpt lat="40.2550229" lon="0.2907961"><ele>6.0</ele><time>2026-05-01T13:49:41.999Z</time></trkpt><trkpt lat="40.2549666" lon="0.2906754"><ele>6.0</ele><time>2026-05-01T13:49:42.999Z</time></trkpt><trkpt lat="40.2549068" lon="0.2905434"><ele>5.3999999999999995</ele><time>2026-05-01T13:49:43.999Z</time></trkpt><trkpt lat="40.2548392" lon="0.2904174"><ele>4.8</ele><time>2026-05-01T13:49:44.999Z</time></trkpt><trkpt lat="40.2547725" lon="0.2902971"><ele>4.199999999999999</ele><time>2026-05-01T13:49:45.999Z</time></trkpt><trkpt lat="40.2547094" lon="0.2901794"><ele>3.5999999999999996</ele><time>2026-05-01T13:49:46.999Z</time></trkpt><trkpt lat="40.254663" lon="0.2900694"><ele>3.0</ele><time>2026-05-01T13:49:47.999Z</time></trkpt><trkpt lat="40.2546397" lon="0.2899684"><ele>3.0</ele><time>2026-05-01T13:49:48.999Z</time></trkpt><trkpt lat="40.2546538" lon="0.2898785"><ele>3.0</ele><time>2026-05-01T13:49:49.999Z</time></trkpt><trkpt lat="40.2547061" lon="0.2897939"><ele>3.0</ele><time>2026-05-01T13:49:50.999Z</time></trkpt><trkpt lat="40.2547622" lon="0.2897046"><ele>3.0</ele><time>2026-05-01T13:49:52Z</time></trkpt><trkpt lat="40.2548259" lon="0.2896168"><ele>3.0</ele><time>2026-05-01T13:49:53Z</time></trkpt><trkpt lat="40.2548983" lon="0.289509"><ele>3.0</ele><time>2026-05-01T13:49:53.999Z</time></trkpt><trkpt lat="40.254974" lon="0.2894002"><ele>4.8</ele><time>2026-05-01T13:49:55Z</time></trkpt><trkpt lat="40.255057" lon="0.2892939"><ele>6.6</ele><time>2026-05-01T13:49:56Z</time></trkpt><trkpt lat="40.2551466" lon="0.2891998"><ele>8.399999999999999</ele><time>2026-05-01T13:49:56.999Z</time></trkpt><trkpt lat="40.2552361" lon="0.2891491"><ele>10.2</ele><time>2026-05-01T13:49:58Z</time></trkpt><trkpt lat="40.2553325" lon="0.2890806"><ele>12.0</ele><time>2026-05-01T13:49:58.999Z</time></trkpt><trkpt lat="40.2554264" lon="0.2890351"><ele>12.0</ele><time>2026-05-01T13:50:00Z</time></trkpt><trkpt lat="40.2555188" lon="0.289"><ele>12.0</ele><time>2026-05-01T13:50:00.999Z</time></trkpt><trkpt lat="40.2556071" lon="0.2889655"><ele>12.0</ele><time>2026-05-01T13:50:01.999Z</time></trkpt><trkpt lat="40.2557015" lon="0.2889281"><ele>12.0</ele><time>2026-05-01T13:50:02.999Z</time></trkpt><trkpt lat="40.2557998" lon="0.2888768"><ele>12.0</ele><time>2026-05-01T13:50:03.999Z</time></trkpt><trkpt lat="40.2559064" lon="0.288827"><ele>13.399999999999999</ele><time>2026-05-01T13:50:04.999Z</time></trkpt><trkpt lat="40.2560158" lon="0.2887678"><ele>14.799999999999999</ele><time>2026-05-01T13:50:05.999Z</time></trkpt><trkpt lat="40.2561142" lon="0.2887215"><ele>16.2</ele><time>2026-05-01T13:50:07Z</time></trkpt><trkpt lat="40.2562109" lon="0.2886874"><ele>17.599999999999998</ele><time>2026-05-01T13:50:07.999Z</time></trkpt><trkpt lat="40.2563085" lon="0.2886623"><ele>19.0</ele><time>2026-05-01T13:50:09Z</time></trkpt><trkpt lat="40.2564122" lon="0.2886369"><ele>19.6</ele><time>2026-05-01T13:50:09.999Z</time></trkpt><trkpt lat="40.256485" lon="0.2886454"><ele>20.2</ele><time>2026-05-01T13:50:11Z</time></trkpt><trkpt lat="40.2565927" lon="0.2886344"><ele>20.8</ele><time>2026-05-01T13:50:12.999Z</time></trkpt><trkpt lat="40.2566521" lon="0.2885499"><ele>21.400000000000002</ele><time>2026-05-01T13:50:14.999Z</time></trkpt><trkpt lat="40.2566051" lon="0.2883907"><ele>22.0</ele><time>2026-05-01T13:50:16.999Z</time></trkpt><trkpt lat="40.2565497" lon="0.2882914"><ele>22.0</ele><time>2026-05-01T13:50:18Z</time></trkpt><trkpt lat="40.2564769" lon="0.2881861"><ele>22.0</ele><time>2026-05-01T13:50:18.999Z</time></trkpt><trkpt lat="40.2564005" lon="0.2880638"><ele>22.0</ele><time>2026-05-01T13:50:19.999Z</time></trkpt><trkpt lat="40.2563298" lon="0.2879453"><ele>22.0</ele><time>2026-05-01T13:50:21Z</time></trkpt><trkpt lat="40.256272" lon="0.2878404"><ele>22.0</ele><time>2026-05-01T13:50:21.999Z</time></trkpt><trkpt lat="40.2562209" lon="0.2877536"><ele>22.200000000000003</ele><time>2026-05-01T13:50:23Z</time></trkpt><trkpt lat="40.2562006" lon="0.2876561"><ele>22.4</ele><time>2026-05-01T13:50:23.999Z</time></trkpt><trkpt lat="40.2562251" lon="0.2875562"><ele>22.6</ele><time>2026-05-01T13:50:24.999Z</time></trkpt><trkpt lat="40.2562108" lon="0.2874723"><ele>22.799999999999997</ele><time>2026-05-01T13:50:26Z</time></trkpt><trkpt lat="40.2561187" lon="0.2873956"><ele>23.0</ele><time>2026-05-01T13:50:28Z</time></trkpt><trkpt lat="40.2560084" lon="0.2874799"><ele>23.0</ele><time>2026-05-01T13:50:29.999Z</time></trkpt><trkpt lat="40.2559701" lon="0.2875563"><ele>23.0</ele><time>2026-05-01T13:50:30.999Z</time></trkpt><trkpt lat="40.2559346" lon="0.2876428"><ele>23.0</ele><time>2026-05-01T13:50:32Z</time></trkpt><trkpt lat="40.255877" lon="0.2877199"><ele>23.0</ele><time>2026-05-01T13:50:33Z</time></trkpt><trkpt lat="40.2557883" lon="0.2877738"><ele>23.0</ele><time>2026-05-01T13:50:34Z</time></trkpt><trkpt lat="40.2557046" lon="0.2878637"><ele>23.0</ele><time>2026-05-01T13:50:35Z</time></trkpt><trkpt lat="40.2556302" lon="0.2879449"><ele>22.333333333333336</ele><time>2026-05-01T13:50:35.999Z</time></trkpt><trkpt lat="40.2555541" lon="0.2880293"><ele>21.666666666666668</ele><time>2026-05-01T13:50:36.999Z</time></trkpt><trkpt lat="40.2554819" lon="0.2881088"><ele>21.0</ele><time>2026-05-01T13:50:37.999Z</time></trkpt><trkpt lat="40.2554122" lon="0.2881506"><ele>20.333333333333332</ele><time>2026-05-01T13:50:39Z</time></trkpt><trkpt lat="40.2553466" lon="0.2881519"><ele>19.666666666666664</ele><time>2026-05-01T13:50:40Z</time></trkpt><trkpt lat="40.2552624" lon="0.2880561"><ele>19.0</ele><time>2026-05-01T13:50:42Z</time></trkpt><trkpt lat="40.2552137" lon="0.2879654"><ele>19.0</ele><time>2026-05-01T13:50:42.999Z</time></trkpt><trkpt lat="40.2551605" lon="0.287866"><ele>19.0</ele><time>2026-05-01T13:50:43.999Z</time></trkpt><trkpt lat="40.2551028" lon="0.2877637"><ele>19.0</ele><time>2026-05-01T13:50:45Z</time></trkpt><trkpt lat="40.2550389" lon="0.2876563"><ele>19.0</ele><time>2026-05-01T13:50:45.999Z</time></trkpt><trkpt lat="40.254964" lon="0.2875417"><ele>19.0</ele><time>2026-05-01T13:50:46.999Z</time></trkpt><trkpt lat="40.2548975" lon="0.2874178"><ele>19.0</ele><time>2026-05-01T13:50:47.999Z</time></trkpt><trkpt lat="40.2548317" lon="0.2872918"><ele>19.0</ele><time>2026-05-01T13:50:48.999Z</time></trkpt><trkpt lat="40.2547556" lon="0.2871616"><ele>19.0</ele><time>2026-05-01T13:50:49.999Z</time></trkpt><trkpt lat="40.254678" lon="0.2870364"><ele>19.0</ele><time>2026-05-01T13:50:51Z</time></trkpt><trkpt lat="40.2546074" lon="0.2868992"><ele>18.5</ele><time>2026-05-01T13:50:51.999Z</time></trkpt><trkpt lat="40.254529" lon="0.2867713"><ele>18.0</ele><time>2026-05-01T13:50:53Z</time></trkpt><trkpt lat="40.2544553" lon="0.2866442"><ele>17.5</ele><time>2026-05-01T13:50:54Z</time></trkpt><trkpt lat="40.2543742" lon="0.2865149"><ele>17.0</ele><time>2026-05-01T13:50:54.999Z</time></trkpt><trkpt lat="40.2542926" lon="0.2863755"><ele>18.25</ele><time>2026-05-01T13:50:55.999Z</time></trkpt><trkpt lat="40.2542229" lon="0.2862357"><ele>19.5</ele><time>2026-05-01T13:50:56.999Z</time></trkpt><trkpt lat="40.2541536" lon="0.2861042"><ele>20.75</ele><time>2026-05-01T13:50:57.999Z</time></trkpt><trkpt lat="40.2540831" lon="0.285986"><ele>22.0</ele><time>2026-05-01T13:50:58.999Z</time></trkpt><trkpt lat="40.2540174" lon="0.2858742"><ele>20.25</ele><time>2026-05-01T13:50:59.999Z</time></trkpt><trkpt lat="40.2539524" lon="0.2857659"><ele>18.5</ele><time>2026-05-01T13:51:00.999Z</time></trkpt><trkpt lat="40.2538837" lon="0.2856518"><ele>16.75</ele><time>2026-05-01T13:51:02Z</time></trkpt><trkpt lat="40.2538089" lon="0.2855331"><ele>15.0</ele><time>2026-05-01T13:51:02.999Z</time></trkpt><trkpt lat="40.2537342" lon="0.2854063"><ele>15.0</ele><time>2026-05-01T13:51:04Z</time></trkpt><trkpt lat="40.2536604" lon="0.2852779"><ele>15.0</ele><time>2026-05-01T13:51:04.999Z</time></trkpt><trkpt lat="40.2535718" lon="0.2851761"><ele>15.0</ele><time>2026-05-01T13:51:05.999Z</time></trkpt><trkpt lat="40.2534699" lon="0.2850631"><ele>15.0</ele><time>2026-05-01T13:51:07Z</time></trkpt><trkpt lat="40.2533567" lon="0.2849689"><ele>15.0</ele><time>2026-05-01T13:51:08Z</time></trkpt><trkpt lat="40.2532464" lon="0.2848773"><ele>15.0</ele><time>2026-05-01T13:51:08.999Z</time></trkpt><trkpt lat="40.2531413" lon="0.2848037"><ele>15.0</ele><time>2026-05-01T13:51:10Z</time></trkpt><trkpt lat="40.2530415" lon="0.2847244"><ele>15.0</ele><time>2026-05-01T13:51:10.999Z</time></trkpt><trkpt lat="40.2529457" lon="0.2846537"><ele>15.4</ele><time>2026-05-01T13:51:12Z</time></trkpt><trkpt lat="40.252854" lon="0.2845917"><ele>15.8</ele><time>2026-05-01T13:51:12.999Z</time></trkpt><trkpt lat="40.2527751" lon="0.2845392"><ele>16.2</ele><time>2026-05-01T13:51:13.999Z</time></trkpt><trkpt lat="40.2526962" lon="0.284487"><ele>16.6</ele><time>2026-05-01T13:51:14.999Z</time></trkpt><trkpt lat="40.2526245" lon="0.2844211"><ele>17.0</ele><time>2026-05-01T13:51:16Z</time></trkpt><trkpt lat="40.252548" lon="0.2843584"><ele>17.0</ele><time>2026-05-01T13:51:17Z</time></trkpt><trkpt lat="40.2524672" lon="0.2843286"><ele>17.0</ele><time>2026-05-01T13:51:17.999Z</time></trkpt><trkpt lat="40.2523964" lon="0.2843244"><ele>17.0</ele><time>2026-05-01T13:51:18.999Z</time></trkpt><trkpt lat="40.2523324" lon="0.2843919"><ele>17.0</ele><time>2026-05-01T13:51:20Z</time></trkpt><trkpt lat="40.2522709" lon="0.2844647"><ele>17.0</ele><time>2026-05-01T13:51:20.999Z</time></trkpt><trkpt lat="40.2522145" lon="0.2845355"><ele>17.0</ele><time>2026-05-01T13:51:21.999Z</time></trkpt><trkpt lat="40.2521462" lon="0.2845786"><ele>16.5</ele><time>2026-05-01T13:51:23Z</time></trkpt><trkpt lat="40.2520804" lon="0.2845882"><ele>16.0</ele><time>2026-05-01T13:51:24Z</time></trkpt><trkpt lat="40.2520061" lon="0.2846072"><ele>15.5</ele><time>2026-05-01T13:51:24.999Z</time></trkpt><trkpt lat="40.2519096" lon="0.2846272"><ele>15.0</ele><time>2026-05-01T13:51:26Z</time></trkpt><trkpt lat="40.2518039" lon="0.2846488"><ele>14.500000000000002</ele><time>2026-05-01T13:51:27Z</time></trkpt><trkpt lat="40.251709" lon="0.284667"><ele>14.0</ele><time>2026-05-01T13:51:28Z</time></trkpt><trkpt lat="40.2516069" lon="0.2846883"><ele>14.0</ele><time>2026-05-01T13:51:28.999Z</time></trkpt><trkpt lat="40.2514978" lon="0.2847029"><ele>14.0</ele><time>2026-05-01T13:51:29.999Z</time></trkpt><trkpt lat="40.2513751" lon="0.2847231"><ele>14.0</ele><time>2026-05-01T13:51:30.999Z</time></trkpt><trkpt lat="40.2512612" lon="0.2847565"><ele>14.0</ele><time>2026-05-01T13:51:31.999Z</time></trkpt><trkpt lat="40.2511434" lon="0.2847771"><ele>13.5</ele><time>2026-05-01T13:51:33Z</time></trkpt><trkpt lat="40.2510295" lon="0.2847805"><ele>13.0</ele><time>2026-05-01T13:51:34Z</time></trkpt><trkpt lat="40.2508978" lon="0.2847991"><ele>12.5</ele><time>2026-05-01T13:51:35Z</time></trkpt><trkpt lat="40.2507657" lon="0.2848191"><ele>12.0</ele><time>2026-05-01T13:51:35.999Z</time></trkpt><trkpt lat="40.2506403" lon="0.2848374"><ele>12.25</ele><time>2026-05-01T13:51:36.999Z</time></trkpt><trkpt lat="40.2505191" lon="0.2848595"><ele>12.5</ele><time>2026-05-01T13:51:37.999Z</time></trkpt><trkpt lat="40.250404" lon="0.2848879"><ele>12.75</ele><time>2026-05-01T13:51:38.999Z</time></trkpt><trkpt lat="40.250295" lon="0.2849177"><ele>13.0</ele><time>2026-05-01T13:51:39.999Z</time></trkpt><trkpt lat="40.2502114" lon="0.2850017"><ele>13.0</ele><time>2026-05-01T13:51:41Z</time></trkpt><trkpt lat="40.2501292" lon="0.2851092"><ele>13.0</ele><time>2026-05-01T13:51:41.999Z</time></trkpt><trkpt lat="40.250044" lon="0.2852221"><ele>13.0</ele><time>2026-05-01T13:51:43Z</time></trkpt><trkpt lat="40.2499635" lon="0.2853708"><ele>13.0</ele><time>2026-05-01T13:51:44Z</time></trkpt><trkpt lat="40.2498817" lon="0.2854937"><ele>12.0</ele><time>2026-05-01T13:51:44.999Z</time></trkpt><trkpt lat="40.2498088" lon="0.2856274"><ele>11.0</ele><time>2026-05-01T13:51:46Z</time></trkpt><trkpt lat="40.2497505" lon="0.285742"><ele>10.0</ele><time>2026-05-01T13:51:47Z</time></trkpt><trkpt lat="40.2496905" lon="0.2858678"><ele>9.0</ele><time>2026-05-01T13:51:47.999Z</time></trkpt><trkpt lat="40.2496307" lon="0.2859627"><ele>8.0</ele><time>2026-05-01T13:51:48.999Z</time></trkpt><trkpt lat="40.2495659" lon="0.2860416"><ele>7.666666666666666</ele><time>2026-05-01T13:51:49.999Z</time></trkpt><trkpt lat="40.2494977" lon="0.2860717"><ele>7.333333333333333</ele><time>2026-05-01T13:51:51Z</time></trkpt><trkpt lat="40.2494189" lon="0.2860953"><ele>7.0</ele><time>2026-05-01T13:51:51.999Z</time></trkpt><trkpt lat="40.2493308" lon="0.2860903"><ele>6.666666666666666</ele><time>2026-05-01T13:51:52.999Z</time></trkpt><trkpt lat="40.2492438" lon="0.2860753"><ele>6.333333333333333</ele><time>2026-05-01T13:51:53.999Z</time></trkpt><trkpt lat="40.2491481" lon="0.2860469"><ele>6.0</ele><time>2026-05-01T13:51:54.999Z</time></trkpt><trkpt lat="40.2490539" lon="0.285988"><ele>6.0</ele><time>2026-05-01T13:51:56Z</time></trkpt><trkpt lat="40.2489832" lon="0.2859213"><ele>6.0</ele><time>2026-05-01T13:51:56.999Z</time></trkpt><trkpt lat="40.2489156" lon="0.2858426"><ele>6.0</ele><time>2026-05-01T13:51:57.999Z</time></trkpt><trkpt lat="40.2488527" lon="0.2857656"><ele>6.0</ele><time>2026-05-01T13:51:58.999Z</time></trkpt><trkpt lat="40.2488239" lon="0.2856801"><ele>6.0</ele><time>2026-05-01T13:51:59.999Z</time></trkpt><trkpt lat="40.2488538" lon="0.2855926"><ele>6.0</ele><time>2026-05-01T13:52:00.999Z</time></trkpt><trkpt lat="40.2488762" lon="0.2854364"><ele>6.25</ele><time>2026-05-01T13:52:02.999Z</time></trkpt><trkpt lat="40.2487746" lon="0.2853143"><ele>6.5</ele><time>2026-05-01T13:52:05Z</time></trkpt><trkpt lat="40.2486953" lon="0.2852231"><ele>6.75</ele><time>2026-05-01T13:52:05.999Z</time></trkpt><trkpt lat="40.2486035" lon="0.28512"><ele>7.0</ele><time>2026-05-01T13:52:06.999Z</time></trkpt><trkpt lat="40.248506" lon="0.2850184"><ele>7.0</ele><time>2026-05-01T13:52:08Z</time></trkpt><trkpt lat="40.2483888" lon="0.2848991"><ele>7.0</ele><time>2026-05-01T13:52:09Z</time></trkpt><trkpt lat="40.2482748" lon="0.2847767"><ele>7.0</ele><time>2026-05-01T13:52:09.999Z</time></trkpt><trkpt lat="40.2481681" lon="0.2846664"><ele>7.0</ele><time>2026-05-01T13:52:10.999Z</time></trkpt><trkpt lat="40.2480627" lon="0.2845484"><ele>7.25</ele><time>2026-05-01T13:52:12Z</time></trkpt><trkpt lat="40.2479608" lon="0.2844374"><ele>7.5</ele><time>2026-05-01T13:52:13Z</time></trkpt><trkpt lat="40.2478602" lon="0.2843252"><ele>7.75</ele><time>2026-05-01T13:52:13.999Z</time></trkpt><trkpt lat="40.2477622" lon="0.2842109"><ele>8.0</ele><time>2026-05-01T13:52:14.999Z</time></trkpt><trkpt lat="40.2476675" lon="0.2840948"><ele>8.0</ele><time>2026-05-01T13:52:15.999Z</time></trkpt><trkpt lat="40.2475753" lon="0.2839685"><ele>8.0</ele><time>2026-05-01T13:52:16.999Z</time></trkpt><trkpt lat="40.2474766" lon="0.2838455"><ele>8.0</ele><time>2026-05-01T13:52:17.999Z</time></trkpt><trkpt lat="40.2473762" lon="0.283723"><ele>8.0</ele><time>2026-05-01T13:52:18.999Z</time></trkpt><trkpt lat="40.2472841" lon="0.2835947"><ele>7.0</ele><time>2026-05-01T13:52:19.999Z</time></trkpt><trkpt lat="40.247187" lon="0.2834828"><ele>6.0</ele><time>2026-05-01T13:52:21Z</time></trkpt><trkpt lat="40.2470797" lon="0.2833973"><ele>5.0</ele><time>2026-05-01T13:52:22Z</time></trkpt><trkpt lat="40.2469842" lon="0.2833239"><ele>4.0</ele><time>2026-05-01T13:52:22.999Z</time></trkpt><trkpt lat="40.2468892" lon="0.283247"><ele>4.0</ele><time>2026-05-01T13:52:23.999Z</time></trkpt><trkpt lat="40.2468089" lon="0.2831702"><ele>4.0</ele><time>2026-05-01T13:52:24.999Z</time></trkpt><trkpt lat="40.246723" lon="0.2830905"><ele>4.0</ele><time>2026-05-01T13:52:25.999Z</time></trkpt><trkpt lat="40.2466256" lon="0.2830177"><ele>4.0</ele><time>2026-05-01T13:52:27Z</time></trkpt><trkpt lat="40.2465299" lon="0.2829328"><ele>4.0</ele><time>2026-05-01T13:52:27.999Z</time></trkpt><trkpt lat="40.2464313" lon="0.2828438"><ele>3.8000000000000003</ele><time>2026-05-01T13:52:28.999Z</time></trkpt><trkpt lat="40.246347" lon="0.28274"><ele>3.6000000000000005</ele><time>2026-05-01T13:52:30Z</time></trkpt><trkpt lat="40.2462707" lon="0.2826418"><ele>3.4</ele><time>2026-05-01T13:52:31Z</time></trkpt><trkpt lat="40.2461951" lon="0.2825406"><ele>3.2</ele><time>2026-05-01T13:52:31.999Z</time></trkpt><trkpt lat="40.2461247" lon="0.2824527"><ele>3.0</ele><time>2026-05-01T13:52:32.999Z</time></trkpt><trkpt lat="40.2460644" lon="0.2823668"><ele>3.0</ele><time>2026-05-01T13:52:33.999Z</time></trkpt><trkpt lat="40.2460238" lon="0.2822728"><ele>3.0</ele><time>2026-05-01T13:52:35Z</time></trkpt><trkpt lat="40.2460143" lon="0.2821765"><ele>3.0</ele><time>2026-05-01T13:52:36Z</time></trkpt><trkpt lat="40.2460856" lon="0.2820174"><ele>3.0</ele><time>2026-05-01T13:52:37.999Z</time></trkpt><trkpt lat="40.2461525" lon="0.2819387"><ele>3.0</ele><time>2026-05-01T13:52:38.999Z</time></trkpt><trkpt lat="40.2462445" lon="0.2818386"><ele>4.0</ele><time>2026-05-01T13:52:40Z</time></trkpt><trkpt lat="40.2463368" lon="0.281737"><ele>5.0</ele><time>2026-05-01T13:52:40.999Z</time></trkpt><trkpt lat="40.246441" lon="0.2816185"><ele>6.0</ele><time>2026-05-01T13:52:42Z</time></trkpt><trkpt lat="40.2465432" lon="0.2815051"><ele>7.0</ele><time>2026-05-01T13:52:42.999Z</time></trkpt><trkpt lat="40.2466294" lon="0.2814073"><ele>7.25</ele><time>2026-05-01T13:52:43.999Z</time></trkpt><trkpt lat="40.2467124" lon="0.2813114"><ele>7.5</ele><time>2026-05-01T13:52:44.999Z</time></trkpt><trkpt lat="40.2468011" lon="0.2812267"><ele>7.75</ele><time>2026-05-01T13:52:46Z</time></trkpt><trkpt lat="40.2468892" lon="0.2811217"><ele>8.0</ele><time>2026-05-01T13:52:46.999Z</time></trkpt><trkpt lat="40.2469879" lon="0.2810019"><ele>8.0</ele><time>2026-05-01T13:52:47.999Z</time></trkpt><trkpt lat="40.2470967" lon="0.2808778"><ele>8.0</ele><time>2026-05-01T13:52:49Z</time></trkpt><trkpt lat="40.2472061" lon="0.2807609"><ele>8.0</ele><time>2026-05-01T13:52:49.999Z</time></trkpt><trkpt lat="40.2473111" lon="0.2806426"><ele>8.0</ele><time>2026-05-01T13:52:51Z</time></trkpt><trkpt lat="40.2474146" lon="0.2805381"><ele>9.25</ele><time>2026-05-01T13:52:51.999Z</time></trkpt><trkpt lat="40.2475161" lon="0.2804201"><ele>10.5</ele><time>2026-05-01T13:52:52.999Z</time></trkpt><trkpt lat="40.2475961" lon="0.2803044"><ele>11.75</ele><time>2026-05-01T13:52:53.999Z</time></trkpt><trkpt lat="40.2476793" lon="0.2802026"><ele>13.0</ele><time>2026-05-01T13:52:54.999Z</time></trkpt><trkpt lat="40.2477457" lon="0.2801088"><ele>13.0</ele><time>2026-05-01T13:52:56Z</time></trkpt><trkpt lat="40.2477957" lon="0.2800321"><ele>13.0</ele><time>2026-05-01T13:52:57Z</time></trkpt><trkpt lat="40.2478032" lon="0.2798833"><ele>13.0</ele><time>2026-05-01T13:52:59Z</time></trkpt><trkpt lat="40.2477765" lon="0.2797928"><ele>13.0</ele><time>2026-05-01T13:53:00Z</time></trkpt><trkpt lat="40.2477215" lon="0.2796938"><ele>13.0</ele><time>2026-05-01T13:53:00.999Z</time></trkpt><trkpt lat="40.2476578" lon="0.2795943"><ele>13.4</ele><time>2026-05-01T13:53:01.999Z</time></trkpt><trkpt lat="40.2475881" lon="0.2794658"><ele>13.8</ele><time>2026-05-01T13:53:02.999Z</time></trkpt><trkpt lat="40.2475158" lon="0.279344"><ele>14.2</ele><time>2026-05-01T13:53:03.999Z</time></trkpt><trkpt lat="40.2474612" lon="0.2792321"><ele>14.6</ele><time>2026-05-01T13:53:05Z</time></trkpt><trkpt lat="40.2474126" lon="0.2791274"><ele>15.0</ele><time>2026-05-01T13:53:06Z</time></trkpt><trkpt lat="40.2473725" lon="0.2790489"><ele>15.0</ele><time>2026-05-01T13:53:06.999Z</time></trkpt><trkpt lat="40.247318" lon="0.2789504"><ele>15.0</ele><time>2026-05-01T13:53:08.999Z</time></trkpt><trkpt lat="40.2471981" lon="0.2789605"><ele>15.0</ele><time>2026-05-01T13:53:10.999Z</time></trkpt><trkpt lat="40.2471181" lon="0.2789904"><ele>15.0</ele><time>2026-05-01T13:53:12Z</time></trkpt><trkpt lat="40.2470375" lon="0.2790249"><ele>15.0</ele><time>2026-05-01T13:53:12.999Z</time></trkpt><trkpt lat="40.2469515" lon="0.2790601"><ele>14.666666666666666</ele><time>2026-05-01T13:53:13.999Z</time></trkpt><trkpt lat="40.2468647" lon="0.2790826"><ele>14.333333333333332</ele><time>2026-05-01T13:53:14.999Z</time></trkpt><trkpt lat="40.2467994" lon="0.2790505"><ele>14.0</ele><time>2026-05-01T13:53:15.999Z</time></trkpt><trkpt lat="40.246749" lon="0.2789953"><ele>13.666666666666666</ele><time>2026-05-01T13:53:16.999Z</time></trkpt><trkpt lat="40.2467176" lon="0.2789086"><ele>13.333333333333332</ele><time>2026-05-01T13:53:18Z</time></trkpt><trkpt lat="40.2466892" lon="0.2787938"><ele>13.0</ele><time>2026-05-01T13:53:19Z</time></trkpt><trkpt lat="40.2466474" lon="0.2786679"><ele>12.8</ele><time>2026-05-01T13:53:19.999Z</time></trkpt><trkpt lat="40.2466056" lon="0.2785418"><ele>12.600000000000001</ele><time>2026-05-01T13:53:21Z</time></trkpt><trkpt lat="40.2465592" lon="0.278414"><ele>12.399999999999999</ele><time>2026-05-01T13:53:21.999Z</time></trkpt><trkpt lat="40.2465122" lon="0.2782829"><ele>12.2</ele><time>2026-05-01T13:53:23Z</time></trkpt><trkpt lat="40.2464875" lon="0.2781394"><ele>12.0</ele><time>2026-05-01T13:53:24Z</time></trkpt><trkpt lat="40.2464525" lon="0.2779956"><ele>12.0</ele><time>2026-05-01T13:53:24.999Z</time></trkpt><trkpt lat="40.2464342" lon="0.2778578"><ele>12.0</ele><time>2026-05-01T13:53:25.999Z</time></trkpt><trkpt lat="40.2464128" lon="0.2777223"><ele>12.0</ele><time>2026-05-01T13:53:27Z</time></trkpt><trkpt lat="40.246392" lon="0.2775921"><ele>12.0</ele><time>2026-05-01T13:53:28Z</time></trkpt><trkpt lat="40.2463777" lon="0.2774817"><ele>12.0</ele><time>2026-05-01T13:53:29Z</time></trkpt><trkpt lat="40.2463577" lon="0.2773747"><ele>12.666666666666666</ele><time>2026-05-01T13:53:29.999Z</time></trkpt><trkpt lat="40.2463417" lon="0.2772679"><ele>13.333333333333332</ele><time>2026-05-01T13:53:31Z</time></trkpt><trkpt lat="40.246317" lon="0.2771709"><ele>14.0</ele><time>2026-05-01T13:53:31.999Z</time></trkpt><trkpt lat="40.246291" lon="0.2770801"><ele>14.666666666666666</ele><time>2026-05-01T13:53:32.999Z</time></trkpt><trkpt lat="40.246259" lon="0.2769807"><ele>15.333333333333332</ele><time>2026-05-01T13:53:33.999Z</time></trkpt><trkpt lat="40.246226" lon="0.2768816"><ele>16.0</ele><time>2026-05-01T13:53:35Z</time></trkpt><trkpt lat="40.2461767" lon="0.2767679"><ele>15.999999999999998</ele><time>2026-05-01T13:53:36Z</time></trkpt><trkpt lat="40.2461159" lon="0.2766682"><ele>16.0</ele><time>2026-05-01T13:53:37Z</time></trkpt><trkpt lat="40.2460589" lon="0.276593"><ele>16.0</ele><time>2026-05-01T13:53:37.999Z</time></trkpt><trkpt lat="40.2460133" lon="0.2765077"><ele>16.0</ele><time>2026-05-01T13:53:38.999Z</time></trkpt><trkpt lat="40.2459678" lon="0.2764306"><ele>15.999999999999998</ele><time>2026-05-01T13:53:40Z</time></trkpt><trkpt lat="40.2459308" lon="0.2763545"><ele>16.0</ele><time>2026-05-01T13:53:41Z</time></trkpt><trkpt lat="40.2458583" lon="0.2762305"><ele>16.166666666666664</ele><time>2026-05-01T13:53:42.999Z</time></trkpt><trkpt lat="40.2457914" lon="0.2761442"><ele>16.333333333333332</ele><time>2026-05-01T13:53:44.999Z</time></trkpt><trkpt lat="40.2457165" lon="0.2760583"><ele>16.5</ele><time>2026-05-01T13:53:47Z</time></trkpt><trkpt lat="40.245662" lon="0.2759978"><ele>16.666666666666668</ele><time>2026-05-01T13:53:47.999Z</time></trkpt><trkpt lat="40.2456009" lon="0.2759238"><ele>16.833333333333336</ele><time>2026-05-01T13:53:48.999Z</time></trkpt><trkpt lat="40.245542" lon="0.2758363"><ele>17.0</ele><time>2026-05-01T13:53:49.999Z</time></trkpt><trkpt lat="40.2454843" lon="0.2757337"><ele>17.0</ele><time>2026-05-01T13:53:50.999Z</time></trkpt><trkpt lat="40.2454204" lon="0.2756311"><ele>17.0</ele><time>2026-05-01T13:53:51.999Z</time></trkpt><trkpt lat="40.2453616" lon="0.2755282"><ele>17.0</ele><time>2026-05-01T13:53:52.999Z</time></trkpt><trkpt lat="40.2453009" lon="0.2754233"><ele>17.0</ele><time>2026-05-01T13:53:53.999Z</time></trkpt><trkpt lat="40.2452429" lon="0.2753143"><ele>17.0</ele><time>2026-05-01T13:53:55Z</time></trkpt><trkpt lat="40.2451827" lon="0.2752032"><ele>16.833333333333336</ele><time>2026-05-01T13:53:55.999Z</time></trkpt><trkpt lat="40.2451242" lon="0.2751038"><ele>16.666666666666668</ele><time>2026-05-01T13:53:56.999Z</time></trkpt><trkpt lat="40.2450751" lon="0.2750105"><ele>16.5</ele><time>2026-05-01T13:53:57.999Z</time></trkpt><trkpt lat="40.245018" lon="0.2749226"><ele>16.333333333333332</ele><time>2026-05-01T13:53:59Z</time></trkpt><trkpt lat="40.2449668" lon="0.2748369"><ele>16.166666666666664</ele><time>2026-05-01T13:53:59.999Z</time></trkpt><trkpt lat="40.2449132" lon="0.2747588"><ele>16.0</ele><time>2026-05-01T13:54:00.999Z</time></trkpt><trkpt lat="40.2448566" lon="0.2746878"><ele>16.0</ele><time>2026-05-01T13:54:02Z</time></trkpt><trkpt lat="40.244799" lon="0.2745875"><ele>16.0</ele><time>2026-05-01T13:54:02.999Z</time></trkpt><trkpt lat="40.2447443" lon="0.2744718"><ele>16.0</ele><time>2026-05-01T13:54:04Z</time></trkpt><trkpt lat="40.2446908" lon="0.2743417"><ele>16.0</ele><time>2026-05-01T13:54:05Z</time></trkpt><trkpt lat="40.2446284" lon="0.2742189"><ele>16.0</ele><time>2026-05-01T13:54:06Z</time></trkpt><trkpt lat="40.2445829" lon="0.274085"><ele>15.666666666666666</ele><time>2026-05-01T13:54:07Z</time></trkpt><trkpt lat="40.2445419" lon="0.2739727"><ele>15.333333333333332</ele><time>2026-05-01T13:54:07.999Z</time></trkpt><trkpt lat="40.2444985" lon="0.2738588"><ele>15.0</ele><time>2026-05-01T13:54:08.999Z</time></trkpt><trkpt lat="40.2444576" lon="0.2737613"><ele>14.666666666666668</ele><time>2026-05-01T13:54:09.999Z</time></trkpt><trkpt lat="40.2444263" lon="0.2736603"><ele>14.333333333333334</ele><time>2026-05-01T13:54:10.999Z</time></trkpt><trkpt lat="40.2443903" lon="0.2735751"><ele>14.0</ele><time>2026-05-01T13:54:11.999Z</time></trkpt><trkpt lat="40.2443489" lon="0.2735096"><ele>14.0</ele><time>2026-05-01T13:54:12.999Z</time></trkpt><trkpt lat="40.2443194" lon="0.2734259"><ele>13.999999999999998</ele><time>2026-05-01T13:54:14Z</time></trkpt><trkpt lat="40.2442898" lon="0.2733441"><ele>13.999999999999998</ele><time>2026-05-01T13:54:15Z</time></trkpt><trkpt lat="40.2441872" lon="0.27325"><ele>14.0</ele><time>2026-05-01T13:54:16.999Z</time></trkpt><trkpt lat="40.244092" lon="0.2731664"><ele>14.0</ele><time>2026-05-01T13:54:19Z</time></trkpt><trkpt lat="40.2440067" lon="0.2731235"><ele>12.799999999999999</ele><time>2026-05-01T13:54:21Z</time></trkpt><trkpt lat="40.2439315" lon="0.2732198"><ele>11.599999999999998</ele><time>2026-05-01T13:54:23Z</time></trkpt><trkpt lat="40.2438981" lon="0.2733243"><ele>10.4</ele><time>2026-05-01T13:54:24Z</time></trkpt><trkpt lat="40.2438695" lon="0.2734572"><ele>9.2</ele><time>2026-05-01T13:54:24.999Z</time></trkpt><trkpt lat="40.2438398" lon="0.2736312"><ele>8.0</ele><time>2026-05-01T13:54:25.999Z</time></trkpt><trkpt lat="40.2438129" lon="0.2737993"><ele>7.75</ele><time>2026-05-01T13:54:26.999Z</time></trkpt><trkpt lat="40.2437826" lon="0.2739924"><ele>7.5</ele><time>2026-05-01T13:54:28Z</time></trkpt><trkpt lat="40.2437589" lon="0.2741844"><ele>7.25</ele><time>2026-05-01T13:54:29Z</time></trkpt><trkpt lat="40.2437389" lon="0.2743562"><ele>7.0</ele><time>2026-05-01T13:54:29.999Z</time></trkpt><trkpt lat="40.2437161" lon="0.2745263"><ele>7.0</ele><time>2026-05-01T13:54:31Z</time></trkpt><trkpt lat="40.24369" lon="0.2746873"><ele>7.0</ele><time>2026-05-01T13:54:32Z</time></trkpt><trkpt lat="40.2436659" lon="0.2748399"><ele>7.0</ele><time>2026-05-01T13:54:33Z</time></trkpt><trkpt lat="40.2436353" lon="0.2749741"><ele>7.0</ele><time>2026-05-01T13:54:33.999Z</time></trkpt><trkpt lat="40.2435658" lon="0.2750946"><ele>6.8</ele><time>2026-05-01T13:54:35Z</time></trkpt><trkpt lat="40.2434959" lon="0.2752209"><ele>6.6</ele><time>2026-05-01T13:54:35.999Z</time></trkpt><trkpt lat="40.2434411" lon="0.2753296"><ele>6.3999999999999995</ele><time>2026-05-01T13:54:36.999Z</time></trkpt><trkpt lat="40.2433918" lon="0.2754044"><ele>6.199999999999999</ele><time>2026-05-01T13:54:37.999Z</time></trkpt><trkpt lat="40.2433349" lon="0.2754988"><ele>6.0</ele><time>2026-05-01T13:54:40Z</time></trkpt><trkpt lat="40.2433664" lon="0.2755756"><ele>5.833333333333333</ele><time>2026-05-01T13:54:57Z</time></trkpt><trkpt lat="40.2432841" lon="0.2756415"><ele>5.666666666666667</ele><time>2026-05-01T13:55:00Z</time></trkpt><trkpt lat="40.2432198" lon="0.2756436"><ele>5.5</ele><time>2026-05-01T13:55:00.999Z</time></trkpt><trkpt lat="40.2431411" lon="0.2756112"><ele>5.333333333333334</ele><time>2026-05-01T13:55:01.999Z</time></trkpt><trkpt lat="40.2430663" lon="0.2755344"><ele>5.166666666666667</ele><time>2026-05-01T13:55:02.999Z</time></trkpt><trkpt lat="40.2429883" lon="0.2754567"><ele>5.0</ele><time>2026-05-01T13:55:04Z</time></trkpt><trkpt lat="40.2429002" lon="0.2753646"><ele>5.0</ele><time>2026-05-01T13:55:04.999Z</time></trkpt><trkpt lat="40.2428104" lon="0.2752729"><ele>5.0</ele><time>2026-05-01T13:55:05.999Z</time></trkpt><trkpt lat="40.2427196" lon="0.2751789"><ele>5.0</ele><time>2026-05-01T13:55:07Z</time></trkpt><trkpt lat="40.2426214" lon="0.2750879"><ele>5.0</ele><time>2026-05-01T13:55:08Z</time></trkpt><trkpt lat="40.2425263" lon="0.2749979"><ele>5.0</ele><time>2026-05-01T13:55:08.999Z</time></trkpt><trkpt lat="40.2424322" lon="0.2749025"><ele>5.0</ele><time>2026-05-01T13:55:10Z</time></trkpt><trkpt lat="40.242337" lon="0.274817"><ele>5.0</ele><time>2026-05-01T13:55:11Z</time></trkpt><trkpt lat="40.2422513" lon="0.2747296"><ele>5.0</ele><time>2026-05-01T13:55:12Z</time></trkpt><trkpt lat="40.2421658" lon="0.2746463"><ele>5.2</ele><time>2026-05-01T13:55:12.999Z</time></trkpt><trkpt lat="40.2420801" lon="0.2745712"><ele>5.4</ele><time>2026-05-01T13:55:13.999Z</time></trkpt><trkpt lat="40.2419968" lon="0.2744885"><ele>5.6</ele><time>2026-05-01T13:55:15Z</time></trkpt><trkpt lat="40.2419175" lon="0.2744178"><ele>5.8</ele><time>2026-05-01T13:55:15.999Z</time></trkpt><trkpt lat="40.241832" lon="0.274338"><ele>6.0</ele><time>2026-05-01T13:55:17Z</time></trkpt><trkpt lat="40.241736" lon="0.2742645"><ele>6.0</ele><time>2026-05-01T13:55:17.999Z</time></trkpt><trkpt lat="40.2416397" lon="0.2741943"><ele>6.0</ele><time>2026-05-01T13:55:18.999Z</time></trkpt><trkpt lat="40.2415413" lon="0.2741285"><ele>6.0</ele><time>2026-05-01T13:55:19.999Z</time></trkpt><trkpt lat="40.2414494" lon="0.2740788"><ele>6.0</ele><time>2026-05-01T13:55:20.999Z</time></trkpt><trkpt lat="40.241365" lon="0.2740302"><ele>6.0</ele><time>2026-05-01T13:55:22Z</time></trkpt><trkpt lat="40.2412898" lon="0.2739745"><ele>6.0</ele><time>2026-05-01T13:55:22.999Z</time></trkpt><trkpt lat="40.2412093" lon="0.2739037"><ele>6.0</ele><time>2026-05-01T13:55:24Z</time></trkpt><trkpt lat="40.2411151" lon="0.2738394"><ele>6.0</ele><time>2026-05-01T13:55:24.999Z</time></trkpt><trkpt lat="40.2410225" lon="0.2737657"><ele>6.0</ele><time>2026-05-01T13:55:26Z</time></trkpt><trkpt lat="40.2409229" lon="0.2736879"><ele>6.0</ele><time>2026-05-01T13:55:27Z</time></trkpt><trkpt lat="40.2408266" lon="0.2736036"><ele>6.0</ele><time>2026-05-01T13:55:28Z</time></trkpt><trkpt lat="40.2407367" lon="0.2735268"><ele>6.0</ele><time>2026-05-01T13:55:29Z</time></trkpt><trkpt lat="40.2406411" lon="0.273458"><ele>6.0</ele><time>2026-05-01T13:55:29.999Z</time></trkpt><trkpt lat="40.2405579" lon="0.2733892"><ele>6.0</ele><time>2026-05-01T13:55:30.999Z</time></trkpt><trkpt lat="40.2404781" lon="0.2733361"><ele>6.0</ele><time>2026-05-01T13:55:31.999Z</time></trkpt><trkpt lat="40.2404105" lon="0.2732874"><ele>5.833333333333333</ele><time>2026-05-01T13:55:33Z</time></trkpt><trkpt lat="40.2403455" lon="0.2732369"><ele>5.666666666666667</ele><time>2026-05-01T13:55:33.999Z</time></trkpt><trkpt lat="40.2402778" lon="0.2731925"><ele>5.5</ele><time>2026-05-01T13:55:35Z</time></trkpt><trkpt lat="40.2402475" lon="0.2731011"><ele>5.333333333333334</ele><time>2026-05-01T13:55:36Z</time></trkpt><trkpt lat="40.2402256" lon="0.2729956"><ele>5.166666666666667</ele><time>2026-05-01T13:55:36.999Z</time></trkpt><trkpt lat="40.2402089" lon="0.2728941"><ele>5.0</ele><time>2026-05-01T13:55:37.999Z</time></trkpt><trkpt lat="40.2401767" lon="0.2727912"><ele>5.0</ele><time>2026-05-01T13:55:38.999Z</time></trkpt><trkpt lat="40.2401176" lon="0.2726987"><ele>5.0</ele><time>2026-05-01T13:55:40Z</time></trkpt><trkpt lat="40.2400311" lon="0.272619"><ele>5.0</ele><time>2026-05-01T13:55:41Z</time></trkpt><trkpt lat="40.2399478" lon="0.2725522"><ele>5.0</ele><time>2026-05-01T13:55:41.999Z</time></trkpt><trkpt lat="40.2398752" lon="0.272496"><ele>5.0</ele><time>2026-05-01T13:55:43Z</time></trkpt><trkpt lat="40.2398027" lon="0.2724523"><ele>5.333333333333334</ele><time>2026-05-01T13:55:43.999Z</time></trkpt><trkpt lat="40.2397349" lon="0.2724092"><ele>5.666666666666667</ele><time>2026-05-01T13:55:45Z</time></trkpt><trkpt lat="40.2396712" lon="0.2723626"><ele>6.0</ele><time>2026-05-01T13:55:45.999Z</time></trkpt><trkpt lat="40.2396033" lon="0.2723187"><ele>6.333333333333334</ele><time>2026-05-01T13:55:47Z</time></trkpt><trkpt lat="40.2395108" lon="0.2722699"><ele>6.666666666666667</ele><time>2026-05-01T13:55:49Z</time></trkpt><trkpt lat="40.2394241" lon="0.2722909"><ele>7.0</ele><time>2026-05-01T13:55:52Z</time></trkpt><trkpt lat="40.2393911" lon="0.2723746"><ele>7.0</ele><time>2026-05-01T13:55:54Z</time></trkpt><trkpt lat="40.239344" lon="0.2724893"><ele>6.999999999999999</ele><time>2026-05-01T13:55:55.999Z</time></trkpt><trkpt lat="40.2392689" lon="0.2726182"><ele>6.999999999999999</ele><time>2026-05-01T13:55:57.999Z</time></trkpt><trkpt lat="40.2391938" lon="0.272734"><ele>7.0</ele><time>2026-05-01T13:55:59.999Z</time></trkpt><trkpt lat="40.2391541" lon="0.2728036"><ele>7.0</ele><time>2026-05-01T13:56:01Z</time></trkpt><trkpt lat="40.2390804" lon="0.2729283"><ele>7.0</ele><time>2026-05-01T13:56:03Z</time></trkpt><trkpt lat="40.2390201" lon="0.273062"><ele>6.999999999999999</ele><time>2026-05-01T13:56:04.999Z</time></trkpt><trkpt lat="40.2389831" lon="0.273211"><ele>6.999999999999999</ele><time>2026-05-01T13:56:07Z</time></trkpt><trkpt lat="40.2389523" lon="0.2733112"><ele>7.0</ele><time>2026-05-01T13:56:08Z</time></trkpt><trkpt lat="40.2389191" lon="0.2734063"><ele>7.0</ele><time>2026-05-01T13:56:08.999Z</time></trkpt><trkpt lat="40.2388833" lon="0.2734939"><ele>6.8</ele><time>2026-05-01T13:56:10Z</time></trkpt><trkpt lat="40.2388548" lon="0.2735741"><ele>6.6</ele><time>2026-05-01T13:56:10.999Z</time></trkpt><trkpt lat="40.2388022" lon="0.2737295"><ele>6.3999999999999995</ele><time>2026-05-01T13:56:13Z</time></trkpt><trkpt lat="40.2387587" lon="0.2738633"><ele>6.199999999999999</ele><time>2026-05-01T13:56:14.999Z</time></trkpt><trkpt lat="40.2387173" lon="0.2739904"><ele>6.0</ele><time>2026-05-01T13:56:17Z</time></trkpt><trkpt lat="40.2386563" lon="0.2740692"><ele>5.3999999999999995</ele><time>2026-05-01T13:56:18.999Z</time></trkpt><trkpt lat="40.2385706" lon="0.2741002"><ele>4.8</ele><time>2026-05-01T13:56:21Z</time></trkpt><trkpt lat="40.2384807" lon="0.2740798"><ele>4.199999999999999</ele><time>2026-05-01T13:56:22.999Z</time></trkpt><trkpt lat="40.238345" lon="0.274069"><ele>3.5999999999999996</ele><time>2026-05-01T13:56:25Z</time></trkpt><trkpt lat="40.2382711" lon="0.2740631"><ele>3.0</ele><time>2026-05-01T13:56:25.999Z</time></trkpt><trkpt lat="40.2381876" lon="0.274047"><ele>3.1666666666666665</ele><time>2026-05-01T13:56:27Z</time></trkpt><trkpt lat="40.2381025" lon="0.274045"><ele>3.333333333333333</ele><time>2026-05-01T13:56:27.999Z</time></trkpt><trkpt lat="40.238014" lon="0.2740572"><ele>3.5</ele><time>2026-05-01T13:56:28.999Z</time></trkpt><trkpt lat="40.2379231" lon="0.2741042"><ele>3.6666666666666665</ele><time>2026-05-01T13:56:29.999Z</time></trkpt><trkpt lat="40.2378524" lon="0.2741714"><ele>3.833333333333333</ele><time>2026-05-01T13:56:31Z</time></trkpt><trkpt lat="40.2377949" lon="0.2742392"><ele>4.0</ele><time>2026-05-01T13:56:32Z</time></trkpt><trkpt lat="40.237743" lon="0.2743043"><ele>4.0</ele><time>2026-05-01T13:56:32.999Z</time></trkpt><trkpt lat="40.2376896" lon="0.2743561"><ele>3.9999999999999996</ele><time>2026-05-01T13:56:33.999Z</time></trkpt><trkpt lat="40.2376312" lon="0.2744101"><ele>4.0</ele><time>2026-05-01T13:56:34.999Z</time></trkpt><trkpt lat="40.2375675" lon="0.2744559"><ele>4.0</ele><time>2026-05-01T13:56:36Z</time></trkpt><trkpt lat="40.2375014" lon="0.2745001"><ele>3.9999999999999996</ele><time>2026-05-01T13:56:36.999Z</time></trkpt><trkpt lat="40.2374441" lon="0.2745355"><ele>4.0</ele><time>2026-05-01T13:56:37.999Z</time></trkpt><trkpt lat="40.2373851" lon="0.2745648"><ele>4.0</ele><time>2026-05-01T13:56:39Z</time></trkpt><trkpt lat="40.2372616" lon="0.2746171"><ele>4.6</ele><time>2026-05-01T13:56:40.999Z</time></trkpt><trkpt lat="40.2372016" lon="0.2746457"><ele>5.2</ele><time>2026-05-01T13:56:41.999Z</time></trkpt><trkpt lat="40.2370878" lon="0.2746671"><ele>5.799999999999999</ele><time>2026-05-01T13:56:44Z</time></trkpt><trkpt lat="40.2369661" lon="0.2746169"><ele>6.3999999999999995</ele><time>2026-05-01T13:56:45.999Z</time></trkpt><trkpt lat="40.2369009" lon="0.274577"><ele>7.0</ele><time>2026-05-01T13:56:47Z</time></trkpt><trkpt lat="40.2368294" lon="0.2745309"><ele>7.000000000000001</ele><time>2026-05-01T13:56:48Z</time></trkpt><trkpt lat="40.236769" lon="0.2744879"><ele>7.0</ele><time>2026-05-01T13:56:48.999Z</time></trkpt><trkpt lat="40.2367083" lon="0.2744408"><ele>7.0</ele><time>2026-05-01T13:56:49.999Z</time></trkpt><trkpt lat="40.2366592" lon="0.2743793"><ele>7.0</ele><time>2026-05-01T13:56:50.999Z</time></trkpt><trkpt lat="40.2365803" lon="0.27424"><ele>7.000000000000001</ele><time>2026-05-01T13:56:52.999Z</time></trkpt><trkpt lat="40.2365374" lon="0.2741533"><ele>7.0</ele><time>2026-05-01T13:56:53.999Z</time></trkpt><trkpt lat="40.236508" lon="0.2740621"><ele>7.000000000000001</ele><time>2026-05-01T13:56:55Z</time></trkpt><trkpt lat="40.2364777" lon="0.2739823"><ele>7.0</ele><time>2026-05-01T13:56:55.999Z</time></trkpt><trkpt lat="40.2364499" lon="0.2738901"><ele>7.0</ele><time>2026-05-01T13:56:57Z</time></trkpt><trkpt lat="40.2364197" lon="0.2737964"><ele>7.0</ele><time>2026-05-01T13:56:57.999Z</time></trkpt><trkpt lat="40.2363845" lon="0.2736988"><ele>7.000000000000001</ele><time>2026-05-01T13:56:58.999Z</time></trkpt><trkpt lat="40.2363518" lon="0.2735976"><ele>7.0</ele><time>2026-05-01T13:56:59.999Z</time></trkpt><trkpt lat="40.2363189" lon="0.273499"><ele>7.3999999999999995</ele><time>2026-05-01T13:57:00.999Z</time></trkpt><trkpt lat="40.2362784" lon="0.2733983"><ele>7.799999999999999</ele><time>2026-05-01T13:57:02Z</time></trkpt><trkpt lat="40.2362172" lon="0.2733022"><ele>8.2</ele><time>2026-05-01T13:57:02.999Z</time></trkpt><trkpt lat="40.2361566" lon="0.2732162"><ele>8.6</ele><time>2026-05-01T13:57:03.999Z</time></trkpt><trkpt lat="40.2360937" lon="0.2731249"><ele>9.0</ele><time>2026-05-01T13:57:05Z</time></trkpt><trkpt lat="40.2360211" lon="0.2730434"><ele>9.0</ele><time>2026-05-01T13:57:05.999Z</time></trkpt><trkpt lat="40.2359461" lon="0.2729672"><ele>9.0</ele><time>2026-05-01T13:57:07Z</time></trkpt><trkpt lat="40.2358635" lon="0.2729023"><ele>9.0</ele><time>2026-05-01T13:57:08Z</time></trkpt><trkpt lat="40.2357728" lon="0.2728423"><ele>9.0</ele><time>2026-05-01T13:57:08.999Z</time></trkpt><trkpt lat="40.2356782" lon="0.2727922"><ele>9.0</ele><time>2026-05-01T13:57:09.999Z</time></trkpt><trkpt lat="40.235584" lon="0.2727555"><ele>9.0</ele><time>2026-05-01T13:57:10.999Z</time></trkpt><trkpt lat="40.2354834" lon="0.2727146"><ele>9.0</ele><time>2026-05-01T13:57:12Z</time></trkpt><trkpt lat="40.2353799" lon="0.2726763"><ele>9.0</ele><time>2026-05-01T13:57:12.999Z</time></trkpt><trkpt lat="40.2352746" lon="0.272632"><ele>9.0</ele><time>2026-05-01T13:57:13.999Z</time></trkpt><trkpt lat="40.2351573" lon="0.2726013"><ele>9.0</ele><time>2026-05-01T13:57:14.999Z</time></trkpt><trkpt lat="40.2350415" lon="0.2725751"><ele>9.0</ele><time>2026-05-01T13:57:16Z</time></trkpt><trkpt lat="40.2349296" lon="0.272538"><ele>9.0</ele><time>2026-05-01T13:57:16.999Z</time></trkpt><trkpt lat="40.2347965" lon="0.2724852"><ele>9.0</ele><time>2026-05-01T13:57:17.999Z</time></trkpt><trkpt lat="40.2346793" lon="0.2724458"><ele>9.0</ele><time>2026-05-01T13:57:18.999Z</time></trkpt><trkpt lat="40.2345631" lon="0.2724103"><ele>8.8</ele><time>2026-05-01T13:57:19.999Z</time></trkpt><trkpt lat="40.234457" lon="0.2723681"><ele>8.600000000000001</ele><time>2026-05-01T13:57:20.999Z</time></trkpt><trkpt lat="40.2343577" lon="0.272329"><ele>8.4</ele><time>2026-05-01T13:57:22Z</time></trkpt><trkpt lat="40.234256" lon="0.2722888"><ele>8.200000000000001</ele><time>2026-05-01T13:57:22.999Z</time></trkpt><trkpt lat="40.2341557" lon="0.272255"><ele>8.0</ele><time>2026-05-01T13:57:24Z</time></trkpt><trkpt lat="40.234059" lon="0.2722266"><ele>8.200000000000001</ele><time>2026-05-01T13:57:25Z</time></trkpt><trkpt lat="40.2339624" lon="0.2722061"><ele>8.4</ele><time>2026-05-01T13:57:25.999Z</time></trkpt><trkpt lat="40.2338738" lon="0.2721898"><ele>8.600000000000001</ele><time>2026-05-01T13:57:26.999Z</time></trkpt><trkpt lat="40.2337809" lon="0.27218"><ele>8.8</ele><time>2026-05-01T13:57:27.999Z</time></trkpt><trkpt lat="40.2336846" lon="0.2721749"><ele>9.0</ele><time>2026-05-01T13:57:28.999Z</time></trkpt><trkpt lat="40.2335929" lon="0.2721574"><ele>9.0</ele><time>2026-05-01T13:57:29.999Z</time></trkpt><trkpt lat="40.2335019" lon="0.2721512"><ele>9.0</ele><time>2026-05-01T13:57:31Z</time></trkpt><trkpt lat="40.2334083" lon="0.2721582"><ele>9.0</ele><time>2026-05-01T13:57:32Z</time></trkpt><trkpt lat="40.233305" lon="0.2721706"><ele>9.0</ele><time>2026-05-01T13:57:33Z</time></trkpt><trkpt lat="40.2332089" lon="0.2721826"><ele>9.0</ele><time>2026-05-01T13:57:33.999Z</time></trkpt><trkpt lat="40.2331232" lon="0.2721973"><ele>9.0</ele><time>2026-05-01T13:57:35Z</time></trkpt><trkpt lat="40.2330318" lon="0.2722263"><ele>9.0</ele><time>2026-05-01T13:57:36Z</time></trkpt><trkpt lat="40.2329463" lon="0.2722506"><ele>9.0</ele><time>2026-05-01T13:57:37Z</time></trkpt><trkpt lat="40.232857" lon="0.2722809"><ele>9.0</ele><time>2026-05-01T13:57:37.999Z</time></trkpt><trkpt lat="40.2327783" lon="0.2723093"><ele>9.0</ele><time>2026-05-01T13:57:38.999Z</time></trkpt><trkpt lat="40.2327017" lon="0.2723324"><ele>9.0</ele><time>2026-05-01T13:57:40Z</time></trkpt><trkpt lat="40.2326255" lon="0.2723591"><ele>9.0</ele><time>2026-05-01T13:57:40.999Z</time></trkpt><trkpt lat="40.2325468" lon="0.2724142"><ele>9.0</ele><time>2026-05-01T13:57:42Z</time></trkpt><trkpt lat="40.232454" lon="0.2724935"><ele>9.0</ele><time>2026-05-01T13:57:42.999Z</time></trkpt><trkpt lat="40.2323655" lon="0.2725846"><ele>9.0</ele><time>2026-05-01T13:57:43.999Z</time></trkpt><trkpt lat="40.2322844" lon="0.2726759"><ele>9.0</ele><time>2026-05-01T13:57:45Z</time></trkpt><trkpt lat="40.2322013" lon="0.2727618"><ele>9.0</ele><time>2026-05-01T13:57:46Z</time></trkpt><trkpt lat="40.2321153" lon="0.2728312"><ele>9.0</ele><time>2026-05-01T13:57:46.999Z</time></trkpt><trkpt lat="40.2320142" lon="0.2728521"><ele>9.0</ele><time>2026-05-01T13:57:47.999Z</time></trkpt><trkpt lat="40.2318983" lon="0.272862"><ele>9.0</ele><time>2026-05-01T13:57:48.999Z</time></trkpt><trkpt lat="40.2317658" lon="0.2728458"><ele>9.0</ele><time>2026-05-01T13:57:49.999Z</time></trkpt><trkpt lat="40.2316194" lon="0.2728115"><ele>9.0</ele><time>2026-05-01T13:57:50.999Z</time></trkpt><trkpt lat="40.2314702" lon="0.2727842"><ele>9.0</ele><time>2026-05-01T13:57:51.999Z</time></trkpt><trkpt lat="40.2313256" lon="0.2727595"><ele>9.0</ele><time>2026-05-01T13:57:52.999Z</time></trkpt><trkpt lat="40.2311943" lon="0.2727297"><ele>7.75</ele><time>2026-05-01T13:57:53.999Z</time></trkpt><trkpt lat="40.2310861" lon="0.2726737"><ele>6.5</ele><time>2026-05-01T13:57:54.999Z</time></trkpt><trkpt lat="40.2309913" lon="0.2726019"><ele>5.25</ele><time>2026-05-01T13:57:56Z</time></trkpt><trkpt lat="40.2309071" lon="0.2724919"><ele>4.0</ele><time>2026-05-01T13:57:56.999Z</time></trkpt><trkpt lat="40.2308287" lon="0.2723597"><ele>4.0</ele><time>2026-05-01T13:57:58Z</time></trkpt><trkpt lat="40.2307481" lon="0.2722277"><ele>4.0</ele><time>2026-05-01T13:57:58.999Z</time></trkpt><trkpt lat="40.2306473" lon="0.2720827"><ele>4.0</ele><time>2026-05-01T13:57:59.999Z</time></trkpt><trkpt lat="40.2305472" lon="0.2719491"><ele>4.0</ele><time>2026-05-01T13:58:00.999Z</time></trkpt><trkpt lat="40.2304595" lon="0.2718156"><ele>4.0</ele><time>2026-05-01T13:58:01.999Z</time></trkpt><trkpt lat="40.2303728" lon="0.2717037"><ele>4.0</ele><time>2026-05-01T13:58:02.999Z</time></trkpt><trkpt lat="40.2302636" lon="0.2716078"><ele>4.0</ele><time>2026-05-01T13:58:03.999Z</time></trkpt><trkpt lat="40.2301357" lon="0.2715337"><ele>4.0</ele><time>2026-05-01T13:58:04.999Z</time></trkpt><trkpt lat="40.2299882" lon="0.2714899"><ele>4.0</ele><time>2026-05-01T13:58:06Z</time></trkpt><trkpt lat="40.2298253" lon="0.2714801"><ele>4.0</ele><time>2026-05-01T13:58:06.999Z</time></trkpt><trkpt lat="40.2296405" lon="0.2715007"><ele>4.0</ele><time>2026-05-01T13:58:08Z</time></trkpt><trkpt lat="40.2294334" lon="0.2715684"><ele>4.333333333333333</ele><time>2026-05-01T13:58:09Z</time></trkpt><trkpt lat="40.2292524" lon="0.2716233"><ele>4.666666666666667</ele><time>2026-05-01T13:58:10Z</time></trkpt><trkpt lat="40.2290908" lon="0.2716714"><ele>5.0</ele><time>2026-05-01T13:58:10.999Z</time></trkpt><trkpt lat="40.2289305" lon="0.2717042"><ele>5.0</ele><time>2026-05-01T13:58:11.999Z</time></trkpt><trkpt lat="40.2287749" lon="0.2717174"><ele>5.0</ele><time>2026-05-01T13:58:13Z</time></trkpt><trkpt lat="40.2286039" lon="0.271669"><ele>5.0</ele><time>2026-05-01T13:58:14Z</time></trkpt><trkpt lat="40.2284303" lon="0.2716079"><ele>5.0</ele><time>2026-05-01T13:58:14.999Z</time></trkpt><trkpt lat="40.2282578" lon="0.2715232"><ele>5.0</ele><time>2026-05-01T13:58:16Z</time></trkpt><trkpt lat="40.2280913" lon="0.2714409"><ele>5.0</ele><time>2026-05-01T13:58:17Z</time></trkpt><trkpt lat="40.2279293" lon="0.2713637"><ele>5.0</ele><time>2026-05-01T13:58:17.999Z</time></trkpt><trkpt lat="40.2277626" lon="0.2713121"><ele>5.0</ele><time>2026-05-01T13:58:19Z</time></trkpt><trkpt lat="40.2275935" lon="0.2712612"><ele>5.0</ele><time>2026-05-01T13:58:19.999Z</time></trkpt><trkpt lat="40.2274107" lon="0.2712165"><ele>5.0</ele><time>2026-05-01T13:58:20.999Z</time></trkpt><trkpt lat="40.227222" lon="0.2711795"><ele>5.0</ele><time>2026-05-01T13:58:21.999Z</time></trkpt><trkpt lat="40.227044" lon="0.2711483"><ele>5.0</ele><time>2026-05-01T13:58:23Z</time></trkpt><trkpt lat="40.2268664" lon="0.2711251"><ele>5.0</ele><time>2026-05-01T13:58:23.999Z</time></trkpt><trkpt lat="40.2266954" lon="0.2710902"><ele>5.0</ele><time>2026-05-01T13:58:25Z</time></trkpt><trkpt lat="40.2265092" lon="0.2710551"><ele>5.0</ele><time>2026-05-01T13:58:26Z</time></trkpt><trkpt lat="40.2263422" lon="0.2710221"><ele>4.333333333333334</ele><time>2026-05-01T13:58:27Z</time></trkpt><trkpt lat="40.2261851" lon="0.271"><ele>3.666666666666667</ele><time>2026-05-01T13:58:28Z</time></trkpt><trkpt lat="40.2260203" lon="0.270987"><ele>3.0</ele><time>2026-05-01T13:58:28.999Z</time></trkpt><trkpt lat="40.2258498" lon="0.2709781"><ele>3.0</ele><time>2026-05-01T13:58:30Z</time></trkpt><trkpt lat="40.22568" lon="0.2709732"><ele>3.0</ele><time>2026-05-01T13:58:30.999Z</time></trkpt><trkpt lat="40.225516" lon="0.2709798"><ele>3.0</ele><time>2026-05-01T13:58:32Z</time></trkpt><trkpt lat="40.2253606" lon="0.2710026"><ele>2.6666666666666665</ele><time>2026-05-01T13:58:32.999Z</time></trkpt><trkpt lat="40.2252097" lon="0.2710171"><ele>2.333333333333333</ele><time>2026-05-01T13:58:33.999Z</time></trkpt><trkpt lat="40.2250546" lon="0.2709839"><ele>2.0</ele><time>2026-05-01T13:58:34.999Z</time></trkpt><trkpt lat="40.2249046" lon="0.2709041"><ele>3.333333333333333</ele><time>2026-05-01T13:58:35.999Z</time></trkpt><trkpt lat="40.2247542" lon="0.2707987"><ele>4.666666666666667</ele><time>2026-05-01T13:58:36.999Z</time></trkpt><trkpt lat="40.22459" lon="0.2707097"><ele>6.0</ele><time>2026-05-01T13:58:38Z</time></trkpt><trkpt lat="40.2244103" lon="0.2706404"><ele>6.0</ele><time>2026-05-01T13:58:38.999Z</time></trkpt><trkpt lat="40.2242054" lon="0.2705994"><ele>6.0</ele><time>2026-05-01T13:58:39.999Z</time></trkpt><trkpt lat="40.2240065" lon="0.270562"><ele>6.0</ele><time>2026-05-01T13:58:40.999Z</time></trkpt><trkpt lat="40.2238304" lon="0.2704985"><ele>6.0</ele><time>2026-05-01T13:58:42Z</time></trkpt><trkpt lat="40.223677" lon="0.2704321"><ele>6.0</ele><time>2026-05-01T13:58:42.999Z</time></trkpt><trkpt lat="40.2235573" lon="0.2703744"><ele>6.0</ele><time>2026-05-01T13:58:43.999Z</time></trkpt><trkpt lat="40.2234515" lon="0.2703242"><ele>6.0</ele><time>2026-05-01T13:58:45Z</time></trkpt><trkpt lat="40.2233728" lon="0.270261"><ele>6.0</ele><time>2026-05-01T13:58:45.999Z</time></trkpt><trkpt lat="40.2233424" lon="0.2701314"><ele>6.0</ele><time>2026-05-01T13:58:48Z</time></trkpt><trkpt lat="40.2234228" lon="0.2699944"><ele>6.0</ele><time>2026-05-01T13:58:50Z</time></trkpt><trkpt lat="40.2234835" lon="0.269895"><ele>6.0</ele><time>2026-05-01T13:58:51Z</time></trkpt><trkpt lat="40.22355" lon="0.2697673"><ele>5.8</ele><time>2026-05-01T13:58:51.999Z</time></trkpt><trkpt lat="40.2236164" lon="0.2696442"><ele>5.6</ele><time>2026-05-01T13:58:52.999Z</time></trkpt><trkpt lat="40.2236782" lon="0.2695308"><ele>5.4</ele><time>2026-05-01T13:58:53.999Z</time></trkpt><trkpt lat="40.2237379" lon="0.2694325"><ele>5.2</ele><time>2026-05-01T13:58:55Z</time></trkpt><trkpt lat="40.2237897" lon="0.2693457"><ele>5.0</ele><time>2026-05-01T13:58:55.999Z</time></trkpt><trkpt lat="40.2238348" lon="0.2692514"><ele>5.0</ele><time>2026-05-01T13:58:56.999Z</time></trkpt><trkpt lat="40.2238743" lon="0.2691697"><ele>5.0</ele><time>2026-05-01T13:58:57.999Z</time></trkpt><trkpt lat="40.2239095" lon="0.2690919"><ele>5.0</ele><time>2026-05-01T13:58:59Z</time></trkpt><trkpt lat="40.2239908" lon="0.2689554"><ele>5.0</ele><time>2026-05-01T13:59:00.999Z</time></trkpt><trkpt lat="40.2240442" lon="0.2688712"><ele>5.0</ele><time>2026-05-01T13:59:01.999Z</time></trkpt><trkpt lat="40.2241083" lon="0.2687769"><ele>5.5</ele><time>2026-05-01T13:59:02.999Z</time></trkpt><trkpt lat="40.2241832" lon="0.2686514"><ele>6.0</ele><time>2026-05-01T13:59:03.999Z</time></trkpt><trkpt lat="40.2242659" lon="0.2685005"><ele>6.5</ele><time>2026-05-01T13:59:05Z</time></trkpt><trkpt lat="40.2243561" lon="0.2683338"><ele>7.0</ele><time>2026-05-01T13:59:05.999Z</time></trkpt><trkpt lat="40.2244573" lon="0.2681528"><ele>6.666666666666667</ele><time>2026-05-01T13:59:07Z</time></trkpt><trkpt lat="40.2245793" lon="0.2679523"><ele>6.333333333333334</ele><time>2026-05-01T13:59:07.999Z</time></trkpt><trkpt lat="40.2247042" lon="0.267746"><ele>6.0</ele><time>2026-05-01T13:59:08.999Z</time></trkpt><trkpt lat="40.2248213" lon="0.2675492"><ele>7.0</ele><time>2026-05-01T13:59:10Z</time></trkpt><trkpt lat="40.2249272" lon="0.2673646"><ele>8.0</ele><time>2026-05-01T13:59:11Z</time></trkpt><trkpt lat="40.2250275" lon="0.2672016"><ele>9.0</ele><time>2026-05-01T13:59:11.999Z</time></trkpt><trkpt lat="40.2251243" lon="0.267045"><ele>9.0</ele><time>2026-05-01T13:59:13Z</time></trkpt><trkpt lat="40.2252096" lon="0.266909"><ele>9.0</ele><time>2026-05-01T13:59:13.999Z</time></trkpt><trkpt lat="40.2252961" lon="0.2667597"><ele>9.0</ele><time>2026-05-01T13:59:14.999Z</time></trkpt><trkpt lat="40.2253897" lon="0.2666259"><ele>9.0</ele><time>2026-05-01T13:59:15.999Z</time></trkpt><trkpt lat="40.2254807" lon="0.2664607"><ele>8.666666666666666</ele><time>2026-05-01T13:59:17Z</time></trkpt><trkpt lat="40.225573" lon="0.2662808"><ele>8.333333333333332</ele><time>2026-05-01T13:59:17.999Z</time></trkpt><trkpt lat="40.2256823" lon="0.2660813"><ele>8.0</ele><time>2026-05-01T13:59:18.999Z</time></trkpt><trkpt lat="40.2257886" lon="0.2658909"><ele>7.666666666666666</ele><time>2026-05-01T13:59:20Z</time></trkpt><trkpt lat="40.2258851" lon="0.2657129"><ele>7.333333333333334</ele><time>2026-05-01T13:59:20.999Z</time></trkpt><trkpt lat="40.2259786" lon="0.2655793"><ele>7.0</ele><time>2026-05-01T13:59:22Z</time></trkpt><trkpt lat="40.2260853" lon="0.2654503"><ele>7.0</ele><time>2026-05-01T13:59:22.999Z</time></trkpt><trkpt lat="40.2262166" lon="0.2653389"><ele>7.0</ele><time>2026-05-01T13:59:23.999Z</time></trkpt><trkpt lat="40.2263465" lon="0.2652181"><ele>7.0</ele><time>2026-05-01T13:59:25Z</time></trkpt><trkpt lat="40.2264819" lon="0.2650844"><ele>7.666666666666667</ele><time>2026-05-01T13:59:25.999Z</time></trkpt><trkpt lat="40.226629" lon="0.2649423"><ele>8.333333333333334</ele><time>2026-05-01T13:59:26.999Z</time></trkpt><trkpt lat="40.2267653" lon="0.2647945"><ele>9.0</ele><time>2026-05-01T13:59:27.999Z</time></trkpt><trkpt lat="40.2268991" lon="0.2646463"><ele>9.0</ele><time>2026-05-01T13:59:28.999Z</time></trkpt><trkpt lat="40.227033" lon="0.2645002"><ele>9.0</ele><time>2026-05-01T13:59:29.999Z</time></trkpt><trkpt lat="40.2271711" lon="0.2643594"><ele>9.0</ele><time>2026-05-01T13:59:30.999Z</time></trkpt><trkpt lat="40.2273075" lon="0.2642066"><ele>9.333333333333334</ele><time>2026-05-01T13:59:31.999Z</time></trkpt><trkpt lat="40.2274466" lon="0.2640415"><ele>9.666666666666668</ele><time>2026-05-01T13:59:33Z</time></trkpt><trkpt lat="40.227589" lon="0.2638756"><ele>10.0</ele><time>2026-05-01T13:59:34Z</time></trkpt><trkpt lat="40.2277182" lon="0.2637189"><ele>10.0</ele><time>2026-05-01T13:59:35Z</time></trkpt><trkpt lat="40.2278508" lon="0.2635539"><ele>10.0</ele><time>2026-05-01T13:59:35.999Z</time></trkpt><trkpt lat="40.2279794" lon="0.2633918"><ele>10.0</ele><time>2026-05-01T13:59:36.999Z</time></trkpt><trkpt lat="40.228108" lon="0.2632346"><ele>12.0</ele><time>2026-05-01T13:59:38Z</time></trkpt><trkpt lat="40.2282304" lon="0.2630762"><ele>14.0</ele><time>2026-05-01T13:59:38.999Z</time></trkpt><trkpt lat="40.2283608" lon="0.2629195"><ele>16.0</ele><time>2026-05-01T13:59:40Z</time></trkpt><trkpt lat="40.2284887" lon="0.2627692"><ele>16.0</ele><time>2026-05-01T13:59:41Z</time></trkpt><trkpt lat="40.228606" lon="0.2626242"><ele>16.0</ele><time>2026-05-01T13:59:41.999Z</time></trkpt><trkpt lat="40.2287226" lon="0.2624855"><ele>16.0</ele><time>2026-05-01T13:59:43Z</time></trkpt><trkpt lat="40.2288298" lon="0.2623463"><ele>15.75</ele><time>2026-05-01T13:59:43.999Z</time></trkpt><trkpt lat="40.2289333" lon="0.2622142"><ele>15.5</ele><time>2026-05-01T13:59:44.999Z</time></trkpt><trkpt lat="40.2290363" lon="0.2620722"><ele>15.25</ele><time>2026-05-01T13:59:45.999Z</time></trkpt><trkpt lat="40.2291384" lon="0.2619195"><ele>15.0</ele><time>2026-05-01T13:59:47Z</time></trkpt><trkpt lat="40.2292351" lon="0.2617753"><ele>15.0</ele><time>2026-05-01T13:59:47.999Z</time></trkpt><trkpt lat="40.2293207" lon="0.2616473"><ele>15.0</ele><time>2026-05-01T13:59:48.999Z</time></trkpt><trkpt lat="40.2293904" lon="0.2615573"><ele>15.0</ele><time>2026-05-01T13:59:50Z</time></trkpt><trkpt lat="40.2294598" lon="0.2614736"><ele>15.0</ele><time>2026-05-01T13:59:50.999Z</time></trkpt><trkpt lat="40.2295269" lon="0.2614228"><ele>15.0</ele><time>2026-05-01T13:59:51.999Z</time></trkpt><trkpt lat="40.2296085" lon="0.2614129"><ele>14.75</ele><time>2026-05-01T13:59:52.999Z</time></trkpt><trkpt lat="40.2297067" lon="0.2614275"><ele>14.5</ele><time>2026-05-01T13:59:53.999Z</time></trkpt><trkpt lat="40.2298171" lon="0.2614475"><ele>14.25</ele><time>2026-05-01T13:59:54.999Z</time></trkpt><trkpt lat="40.229948" lon="0.2614756"><ele>14.0</ele><time>2026-05-01T13:59:56Z</time></trkpt><trkpt lat="40.2300834" lon="0.2615044"><ele>14.0</ele><time>2026-05-01T13:59:56.999Z</time></trkpt><trkpt lat="40.2302246" lon="0.2615348"><ele>14.0</ele><time>2026-05-01T13:59:57.999Z</time></trkpt><trkpt lat="40.2303613" lon="0.2615925"><ele>14.0</ele><time>2026-05-01T13:59:58.999Z</time></trkpt><trkpt lat="40.2305" lon="0.2616774"><ele>14.0</ele><time>2026-05-01T13:59:59.999Z</time></trkpt><trkpt lat="40.2306392" lon="0.261792"><ele>14.0</ele><time>2026-05-01T14:00:00.999Z</time></trkpt><trkpt lat="40.2307913" lon="0.26192"><ele>14.0</ele><time>2026-05-01T14:00:01.999Z</time></trkpt><trkpt lat="40.2309442" lon="0.2620522"><ele>14.0</ele><time>2026-05-01T14:00:03Z</time></trkpt><trkpt lat="40.2311008" lon="0.2622026"><ele>14.333333333333334</ele><time>2026-05-01T14:00:03.999Z</time></trkpt><trkpt lat="40.2312631" lon="0.2623703"><ele>14.666666666666668</ele><time>2026-05-01T14:00:04.999Z</time></trkpt><trkpt lat="40.23142" lon="0.2625353"><ele>15.0</ele><time>2026-05-01T14:00:05.999Z</time></trkpt><trkpt lat="40.2315737" lon="0.2627003"><ele>15.0</ele><time>2026-05-01T14:00:06.999Z</time></trkpt><trkpt lat="40.2317246" lon="0.2628467"><ele>15.0</ele><time>2026-05-01T14:00:08Z</time></trkpt><trkpt lat="40.2318553" lon="0.2629874"><ele>15.0</ele><time>2026-05-01T14:00:09Z</time></trkpt><trkpt lat="40.2319842" lon="0.2631158"><ele>15.0</ele><time>2026-05-01T14:00:10Z</time></trkpt><trkpt lat="40.2321188" lon="0.2632542"><ele>15.0</ele><time>2026-05-01T14:00:10.999Z</time></trkpt><trkpt lat="40.23224" lon="0.2633818"><ele>15.0</ele><time>2026-05-01T14:00:11.999Z</time></trkpt><trkpt lat="40.2323544" lon="0.2634917"><ele>15.0</ele><time>2026-05-01T14:00:12.999Z</time></trkpt><trkpt lat="40.2324548" lon="0.2636051"><ele>15.0</ele><time>2026-05-01T14:00:14Z</time></trkpt><trkpt lat="40.2325546" lon="0.2637045"><ele>15.0</ele><time>2026-05-01T14:00:14.999Z</time></trkpt><trkpt lat="40.23265" lon="0.2637898"><ele>15.0</ele><time>2026-05-01T14:00:15.999Z</time></trkpt><trkpt lat="40.2327467" lon="0.2638662"><ele>15.0</ele><time>2026-05-01T14:00:16.999Z</time></trkpt><trkpt lat="40.2328414" lon="0.263932"><ele>15.0</ele><time>2026-05-01T14:00:17.999Z</time></trkpt><trkpt lat="40.2329053" lon="0.2639973"><ele>15.0</ele><time>2026-05-01T14:00:19Z</time></trkpt><trkpt lat="40.2329748" lon="0.2640378"><ele>15.0</ele><time>2026-05-01T14:00:20Z</time></trkpt><trkpt lat="40.2330468" lon="0.2640191"><ele>15.0</ele><time>2026-05-01T14:00:20.999Z</time></trkpt><trkpt lat="40.2331016" lon="0.2639672"><ele>15.0</ele><time>2026-05-01T14:00:22Z</time></trkpt><trkpt lat="40.2331519" lon="0.2638914"><ele>14.75</ele><time>2026-05-01T14:00:22.999Z</time></trkpt><trkpt lat="40.2332258" lon="0.2637891"><ele>14.5</ele><time>2026-05-01T14:00:24Z</time></trkpt><trkpt lat="40.2333149" lon="0.2636774"><ele>14.25</ele><time>2026-05-01T14:00:25Z</time></trkpt><trkpt lat="40.2334208" lon="0.2635427"><ele>14.0</ele><time>2026-05-01T14:00:26Z</time></trkpt><trkpt lat="40.2335349" lon="0.2634096"><ele>14.0</ele><time>2026-05-01T14:00:26.999Z</time></trkpt><trkpt lat="40.2336597" lon="0.2632589"><ele>14.0</ele><time>2026-05-01T14:00:28Z</time></trkpt><trkpt lat="40.2337883" lon="0.2631048"><ele>14.0</ele><time>2026-05-01T14:00:28.999Z</time></trkpt><trkpt lat="40.233911" lon="0.2629516"><ele>14.25</ele><time>2026-05-01T14:00:30Z</time></trkpt><trkpt lat="40.2340186" lon="0.2628051"><ele>14.5</ele><time>2026-05-01T14:00:30.999Z</time></trkpt><trkpt lat="40.2341176" lon="0.2626734"><ele>14.75</ele><time>2026-05-01T14:00:32Z</time></trkpt><trkpt lat="40.2342132" lon="0.2625449"><ele>15.0</ele><time>2026-05-01T14:00:33Z</time></trkpt><trkpt lat="40.2342942" lon="0.262422"><ele>15.0</ele><time>2026-05-01T14:00:33.999Z</time></trkpt><trkpt lat="40.2343689" lon="0.2623185"><ele>15.0</ele><time>2026-05-01T14:00:34.999Z</time></trkpt><trkpt lat="40.2344435" lon="0.2622154"><ele>15.0</ele><time>2026-05-01T14:00:36Z</time></trkpt><trkpt lat="40.2345166" lon="0.2621183"><ele>15.0</ele><time>2026-05-01T14:00:36.999Z</time></trkpt><trkpt lat="40.2345833" lon="0.2620185"><ele>15.0</ele><time>2026-05-01T14:00:37.999Z</time></trkpt><trkpt lat="40.2346403" lon="0.2619253"><ele>15.166666666666666</ele><time>2026-05-01T14:00:38.999Z</time></trkpt><trkpt lat="40.234674" lon="0.2618285"><ele>15.333333333333332</ele><time>2026-05-01T14:00:39.999Z</time></trkpt><trkpt lat="40.2346393" lon="0.2617196"><ele>15.5</ele><time>2026-05-01T14:00:40.999Z</time></trkpt><trkpt lat="40.234605" lon="0.2616296"><ele>15.666666666666666</ele><time>2026-05-01T14:00:41.999Z</time></trkpt><trkpt lat="40.234579" lon="0.2615406"><ele>15.833333333333332</ele><time>2026-05-01T14:00:43Z</time></trkpt><trkpt lat="40.2345995" lon="0.2614285"><ele>16.0</ele><time>2026-05-01T14:00:43.999Z</time></trkpt><trkpt lat="40.2346218" lon="0.2613063"><ele>16.25</ele><time>2026-05-01T14:00:45Z</time></trkpt><trkpt lat="40.2346562" lon="0.2611661"><ele>16.5</ele><time>2026-05-01T14:00:45.999Z</time></trkpt><trkpt lat="40.2346824" lon="0.2609884"><ele>16.75</ele><time>2026-05-01T14:00:47Z</time></trkpt><trkpt lat="40.2347085" lon="0.2607895"><ele>17.0</ele><time>2026-05-01T14:00:48Z</time></trkpt><trkpt lat="40.2347334" lon="0.2605913"><ele>17.333333333333336</ele><time>2026-05-01T14:00:48.999Z</time></trkpt><trkpt lat="40.2347636" lon="0.2603659"><ele>17.666666666666668</ele><time>2026-05-01T14:00:50Z</time></trkpt><trkpt lat="40.2347976" lon="0.2601329"><ele>18.0</ele><time>2026-05-01T14:00:51Z</time></trkpt><trkpt lat="40.2348366" lon="0.2598964"><ele>18.333333333333332</ele><time>2026-05-01T14:00:51.999Z</time></trkpt><trkpt lat="40.2348681" lon="0.259658"><ele>18.666666666666664</ele><time>2026-05-01T14:00:52.999Z</time></trkpt><trkpt lat="40.2348943" lon="0.2594262"><ele>19.0</ele><time>2026-05-01T14:00:53.999Z</time></trkpt><trkpt lat="40.2349206" lon="0.2591911"><ele>19.0</ele><time>2026-05-01T14:00:55Z</time></trkpt><trkpt lat="40.2349414" lon="0.2589565"><ele>19.0</ele><time>2026-05-01T14:00:55.999Z</time></trkpt><trkpt lat="40.2349564" lon="0.2587291"><ele>19.0</ele><time>2026-05-01T14:00:57Z</time></trkpt><trkpt lat="40.2349738" lon="0.25854"><ele>19.25</ele><time>2026-05-01T14:00:57.999Z</time></trkpt><trkpt lat="40.2349989" lon="0.258351"><ele>19.5</ele><time>2026-05-01T14:00:58.999Z</time></trkpt><trkpt lat="40.2350468" lon="0.2581731"><ele>19.75</ele><time>2026-05-01T14:01:00Z</time></trkpt><trkpt lat="40.2351157" lon="0.2579947"><ele>20.0</ele><time>2026-05-01T14:01:00.999Z</time></trkpt><trkpt lat="40.2351849" lon="0.2577934"><ele>20.333333333333336</ele><time>2026-05-01T14:01:02Z</time></trkpt><trkpt lat="40.2352597" lon="0.2575918"><ele>20.666666666666668</ele><time>2026-05-01T14:01:02.999Z</time></trkpt><trkpt lat="40.2353261" lon="0.2573793"><ele>21.0</ele><time>2026-05-01T14:01:04Z</time></trkpt><trkpt lat="40.2353898" lon="0.257162"><ele>21.0</ele><time>2026-05-01T14:01:04.999Z</time></trkpt><trkpt lat="40.2354593" lon="0.256938"><ele>21.0</ele><time>2026-05-01T14:01:06Z</time></trkpt><trkpt lat="40.2355316" lon="0.2567184"><ele>21.0</ele><time>2026-05-01T14:01:06.999Z</time></trkpt><trkpt lat="40.2356016" lon="0.2564862"><ele>22.0</ele><time>2026-05-01T14:01:07.999Z</time></trkpt><trkpt lat="40.2356665" lon="0.256257"><ele>23.0</ele><time>2026-05-01T14:01:09Z</time></trkpt><trkpt lat="40.2357188" lon="0.2560148"><ele>24.0</ele><time>2026-05-01T14:01:09.999Z</time></trkpt><trkpt lat="40.2357738" lon="0.2557747"><ele>24.0</ele><time>2026-05-01T14:01:10.999Z</time></trkpt><trkpt lat="40.2358347" lon="0.2555246"><ele>24.0</ele><time>2026-05-01T14:01:11.999Z</time></trkpt><trkpt lat="40.2358931" lon="0.255288"><ele>24.0</ele><time>2026-05-01T14:01:13Z</time></trkpt><trkpt lat="40.2359522" lon="0.255076"><ele>24.0</ele><time>2026-05-01T14:01:13.999Z</time></trkpt><trkpt lat="40.2360147" lon="0.2548729"><ele>24.0</ele><time>2026-05-01T14:01:14.999Z</time></trkpt><trkpt lat="40.2361046" lon="0.2546879"><ele>24.0</ele><time>2026-05-01T14:01:15.999Z</time></trkpt><trkpt lat="40.2361905" lon="0.2544957"><ele>24.0</ele><time>2026-05-01T14:01:16.999Z</time></trkpt><trkpt lat="40.2362846" lon="0.2543077"><ele>24.0</ele><time>2026-05-01T14:01:17.999Z</time></trkpt><trkpt lat="40.2363864" lon="0.2541169"><ele>24.0</ele><time>2026-05-01T14:01:18.999Z</time></trkpt><trkpt lat="40.2364871" lon="0.2539252"><ele>24.666666666666664</ele><time>2026-05-01T14:01:19.999Z</time></trkpt><trkpt lat="40.236586" lon="0.253738"><ele>25.333333333333332</ele><time>2026-05-01T14:01:20.999Z</time></trkpt><trkpt lat="40.2366783" lon="0.2535617"><ele>26.0</ele><time>2026-05-01T14:01:22Z</time></trkpt><trkpt lat="40.2367796" lon="0.2533884"><ele>26.0</ele><time>2026-05-01T14:01:22.999Z</time></trkpt><trkpt lat="40.2368716" lon="0.2532074"><ele>26.0</ele><time>2026-05-01T14:01:23.999Z</time></trkpt><trkpt lat="40.2369696" lon="0.2530241"><ele>26.0</ele><time>2026-05-01T14:01:24.999Z</time></trkpt><trkpt lat="40.237068" lon="0.2528359"><ele>26.333333333333332</ele><time>2026-05-01T14:01:25.999Z</time></trkpt><trkpt lat="40.2371683" lon="0.2526415"><ele>26.666666666666664</ele><time>2026-05-01T14:01:27Z</time></trkpt><trkpt lat="40.2372608" lon="0.2524487"><ele>27.0</ele><time>2026-05-01T14:01:27.999Z</time></trkpt><trkpt lat="40.2373495" lon="0.2522706"><ele>28.0</ele><time>2026-05-01T14:01:29Z</time></trkpt><trkpt lat="40.2374388" lon="0.2520934"><ele>29.0</ele><time>2026-05-01T14:01:29.999Z</time></trkpt><trkpt lat="40.2375296" lon="0.251933"><ele>30.0</ele><time>2026-05-01T14:01:31Z</time></trkpt><trkpt lat="40.2376261" lon="0.2517915"><ele>30.0</ele><time>2026-05-01T14:01:31.999Z</time></trkpt><trkpt lat="40.2377312" lon="0.2516284"><ele>30.0</ele><time>2026-05-01T14:01:32.999Z</time></trkpt><trkpt lat="40.237838" lon="0.2514706"><ele>30.0</ele><time>2026-05-01T14:01:33.999Z</time></trkpt><trkpt lat="40.2379572" lon="0.2512927"><ele>30.333333333333336</ele><time>2026-05-01T14:01:34.999Z</time></trkpt><trkpt lat="40.2380677" lon="0.2511346"><ele>30.666666666666668</ele><time>2026-05-01T14:01:36Z</time></trkpt><trkpt lat="40.2381797" lon="0.2509743"><ele>31.0</ele><time>2026-05-01T14:01:36.999Z</time></trkpt><trkpt lat="40.2382812" lon="0.2508341"><ele>31.0</ele><time>2026-05-01T14:01:37.999Z</time></trkpt><trkpt lat="40.2383632" lon="0.2507068"><ele>31.0</ele><time>2026-05-01T14:01:39Z</time></trkpt><trkpt lat="40.2384406" lon="0.2505948"><ele>31.0</ele><time>2026-05-01T14:01:39.999Z</time></trkpt><trkpt lat="40.2385073" lon="0.250489"><ele>31.0</ele><time>2026-05-01T14:01:41Z</time></trkpt><trkpt lat="40.2385756" lon="0.2503921"><ele>31.0</ele><time>2026-05-01T14:01:41.999Z</time></trkpt><trkpt lat="40.2386513" lon="0.2502877"><ele>31.0</ele><time>2026-05-01T14:01:43Z</time></trkpt><trkpt lat="40.2387374" lon="0.2501653"><ele>31.0</ele><time>2026-05-01T14:01:43.999Z</time></trkpt><trkpt lat="40.2388402" lon="0.2500357"><ele>31.0</ele><time>2026-05-01T14:01:44.999Z</time></trkpt><trkpt lat="40.2389587" lon="0.2498983"><ele>31.0</ele><time>2026-05-01T14:01:46Z</time></trkpt><trkpt lat="40.2390838" lon="0.2497627"><ele>32.333333333333336</ele><time>2026-05-01T14:01:46.999Z</time></trkpt><trkpt lat="40.2392367" lon="0.2496706"><ele>33.666666666666664</ele><time>2026-05-01T14:01:48Z</time></trkpt><trkpt lat="40.2393983" lon="0.2495995"><ele>35.0</ele><time>2026-05-01T14:01:48.999Z</time></trkpt><trkpt lat="40.2395819" lon="0.2495274"><ele>35.0</ele><time>2026-05-01T14:01:49.999Z</time></trkpt><trkpt lat="40.2397759" lon="0.2494513"><ele>35.0</ele><time>2026-05-01T14:01:50.999Z</time></trkpt><trkpt lat="40.2399614" lon="0.2493843"><ele>35.0</ele><time>2026-05-01T14:01:51.999Z</time></trkpt><trkpt lat="40.2401324" lon="0.2493229"><ele>35.666666666666664</ele><time>2026-05-01T14:01:53Z</time></trkpt><trkpt lat="40.2403014" lon="0.2492761"><ele>36.333333333333336</ele><time>2026-05-01T14:01:54Z</time></trkpt><trkpt lat="40.2404749" lon="0.2492529"><ele>37.0</ele><time>2026-05-01T14:01:54.999Z</time></trkpt><trkpt lat="40.2406629" lon="0.2492414"><ele>37.333333333333336</ele><time>2026-05-01T14:01:56Z</time></trkpt><trkpt lat="40.2408646" lon="0.2492231"><ele>37.666666666666664</ele><time>2026-05-01T14:01:56.999Z</time></trkpt><trkpt lat="40.2410652" lon="0.2492072"><ele>38.0</ele><time>2026-05-01T14:01:58Z</time></trkpt><trkpt lat="40.2412533" lon="0.2491888"><ele>38.0</ele><time>2026-05-01T14:01:58.999Z</time></trkpt><trkpt lat="40.2414406" lon="0.2491767"><ele>38.0</ele><time>2026-05-01T14:01:59.999Z</time></trkpt><trkpt lat="40.2416104" lon="0.2491628"><ele>38.0</ele><time>2026-05-01T14:02:01Z</time></trkpt><trkpt lat="40.2417677" lon="0.2491436"><ele>38.0</ele><time>2026-05-01T14:02:02Z</time></trkpt><trkpt lat="40.2419234" lon="0.2491329"><ele>38.0</ele><time>2026-05-01T14:02:03Z</time></trkpt><trkpt lat="40.2420704" lon="0.249115"><ele>38.0</ele><time>2026-05-01T14:02:03.999Z</time></trkpt><trkpt lat="40.242232" lon="0.2490676"><ele>38.33333333333333</ele><time>2026-05-01T14:02:04.999Z</time></trkpt><trkpt lat="40.2423921" lon="0.2490021"><ele>38.666666666666664</ele><time>2026-05-01T14:02:05.999Z</time></trkpt><trkpt lat="40.2425577" lon="0.2489119"><ele>39.0</ele><time>2026-05-01T14:02:07Z</time></trkpt><trkpt lat="40.2427208" lon="0.2488035"><ele>39.0</ele><time>2026-05-01T14:02:07.999Z</time></trkpt><trkpt lat="40.2428961" lon="0.2486919"><ele>39.0</ele><time>2026-05-01T14:02:08.999Z</time></trkpt><trkpt lat="40.2430716" lon="0.248581"><ele>39.0</ele><time>2026-05-01T14:02:10Z</time></trkpt><trkpt lat="40.2432519" lon="0.248472"><ele>40.333333333333336</ele><time>2026-05-01T14:02:10.999Z</time></trkpt><trkpt lat="40.2434366" lon="0.2483666"><ele>41.66666666666667</ele><time>2026-05-01T14:02:12Z</time></trkpt><trkpt lat="40.2436275" lon="0.2482696"><ele>43.0</ele><time>2026-05-01T14:02:12.999Z</time></trkpt><trkpt lat="40.2438233" lon="0.2481838"><ele>43.333333333333336</ele><time>2026-05-01T14:02:13.999Z</time></trkpt><trkpt lat="40.2440189" lon="0.2480905"><ele>43.666666666666664</ele><time>2026-05-01T14:02:14.999Z</time></trkpt><trkpt lat="40.2442158" lon="0.2479967"><ele>44.0</ele><time>2026-05-01T14:02:15.999Z</time></trkpt><trkpt lat="40.2444045" lon="0.2479056"><ele>44.0</ele><time>2026-05-01T14:02:16.999Z</time></trkpt><trkpt lat="40.2445913" lon="0.247812"><ele>44.0</ele><time>2026-05-01T14:02:17.999Z</time></trkpt><trkpt lat="40.2447757" lon="0.2477145"><ele>44.0</ele><time>2026-05-01T14:02:19Z</time></trkpt><trkpt lat="40.2449575" lon="0.247627"><ele>44.666666666666664</ele><time>2026-05-01T14:02:19.999Z</time></trkpt><trkpt lat="40.2451404" lon="0.2475335"><ele>45.333333333333336</ele><time>2026-05-01T14:02:20.999Z</time></trkpt><trkpt lat="40.245322" lon="0.247433"><ele>46.0</ele><time>2026-05-01T14:02:22Z</time></trkpt><trkpt lat="40.2455074" lon="0.2473329"><ele>46.333333333333336</ele><time>2026-05-01T14:02:23Z</time></trkpt><trkpt lat="40.2456913" lon="0.2472359"><ele>46.666666666666664</ele><time>2026-05-01T14:02:24Z</time></trkpt><trkpt lat="40.2458783" lon="0.2471445"><ele>47.0</ele><time>2026-05-01T14:02:25Z</time></trkpt><trkpt lat="40.2460745" lon="0.2470525"><ele>47.0</ele><time>2026-05-01T14:02:25.999Z</time></trkpt><trkpt lat="40.2462735" lon="0.2469634"><ele>47.0</ele><time>2026-05-01T14:02:26.999Z</time></trkpt><trkpt lat="40.2464735" lon="0.2468799"><ele>47.0</ele><time>2026-05-01T14:02:27.999Z</time></trkpt><trkpt lat="40.2466579" lon="0.2468221"><ele>48.0</ele><time>2026-05-01T14:02:28.999Z</time></trkpt><trkpt lat="40.2468445" lon="0.2467584"><ele>49.0</ele><time>2026-05-01T14:02:29.999Z</time></trkpt><trkpt lat="40.2470299" lon="0.2466787"><ele>50.0</ele><time>2026-05-01T14:02:31Z</time></trkpt><trkpt lat="40.2472189" lon="0.2465877"><ele>50.0</ele><time>2026-05-01T14:02:32Z</time></trkpt><trkpt lat="40.2473929" lon="0.2465015"><ele>50.0</ele><time>2026-05-01T14:02:32.999Z</time></trkpt><trkpt lat="40.2475612" lon="0.2464313"><ele>50.0</ele><time>2026-05-01T14:02:33.999Z</time></trkpt><trkpt lat="40.2477223" lon="0.2463594"><ele>50.0</ele><time>2026-05-01T14:02:35Z</time></trkpt><trkpt lat="40.2478763" lon="0.2462881"><ele>50.0</ele><time>2026-05-01T14:02:35.999Z</time></trkpt><trkpt lat="40.2480283" lon="0.2462213"><ele>50.0</ele><time>2026-05-01T14:02:37Z</time></trkpt><trkpt lat="40.2481814" lon="0.2461589"><ele>50.75</ele><time>2026-05-01T14:02:38Z</time></trkpt><trkpt lat="40.2483298" lon="0.2460989"><ele>51.5</ele><time>2026-05-01T14:02:38.999Z</time></trkpt><trkpt lat="40.248457" lon="0.2460377"><ele>52.25</ele><time>2026-05-01T14:02:39.999Z</time></trkpt><trkpt lat="40.2485813" lon="0.2459818"><ele>53.0</ele><time>2026-05-01T14:02:41Z</time></trkpt><trkpt lat="40.2486965" lon="0.2459257"><ele>53.00000000000001</ele><time>2026-05-01T14:02:41.999Z</time></trkpt><trkpt lat="40.2487955" lon="0.2458838"><ele>53.0</ele><time>2026-05-01T14:02:42.999Z</time></trkpt><trkpt lat="40.2488897" lon="0.2458398"><ele>53.0</ele><time>2026-05-01T14:02:44Z</time></trkpt><trkpt lat="40.2489765" lon="0.2458058"><ele>53.0</ele><time>2026-05-01T14:02:45Z</time></trkpt><trkpt lat="40.2490562" lon="0.2457712"><ele>53.00000000000001</ele><time>2026-05-01T14:02:45.999Z</time></trkpt><trkpt lat="40.249123" lon="0.2457493"><ele>53.0</ele><time>2026-05-01T14:02:46.999Z</time></trkpt><trkpt lat="40.2491886" lon="0.245694"><ele>53.599999999999994</ele><time>2026-05-01T14:02:48.999Z</time></trkpt><trkpt lat="40.2491902" lon="0.2455984"><ele>54.199999999999996</ele><time>2026-05-01T14:02:50.999Z</time></trkpt><trkpt lat="40.2491518" lon="0.2455192"><ele>54.8</ele><time>2026-05-01T14:02:51.999Z</time></trkpt><trkpt lat="40.2491018" lon="0.2453919"><ele>55.4</ele><time>2026-05-01T14:02:52.999Z</time></trkpt><trkpt lat="40.2490407" lon="0.2452625"><ele>56.0</ele><time>2026-05-01T14:02:53.999Z</time></trkpt><trkpt lat="40.2489836" lon="0.2451196"><ele>55.333333333333336</ele><time>2026-05-01T14:02:55Z</time></trkpt><trkpt lat="40.2489319" lon="0.2449267"><ele>54.66666666666667</ele><time>2026-05-01T14:02:55.999Z</time></trkpt><trkpt lat="40.2488922" lon="0.2447106"><ele>54.0</ele><time>2026-05-01T14:02:56.999Z</time></trkpt><trkpt lat="40.2488603" lon="0.2444859"><ele>53.33333333333333</ele><time>2026-05-01T14:02:57.999Z</time></trkpt><trkpt lat="40.2488286" lon="0.2442432"><ele>52.666666666666664</ele><time>2026-05-01T14:02:59Z</time></trkpt><trkpt lat="40.2487867" lon="0.2439969"><ele>52.0</ele><time>2026-05-01T14:02:59.999Z</time></trkpt><trkpt lat="40.2487392" lon="0.2437305"><ele>52.0</ele><time>2026-05-01T14:03:01Z</time></trkpt><trkpt lat="40.2486805" lon="0.2434575"><ele>52.0</ele><time>2026-05-01T14:03:01.999Z</time></trkpt><trkpt lat="40.2486127" lon="0.243187"><ele>52.0</ele><time>2026-05-01T14:03:02.999Z</time></trkpt><trkpt lat="40.248531" lon="0.2429463"><ele>52.33333333333333</ele><time>2026-05-01T14:03:04Z</time></trkpt><trkpt lat="40.2484581" lon="0.2427201"><ele>52.66666666666667</ele><time>2026-05-01T14:03:04.999Z</time></trkpt><trkpt lat="40.2483925" lon="0.2425143"><ele>53.0</ele><time>2026-05-01T14:03:06Z</time></trkpt><trkpt lat="40.2483328" lon="0.2423348"><ele>52.5</ele><time>2026-05-01T14:03:06.999Z</time></trkpt><trkpt lat="40.248274" lon="0.242177"><ele>52.0</ele><time>2026-05-01T14:03:07.999Z</time></trkpt><trkpt lat="40.2482036" lon="0.2420404"><ele>51.5</ele><time>2026-05-01T14:03:08.999Z</time></trkpt><trkpt lat="40.2481161" lon="0.241941"><ele>51.0</ele><time>2026-05-01T14:03:10Z</time></trkpt><trkpt lat="40.2480037" lon="0.241858"><ele>50.8</ele><time>2026-05-01T14:03:11Z</time></trkpt><trkpt lat="40.2478923" lon="0.2417974"><ele>50.599999999999994</ele><time>2026-05-01T14:03:11.999Z</time></trkpt><trkpt lat="40.2477898" lon="0.2417248"><ele>50.4</ele><time>2026-05-01T14:03:12.999Z</time></trkpt><trkpt lat="40.2477157" lon="0.2416313"><ele>50.2</ele><time>2026-05-01T14:03:13.999Z</time></trkpt><trkpt lat="40.2476768" lon="0.2415127"><ele>50.0</ele><time>2026-05-01T14:03:15Z</time></trkpt><trkpt lat="40.2476726" lon="0.2413801"><ele>50.0</ele><time>2026-05-01T14:03:16Z</time></trkpt><trkpt lat="40.2476918" lon="0.2412328"><ele>50.0</ele><time>2026-05-01T14:03:16.999Z</time></trkpt><trkpt lat="40.2477166" lon="0.2410655"><ele>50.0</ele><time>2026-05-01T14:03:17.999Z</time></trkpt><trkpt lat="40.2477334" lon="0.2409102"><ele>50.0</ele><time>2026-05-01T14:03:18.999Z</time></trkpt><trkpt lat="40.2477195" lon="0.2407674"><ele>49.0</ele><time>2026-05-01T14:03:19.999Z</time></trkpt><trkpt lat="40.2476834" lon="0.2406295"><ele>48.0</ele><time>2026-05-01T14:03:20.999Z</time></trkpt><trkpt lat="40.2476045" lon="0.2405053"><ele>47.0</ele><time>2026-05-01T14:03:22Z</time></trkpt><trkpt lat="40.2475224" lon="0.2404017"><ele>46.0</ele><time>2026-05-01T14:03:23Z</time></trkpt><trkpt lat="40.2474242" lon="0.2403165"><ele>46.0</ele><time>2026-05-01T14:03:23.999Z</time></trkpt><trkpt lat="40.2473286" lon="0.2402326"><ele>46.0</ele><time>2026-05-01T14:03:25Z</time></trkpt><trkpt lat="40.2472694" lon="0.2401148"><ele>46.0</ele><time>2026-05-01T14:03:25.999Z</time></trkpt><trkpt lat="40.2472432" lon="0.2399662"><ele>46.0</ele><time>2026-05-01T14:03:27Z</time></trkpt><trkpt lat="40.2472442" lon="0.2397938"><ele>45.75</ele><time>2026-05-01T14:03:27.999Z</time></trkpt><trkpt lat="40.2472487" lon="0.2396139"><ele>45.5</ele><time>2026-05-01T14:03:29Z</time></trkpt><trkpt lat="40.2472546" lon="0.2394128"><ele>45.25</ele><time>2026-05-01T14:03:29.999Z</time></trkpt><trkpt lat="40.2472622" lon="0.2392091"><ele>45.0</ele><time>2026-05-01T14:03:30.999Z</time></trkpt><trkpt lat="40.2472719" lon="0.2390069"><ele>45.0</ele><time>2026-05-01T14:03:32Z</time></trkpt><trkpt lat="40.2472912" lon="0.2388267"><ele>45.0</ele><time>2026-05-01T14:03:33Z</time></trkpt><trkpt lat="40.2473098" lon="0.2386663"><ele>45.0</ele><time>2026-05-01T14:03:34Z</time></trkpt><trkpt lat="40.2473254" lon="0.2385158"><ele>45.0</ele><time>2026-05-01T14:03:34.999Z</time></trkpt><trkpt lat="40.2473477" lon="0.2383878"><ele>45.666666666666664</ele><time>2026-05-01T14:03:35.999Z</time></trkpt><trkpt lat="40.2473706" lon="0.2382641"><ele>46.33333333333333</ele><time>2026-05-01T14:03:37Z</time></trkpt><trkpt lat="40.2474018" lon="0.2381495"><ele>47.0</ele><time>2026-05-01T14:03:37.994Z</time></trkpt><trkpt lat="40.2474361" lon="0.2380393"><ele>47.666666666666664</ele><time>2026-05-01T14:03:39Z</time></trkpt><trkpt lat="40.2474625" lon="0.2379409"><ele>48.33333333333333</ele><time>2026-05-01T14:03:39.999Z</time></trkpt><trkpt lat="40.2474715" lon="0.2378267"><ele>49.0</ele><time>2026-05-01T14:03:40.999Z</time></trkpt><trkpt lat="40.2474684" lon="0.2377188"><ele>49.25</ele><time>2026-05-01T14:03:41.999Z</time></trkpt><trkpt lat="40.2474147" lon="0.2376089"><ele>49.5</ele><time>2026-05-01T14:03:42.999Z</time></trkpt><trkpt lat="40.2473467" lon="0.2375033"><ele>49.75</ele><time>2026-05-01T14:03:44Z</time></trkpt><trkpt lat="40.2472746" lon="0.2373727"><ele>50.0</ele><time>2026-05-01T14:03:44.999Z</time></trkpt><trkpt lat="40.2471888" lon="0.2372052"><ele>49.333333333333336</ele><time>2026-05-01T14:03:46Z</time></trkpt><trkpt lat="40.2470943" lon="0.2370357"><ele>48.66666666666667</ele><time>2026-05-01T14:03:46.999Z</time></trkpt><trkpt lat="40.2469916" lon="0.2368599"><ele>48.0</ele><time>2026-05-01T14:03:47.999Z</time></trkpt><trkpt lat="40.2468991" lon="0.2366694"><ele>49.33333333333333</ele><time>2026-05-01T14:03:48.999Z</time></trkpt><trkpt lat="40.2468094" lon="0.2364618"><ele>50.666666666666664</ele><time>2026-05-01T14:03:49.999Z</time></trkpt><trkpt lat="40.2467316" lon="0.2362433"><ele>52.0</ele><time>2026-05-01T14:03:51Z</time></trkpt><trkpt lat="40.246653" lon="0.2360402"><ele>52.0</ele><time>2026-05-01T14:03:52Z</time></trkpt><trkpt lat="40.2465635" lon="0.235851"><ele>52.0</ele><time>2026-05-01T14:03:53Z</time></trkpt><trkpt lat="40.2464545" lon="0.235671"><ele>52.0</ele><time>2026-05-01T14:03:53.999Z</time></trkpt><trkpt lat="40.2463438" lon="0.2354991"><ele>51.0</ele><time>2026-05-01T14:03:55Z</time></trkpt><trkpt lat="40.2462367" lon="0.2353323"><ele>50.0</ele><time>2026-05-01T14:03:56Z</time></trkpt><trkpt lat="40.2461421" lon="0.2351808"><ele>49.0</ele><time>2026-05-01T14:03:57Z</time></trkpt><trkpt lat="40.2460415" lon="0.2350065"><ele>49.0</ele><time>2026-05-01T14:03:57.999Z</time></trkpt><trkpt lat="40.2459237" lon="0.2348463"><ele>49.0</ele><time>2026-05-01T14:03:58.999Z</time></trkpt><trkpt lat="40.24578" lon="0.2347229"><ele>49.0</ele><time>2026-05-01T14:04:00Z</time></trkpt><trkpt lat="40.2456281" lon="0.2346047"><ele>49.0</ele><time>2026-05-01T14:04:00.999Z</time></trkpt><trkpt lat="40.2454679" lon="0.2345048"><ele>49.0</ele><time>2026-05-01T14:04:01.999Z</time></trkpt><trkpt lat="40.2453303" lon="0.2344036"><ele>49.0</ele><time>2026-05-01T14:04:02.999Z</time></trkpt><trkpt lat="40.2452055" lon="0.2342894"><ele>49.0</ele><time>2026-05-01T14:04:03.999Z</time></trkpt><trkpt lat="40.2450976" lon="0.2341828"><ele>49.0</ele><time>2026-05-01T14:04:04.999Z</time></trkpt><trkpt lat="40.2450262" lon="0.2340824"><ele>49.0</ele><time>2026-05-01T14:04:06Z</time></trkpt><trkpt lat="40.245015" lon="0.2339748"><ele>49.0</ele><time>2026-05-01T14:04:07Z</time></trkpt><trkpt lat="40.2450306" lon="0.2338794"><ele>49.0</ele><time>2026-05-01T14:04:07.999Z</time></trkpt><trkpt lat="40.2450666" lon="0.2337926"><ele>49.25</ele><time>2026-05-01T14:04:08.999Z</time></trkpt><trkpt lat="40.2451318" lon="0.2336996"><ele>49.5</ele><time>2026-05-01T14:04:09.999Z</time></trkpt><trkpt lat="40.2452098" lon="0.2335788"><ele>49.75</ele><time>2026-05-01T14:04:10.999Z</time></trkpt><trkpt lat="40.2452941" lon="0.2334533"><ele>50.0</ele><time>2026-05-01T14:04:11.999Z</time></trkpt><trkpt lat="40.2453999" lon="0.2333114"><ele>50.0</ele><time>2026-05-01T14:04:13Z</time></trkpt><trkpt lat="40.2455002" lon="0.233164"><ele>50.0</ele><time>2026-05-01T14:04:13.999Z</time></trkpt><trkpt lat="40.2455908" lon="0.23302"><ele>50.0</ele><time>2026-05-01T14:04:14.999Z</time></trkpt><trkpt lat="40.2456638" lon="0.2328858"><ele>50.0</ele><time>2026-05-01T14:04:15.999Z</time></trkpt><trkpt lat="40.2457024" lon="0.2327645"><ele>50.00000000000001</ele><time>2026-05-01T14:04:17Z</time></trkpt><trkpt lat="40.2457209" lon="0.2326733"><ele>50.0</ele><time>2026-05-01T14:04:17.999Z</time></trkpt><trkpt lat="40.2457247" lon="0.2325904"><ele>50.0</ele><time>2026-05-01T14:04:19.999Z</time></trkpt><trkpt lat="40.2457243" lon="0.232492"><ele>50.0</ele><time>2026-05-01T14:04:30Z</time></trkpt><trkpt lat="40.2456572" lon="0.232388"><ele>50.00000000000001</ele><time>2026-05-01T14:04:30.999Z</time></trkpt><trkpt lat="40.2455685" lon="0.2323111"><ele>50.0</ele><time>2026-05-01T14:04:31.999Z</time></trkpt><trkpt lat="40.2454451" lon="0.2322385"><ele>50.333333333333336</ele><time>2026-05-01T14:04:32.999Z</time></trkpt><trkpt lat="40.2453007" lon="0.2321569"><ele>50.66666666666667</ele><time>2026-05-01T14:04:34Z</time></trkpt><trkpt lat="40.2451109" lon="0.2320334"><ele>51.0</ele><time>2026-05-01T14:04:34.999Z</time></trkpt><trkpt lat="40.244906" lon="0.2318943"><ele>50.0</ele><time>2026-05-01T14:04:36Z</time></trkpt><trkpt lat="40.2446863" lon="0.2317493"><ele>49.0</ele><time>2026-05-01T14:04:36.999Z</time></trkpt><trkpt lat="40.2444665" lon="0.2315965"><ele>49.0</ele><time>2026-05-01T14:04:37.999Z</time></trkpt><trkpt lat="40.2442678" lon="0.2314449"><ele>49.0</ele><time>2026-05-01T14:04:39Z</time></trkpt><trkpt lat="40.2440906" lon="0.2312944"><ele>49.0</ele><time>2026-05-01T14:04:39.999Z</time></trkpt><trkpt lat="40.2439487" lon="0.2311526"><ele>49.0</ele><time>2026-05-01T14:04:40.999Z</time></trkpt><trkpt lat="40.243813" lon="0.2310147"><ele>49.0</ele><time>2026-05-01T14:04:41.999Z</time></trkpt><trkpt lat="40.2436829" lon="0.2308796"><ele>49.0</ele><time>2026-05-01T14:04:42.999Z</time></trkpt><trkpt lat="40.2435482" lon="0.2307393"><ele>49.0</ele><time>2026-05-01T14:04:43.999Z</time></trkpt><trkpt lat="40.2434096" lon="0.2305902"><ele>49.0</ele><time>2026-05-01T14:04:45Z</time></trkpt><trkpt lat="40.2432909" lon="0.2304504"><ele>49.0</ele><time>2026-05-01T14:04:46Z</time></trkpt><trkpt lat="40.2431762" lon="0.2303142"><ele>48.5</ele><time>2026-05-01T14:04:47Z</time></trkpt><trkpt lat="40.2430825" lon="0.2301921"><ele>48.0</ele><time>2026-05-01T14:04:47.999Z</time></trkpt><trkpt lat="40.2429979" lon="0.230077"><ele>47.5</ele><time>2026-05-01T14:04:49Z</time></trkpt><trkpt lat="40.2429123" lon="0.2299761"><ele>47.0</ele><time>2026-05-01T14:04:49.999Z</time></trkpt><trkpt lat="40.2428532" lon="0.2298857"><ele>46.75</ele><time>2026-05-01T14:04:50.999Z</time></trkpt><trkpt lat="40.2428006" lon="0.2297767"><ele>46.5</ele><time>2026-05-01T14:04:51.999Z</time></trkpt><trkpt lat="40.2427576" lon="0.2296526"><ele>46.25</ele><time>2026-05-01T14:04:53Z</time></trkpt><trkpt lat="40.2427203" lon="0.229494"><ele>46.0</ele><time>2026-05-01T14:04:54Z</time></trkpt><trkpt lat="40.2426831" lon="0.2293142"><ele>46.0</ele><time>2026-05-01T14:04:54.999Z</time></trkpt><trkpt lat="40.2426505" lon="0.2291401"><ele>46.0</ele><time>2026-05-01T14:04:56Z</time></trkpt><trkpt lat="40.242617" lon="0.2289818"><ele>46.0</ele><time>2026-05-01T14:04:56.999Z</time></trkpt><trkpt lat="40.2425863" lon="0.2288368"><ele>46.0</ele><time>2026-05-01T14:04:57.999Z</time></trkpt><trkpt lat="40.242561" lon="0.2287044"><ele>45.4</ele><time>2026-05-01T14:04:59Z</time></trkpt><trkpt lat="40.242569" lon="0.2285644"><ele>44.8</ele><time>2026-05-01T14:05:00.999Z</time></trkpt><trkpt lat="40.2426742" lon="0.2284581"><ele>44.199999999999996</ele><time>2026-05-01T14:05:02.999Z</time></trkpt><trkpt lat="40.2427552" lon="0.2283889"><ele>43.599999999999994</ele><time>2026-05-01T14:05:03.999Z</time></trkpt><trkpt lat="40.2428349" lon="0.2283042"><ele>43.0</ele><time>2026-05-01T14:05:05Z</time></trkpt><trkpt lat="40.2429117" lon="0.2282152"><ele>42.833333333333336</ele><time>2026-05-01T14:05:05.999Z</time></trkpt><trkpt lat="40.2429887" lon="0.2281378"><ele>42.66666666666667</ele><time>2026-05-01T14:05:07Z</time></trkpt><trkpt lat="40.2430663" lon="0.2280589"><ele>42.5</ele><time>2026-05-01T14:05:07.999Z</time></trkpt><trkpt lat="40.2431184" lon="0.2280111"><ele>42.333333333333336</ele><time>2026-05-01T14:05:09Z</time></trkpt><trkpt lat="40.243161" lon="0.2279163"><ele>42.166666666666664</ele><time>2026-05-01T14:05:11Z</time></trkpt><trkpt lat="40.2431141" lon="0.2278274"><ele>42.0</ele><time>2026-05-01T14:05:11.999Z</time></trkpt><trkpt lat="40.2430763" lon="0.227745"><ele>42.0</ele><time>2026-05-01T14:05:12.999Z</time></trkpt><trkpt lat="40.2430738" lon="0.2276"><ele>42.0</ele><time>2026-05-01T14:05:14.999Z</time></trkpt><trkpt lat="40.2431803" lon="0.2275111"><ele>42.0</ele><time>2026-05-01T14:05:16.999Z</time></trkpt><trkpt lat="40.2432779" lon="0.2274578"><ele>42.0</ele><time>2026-05-01T14:05:18Z</time></trkpt><trkpt lat="40.243379" lon="0.2274204"><ele>42.0</ele><time>2026-05-01T14:05:19Z</time></trkpt><trkpt lat="40.2434811" lon="0.2273856"><ele>42.0</ele><time>2026-05-01T14:05:20Z</time></trkpt><trkpt lat="40.2435895" lon="0.2273407"><ele>42.0</ele><time>2026-05-01T14:05:20.999Z</time></trkpt><trkpt lat="40.243715" lon="0.2272726"><ele>42.0</ele><time>2026-05-01T14:05:22Z</time></trkpt><trkpt lat="40.2438443" lon="0.2272032"><ele>42.0</ele><time>2026-05-01T14:05:22.999Z</time></trkpt><trkpt lat="40.2439716" lon="0.227146"><ele>42.2</ele><time>2026-05-01T14:05:23.999Z</time></trkpt><trkpt lat="40.2440794" lon="0.2270925"><ele>42.400000000000006</ele><time>2026-05-01T14:05:24.999Z</time></trkpt><trkpt lat="40.2441759" lon="0.2270441"><ele>42.599999999999994</ele><time>2026-05-01T14:05:25.999Z</time></trkpt><trkpt lat="40.2442368" lon="0.2270012"><ele>42.8</ele><time>2026-05-01T14:05:26.999Z</time></trkpt><trkpt lat="40.24428" lon="0.2269011"><ele>43.0</ele><time>2026-05-01T14:05:28.999Z</time></trkpt><trkpt lat="40.2442183" lon="0.2267526"><ele>43.0</ele><time>2026-05-01T14:05:31Z</time></trkpt><trkpt lat="40.2441744" lon="0.2266502"><ele>43.0</ele><time>2026-05-01T14:05:32Z</time></trkpt><trkpt lat="40.2441487" lon="0.2265583"><ele>43.0</ele><time>2026-05-01T14:05:33Z</time></trkpt><trkpt lat="40.2441727" lon="0.2264418"><ele>43.0</ele><time>2026-05-01T14:05:34.999Z</time></trkpt><trkpt lat="40.2442867" lon="0.2264055"><ele>43.0</ele><time>2026-05-01T14:05:36.999Z</time></trkpt><trkpt lat="40.244383" lon="0.2263743"><ele>42.75</ele><time>2026-05-01T14:05:37.999Z</time></trkpt><trkpt lat="40.2444958" lon="0.2263287"><ele>42.5</ele><time>2026-05-01T14:05:38.999Z</time></trkpt><trkpt lat="40.2446096" lon="0.2262833"><ele>42.25</ele><time>2026-05-01T14:05:39.999Z</time></trkpt><trkpt lat="40.2447086" lon="0.2262419"><ele>42.0</ele><time>2026-05-01T14:05:41Z</time></trkpt><trkpt lat="40.2448201" lon="0.2261869"><ele>42.0</ele><time>2026-05-01T14:05:41.999Z</time></trkpt><trkpt lat="40.2449274" lon="0.2261494"><ele>42.0</ele><time>2026-05-01T14:05:42.999Z</time></trkpt><trkpt lat="40.2450298" lon="0.2260982"><ele>42.0</ele><time>2026-05-01T14:05:43.999Z</time></trkpt><trkpt lat="40.2451322" lon="0.226059"><ele>42.0</ele><time>2026-05-01T14:05:44.999Z</time></trkpt><trkpt lat="40.2452271" lon="0.2260073"><ele>42.0</ele><time>2026-05-01T14:05:46Z</time></trkpt><trkpt lat="40.2452996" lon="0.2259659"><ele>42.0</ele><time>2026-05-01T14:05:47Z</time></trkpt><trkpt lat="40.2453638" lon="0.2259342"><ele>42.0</ele><time>2026-05-01T14:05:48Z</time></trkpt><trkpt lat="40.2453902" lon="0.2258414"><ele>42.0</ele><time>2026-05-01T14:05:50.999Z</time></trkpt><trkpt lat="40.2452732" lon="0.2257277"><ele>42.0</ele><time>2026-05-01T14:05:52.999Z</time></trkpt><trkpt lat="40.2451789" lon="0.2256516"><ele>42.0</ele><time>2026-05-01T14:05:54Z</time></trkpt><trkpt lat="40.2450697" lon="0.2255508"><ele>42.5</ele><time>2026-05-01T14:05:55Z</time></trkpt><trkpt lat="40.2449597" lon="0.2254425"><ele>43.0</ele><time>2026-05-01T14:05:55.999Z</time></trkpt><trkpt lat="40.244855" lon="0.225341"><ele>43.5</ele><time>2026-05-01T14:05:56.999Z</time></trkpt><trkpt lat="40.2447692" lon="0.2252461"><ele>44.0</ele><time>2026-05-01T14:05:57.999Z</time></trkpt><trkpt lat="40.244683" lon="0.2251558"><ele>43.83333333333333</ele><time>2026-05-01T14:05:59Z</time></trkpt><trkpt lat="40.2446094" lon="0.225082"><ele>43.666666666666664</ele><time>2026-05-01T14:05:59.999Z</time></trkpt><trkpt lat="40.2445558" lon="0.2250006"><ele>43.5</ele><time>2026-05-01T14:06:00.999Z</time></trkpt><trkpt lat="40.2445232" lon="0.2249068"><ele>43.333333333333336</ele><time>2026-05-01T14:06:01.999Z</time></trkpt><trkpt lat="40.2445142" lon="0.2248193"><ele>43.16666666666667</ele><time>2026-05-01T14:06:03Z</time></trkpt><trkpt lat="40.2445551" lon="0.2246617"><ele>43.0</ele><time>2026-05-01T14:06:05Z</time></trkpt><trkpt lat="40.2446536" lon="0.2245646"><ele>43.0</ele><time>2026-05-01T14:06:06.999Z</time></trkpt><trkpt lat="40.2447193" lon="0.2245231"><ele>43.0</ele><time>2026-05-01T14:06:08Z</time></trkpt><trkpt lat="40.2448241" lon="0.2244924"><ele>43.0</ele><time>2026-05-01T14:06:08.999Z</time></trkpt><trkpt lat="40.2449086" lon="0.2244454"><ele>43.0</ele><time>2026-05-01T14:06:10Z</time></trkpt><trkpt lat="40.2449816" lon="0.2244067"><ele>43.0</ele><time>2026-05-01T14:06:10.999Z</time></trkpt><trkpt lat="40.2450452" lon="0.2243584"><ele>43.0</ele><time>2026-05-01T14:06:11.999Z</time></trkpt><trkpt lat="40.2451506" lon="0.2243126"><ele>42.75</ele><time>2026-05-01T14:06:13.999Z</time></trkpt><trkpt lat="40.2452607" lon="0.2243851"><ele>42.5</ele><time>2026-05-01T14:06:15.999Z</time></trkpt><trkpt lat="40.2453312" lon="0.2244581"><ele>42.25</ele><time>2026-05-01T14:06:16.999Z</time></trkpt><trkpt lat="40.2454233" lon="0.2245476"><ele>42.0</ele><time>2026-05-01T14:06:18Z</time></trkpt><trkpt lat="40.2455312" lon="0.2246589"><ele>41.5</ele><time>2026-05-01T14:06:18.999Z</time></trkpt><trkpt lat="40.2456507" lon="0.2247822"><ele>41.0</ele><time>2026-05-01T14:06:19.999Z</time></trkpt><trkpt lat="40.2457672" lon="0.2249017"><ele>40.5</ele><time>2026-05-01T14:06:20.999Z</time></trkpt><trkpt lat="40.2458751" lon="0.225024"><ele>40.0</ele><time>2026-05-01T14:06:21.999Z</time></trkpt><trkpt lat="40.2459908" lon="0.2251477"><ele>41.333333333333336</ele><time>2026-05-01T14:06:22.999Z</time></trkpt><trkpt lat="40.2461074" lon="0.2252716"><ele>42.666666666666664</ele><time>2026-05-01T14:06:24Z</time></trkpt><trkpt lat="40.246228" lon="0.2254041"><ele>44.0</ele><time>2026-05-01T14:06:24.999Z</time></trkpt><trkpt lat="40.2463525" lon="0.2255344"><ele>45.25</ele><time>2026-05-01T14:06:26Z</time></trkpt><trkpt lat="40.2464783" lon="0.2256622"><ele>46.5</ele><time>2026-05-01T14:06:26.999Z</time></trkpt><trkpt lat="40.2465809" lon="0.2257894"><ele>47.75</ele><time>2026-05-01T14:06:28Z</time></trkpt><trkpt lat="40.2466808" lon="0.2259001"><ele>49.0</ele><time>2026-05-01T14:06:28.999Z</time></trkpt><trkpt lat="40.24677" lon="0.2259915"><ele>49.0</ele><time>2026-05-01T14:06:29.999Z</time></trkpt><trkpt lat="40.2468584" lon="0.2260834"><ele>49.0</ele><time>2026-05-01T14:06:31Z</time></trkpt><trkpt lat="40.246957" lon="0.2261657"><ele>49.0</ele><time>2026-05-01T14:06:31.999Z</time></trkpt><trkpt lat="40.2470739" lon="0.226246"><ele>49.0</ele><time>2026-05-01T14:06:33Z</time></trkpt><trkpt lat="40.2471851" lon="0.2263271"><ele>49.5</ele><time>2026-05-01T14:06:33.999Z</time></trkpt><trkpt lat="40.2473078" lon="0.2264072"><ele>50.0</ele><time>2026-05-01T14:06:35Z</time></trkpt><trkpt lat="40.2474266" lon="0.2264886"><ele>50.5</ele><time>2026-05-01T14:06:35.999Z</time></trkpt><trkpt lat="40.247544" lon="0.2265747"><ele>51.0</ele><time>2026-05-01T14:06:36.999Z</time></trkpt><trkpt lat="40.2476668" lon="0.226669"><ele>52.0</ele><time>2026-05-01T14:06:37.999Z</time></trkpt><trkpt lat="40.2478" lon="0.2267574"><ele>53.0</ele><time>2026-05-01T14:06:39Z</time></trkpt><trkpt lat="40.2479399" lon="0.2268565"><ele>54.0</ele><time>2026-05-01T14:06:39.999Z</time></trkpt><trkpt lat="40.2480839" lon="0.226954"><ele>55.0</ele><time>2026-05-01T14:06:41Z</time></trkpt><trkpt lat="40.2482401" lon="0.2270611"><ele>56.0</ele><time>2026-05-01T14:06:41.999Z</time></trkpt><trkpt lat="40.2483909" lon="0.2271642"><ele>57.0</ele><time>2026-05-01T14:06:42.999Z</time></trkpt><trkpt lat="40.2485312" lon="0.2272585"><ele>57.0</ele><time>2026-05-01T14:06:43.999Z</time></trkpt><trkpt lat="40.2486644" lon="0.2273605"><ele>57.0</ele><time>2026-05-01T14:06:45Z</time></trkpt><trkpt lat="40.2488116" lon="0.2274603"><ele>57.0</ele><time>2026-05-01T14:06:45.999Z</time></trkpt><trkpt lat="40.2489628" lon="0.2275758"><ele>57.66666666666667</ele><time>2026-05-01T14:06:46.999Z</time></trkpt><trkpt lat="40.249105" lon="0.2276837"><ele>58.333333333333336</ele><time>2026-05-01T14:06:47.999Z</time></trkpt><trkpt lat="40.2492434" lon="0.2277896"><ele>59.0</ele><time>2026-05-01T14:06:49Z</time></trkpt><trkpt lat="40.2493834" lon="0.2278948"><ele>59.0</ele><time>2026-05-01T14:06:50Z</time></trkpt><trkpt lat="40.2495105" lon="0.2280008"><ele>59.0</ele><time>2026-05-01T14:06:51Z</time></trkpt><trkpt lat="40.2496366" lon="0.2280943"><ele>59.0</ele><time>2026-05-01T14:06:51.999Z</time></trkpt><trkpt lat="40.2497656" lon="0.2281997"><ele>59.0</ele><time>2026-05-01T14:06:52.999Z</time></trkpt><trkpt lat="40.2498923" lon="0.2282866"><ele>59.25</ele><time>2026-05-01T14:06:53.999Z</time></trkpt><trkpt lat="40.2499994" lon="0.228359"><ele>59.5</ele><time>2026-05-01T14:06:54.999Z</time></trkpt><trkpt lat="40.2501074" lon="0.2284326"><ele>59.75</ele><time>2026-05-01T14:06:55.999Z</time></trkpt><trkpt lat="40.2502297" lon="0.2285078"><ele>60.0</ele><time>2026-05-01T14:06:56.999Z</time></trkpt><trkpt lat="40.250347" lon="0.2285856"><ele>60.0</ele><time>2026-05-01T14:06:58Z</time></trkpt><trkpt lat="40.2504703" lon="0.2286722"><ele>60.0</ele><time>2026-05-01T14:06:58.999Z</time></trkpt><trkpt lat="40.2505927" lon="0.2287568"><ele>60.0</ele><time>2026-05-01T14:07:00Z</time></trkpt><trkpt lat="40.2507096" lon="0.2288382"><ele>60.0</ele><time>2026-05-01T14:07:01Z</time></trkpt><trkpt lat="40.2508365" lon="0.2289073"><ele>59.5</ele><time>2026-05-01T14:07:01.999Z</time></trkpt><trkpt lat="40.2509695" lon="0.2289845"><ele>59.0</ele><time>2026-05-01T14:07:02.999Z</time></trkpt><trkpt lat="40.2510997" lon="0.2290544"><ele>58.5</ele><time>2026-05-01T14:07:03.999Z</time></trkpt><trkpt lat="40.2512312" lon="0.2291269"><ele>58.0</ele><time>2026-05-01T14:07:04.999Z</time></trkpt><trkpt lat="40.2513524" lon="0.2291973"><ele>58.2</ele><time>2026-05-01T14:07:05.999Z</time></trkpt><trkpt lat="40.2514642" lon="0.2292675"><ele>58.4</ele><time>2026-05-01T14:07:06.999Z</time></trkpt><trkpt lat="40.2515593" lon="0.2293277"><ele>58.60000000000001</ele><time>2026-05-01T14:07:07.999Z</time></trkpt><trkpt lat="40.2516526" lon="0.2293919"><ele>58.800000000000004</ele><time>2026-05-01T14:07:09Z</time></trkpt><trkpt lat="40.2517212" lon="0.229442"><ele>59.0</ele><time>2026-05-01T14:07:10Z</time></trkpt><trkpt lat="40.2517821" lon="0.2294737"><ele>59.0</ele><time>2026-05-01T14:07:10.999Z</time></trkpt><trkpt lat="40.2518463" lon="0.2294645"><ele>59.00000000000001</ele><time>2026-05-01T14:07:13Z</time></trkpt><trkpt lat="40.2518797" lon="0.2293857"><ele>59.00000000000001</ele><time>2026-05-01T14:07:14.999Z</time></trkpt><trkpt lat="40.2519296" lon="0.2292277"><ele>59.0</ele><time>2026-05-01T14:07:17Z</time></trkpt><trkpt lat="40.251963" lon="0.2290979"><ele>59.0</ele><time>2026-05-01T14:07:17.999Z</time></trkpt><trkpt lat="40.2520024" lon="0.2289619"><ele>60.0</ele><time>2026-05-01T14:07:18.999Z</time></trkpt><trkpt lat="40.2520574" lon="0.2287855"><ele>61.0</ele><time>2026-05-01T14:07:19.999Z</time></trkpt><trkpt lat="40.2521185" lon="0.2286035"><ele>62.0</ele><time>2026-05-01T14:07:21Z</time></trkpt><trkpt lat="40.2521811" lon="0.2284151"><ele>62.0</ele><time>2026-05-01T14:07:22Z</time></trkpt><trkpt lat="40.2522349" lon="0.2282333"><ele>62.0</ele><time>2026-05-01T14:07:23Z</time></trkpt><trkpt lat="40.2522916" lon="0.2280665"><ele>62.0</ele><time>2026-05-01T14:07:23.999Z</time></trkpt><trkpt lat="40.2523447" lon="0.2278993"><ele>62.0</ele><time>2026-05-01T14:07:25Z</time></trkpt><trkpt lat="40.2523993" lon="0.2277474"><ele>62.6</ele><time>2026-05-01T14:07:25.999Z</time></trkpt><trkpt lat="40.2524544" lon="0.2276036"><ele>63.2</ele><time>2026-05-01T14:07:27Z</time></trkpt><trkpt lat="40.2525027" lon="0.2274703"><ele>63.8</ele><time>2026-05-01T14:07:28Z</time></trkpt><trkpt lat="40.2525417" lon="0.227363"><ele>64.4</ele><time>2026-05-01T14:07:28.999Z</time></trkpt><trkpt lat="40.252587" lon="0.2272515"><ele>65.0</ele><time>2026-05-01T14:07:29.999Z</time></trkpt><trkpt lat="40.2526393" lon="0.2271384"><ele>65.2</ele><time>2026-05-01T14:07:31Z</time></trkpt><trkpt lat="40.2526846" lon="0.2270342"><ele>65.4</ele><time>2026-05-01T14:07:32Z</time></trkpt><trkpt lat="40.252731" lon="0.2269438"><ele>65.6</ele><time>2026-05-01T14:07:33Z</time></trkpt><trkpt lat="40.2527861" lon="0.2268425"><ele>65.8</ele><time>2026-05-01T14:07:35Z</time></trkpt><trkpt lat="40.2528893" lon="0.2269346"><ele>66.0</ele><time>2026-05-01T14:07:38Z</time></trkpt><trkpt lat="40.2529458" lon="0.2270236"><ele>66.0</ele><time>2026-05-01T14:07:38.999Z</time></trkpt><trkpt lat="40.2530088" lon="0.2271323"><ele>66.0</ele><time>2026-05-01T14:07:39.999Z</time></trkpt><trkpt lat="40.2530825" lon="0.2272371"><ele>66.0</ele><time>2026-05-01T14:07:40.999Z</time></trkpt><trkpt lat="40.2531658" lon="0.2273306"><ele>66.0</ele><time>2026-05-01T14:07:41.999Z</time></trkpt><trkpt lat="40.2532563" lon="0.2274405"><ele>66.0</ele><time>2026-05-01T14:07:42.999Z</time></trkpt><trkpt lat="40.2533589" lon="0.2275686"><ele>66.75</ele><time>2026-05-01T14:07:44Z</time></trkpt><trkpt lat="40.2534648" lon="0.2276826"><ele>67.5</ele><time>2026-05-01T14:07:44.999Z</time></trkpt><trkpt lat="40.2535721" lon="0.2277833"><ele>68.25</ele><time>2026-05-01T14:07:46Z</time></trkpt><trkpt lat="40.2536884" lon="0.2278652"><ele>69.0</ele><time>2026-05-01T14:07:46.999Z</time></trkpt><trkpt lat="40.2538057" lon="0.2279458"><ele>69.0</ele><time>2026-05-01T14:07:48Z</time></trkpt><trkpt lat="40.2539454" lon="0.2279913"><ele>69.0</ele><time>2026-05-01T14:07:48.999Z</time></trkpt><trkpt lat="40.2540744" lon="0.228046"><ele>69.0</ele><time>2026-05-01T14:07:49.999Z</time></trkpt><trkpt lat="40.2541942" lon="0.2280862"><ele>69.0</ele><time>2026-05-01T14:07:50.999Z</time></trkpt><trkpt lat="40.2543152" lon="0.2281494"><ele>68.75</ele><time>2026-05-01T14:07:51.999Z</time></trkpt><trkpt lat="40.2544274" lon="0.2282413"><ele>68.5</ele><time>2026-05-01T14:07:52.999Z</time></trkpt><trkpt lat="40.2545368" lon="0.2283358"><ele>68.25</ele><time>2026-05-01T14:07:53.999Z</time></trkpt><trkpt lat="40.2546384" lon="0.2284204"><ele>68.0</ele><time>2026-05-01T14:07:54.999Z</time></trkpt><trkpt lat="40.2547423" lon="0.2285047"><ele>68.75</ele><time>2026-05-01T14:07:55.999Z</time></trkpt><trkpt lat="40.2548274" lon="0.2286361"><ele>69.5</ele><time>2026-05-01T14:07:57Z</time></trkpt><trkpt lat="40.2549036" lon="0.2287816"><ele>70.25</ele><time>2026-05-01T14:07:57.999Z</time></trkpt><trkpt lat="40.2549866" lon="0.2289222"><ele>71.0</ele><time>2026-05-01T14:07:58.999Z</time></trkpt><trkpt lat="40.2550688" lon="0.2290638"><ele>71.0</ele><time>2026-05-01T14:07:59.999Z</time></trkpt><trkpt lat="40.2551416" lon="0.2292057"><ele>71.0</ele><time>2026-05-01T14:08:00.999Z</time></trkpt><trkpt lat="40.255221" lon="0.2293415"><ele>71.0</ele><time>2026-05-01T14:08:02Z</time></trkpt><trkpt lat="40.2553241" lon="0.229452"><ele>71.0</ele><time>2026-05-01T14:08:02.999Z</time></trkpt><trkpt lat="40.2554358" lon="0.2295573"><ele>71.0</ele><time>2026-05-01T14:08:03.999Z</time></trkpt><trkpt lat="40.2555508" lon="0.2296557"><ele>71.0</ele><time>2026-05-01T14:08:04.999Z</time></trkpt><trkpt lat="40.25568" lon="0.2297738"><ele>71.0</ele><time>2026-05-01T14:08:05.999Z</time></trkpt><trkpt lat="40.2558186" lon="0.2298867"><ele>71.75</ele><time>2026-05-01T14:08:06.999Z</time></trkpt><trkpt lat="40.2559452" lon="0.2300143"><ele>72.5</ele><time>2026-05-01T14:08:07.999Z</time></trkpt><trkpt lat="40.2560541" lon="0.2301121"><ele>73.25</ele><time>2026-05-01T14:08:08.999Z</time></trkpt><trkpt lat="40.2561704" lon="0.2302132"><ele>74.0</ele><time>2026-05-01T14:08:09.999Z</time></trkpt><trkpt lat="40.2562922" lon="0.2303116"><ele>74.0</ele><time>2026-05-01T14:08:11Z</time></trkpt><trkpt lat="40.256429" lon="0.2304085"><ele>74.0</ele><time>2026-05-01T14:08:12Z</time></trkpt><trkpt lat="40.2565915" lon="0.2304928"><ele>74.0</ele><time>2026-05-01T14:08:13Z</time></trkpt><trkpt lat="40.2567389" lon="0.2305797"><ele>73.75</ele><time>2026-05-01T14:08:13.999Z</time></trkpt><trkpt lat="40.2568737" lon="0.2306582"><ele>73.5</ele><time>2026-05-01T14:08:14.999Z</time></trkpt><trkpt lat="40.2569973" lon="0.2307288"><ele>73.25</ele><time>2026-05-01T14:08:16Z</time></trkpt><trkpt lat="40.2571154" lon="0.2308115"><ele>73.0</ele><time>2026-05-01T14:08:16.999Z</time></trkpt><trkpt lat="40.2572241" lon="0.2309243"><ele>74.66666666666666</ele><time>2026-05-01T14:08:18Z</time></trkpt><trkpt lat="40.2573367" lon="0.2310626"><ele>76.33333333333333</ele><time>2026-05-01T14:08:19Z</time></trkpt><trkpt lat="40.2574546" lon="0.2311969"><ele>78.0</ele><time>2026-05-01T14:08:19.999Z</time></trkpt><trkpt lat="40.2575762" lon="0.2313354"><ele>78.0</ele><time>2026-05-01T14:08:20.999Z</time></trkpt><trkpt lat="40.2576945" lon="0.2314722"><ele>78.0</ele><time>2026-05-01T14:08:21.999Z</time></trkpt><trkpt lat="40.2577972" lon="0.2315864"><ele>78.0</ele><time>2026-05-01T14:08:22.999Z</time></trkpt><trkpt lat="40.2579027" lon="0.2316861"><ele>78.0</ele><time>2026-05-01T14:08:23.999Z</time></trkpt><trkpt lat="40.258014" lon="0.2317517"><ele>78.25</ele><time>2026-05-01T14:08:24.999Z</time></trkpt><trkpt lat="40.2581173" lon="0.2318089"><ele>78.5</ele><time>2026-05-01T14:08:26Z</time></trkpt><trkpt lat="40.2582087" lon="0.2318757"><ele>78.75</ele><time>2026-05-01T14:08:27Z</time></trkpt><trkpt lat="40.2582905" lon="0.2319977"><ele>79.0</ele><time>2026-05-01T14:08:27.999Z</time></trkpt><trkpt lat="40.2583797" lon="0.2321196"><ele>79.0</ele><time>2026-05-01T14:08:29Z</time></trkpt><trkpt lat="40.2584809" lon="0.2322453"><ele>79.0</ele><time>2026-05-01T14:08:29.999Z</time></trkpt><trkpt lat="40.2586005" lon="0.2323814"><ele>79.0</ele><time>2026-05-01T14:08:30.999Z</time></trkpt><trkpt lat="40.2586968" lon="0.2325013"><ele>79.0</ele><time>2026-05-01T14:08:32Z</time></trkpt><trkpt lat="40.2587725" lon="0.2326236"><ele>78.8</ele><time>2026-05-01T14:08:32.999Z</time></trkpt><trkpt lat="40.2588366" lon="0.2327441"><ele>78.60000000000001</ele><time>2026-05-01T14:08:33.999Z</time></trkpt><trkpt lat="40.2588773" lon="0.2328562"><ele>78.4</ele><time>2026-05-01T14:08:35Z</time></trkpt><trkpt lat="40.2589388" lon="0.2329724"><ele>78.2</ele><time>2026-05-01T14:08:36Z</time></trkpt><trkpt lat="40.2590252" lon="0.2330655"><ele>78.0</ele><time>2026-05-01T14:08:37Z</time></trkpt><trkpt lat="40.2591222" lon="0.2331389"><ele>78.33333333333333</ele><time>2026-05-01T14:08:37.999Z</time></trkpt><trkpt lat="40.2592156" lon="0.2332065"><ele>78.66666666666667</ele><time>2026-05-01T14:08:39Z</time></trkpt><trkpt lat="40.2592894" lon="0.2332774"><ele>79.0</ele><time>2026-05-01T14:08:40Z</time></trkpt><trkpt lat="40.2593548" lon="0.2333487"><ele>79.33333333333334</ele><time>2026-05-01T14:08:40.999Z</time></trkpt><trkpt lat="40.259411" lon="0.2334136"><ele>79.66666666666667</ele><time>2026-05-01T14:08:41.999Z</time></trkpt><trkpt lat="40.2594756" lon="0.2334736"><ele>80.0</ele><time>2026-05-01T14:08:42.999Z</time></trkpt><trkpt lat="40.2595363" lon="0.233525"><ele>80.0</ele><time>2026-05-01T14:08:44Z</time></trkpt><trkpt lat="40.2596446" lon="0.2336003"><ele>80.0</ele><time>2026-05-01T14:08:46Z</time></trkpt><trkpt lat="40.2597597" lon="0.2336764"><ele>80.0</ele><time>2026-05-01T14:08:48Z</time></trkpt><trkpt lat="40.2598336" lon="0.2337274"><ele>80.0</ele><time>2026-05-01T14:08:48.999Z</time></trkpt><trkpt lat="40.2599134" lon="0.2337738"><ele>80.0</ele><time>2026-05-01T14:08:50Z</time></trkpt><trkpt lat="40.2600025" lon="0.2338449"><ele>80.25</ele><time>2026-05-01T14:08:50.999Z</time></trkpt><trkpt lat="40.2600976" lon="0.2339102"><ele>80.5</ele><time>2026-05-01T14:08:51.999Z</time></trkpt><trkpt lat="40.2602059" lon="0.233991"><ele>80.75</ele><time>2026-05-01T14:08:52.999Z</time></trkpt><trkpt lat="40.2603364" lon="0.2340581"><ele>81.0</ele><time>2026-05-01T14:08:53.999Z</time></trkpt><trkpt lat="40.2604693" lon="0.2341357"><ele>81.0</ele><time>2026-05-01T14:08:55Z</time></trkpt><trkpt lat="40.2605964" lon="0.2342107"><ele>81.0</ele><time>2026-05-01T14:08:55.999Z</time></trkpt><trkpt lat="40.2607169" lon="0.2342858"><ele>81.0</ele><time>2026-05-01T14:08:56.999Z</time></trkpt><trkpt lat="40.2608269" lon="0.2343524"><ele>81.0</ele><time>2026-05-01T14:08:57.999Z</time></trkpt><trkpt lat="40.2609278" lon="0.2343991"><ele>82.0</ele><time>2026-05-01T14:08:59Z</time></trkpt><trkpt lat="40.2610324" lon="0.2344316"><ele>83.0</ele><time>2026-05-01T14:08:59.999Z</time></trkpt><trkpt lat="40.2611373" lon="0.2344642"><ele>84.0</ele><time>2026-05-01T14:09:00.999Z</time></trkpt><trkpt lat="40.261242" lon="0.2344973"><ele>85.0</ele><time>2026-05-01T14:09:01.999Z</time></trkpt><trkpt lat="40.2613511" lon="0.2345429"><ele>86.0</ele><time>2026-05-01T14:09:03Z</time></trkpt><trkpt lat="40.2614638" lon="0.2345848"><ele>86.75</ele><time>2026-05-01T14:09:03.999Z</time></trkpt><trkpt lat="40.2615684" lon="0.2346348"><ele>87.5</ele><time>2026-05-01T14:09:05Z</time></trkpt><trkpt lat="40.2616662" lon="0.2346912"><ele>88.25</ele><time>2026-05-01T14:09:06Z</time></trkpt><trkpt lat="40.2617636" lon="0.2347857"><ele>89.0</ele><time>2026-05-01T14:09:06.999Z</time></trkpt><trkpt lat="40.2618665" lon="0.2348761"><ele>89.0</ele><time>2026-05-01T14:09:08Z</time></trkpt><trkpt lat="40.2619592" lon="0.2349596"><ele>89.0</ele><time>2026-05-01T14:09:08.999Z</time></trkpt><trkpt lat="40.2620453" lon="0.2350377"><ele>89.0</ele><time>2026-05-01T14:09:10Z</time></trkpt><trkpt lat="40.2621174" lon="0.235128"><ele>89.0</ele><time>2026-05-01T14:09:10.999Z</time></trkpt><trkpt lat="40.262191" lon="0.2351941"><ele>89.0</ele><time>2026-05-01T14:09:11.999Z</time></trkpt><trkpt lat="40.262264" lon="0.2352804"><ele>89.5</ele><time>2026-05-01T14:09:12.999Z</time></trkpt><trkpt lat="40.2623332" lon="0.2353274"><ele>90.0</ele><time>2026-05-01T14:09:14Z</time></trkpt><trkpt lat="40.262405" lon="0.235342"><ele>90.5</ele><time>2026-05-01T14:09:14.999Z</time></trkpt><trkpt lat="40.262471" lon="0.235365"><ele>91.0</ele><time>2026-05-01T14:09:16Z</time></trkpt><trkpt lat="40.2625482" lon="0.235383"><ele>91.5</ele><time>2026-05-01T14:09:16.999Z</time></trkpt><trkpt lat="40.2626231" lon="0.2354073"><ele>92.0</ele><time>2026-05-01T14:09:18Z</time></trkpt><trkpt lat="40.2627119" lon="0.2354215"><ele>92.0</ele><time>2026-05-01T14:09:19Z</time></trkpt><trkpt lat="40.2627919" lon="0.2354543"><ele>92.0</ele><time>2026-05-01T14:09:20Z</time></trkpt><trkpt lat="40.262877" lon="0.2354916"><ele>92.0</ele><time>2026-05-01T14:09:20.999Z</time></trkpt><trkpt lat="40.2629532" lon="0.2355311"><ele>92.0</ele><time>2026-05-01T14:09:21.999Z</time></trkpt><trkpt lat="40.2630332" lon="0.2355608"><ele>92.0</ele><time>2026-05-01T14:09:22.999Z</time></trkpt><trkpt lat="40.2631117" lon="0.2355842"><ele>92.0</ele><time>2026-05-01T14:09:23.999Z</time></trkpt><trkpt lat="40.2631912" lon="0.2355978"><ele>92.33333333333334</ele><time>2026-05-01T14:09:25Z</time></trkpt><trkpt lat="40.2632716" lon="0.2356146"><ele>92.66666666666667</ele><time>2026-05-01T14:09:25.999Z</time></trkpt><trkpt lat="40.2633389" lon="0.2356371"><ele>93.0</ele><time>2026-05-01T14:09:26.999Z</time></trkpt><trkpt lat="40.2634156" lon="0.2356609"><ele>93.33333333333333</ele><time>2026-05-01T14:09:28Z</time></trkpt><trkpt lat="40.2634962" lon="0.2356802"><ele>93.66666666666666</ele><time>2026-05-01T14:09:28.999Z</time></trkpt><trkpt lat="40.2635782" lon="0.2356864"><ele>94.0</ele><time>2026-05-01T14:09:30Z</time></trkpt><trkpt lat="40.2636708" lon="0.2357028"><ele>94.0</ele><time>2026-05-01T14:09:30.999Z</time></trkpt><trkpt lat="40.2637553" lon="0.2357185"><ele>94.0</ele><time>2026-05-01T14:09:31.999Z</time></trkpt><trkpt lat="40.2638379" lon="0.235733"><ele>94.0</ele><time>2026-05-01T14:09:32.999Z</time></trkpt><trkpt lat="40.2639283" lon="0.2357451"><ele>94.0</ele><time>2026-05-01T14:09:33.999Z</time></trkpt><trkpt lat="40.2640217" lon="0.2357477"><ele>94.0</ele><time>2026-05-01T14:09:35Z</time></trkpt><trkpt lat="40.2641274" lon="0.2357488"><ele>95.14285714285714</ele><time>2026-05-01T14:09:35.999Z</time></trkpt><trkpt lat="40.2642227" lon="0.2357495"><ele>96.28571428571428</ele><time>2026-05-01T14:09:36.999Z</time></trkpt><trkpt lat="40.2642992" lon="0.2357474"><ele>97.42857142857143</ele><time>2026-05-01T14:09:38Z</time></trkpt><trkpt lat="40.2643733" lon="0.235747"><ele>98.57142857142857</ele><time>2026-05-01T14:09:38.999Z</time></trkpt><trkpt lat="40.2644434" lon="0.2357516"><ele>99.71428571428572</ele><time>2026-05-01T14:09:39.999Z</time></trkpt><trkpt lat="40.2645068" lon="0.2357403"><ele>100.85714285714286</ele><time>2026-05-01T14:09:40.999Z</time></trkpt><trkpt lat="40.2645699" lon="0.2357264"><ele>102.0</ele><time>2026-05-01T14:09:41.999Z</time></trkpt><trkpt lat="40.2646359" lon="0.2357118"><ele>102.0</ele><time>2026-05-01T14:09:42.999Z</time></trkpt><trkpt lat="40.2647061" lon="0.2356986"><ele>102.0</ele><time>2026-05-01T14:09:43.999Z</time></trkpt><trkpt lat="40.264782" lon="0.2356881"><ele>102.0</ele><time>2026-05-01T14:09:45Z</time></trkpt><trkpt lat="40.2648538" lon="0.235681"><ele>102.0</ele><time>2026-05-01T14:09:45.999Z</time></trkpt><trkpt lat="40.2649354" lon="0.2356753"><ele>102.0</ele><time>2026-05-01T14:09:47Z</time></trkpt><trkpt lat="40.2650296" lon="0.2356842"><ele>102.0</ele><time>2026-05-01T14:09:47.999Z</time></trkpt><trkpt lat="40.2651297" lon="0.235683"><ele>104.19999999999999</ele><time>2026-05-01T14:09:48.999Z</time></trkpt><trkpt lat="40.2652309" lon="0.2356962"><ele>106.4</ele><time>2026-05-01T14:09:49.999Z</time></trkpt><trkpt lat="40.2653326" lon="0.2356873"><ele>108.60000000000001</ele><time>2026-05-01T14:09:50.999Z</time></trkpt><trkpt lat="40.2654275" lon="0.2356776"><ele>110.80000000000001</ele><time>2026-05-01T14:09:52Z</time></trkpt><trkpt lat="40.2655225" lon="0.2356705"><ele>113.0</ele><time>2026-05-01T14:09:52.999Z</time></trkpt><trkpt lat="40.2655967" lon="0.2356646"><ele>113.71428571428572</ele><time>2026-05-01T14:09:53.999Z</time></trkpt><trkpt lat="40.2656607" lon="0.2356629"><ele>114.42857142857142</ele><time>2026-05-01T14:09:55Z</time></trkpt><trkpt lat="40.26573" lon="0.235673"><ele>115.14285714285714</ele><time>2026-05-01T14:09:56.999Z</time></trkpt><trkpt lat="40.26581" lon="0.2357111"><ele>115.85714285714286</ele><time>2026-05-01T14:10:00.999Z</time></trkpt><trkpt lat="40.2658866" lon="0.2357472"><ele>116.57142857142858</ele><time>2026-05-01T14:10:03.999Z</time></trkpt><trkpt lat="40.2659558" lon="0.2357776"><ele>117.28571428571428</ele><time>2026-05-01T14:10:06Z</time></trkpt><trkpt lat="40.2660216" lon="0.2358088"><ele>118.0</ele><time>2026-05-01T14:10:07.999Z</time></trkpt><trkpt lat="40.2660993" lon="0.2358453"><ele>118.00000000000001</ele><time>2026-05-01T14:10:10.999Z</time></trkpt><trkpt lat="40.2661611" lon="0.235876"><ele>118.0</ele><time>2026-05-01T14:10:14Z</time></trkpt><trkpt lat="40.266219" lon="0.2359089"><ele>118.0</ele><time>2026-05-01T14:10:18.999Z</time></trkpt><trkpt lat="40.2662786" lon="0.2359384"><ele>118.0</ele><time>2026-05-01T14:10:22.999Z</time></trkpt><trkpt lat="40.2663419" lon="0.2359521"><ele>118.00000000000001</ele><time>2026-05-01T14:13:13Z</time></trkpt><trkpt lat="40.2664398" lon="0.2359814"><ele>118.0</ele><time>2026-05-01T14:13:15Z</time></trkpt><trkpt lat="40.2665394" lon="0.2360203"><ele>116.75</ele><time>2026-05-01T14:13:16.999Z</time></trkpt><trkpt lat="40.2666535" lon="0.2360395"><ele>115.5</ele><time>2026-05-01T14:13:18.999Z</time></trkpt><trkpt lat="40.2667706" lon="0.2360666"><ele>114.25</ele><time>2026-05-01T14:13:20.999Z</time></trkpt><trkpt lat="40.2668864" lon="0.2360839"><ele>113.0</ele><time>2026-05-01T14:13:23Z</time></trkpt><trkpt lat="40.2669979" lon="0.2360958"><ele>112.99999999999999</ele><time>2026-05-01T14:13:25Z</time></trkpt><trkpt lat="40.2671176" lon="0.2361164"><ele>113.0</ele><time>2026-05-01T14:13:27Z</time></trkpt><trkpt lat="40.2671885" lon="0.2361278"><ele>113.0</ele><time>2026-05-01T14:13:27.999Z</time></trkpt><trkpt lat="40.2672605" lon="0.2361411"><ele>113.0</ele><time>2026-05-01T14:13:28.999Z</time></trkpt><trkpt lat="40.267353" lon="0.236142"><ele>112.99999999999999</ele><time>2026-05-01T14:13:30Z</time></trkpt><trkpt lat="40.2674352" lon="0.2361395"><ele>113.0</ele><time>2026-05-01T14:13:30.999Z</time></trkpt><trkpt lat="40.2675214" lon="0.2361202"><ele>112.4</ele><time>2026-05-01T14:13:31.999Z</time></trkpt><trkpt lat="40.2676124" lon="0.2360989"><ele>111.80000000000001</ele><time>2026-05-01T14:13:32.999Z</time></trkpt><trkpt lat="40.2677169" lon="0.2360787"><ele>111.2</ele><time>2026-05-01T14:13:33.999Z</time></trkpt><trkpt lat="40.2678257" lon="0.2360555"><ele>110.6</ele><time>2026-05-01T14:13:34.999Z</time></trkpt><trkpt lat="40.2679476" lon="0.2360399"><ele>110.0</ele><time>2026-05-01T14:13:36Z</time></trkpt><trkpt lat="40.2680656" lon="0.2360333"><ele>110.25</ele><time>2026-05-01T14:13:36.999Z</time></trkpt><trkpt lat="40.2681999" lon="0.2360168"><ele>110.5</ele><time>2026-05-01T14:13:37.999Z</time></trkpt><trkpt lat="40.2683312" lon="0.2360059"><ele>110.75</ele><time>2026-05-01T14:13:38.999Z</time></trkpt><trkpt lat="40.2684516" lon="0.2359835"><ele>111.0</ele><time>2026-05-01T14:13:39.999Z</time></trkpt><trkpt lat="40.2685672" lon="0.2359636"><ele>111.0</ele><time>2026-05-01T14:13:40.999Z</time></trkpt><trkpt lat="40.2686769" lon="0.2359468"><ele>111.0</ele><time>2026-05-01T14:13:41.999Z</time></trkpt><trkpt lat="40.2687923" lon="0.2359312"><ele>111.0</ele><time>2026-05-01T14:13:42.999Z</time></trkpt><trkpt lat="40.2689079" lon="0.2359141"><ele>111.0</ele><time>2026-05-01T14:13:44Z</time></trkpt><trkpt lat="40.2690218" lon="0.2358961"><ele>112.5</ele><time>2026-05-01T14:13:44.999Z</time></trkpt><trkpt lat="40.2691409" lon="0.2358781"><ele>114.0</ele><time>2026-05-01T14:13:45.999Z</time></trkpt><trkpt lat="40.269256" lon="0.235864"><ele>115.5</ele><time>2026-05-01T14:13:46.999Z</time></trkpt><trkpt lat="40.2693724" lon="0.2358405"><ele>117.0</ele><time>2026-05-01T14:13:47.999Z</time></trkpt><trkpt lat="40.2694883" lon="0.2358057"><ele>117.0</ele><time>2026-05-01T14:13:48.999Z</time></trkpt><trkpt lat="40.2696123" lon="0.235759"><ele>117.0</ele><time>2026-05-01T14:13:49.999Z</time></trkpt><trkpt lat="40.2697476" lon="0.2357054"><ele>117.0</ele><time>2026-05-01T14:13:50.999Z</time></trkpt><trkpt lat="40.2698818" lon="0.2356617"><ele>117.0</ele><time>2026-05-01T14:13:51.999Z</time></trkpt><trkpt lat="40.2700015" lon="0.2356396"><ele>119.75</ele><time>2026-05-01T14:13:52.999Z</time></trkpt><trkpt lat="40.2701372" lon="0.2356111"><ele>122.5</ele><time>2026-05-01T14:13:53.999Z</time></trkpt><trkpt lat="40.2702731" lon="0.2355848"><ele>125.25</ele><time>2026-05-01T14:13:54.999Z</time></trkpt><trkpt lat="40.2703922" lon="0.2355376"><ele>128.0</ele><time>2026-05-01T14:13:55.999Z</time></trkpt><trkpt lat="40.2705006" lon="0.235487"><ele>128.0</ele><time>2026-05-01T14:13:57Z</time></trkpt><trkpt lat="40.2705802" lon="0.235448"><ele>128.0</ele><time>2026-05-01T14:13:58Z</time></trkpt><trkpt lat="40.2706733" lon="0.2353905"><ele>128.0</ele><time>2026-05-01T14:13:58.999Z</time></trkpt><trkpt lat="40.2707475" lon="0.2353309"><ele>128.0</ele><time>2026-05-01T14:13:59.999Z</time></trkpt><trkpt lat="40.2708219" lon="0.2352535"><ele>128.0</ele><time>2026-05-01T14:14:00.999Z</time></trkpt><trkpt lat="40.2708972" lon="0.2352005"><ele>126.2</ele><time>2026-05-01T14:14:01.999Z</time></trkpt><trkpt lat="40.2709816" lon="0.2351327"><ele>124.4</ele><time>2026-05-01T14:14:02.999Z</time></trkpt><trkpt lat="40.2710672" lon="0.2350899"><ele>122.60000000000001</ele><time>2026-05-01T14:14:03.999Z</time></trkpt><trkpt lat="40.2711537" lon="0.2350496"><ele>120.80000000000001</ele><time>2026-05-01T14:14:04.999Z</time></trkpt><trkpt lat="40.2712426" lon="0.2350045"><ele>119.0</ele><time>2026-05-01T14:14:05.999Z</time></trkpt><trkpt lat="40.2713349" lon="0.2349457"><ele>119.0</ele><time>2026-05-01T14:14:07Z</time></trkpt><trkpt lat="40.2714233" lon="0.2348767"><ele>119.0</ele><time>2026-05-01T14:14:07.999Z</time></trkpt><trkpt lat="40.271513" lon="0.2348082"><ele>119.0</ele><time>2026-05-01T14:14:08.999Z</time></trkpt><trkpt lat="40.2715974" lon="0.2347392"><ele>119.0</ele><time>2026-05-01T14:14:10Z</time></trkpt><trkpt lat="40.2716886" lon="0.2346655"><ele>119.0</ele><time>2026-05-01T14:14:10.999Z</time></trkpt><trkpt lat="40.2717725" lon="0.2345973"><ele>116.99999999999999</ele><time>2026-05-01T14:14:11.999Z</time></trkpt><trkpt lat="40.2718548" lon="0.2345336"><ele>115.0</ele><time>2026-05-01T14:14:13Z</time></trkpt><trkpt lat="40.2719225" lon="0.2344843"><ele>113.0</ele><time>2026-05-01T14:14:14Z</time></trkpt><trkpt lat="40.2719806" lon="0.2344483"><ele>111.0</ele><time>2026-05-01T14:14:14.999Z</time></trkpt><trkpt lat="40.2720609" lon="0.2344321"><ele>108.99999999999999</ele><time>2026-05-01T14:14:16.999Z</time></trkpt><trkpt lat="40.2721283" lon="0.2344311"><ele>107.0</ele><time>2026-05-01T14:14:18.999Z</time></trkpt><trkpt lat="40.2722363" lon="0.2343741"><ele>106.6</ele><time>2026-05-01T14:14:20.999Z</time></trkpt><trkpt lat="40.2723296" lon="0.2343504"><ele>106.19999999999999</ele><time>2026-05-01T14:14:21.999Z</time></trkpt><trkpt lat="40.2724356" lon="0.2343157"><ele>105.8</ele><time>2026-05-01T14:14:23Z</time></trkpt><trkpt lat="40.2725364" lon="0.2342874"><ele>105.4</ele><time>2026-05-01T14:14:24Z</time></trkpt><trkpt lat="40.2726417" lon="0.2342503"><ele>105.0</ele><time>2026-05-01T14:14:25Z</time></trkpt><trkpt lat="40.2727422" lon="0.2342078"><ele>105.0</ele><time>2026-05-01T14:14:25.999Z</time></trkpt><trkpt lat="40.2728277" lon="0.2341539"><ele>105.0</ele><time>2026-05-01T14:14:26.999Z</time></trkpt><trkpt lat="40.2729028" lon="0.2340979"><ele>105.0</ele><time>2026-05-01T14:14:28Z</time></trkpt><trkpt lat="40.2729715" lon="0.2340354"><ele>105.0</ele><time>2026-05-01T14:14:28.999Z</time></trkpt><trkpt lat="40.2730441" lon="0.2339846"><ele>105.0</ele><time>2026-05-01T14:14:29.999Z</time></trkpt><trkpt lat="40.2731028" lon="0.2339467"><ele>105.0</ele><time>2026-05-01T14:14:31Z</time></trkpt><trkpt lat="40.2732378" lon="0.2339331"><ele>105.5</ele><time>2026-05-01T14:14:32.999Z</time></trkpt><trkpt lat="40.2733195" lon="0.2339287"><ele>106.0</ele><time>2026-05-01T14:14:33.999Z</time></trkpt><trkpt lat="40.273392" lon="0.2339203"><ele>106.5</ele><time>2026-05-01T14:14:34.999Z</time></trkpt><trkpt lat="40.273458" lon="0.2339036"><ele>107.0</ele><time>2026-05-01T14:14:35.999Z</time></trkpt><trkpt lat="40.2735428" lon="0.233807"><ele>107.5</ele><time>2026-05-01T14:14:38Z</time></trkpt><trkpt lat="40.2735761" lon="0.2337118"><ele>108.0</ele><time>2026-05-01T14:14:39Z</time></trkpt><trkpt lat="40.2736051" lon="0.2335811"><ele>108.0</ele><time>2026-05-01T14:14:40Z</time></trkpt><trkpt lat="40.2736306" lon="0.233438"><ele>108.0</ele><time>2026-05-01T14:14:40.999Z</time></trkpt><trkpt lat="40.2736627" lon="0.2332819"><ele>108.0</ele><time>2026-05-01T14:14:41.999Z</time></trkpt><trkpt lat="40.273698" lon="0.233115"><ele>108.0</ele><time>2026-05-01T14:14:43Z</time></trkpt><trkpt lat="40.2737374" lon="0.2329466"><ele>108.75</ele><time>2026-05-01T14:14:43.999Z</time></trkpt><trkpt lat="40.2737773" lon="0.2327734"><ele>109.5</ele><time>2026-05-01T14:14:45Z</time></trkpt><trkpt lat="40.2738253" lon="0.2326008"><ele>110.25</ele><time>2026-05-01T14:14:45.999Z</time></trkpt><trkpt lat="40.273878" lon="0.2324335"><ele>111.0</ele><time>2026-05-01T14:14:46.999Z</time></trkpt><trkpt lat="40.2739496" lon="0.232269"><ele>112.25</ele><time>2026-05-01T14:14:47.999Z</time></trkpt><trkpt lat="40.2740341" lon="0.2321148"><ele>113.5</ele><time>2026-05-01T14:14:48.999Z</time></trkpt><trkpt lat="40.2741262" lon="0.2319691"><ele>114.75</ele><time>2026-05-01T14:14:50Z</time></trkpt><trkpt lat="40.2742215" lon="0.2318296"><ele>116.0</ele><time>2026-05-01T14:14:51Z</time></trkpt><trkpt lat="40.2743303" lon="0.2316979"><ele>116.0</ele><time>2026-05-01T14:14:52Z</time></trkpt><trkpt lat="40.2744352" lon="0.2315632"><ele>116.0</ele><time>2026-05-01T14:14:52.999Z</time></trkpt><trkpt lat="40.274554" lon="0.2314083"><ele>116.0</ele><time>2026-05-01T14:14:54Z</time></trkpt><trkpt lat="40.2746693" lon="0.2312493"><ele>118.0</ele><time>2026-05-01T14:14:54.999Z</time></trkpt><trkpt lat="40.2747929" lon="0.2310843"><ele>120.0</ele><time>2026-05-01T14:14:55.999Z</time></trkpt><trkpt lat="40.2749184" lon="0.2309258"><ele>122.0</ele><time>2026-05-01T14:14:56.999Z</time></trkpt><trkpt lat="40.2750474" lon="0.2307569"><ele>121.33333333333333</ele><time>2026-05-01T14:14:58Z</time></trkpt><trkpt lat="40.2751786" lon="0.2305863"><ele>120.66666666666666</ele><time>2026-05-01T14:14:58.999Z</time></trkpt><trkpt lat="40.2753095" lon="0.2304203"><ele>120.0</ele><time>2026-05-01T14:14:59.999Z</time></trkpt><trkpt lat="40.2754406" lon="0.2302537"><ele>120.0</ele><time>2026-05-01T14:15:00.999Z</time></trkpt><trkpt lat="40.2755587" lon="0.2301039"><ele>120.0</ele><time>2026-05-01T14:15:01.999Z</time></trkpt><trkpt lat="40.2756823" lon="0.2299563"><ele>120.0</ele><time>2026-05-01T14:15:02.999Z</time></trkpt><trkpt lat="40.2758095" lon="0.229801"><ele>122.33333333333334</ele><time>2026-05-01T14:15:04Z</time></trkpt><trkpt lat="40.2759397" lon="0.2296346"><ele>124.66666666666667</ele><time>2026-05-01T14:15:04.999Z</time></trkpt><trkpt lat="40.276078" lon="0.2294621"><ele>127.0</ele><time>2026-05-01T14:15:06Z</time></trkpt><trkpt lat="40.2762025" lon="0.2292968"><ele>127.0</ele><time>2026-05-01T14:15:06.999Z</time></trkpt><trkpt lat="40.2763121" lon="0.2291592"><ele>127.0</ele><time>2026-05-01T14:15:08Z</time></trkpt><trkpt lat="40.2764145" lon="0.2290295"><ele>127.0</ele><time>2026-05-01T14:15:08.999Z</time></trkpt><trkpt lat="40.2765119" lon="0.2289175"><ele>127.0</ele><time>2026-05-01T14:15:10Z</time></trkpt><trkpt lat="40.2765717" lon="0.2288276"><ele>127.6</ele><time>2026-05-01T14:15:10.999Z</time></trkpt><trkpt lat="40.2766086" lon="0.2287277"><ele>128.2</ele><time>2026-05-01T14:15:12Z</time></trkpt><trkpt lat="40.2766261" lon="0.2286122"><ele>128.8</ele><time>2026-05-01T14:15:12.999Z</time></trkpt><trkpt lat="40.2766489" lon="0.2284745"><ele>129.4</ele><time>2026-05-01T14:15:13.999Z</time></trkpt><trkpt lat="40.2766931" lon="0.2283238"><ele>130.0</ele><time>2026-05-01T14:15:14.999Z</time></trkpt><trkpt lat="40.2767457" lon="0.2281701"><ele>129.66666666666669</ele><time>2026-05-01T14:15:16Z</time></trkpt><trkpt lat="40.2768155" lon="0.228001"><ele>129.33333333333334</ele><time>2026-05-01T14:15:17Z</time></trkpt><trkpt lat="40.2768958" lon="0.2278302"><ele>129.0</ele><time>2026-05-01T14:15:17.999Z</time></trkpt><trkpt lat="40.2769788" lon="0.2276545"><ele>129.0</ele><time>2026-05-01T14:15:18.999Z</time></trkpt><trkpt lat="40.2770647" lon="0.2274834"><ele>129.0</ele><time>2026-05-01T14:15:19.999Z</time></trkpt><trkpt lat="40.2771512" lon="0.227353"><ele>129.0</ele><time>2026-05-01T14:15:20.999Z</time></trkpt><trkpt lat="40.2772263" lon="0.2271999"><ele>129.0</ele><time>2026-05-01T14:15:21.999Z</time></trkpt><trkpt lat="40.2773005" lon="0.2270494"><ele>130.75</ele><time>2026-05-01T14:15:22.999Z</time></trkpt><trkpt lat="40.2773813" lon="0.2268945"><ele>132.5</ele><time>2026-05-01T14:15:23.999Z</time></trkpt><trkpt lat="40.2774616" lon="0.2267335"><ele>134.25</ele><time>2026-05-01T14:15:24.999Z</time></trkpt><trkpt lat="40.2775436" lon="0.2265611"><ele>136.0</ele><time>2026-05-01T14:15:25.999Z</time></trkpt><trkpt lat="40.2776315" lon="0.2263683"><ele>136.33333333333334</ele><time>2026-05-01T14:15:26.999Z</time></trkpt><trkpt lat="40.2777141" lon="0.2261769"><ele>136.66666666666666</ele><time>2026-05-01T14:15:28Z</time></trkpt><trkpt lat="40.2777904" lon="0.2259909"><ele>137.0</ele><time>2026-05-01T14:15:28.999Z</time></trkpt><trkpt lat="40.2778646" lon="0.2258211"><ele>137.0</ele><time>2026-05-01T14:15:29.999Z</time></trkpt><trkpt lat="40.2779314" lon="0.2256765"><ele>137.0</ele><time>2026-05-01T14:15:30.999Z</time></trkpt><trkpt lat="40.2780057" lon="0.2255341"><ele>137.0</ele><time>2026-05-01T14:15:32Z</time></trkpt><trkpt lat="40.278097" lon="0.2253938"><ele>137.0</ele><time>2026-05-01T14:15:32.999Z</time></trkpt><trkpt lat="40.2782131" lon="0.2252638"><ele>138.0</ele><time>2026-05-01T14:15:33.999Z</time></trkpt><trkpt lat="40.2783245" lon="0.2251376"><ele>139.0</ele><time>2026-05-01T14:15:35Z</time></trkpt><trkpt lat="40.2784537" lon="0.2250068"><ele>140.0</ele><time>2026-05-01T14:15:35.999Z</time></trkpt><trkpt lat="40.2785827" lon="0.2248698"><ele>141.0</ele><time>2026-05-01T14:15:37Z</time></trkpt><trkpt lat="40.2787113" lon="0.2247128"><ele>142.0</ele><time>2026-05-01T14:15:37.999Z</time></trkpt><trkpt lat="40.2788464" lon="0.2245545"><ele>143.0</ele><time>2026-05-01T14:15:39Z</time></trkpt><trkpt lat="40.278973" lon="0.2243946"><ele>143.0</ele><time>2026-05-01T14:15:40Z</time></trkpt><trkpt lat="40.2790988" lon="0.2242504"><ele>143.0</ele><time>2026-05-01T14:15:41Z</time></trkpt><trkpt lat="40.2792253" lon="0.2241068"><ele>143.0</ele><time>2026-05-01T14:15:41.999Z</time></trkpt><trkpt lat="40.279352" lon="0.2239708"><ele>145.0</ele><time>2026-05-01T14:15:43Z</time></trkpt><trkpt lat="40.2794798" lon="0.2238321"><ele>147.0</ele><time>2026-05-01T14:15:43.999Z</time></trkpt><trkpt lat="40.2796103" lon="0.2237011"><ele>149.0</ele><time>2026-05-01T14:15:45Z</time></trkpt><trkpt lat="40.2797374" lon="0.2235672"><ele>147.0</ele><time>2026-05-01T14:15:45.999Z</time></trkpt><trkpt lat="40.2798769" lon="0.2234463"><ele>145.0</ele><time>2026-05-01T14:15:46.999Z</time></trkpt><trkpt lat="40.2800147" lon="0.2233412"><ele>143.0</ele><time>2026-05-01T14:15:48Z</time></trkpt><trkpt lat="40.280154" lon="0.2232258"><ele>145.0</ele><time>2026-05-01T14:15:48.999Z</time></trkpt><trkpt lat="40.2802943" lon="0.2231099"><ele>147.0</ele><time>2026-05-01T14:15:50Z</time></trkpt><trkpt lat="40.2804316" lon="0.2229989"><ele>149.0</ele><time>2026-05-01T14:15:51Z</time></trkpt><trkpt lat="40.2805724" lon="0.2228898"><ele>148.0</ele><time>2026-05-01T14:15:51.999Z</time></trkpt><trkpt lat="40.2807149" lon="0.2227896"><ele>147.0</ele><time>2026-05-01T14:15:53Z</time></trkpt><trkpt lat="40.2808655" lon="0.2226858"><ele>146.0</ele><time>2026-05-01T14:15:53.999Z</time></trkpt><trkpt lat="40.2810121" lon="0.2225941"><ele>146.0</ele><time>2026-05-01T14:15:54.999Z</time></trkpt><trkpt lat="40.2811631" lon="0.2225003"><ele>146.0</ele><time>2026-05-01T14:15:55.999Z</time></trkpt><trkpt lat="40.2813206" lon="0.2224076"><ele>146.0</ele><time>2026-05-01T14:15:56.999Z</time></trkpt><trkpt lat="40.2814655" lon="0.2223196"><ele>146.5</ele><time>2026-05-01T14:15:58Z</time></trkpt><trkpt lat="40.281578" lon="0.2222308"><ele>147.0</ele><time>2026-05-01T14:15:58.999Z</time></trkpt><trkpt lat="40.2816856" lon="0.2221406"><ele>147.5</ele><time>2026-05-01T14:16:00Z</time></trkpt><trkpt lat="40.2817696" lon="0.2220511"><ele>148.0</ele><time>2026-05-01T14:16:00.999Z</time></trkpt><trkpt lat="40.2818256" lon="0.2219431"><ele>148.0</ele><time>2026-05-01T14:16:02Z</time></trkpt><trkpt lat="40.2818648" lon="0.2218328"><ele>148.0</ele><time>2026-05-01T14:16:02.999Z</time></trkpt><trkpt lat="40.281891" lon="0.2217253"><ele>148.0</ele><time>2026-05-01T14:16:04Z</time></trkpt><trkpt lat="40.2819333" lon="0.2216424"><ele>148.0</ele><time>2026-05-01T14:16:04.999Z</time></trkpt><trkpt lat="40.2819919" lon="0.2215869"><ele>148.0</ele><time>2026-05-01T14:16:05.999Z</time></trkpt><trkpt lat="40.2820607" lon="0.221545"><ele>148.0</ele><time>2026-05-01T14:16:06.999Z</time></trkpt><trkpt lat="40.2821315" lon="0.2214986"><ele>148.33333333333334</ele><time>2026-05-01T14:16:07.999Z</time></trkpt><trkpt lat="40.282191" lon="0.2214301"><ele>148.66666666666669</ele><time>2026-05-01T14:16:08.999Z</time></trkpt><trkpt lat="40.2822385" lon="0.221321"><ele>149.0</ele><time>2026-05-01T14:16:10Z</time></trkpt><trkpt lat="40.2822688" lon="0.2212114"><ele>149.33333333333334</ele><time>2026-05-01T14:16:11Z</time></trkpt><trkpt lat="40.2822705" lon="0.2211016"><ele>149.66666666666666</ele><time>2026-05-01T14:16:11.999Z</time></trkpt><trkpt lat="40.2822596" lon="0.2209882"><ele>150.0</ele><time>2026-05-01T14:16:12.999Z</time></trkpt><trkpt lat="40.2822553" lon="0.2208746"><ele>150.0</ele><time>2026-05-01T14:16:13.999Z</time></trkpt><trkpt lat="40.2822858" lon="0.2207589"><ele>150.0</ele><time>2026-05-01T14:16:14.999Z</time></trkpt><trkpt lat="40.2823468" lon="0.2206202"><ele>150.0</ele><time>2026-05-01T14:16:15.999Z</time></trkpt><trkpt lat="40.2823999" lon="0.2204863"><ele>150.0</ele><time>2026-05-01T14:16:17Z</time></trkpt><trkpt lat="40.2824595" lon="0.2203482"><ele>150.0</ele><time>2026-05-01T14:16:17.999Z</time></trkpt><trkpt lat="40.2825248" lon="0.2201984"><ele>150.0</ele><time>2026-05-01T14:16:19Z</time></trkpt><trkpt lat="40.2825968" lon="0.2200233"><ele>150.0</ele><time>2026-05-01T14:16:19.999Z</time></trkpt><trkpt lat="40.2826603" lon="0.2198477"><ele>150.0</ele><time>2026-05-01T14:16:20.999Z</time></trkpt><trkpt lat="40.2827258" lon="0.2196814"><ele>151.33333333333334</ele><time>2026-05-01T14:16:21.999Z</time></trkpt><trkpt lat="40.2827919" lon="0.2194995"><ele>152.66666666666669</ele><time>2026-05-01T14:16:22.999Z</time></trkpt><trkpt lat="40.282863" lon="0.219321"><ele>154.0</ele><time>2026-05-01T14:16:23.999Z</time></trkpt><trkpt lat="40.2829345" lon="0.2191406"><ele>154.66666666666669</ele><time>2026-05-01T14:16:25Z</time></trkpt><trkpt lat="40.2830074" lon="0.2189518"><ele>155.33333333333334</ele><time>2026-05-01T14:16:25.999Z</time></trkpt><trkpt lat="40.2830803" lon="0.2187508"><ele>156.0</ele><time>2026-05-01T14:16:27Z</time></trkpt><trkpt lat="40.2831587" lon="0.2185483"><ele>156.66666666666666</ele><time>2026-05-01T14:16:27.999Z</time></trkpt><trkpt lat="40.2832404" lon="0.2183462"><ele>157.33333333333331</ele><time>2026-05-01T14:16:28.999Z</time></trkpt><trkpt lat="40.2833265" lon="0.2181521"><ele>158.0</ele><time>2026-05-01T14:16:29.999Z</time></trkpt><trkpt lat="40.2834067" lon="0.2179614"><ele>159.33333333333331</ele><time>2026-05-01T14:16:30.999Z</time></trkpt><trkpt lat="40.283479" lon="0.2177808"><ele>160.66666666666666</ele><time>2026-05-01T14:16:32Z</time></trkpt><trkpt lat="40.2835517" lon="0.2176056"><ele>162.0</ele><time>2026-05-01T14:16:32.999Z</time></trkpt><trkpt lat="40.2836231" lon="0.2174352"><ele>162.0</ele><time>2026-05-01T14:16:33.999Z</time></trkpt><trkpt lat="40.2836917" lon="0.2172678"><ele>162.0</ele><time>2026-05-01T14:16:34.999Z</time></trkpt><trkpt lat="40.2837661" lon="0.2171142"><ele>162.0</ele><time>2026-05-01T14:16:35.999Z</time></trkpt><trkpt lat="40.2838477" lon="0.2169639"><ele>162.0</ele><time>2026-05-01T14:16:36.999Z</time></trkpt><trkpt lat="40.2839436" lon="0.2168004"><ele>162.5</ele><time>2026-05-01T14:16:37.999Z</time></trkpt><trkpt lat="40.2840363" lon="0.2166387"><ele>163.0</ele><time>2026-05-01T14:16:39Z</time></trkpt><trkpt lat="40.2841299" lon="0.2164765"><ele>163.5</ele><time>2026-05-01T14:16:40Z</time></trkpt><trkpt lat="40.2842167" lon="0.2163417"><ele>164.0</ele><time>2026-05-01T14:16:40.999Z</time></trkpt><trkpt lat="40.284301" lon="0.2161995"><ele>164.0</ele><time>2026-05-01T14:16:42Z</time></trkpt><trkpt lat="40.2843789" lon="0.2160511"><ele>164.0</ele><time>2026-05-01T14:16:42.999Z</time></trkpt><trkpt lat="40.2844447" lon="0.215888"><ele>164.0</ele><time>2026-05-01T14:16:43.999Z</time></trkpt><trkpt lat="40.2844993" lon="0.2157296"><ele>164.0</ele><time>2026-05-01T14:16:45Z</time></trkpt><trkpt lat="40.2845621" lon="0.2155721"><ele>164.6</ele><time>2026-05-01T14:16:46Z</time></trkpt><trkpt lat="40.2846226" lon="0.2154206"><ele>165.2</ele><time>2026-05-01T14:16:46.999Z</time></trkpt><trkpt lat="40.2846847" lon="0.2152733"><ele>165.79999999999998</ele><time>2026-05-01T14:16:47.999Z</time></trkpt><trkpt lat="40.2847279" lon="0.2151731"><ele>166.39999999999998</ele><time>2026-05-01T14:16:48.999Z</time></trkpt><trkpt lat="40.284777" lon="0.2150925"><ele>167.0</ele><time>2026-05-01T14:16:50.999Z</time></trkpt><trkpt lat="40.2848097" lon="0.21502"><ele>167.5</ele><time>2026-05-01T14:16:54.999Z</time></trkpt><trkpt lat="40.2848902" lon="0.2148801"><ele>168.0</ele><time>2026-05-01T14:16:57Z</time></trkpt><trkpt lat="40.2849595" lon="0.2147752"><ele>168.5</ele><time>2026-05-01T14:16:57.999Z</time></trkpt><trkpt lat="40.2850456" lon="0.2146553"><ele>169.0</ele><time>2026-05-01T14:16:59Z</time></trkpt><trkpt lat="40.285139" lon="0.2145268"><ele>169.0</ele><time>2026-05-01T14:16:59.999Z</time></trkpt><trkpt lat="40.2852332" lon="0.2143872"><ele>169.0</ele><time>2026-05-01T14:17:01Z</time></trkpt><trkpt lat="40.2853207" lon="0.2142367"><ele>169.0</ele><time>2026-05-01T14:17:01.999Z</time></trkpt><trkpt lat="40.2853896" lon="0.2140818"><ele>169.0</ele><time>2026-05-01T14:17:02.999Z</time></trkpt><trkpt lat="40.2854601" lon="0.2139371"><ele>169.0</ele><time>2026-05-01T14:17:03.999Z</time></trkpt><trkpt lat="40.2855183" lon="0.2138067"><ele>169.0</ele><time>2026-05-01T14:17:04.999Z</time></trkpt><trkpt lat="40.2855915" lon="0.213677"><ele>169.0</ele><time>2026-05-01T14:17:05.999Z</time></trkpt><trkpt lat="40.2856782" lon="0.2135378"><ele>169.0</ele><time>2026-05-01T14:17:07Z</time></trkpt><trkpt lat="40.2857722" lon="0.2133977"><ele>169.0</ele><time>2026-05-01T14:17:07.999Z</time></trkpt><trkpt lat="40.2858562" lon="0.2132713"><ele>169.0</ele><time>2026-05-01T14:17:09Z</time></trkpt><trkpt lat="40.2859326" lon="0.213156"><ele>169.0</ele><time>2026-05-01T14:17:09.999Z</time></trkpt><trkpt lat="40.2859964" lon="0.2130677"><ele>169.0</ele><time>2026-05-01T14:17:10.999Z</time></trkpt><trkpt lat="40.2860523" lon="0.2129949"><ele>169.0</ele><time>2026-05-01T14:17:12Z</time></trkpt><trkpt lat="40.2861159" lon="0.2129532"><ele>169.0</ele><time>2026-05-01T14:17:14Z</time></trkpt><trkpt lat="40.2862104" lon="0.2130219"><ele>169.0</ele><time>2026-05-01T14:17:15.999Z</time></trkpt><trkpt lat="40.2862709" lon="0.2131119"><ele>169.0</ele><time>2026-05-01T14:17:17Z</time></trkpt><trkpt lat="40.2863461" lon="0.2132208"><ele>169.0</ele><time>2026-05-01T14:17:18Z</time></trkpt><trkpt lat="40.2864448" lon="0.2133709"><ele>169.0</ele><time>2026-05-01T14:17:18.999Z</time></trkpt><trkpt lat="40.2865451" lon="0.2135077"><ele>169.0</ele><time>2026-05-01T14:17:19.999Z</time></trkpt><trkpt lat="40.2866595" lon="0.2136252"><ele>169.0</ele><time>2026-05-01T14:17:21Z</time></trkpt><trkpt lat="40.2867888" lon="0.2137382"><ele>169.0</ele><time>2026-05-01T14:17:22Z</time></trkpt><trkpt lat="40.2869318" lon="0.2138459"><ele>169.0</ele><time>2026-05-01T14:17:22.999Z</time></trkpt><trkpt lat="40.2870853" lon="0.2139344"><ele>169.0</ele><time>2026-05-01T14:17:24Z</time></trkpt><trkpt lat="40.2872347" lon="0.2140208"><ele>169.0</ele><time>2026-05-01T14:17:24.999Z</time></trkpt><trkpt lat="40.287389" lon="0.2141114"><ele>168.66666666666669</ele><time>2026-05-01T14:17:25.999Z</time></trkpt><trkpt lat="40.2875553" lon="0.2142011"><ele>168.33333333333334</ele><time>2026-05-01T14:17:27Z</time></trkpt><trkpt lat="40.2877227" lon="0.2142928"><ele>168.0</ele><time>2026-05-01T14:17:27.999Z</time></trkpt><trkpt lat="40.2878697" lon="0.2143857"><ele>168.0</ele><time>2026-05-01T14:17:28.999Z</time></trkpt><trkpt lat="40.2880223" lon="0.2144757"><ele>168.0</ele><time>2026-05-01T14:17:29.999Z</time></trkpt><trkpt lat="40.2881669" lon="0.2145658"><ele>168.0</ele><time>2026-05-01T14:17:31Z</time></trkpt><trkpt lat="40.2883045" lon="0.214668"><ele>168.0</ele><time>2026-05-01T14:17:31.999Z</time></trkpt><trkpt lat="40.2884372" lon="0.2147796"><ele>168.0</ele><time>2026-05-01T14:17:33Z</time></trkpt><trkpt lat="40.2885708" lon="0.2149089"><ele>168.0</ele><time>2026-05-01T14:17:33.999Z</time></trkpt><trkpt lat="40.2887031" lon="0.2150444"><ele>168.0</ele><time>2026-05-01T14:17:35Z</time></trkpt><trkpt lat="40.2888262" lon="0.2151899"><ele>168.0</ele><time>2026-05-01T14:17:35.999Z</time></trkpt><trkpt lat="40.288958" lon="0.2153191"><ele>168.0</ele><time>2026-05-01T14:17:37Z</time></trkpt><trkpt lat="40.2890946" lon="0.215442"><ele>168.0</ele><time>2026-05-01T14:17:37.999Z</time></trkpt><trkpt lat="40.2892285" lon="0.2155441"><ele>168.0</ele><time>2026-05-01T14:17:38.999Z</time></trkpt><trkpt lat="40.2893666" lon="0.215653"><ele>168.0</ele><time>2026-05-01T14:17:40Z</time></trkpt><trkpt lat="40.2895228" lon="0.2157658"><ele>168.0</ele><time>2026-05-01T14:17:40.999Z</time></trkpt><trkpt lat="40.2896816" lon="0.2158696"><ele>168.0</ele><time>2026-05-01T14:17:41.999Z</time></trkpt><trkpt lat="40.28985" lon="0.2159716"><ele>168.0</ele><time>2026-05-01T14:17:43Z</time></trkpt><trkpt lat="40.2900103" lon="0.2160688"><ele>168.0</ele><time>2026-05-01T14:17:43.999Z</time></trkpt><trkpt lat="40.2901746" lon="0.2161684"><ele>168.0</ele><time>2026-05-01T14:17:44.999Z</time></trkpt><trkpt lat="40.2903393" lon="0.2162657"><ele>168.0</ele><time>2026-05-01T14:17:45.999Z</time></trkpt><trkpt lat="40.2905092" lon="0.2163555"><ele>168.0</ele><time>2026-05-01T14:17:47Z</time></trkpt><trkpt lat="40.290667" lon="0.2164283"><ele>168.0</ele><time>2026-05-01T14:17:47.999Z</time></trkpt><trkpt lat="40.2908229" lon="0.2165095"><ele>168.0</ele><time>2026-05-01T14:17:49Z</time></trkpt><trkpt lat="40.2909553" lon="0.2165824"><ele>167.25</ele><time>2026-05-01T14:17:50Z</time></trkpt><trkpt lat="40.2910862" lon="0.2166492"><ele>166.5</ele><time>2026-05-01T14:17:51Z</time></trkpt><trkpt lat="40.2911977" lon="0.216711"><ele>165.75</ele><time>2026-05-01T14:17:52Z</time></trkpt><trkpt lat="40.291328" lon="0.2167353"><ele>165.0</ele><time>2026-05-01T14:17:53Z</time></trkpt><trkpt lat="40.2914814" lon="0.2167455"><ele>165.0</ele><time>2026-05-01T14:17:54Z</time></trkpt><trkpt lat="40.2916267" lon="0.2167576"><ele>165.0</ele><time>2026-05-01T14:17:55Z</time></trkpt><trkpt lat="40.2917718" lon="0.2167705"><ele>165.0</ele><time>2026-05-01T14:17:55.999Z</time></trkpt><trkpt lat="40.2919281" lon="0.2167945"><ele>165.0</ele><time>2026-05-01T14:17:56.999Z</time></trkpt><trkpt lat="40.2921044" lon="0.21683"><ele>163.33333333333334</ele><time>2026-05-01T14:17:57.999Z</time></trkpt><trkpt lat="40.2922658" lon="0.2169046"><ele>161.66666666666669</ele><time>2026-05-01T14:17:58.999Z</time></trkpt><trkpt lat="40.2924367" lon="0.2169959"><ele>160.0</ele><time>2026-05-01T14:18:00Z</time></trkpt><trkpt lat="40.2925966" lon="0.2171108"><ele>160.0</ele><time>2026-05-01T14:18:00.999Z</time></trkpt><trkpt lat="40.292745" lon="0.2172358"><ele>160.0</ele><time>2026-05-01T14:18:01.999Z</time></trkpt><trkpt lat="40.2928965" lon="0.2173709"><ele>160.0</ele><time>2026-05-01T14:18:02.999Z</time></trkpt><trkpt lat="40.2930408" lon="0.217549"><ele>160.66666666666669</ele><time>2026-05-01T14:18:03.999Z</time></trkpt><trkpt lat="40.2931889" lon="0.2177265"><ele>161.33333333333334</ele><time>2026-05-01T14:18:04.999Z</time></trkpt><trkpt lat="40.2933122" lon="0.217914"><ele>162.0</ele><time>2026-05-01T14:18:06Z</time></trkpt><trkpt lat="40.29345" lon="0.2180915"><ele>162.0</ele><time>2026-05-01T14:18:07Z</time></trkpt><trkpt lat="40.29359" lon="0.2182578"><ele>162.0</ele><time>2026-05-01T14:18:08Z</time></trkpt><trkpt lat="40.293723" lon="0.2184043"><ele>162.0</ele><time>2026-05-01T14:18:08.999Z</time></trkpt><trkpt lat="40.2938569" lon="0.2185441"><ele>162.0</ele><time>2026-05-01T14:18:09.999Z</time></trkpt><trkpt lat="40.2939982" lon="0.2186518"><ele>162.0</ele><time>2026-05-01T14:18:11Z</time></trkpt><trkpt lat="40.2941336" lon="0.2187479"><ele>162.0</ele><time>2026-05-01T14:18:12Z</time></trkpt><trkpt lat="40.2942673" lon="0.2188393"><ele>162.0</ele><time>2026-05-01T14:18:12.999Z</time></trkpt><trkpt lat="40.294407" lon="0.2189133"><ele>162.0</ele><time>2026-05-01T14:18:13.999Z</time></trkpt><trkpt lat="40.2945658" lon="0.2189795"><ele>162.0</ele><time>2026-05-01T14:18:14.999Z</time></trkpt><trkpt lat="40.2947174" lon="0.2190404"><ele>161.25</ele><time>2026-05-01T14:18:15.999Z</time></trkpt><trkpt lat="40.2948618" lon="0.2190917"><ele>160.5</ele><time>2026-05-01T14:18:16.999Z</time></trkpt><trkpt lat="40.295007" lon="0.2191391"><ele>159.75</ele><time>2026-05-01T14:18:17.999Z</time></trkpt><trkpt lat="40.2951507" lon="0.2191932"><ele>159.0</ele><time>2026-05-01T14:18:18.999Z</time></trkpt><trkpt lat="40.2952946" lon="0.2192545"><ele>159.0</ele><time>2026-05-01T14:18:19.999Z</time></trkpt><trkpt lat="40.2954379" lon="0.2192815"><ele>159.0</ele><time>2026-05-01T14:18:21Z</time></trkpt><trkpt lat="40.2955785" lon="0.219307"><ele>159.0</ele><time>2026-05-01T14:18:21.999Z</time></trkpt><trkpt lat="40.2957029" lon="0.2193131"><ele>159.0</ele><time>2026-05-01T14:18:23Z</time></trkpt><trkpt lat="40.2958189" lon="0.2193184"><ele>158.83333333333334</ele><time>2026-05-01T14:18:24Z</time></trkpt><trkpt lat="40.295916" lon="0.2193098"><ele>158.66666666666666</ele><time>2026-05-01T14:18:25Z</time></trkpt><trkpt lat="40.2960023" lon="0.2193234"><ele>158.5</ele><time>2026-05-01T14:18:25.999Z</time></trkpt><trkpt lat="40.2960771" lon="0.2193346"><ele>158.33333333333331</ele><time>2026-05-01T14:18:27Z</time></trkpt><trkpt lat="40.2961429" lon="0.2193514"><ele>158.16666666666666</ele><time>2026-05-01T14:18:27.999Z</time></trkpt><trkpt lat="40.2962005" lon="0.2193958"><ele>158.0</ele><time>2026-05-01T14:18:28.999Z</time></trkpt><trkpt lat="40.2962706" lon="0.2194608"><ele>158.0</ele><time>2026-05-01T14:18:30Z</time></trkpt><trkpt lat="40.2963396" lon="0.2195547"><ele>158.0</ele><time>2026-05-01T14:18:30.999Z</time></trkpt><trkpt lat="40.2964146" lon="0.2196636"><ele>158.0</ele><time>2026-05-01T14:18:32Z</time></trkpt><trkpt lat="40.2964825" lon="0.219763"><ele>158.0</ele><time>2026-05-01T14:18:32.999Z</time></trkpt><trkpt lat="40.2965485" lon="0.2198503"><ele>158.0</ele><time>2026-05-01T14:18:33.999Z</time></trkpt><trkpt lat="40.2966113" lon="0.2199165"><ele>157.5</ele><time>2026-05-01T14:18:35Z</time></trkpt><trkpt lat="40.2966792" lon="0.2199159"><ele>157.0</ele><time>2026-05-01T14:18:35.999Z</time></trkpt><trkpt lat="40.296744" lon="0.2198974"><ele>156.5</ele><time>2026-05-01T14:18:36.999Z</time></trkpt><trkpt lat="40.2968102" lon="0.2198212"><ele>156.0</ele><time>2026-05-01T14:18:37.999Z</time></trkpt><trkpt lat="40.2968772" lon="0.2197222"><ele>155.5</ele><time>2026-05-01T14:18:38.999Z</time></trkpt><trkpt lat="40.2969536" lon="0.2196192"><ele>155.0</ele><time>2026-05-01T14:18:40Z</time></trkpt><trkpt lat="40.2970368" lon="0.2195121"><ele>154.8</ele><time>2026-05-01T14:18:41Z</time></trkpt><trkpt lat="40.297117" lon="0.2194023"><ele>154.6</ele><time>2026-05-01T14:18:41.999Z</time></trkpt><trkpt lat="40.2971937" lon="0.2193019"><ele>154.4</ele><time>2026-05-01T14:18:42.999Z</time></trkpt><trkpt lat="40.2972645" lon="0.2192233"><ele>154.2</ele><time>2026-05-01T14:18:43.999Z</time></trkpt><trkpt lat="40.2973472" lon="0.2191727"><ele>154.0</ele><time>2026-05-01T14:18:44.999Z</time></trkpt><trkpt lat="40.2974296" lon="0.2191514"><ele>153.4</ele><time>2026-05-01T14:18:46Z</time></trkpt><trkpt lat="40.2974996" lon="0.2191706"><ele>152.8</ele><time>2026-05-01T14:18:46.999Z</time></trkpt><trkpt lat="40.2975673" lon="0.2192175"><ele>152.2</ele><time>2026-05-01T14:18:47.999Z</time></trkpt><trkpt lat="40.297634" lon="0.2193004"><ele>151.6</ele><time>2026-05-01T14:18:48.999Z</time></trkpt><trkpt lat="40.2976986" lon="0.2194142"><ele>151.0</ele><time>2026-05-01T14:18:49.999Z</time></trkpt><trkpt lat="40.2977715" lon="0.2195488"><ele>151.0</ele><time>2026-05-01T14:18:50.999Z</time></trkpt><trkpt lat="40.2978578" lon="0.2197061"><ele>151.0</ele><time>2026-05-01T14:18:52Z</time></trkpt><trkpt lat="40.2979522" lon="0.2198657"><ele>151.0</ele><time>2026-05-01T14:18:52.999Z</time></trkpt><trkpt lat="40.2980469" lon="0.2200295"><ele>152.0</ele><time>2026-05-01T14:18:53.999Z</time></trkpt><trkpt lat="40.2981391" lon="0.2201881"><ele>153.0</ele><time>2026-05-01T14:18:54.999Z</time></trkpt><trkpt lat="40.2982263" lon="0.2203476"><ele>154.0</ele><time>2026-05-01T14:18:55.999Z</time></trkpt><trkpt lat="40.2983111" lon="0.2204854"><ele>155.0</ele><time>2026-05-01T14:18:57Z</time></trkpt><trkpt lat="40.2983836" lon="0.2206128"><ele>154.83333333333331</ele><time>2026-05-01T14:18:57.999Z</time></trkpt><trkpt lat="40.2984452" lon="0.2207266"><ele>154.66666666666666</ele><time>2026-05-01T14:18:59Z</time></trkpt><trkpt lat="40.2984813" lon="0.2208039"><ele>154.5</ele><time>2026-05-01T14:18:59.999Z</time></trkpt><trkpt lat="40.2985176" lon="0.2208763"><ele>154.33333333333334</ele><time>2026-05-01T14:19:00.999Z</time></trkpt><trkpt lat="40.2985639" lon="0.2209595"><ele>154.16666666666669</ele><time>2026-05-01T14:19:02.999Z</time></trkpt><trkpt lat="40.2986204" lon="0.2210643"><ele>154.0</ele><time>2026-05-01T14:20:04.999Z</time></trkpt><trkpt lat="40.2986654" lon="0.2211433"><ele>154.0</ele><time>2026-05-01T14:20:06Z</time></trkpt><trkpt lat="40.2987408" lon="0.2212544"><ele>154.0</ele><time>2026-05-01T14:20:06.999Z</time></trkpt><trkpt lat="40.2988291" lon="0.2214019"><ele>154.0</ele><time>2026-05-01T14:20:07.999Z</time></trkpt><trkpt lat="40.298925" lon="0.2215557"><ele>154.0</ele><time>2026-05-01T14:20:09Z</time></trkpt><trkpt lat="40.2990272" lon="0.2217186"><ele>154.0</ele><time>2026-05-01T14:20:09.999Z</time></trkpt><trkpt lat="40.2991359" lon="0.2219041"><ele>154.0</ele><time>2026-05-01T14:20:10.999Z</time></trkpt><trkpt lat="40.2992368" lon="0.2220934"><ele>154.0</ele><time>2026-05-01T14:20:11.999Z</time></trkpt><trkpt lat="40.2993511" lon="0.2222913"><ele>153.0</ele><time>2026-05-01T14:20:12.999Z</time></trkpt><trkpt lat="40.2994682" lon="0.2224886"><ele>152.0</ele><time>2026-05-01T14:20:13.999Z</time></trkpt><trkpt lat="40.2995917" lon="0.222686"><ele>151.0</ele><time>2026-05-01T14:20:14.999Z</time></trkpt><trkpt lat="40.2997068" lon="0.2228967"><ele>151.33333333333334</ele><time>2026-05-01T14:20:16Z</time></trkpt><trkpt lat="40.2998168" lon="0.2230835"><ele>151.66666666666666</ele><time>2026-05-01T14:20:16.999Z</time></trkpt><trkpt lat="40.2999275" lon="0.2232715"><ele>152.0</ele><time>2026-05-01T14:20:17.999Z</time></trkpt><trkpt lat="40.3000321" lon="0.2234486"><ele>152.0</ele><time>2026-05-01T14:20:19Z</time></trkpt><trkpt lat="40.3001331" lon="0.2236209"><ele>152.0</ele><time>2026-05-01T14:20:19.999Z</time></trkpt><trkpt lat="40.3002308" lon="0.223787"><ele>152.0</ele><time>2026-05-01T14:20:20.999Z</time></trkpt><trkpt lat="40.3003299" lon="0.223946"><ele>152.25</ele><time>2026-05-01T14:20:21.999Z</time></trkpt><trkpt lat="40.300422" lon="0.2241086"><ele>152.5</ele><time>2026-05-01T14:20:22.999Z</time></trkpt><trkpt lat="40.300508" lon="0.2242577"><ele>152.75</ele><time>2026-05-01T14:20:24Z</time></trkpt><trkpt lat="40.3005902" lon="0.224405"><ele>153.0</ele><time>2026-05-01T14:20:24.999Z</time></trkpt><trkpt lat="40.3006602" lon="0.2245431"><ele>153.0</ele><time>2026-05-01T14:20:25.999Z</time></trkpt><trkpt lat="40.3007328" lon="0.2246766"><ele>153.0</ele><time>2026-05-01T14:20:27Z</time></trkpt><trkpt lat="40.3007925" lon="0.2247876"><ele>153.0</ele><time>2026-05-01T14:20:28Z</time></trkpt><trkpt lat="40.3008405" lon="0.2249145"><ele>153.0</ele><time>2026-05-01T14:20:28.999Z</time></trkpt><trkpt lat="40.3008943" lon="0.2250324"><ele>153.0</ele><time>2026-05-01T14:20:30Z</time></trkpt><trkpt lat="40.3009441" lon="0.2251321"><ele>152.8</ele><time>2026-05-01T14:20:31Z</time></trkpt><trkpt lat="40.3009655" lon="0.2252183"><ele>152.60000000000002</ele><time>2026-05-01T14:20:32Z</time></trkpt><trkpt lat="40.3009753" lon="0.2253012"><ele>152.39999999999998</ele><time>2026-05-01T14:20:32.999Z</time></trkpt><trkpt lat="40.3009226" lon="0.2254281"><ele>152.2</ele><time>2026-05-01T14:20:34.999Z</time></trkpt><trkpt lat="40.3009317" lon="0.2255825"><ele>152.0</ele><time>2026-05-01T14:20:37Z</time></trkpt><trkpt lat="40.3010357" lon="0.2256183"><ele>152.0</ele><time>2026-05-01T14:20:38.999Z</time></trkpt><trkpt lat="40.3011015" lon="0.2255838"><ele>152.0</ele><time>2026-05-01T14:20:39.999Z</time></trkpt><trkpt lat="40.3011594" lon="0.225516"><ele>152.0</ele><time>2026-05-01T14:20:40.999Z</time></trkpt><trkpt lat="40.3012243" lon="0.2254437"><ele>152.0</ele><time>2026-05-01T14:20:42Z</time></trkpt><trkpt lat="40.3012977" lon="0.2253493"><ele>152.0</ele><time>2026-05-01T14:20:42.999Z</time></trkpt><trkpt lat="40.301379" lon="0.2252636"><ele>152.0</ele><time>2026-05-01T14:20:43.999Z</time></trkpt><trkpt lat="40.3014768" lon="0.2251875"><ele>152.25</ele><time>2026-05-01T14:20:45Z</time></trkpt><trkpt lat="40.3015715" lon="0.2251337"><ele>152.5</ele><time>2026-05-01T14:20:45.999Z</time></trkpt><trkpt lat="40.301676" lon="0.2250726"><ele>152.75</ele><time>2026-05-01T14:20:46.999Z</time></trkpt><trkpt lat="40.3017866" lon="0.2250137"><ele>153.0</ele><time>2026-05-01T14:20:47.999Z</time></trkpt><trkpt lat="40.3019072" lon="0.2249595"><ele>153.0</ele><time>2026-05-01T14:20:49Z</time></trkpt><trkpt lat="40.3020351" lon="0.2248982"><ele>153.0</ele><time>2026-05-01T14:20:50Z</time></trkpt><trkpt lat="40.3021623" lon="0.2248404"><ele>153.0</ele><time>2026-05-01T14:20:51Z</time></trkpt><trkpt lat="40.3022868" lon="0.224795"><ele>153.0</ele><time>2026-05-01T14:20:51.999Z</time></trkpt><trkpt lat="40.3023995" lon="0.2247491"><ele>153.8</ele><time>2026-05-01T14:20:52.999Z</time></trkpt><trkpt lat="40.3025003" lon="0.2247124"><ele>154.60000000000002</ele><time>2026-05-01T14:20:53.999Z</time></trkpt><trkpt lat="40.3026009" lon="0.2246711"><ele>155.39999999999998</ele><time>2026-05-01T14:20:55Z</time></trkpt><trkpt lat="40.3026911" lon="0.2246178"><ele>156.2</ele><time>2026-05-01T14:20:56Z</time></trkpt><trkpt lat="40.3027887" lon="0.2245627"><ele>157.0</ele><time>2026-05-01T14:20:56.999Z</time></trkpt><trkpt lat="40.302887" lon="0.2245249"><ele>157.0</ele><time>2026-05-01T14:20:57.999Z</time></trkpt><trkpt lat="40.302975" lon="0.2244801"><ele>157.0</ele><time>2026-05-01T14:20:58.999Z</time></trkpt><trkpt lat="40.303046" lon="0.2244376"><ele>157.0</ele><time>2026-05-01T14:20:59.999Z</time></trkpt><trkpt lat="40.3031198" lon="0.2243979"><ele>157.0</ele><time>2026-05-01T14:21:00.999Z</time></trkpt><trkpt lat="40.3032209" lon="0.224346"><ele>157.0</ele><time>2026-05-01T14:21:02.999Z</time></trkpt><trkpt lat="40.3033163" lon="0.2243619"><ele>157.4</ele><time>2026-05-01T14:21:05Z</time></trkpt><trkpt lat="40.3033744" lon="0.2244845"><ele>157.79999999999998</ele><time>2026-05-01T14:21:06.999Z</time></trkpt><trkpt lat="40.3034012" lon="0.2245914"><ele>158.2</ele><time>2026-05-01T14:21:07.999Z</time></trkpt><trkpt lat="40.303426" lon="0.224701"><ele>158.6</ele><time>2026-05-01T14:21:08.999Z</time></trkpt><trkpt lat="40.3034662" lon="0.2248164"><ele>159.0</ele><time>2026-05-01T14:21:10Z</time></trkpt><trkpt lat="40.3035061" lon="0.2249296"><ele>159.0</ele><time>2026-05-01T14:21:10.999Z</time></trkpt><trkpt lat="40.3035439" lon="0.2250178"><ele>159.0</ele><time>2026-05-01T14:21:11.999Z</time></trkpt><trkpt lat="40.303577" lon="0.2251239"><ele>159.0</ele><time>2026-05-01T14:21:13Z</time></trkpt><trkpt lat="40.303598" lon="0.2252318"><ele>159.0</ele><time>2026-05-01T14:21:13.999Z</time></trkpt><trkpt lat="40.3036044" lon="0.2253284"><ele>159.0</ele><time>2026-05-01T14:21:14.999Z</time></trkpt><trkpt lat="40.3036171" lon="0.2254224"><ele>159.0</ele><time>2026-05-01T14:21:16Z</time></trkpt><trkpt lat="40.3036524" lon="0.2255835"><ele>158.33333333333334</ele><time>2026-05-01T14:21:17.999Z</time></trkpt><trkpt lat="40.3036773" lon="0.2256633"><ele>157.66666666666666</ele><time>2026-05-01T14:21:19Z</time></trkpt><trkpt lat="40.3037413" lon="0.2256925"><ele>157.0</ele><time>2026-05-01T14:21:19.999Z</time></trkpt><trkpt lat="40.3038296" lon="0.2257744"><ele>156.33333333333331</ele><time>2026-05-01T14:21:21.999Z</time></trkpt><trkpt lat="40.3038809" lon="0.2258411"><ele>155.66666666666666</ele><time>2026-05-01T14:21:23.999Z</time></trkpt><trkpt lat="40.3038173" lon="0.2259702"><ele>155.0</ele><time>2026-05-01T14:21:25.999Z</time></trkpt><trkpt lat="40.3037559" lon="0.2260646"><ele>155.0</ele><time>2026-05-01T14:21:26.999Z</time></trkpt><trkpt lat="40.3036779" lon="0.2261648"><ele>155.0</ele><time>2026-05-01T14:21:27.999Z</time></trkpt><trkpt lat="40.3036148" lon="0.2262599"><ele>155.0</ele><time>2026-05-01T14:21:28.999Z</time></trkpt><trkpt lat="40.3035519" lon="0.2263267"><ele>155.0</ele><time>2026-05-01T14:21:29.999Z</time></trkpt><trkpt lat="40.3035122" lon="0.2263947"><ele>155.0</ele><time>2026-05-01T14:21:30.999Z</time></trkpt><trkpt lat="40.3034427" lon="0.2265178"><ele>154.0</ele><time>2026-05-01T14:21:32.999Z</time></trkpt><trkpt lat="40.3033532" lon="0.2264505"><ele>155.0</ele><time>2026-05-01T14:21:36Z</time></trkpt><trkpt lat="40.303272" lon="0.226348"><ele>155.0</ele><time>2026-05-01T14:21:37.999Z</time></trkpt><trkpt lat="40.3032501" lon="0.2262599"><ele>155.0</ele><time>2026-05-01T14:21:42Z</time></trkpt></trkseg></trk></gpx>